<?xml version="1.0" encoding="UTF-8"?>
<gpx creator="StravaGPX Android" version="1.1" xmlns="http://www.topografix.com/GPX/1/1" xmlns:xsi="http://www.w3.org/2001/XMLSchema-instance" xsi:schemaLocation="http://www.topografix.com/GPX/1/1 http://www.topografix.com/GPX/1/1/gpx.xsd">
 <metadata>
  <time>2018-01-28T03:08:13Z</time>
 </metadata>
 <trk>
  <name>Kaeng krachan January 208 Sunday bike hash</name>
  <trkseg>
   <trkpt lat="12.8991080" lon="99.6801090">
    <ele>107.4</ele>
    <time>2018-01-28T03:08:13Z</time>
   </trkpt>
   <trkpt lat="12.8991800" lon="99.6800360">
    <ele>107.5</ele>
    <time>2018-01-28T03:08:15Z</time>
   </trkpt>
   <trkpt lat="12.8992110" lon="99.6800560">
    <ele>107.5</ele>
    <time>2018-01-28T03:08:17Z</time>
   </trkpt>
   <trkpt lat="12.8992480" lon="99.6800590">
    <ele>107.5</ele>
    <time>2018-01-28T03:08:19Z</time>
   </trkpt>
   <trkpt lat="12.8992500" lon="99.6801100">
    <ele>107.7</ele>
    <time>2018-01-28T03:08:20Z</time>
   </trkpt>
   <trkpt lat="12.8992350" lon="99.6802050">
    <ele>108.4</ele>
    <time>2018-01-28T03:09:50Z</time>
   </trkpt>
   <trkpt lat="12.8992130" lon="99.6802220">
    <ele>108.4</ele>
    <time>2018-01-28T03:09:52Z</time>
   </trkpt>
   <trkpt lat="12.8992130" lon="99.6802500">
    <ele>108.7</ele>
    <time>2018-01-28T03:09:54Z</time>
   </trkpt>
   <trkpt lat="12.8992270" lon="99.6802870">
    <ele>109.0</ele>
    <time>2018-01-28T03:09:55Z</time>
   </trkpt>
   <trkpt lat="12.8992490" lon="99.6803290">
    <ele>109.4</ele>
    <time>2018-01-28T03:09:56Z</time>
   </trkpt>
   <trkpt lat="12.8992730" lon="99.6803720">
    <ele>109.6</ele>
    <time>2018-01-28T03:09:57Z</time>
   </trkpt>
   <trkpt lat="12.8993030" lon="99.6804150">
    <ele>109.8</ele>
    <time>2018-01-28T03:09:58Z</time>
   </trkpt>
   <trkpt lat="12.8993380" lon="99.6804560">
    <ele>109.8</ele>
    <time>2018-01-28T03:09:59Z</time>
   </trkpt>
   <trkpt lat="12.8993940" lon="99.6805130">
    <ele>109.8</ele>
    <time>2018-01-28T03:10:00Z</time>
   </trkpt>
   <trkpt lat="12.8994360" lon="99.6805640">
    <ele>109.5</ele>
    <time>2018-01-28T03:10:01Z</time>
   </trkpt>
   <trkpt lat="12.8994820" lon="99.6806050">
    <ele>109.2</ele>
    <time>2018-01-28T03:10:02Z</time>
   </trkpt>
   <trkpt lat="12.8995350" lon="99.6806340">
    <ele>108.9</ele>
    <time>2018-01-28T03:10:03Z</time>
   </trkpt>
   <trkpt lat="12.8995860" lon="99.6806550">
    <ele>108.7</ele>
    <time>2018-01-28T03:10:04Z</time>
   </trkpt>
   <trkpt lat="12.8996310" lon="99.6806740">
    <ele>108.5</ele>
    <time>2018-01-28T03:10:05Z</time>
   </trkpt>
   <trkpt lat="12.8996730" lon="99.6806950">
    <ele>108.1</ele>
    <time>2018-01-28T03:10:06Z</time>
   </trkpt>
   <trkpt lat="12.8997230" lon="99.6806990">
    <ele>107.9</ele>
    <time>2018-01-28T03:10:07Z</time>
   </trkpt>
   <trkpt lat="12.8997700" lon="99.6806940">
    <ele>107.8</ele>
    <time>2018-01-28T03:10:08Z</time>
   </trkpt>
   <trkpt lat="12.8998320" lon="99.6806880">
    <ele>107.8</ele>
    <time>2018-01-28T03:10:09Z</time>
   </trkpt>
   <trkpt lat="12.8998830" lon="99.6806800">
    <ele>107.9</ele>
    <time>2018-01-28T03:10:10Z</time>
   </trkpt>
   <trkpt lat="12.8999270" lon="99.6806670">
    <ele>107.9</ele>
    <time>2018-01-28T03:10:11Z</time>
   </trkpt>
   <trkpt lat="12.8999750" lon="99.6806560">
    <ele>108.0</ele>
    <time>2018-01-28T03:10:12Z</time>
   </trkpt>
   <trkpt lat="12.9000230" lon="99.6806450">
    <ele>108.0</ele>
    <time>2018-01-28T03:10:13Z</time>
   </trkpt>
   <trkpt lat="12.9000650" lon="99.6806310">
    <ele>108.0</ele>
    <time>2018-01-28T03:10:14Z</time>
   </trkpt>
   <trkpt lat="12.9000650" lon="99.6805610">
    <ele>108.0</ele>
    <time>2018-01-28T03:10:15Z</time>
   </trkpt>
   <trkpt lat="12.9000490" lon="99.6805070">
    <ele>108.0</ele>
    <time>2018-01-28T03:10:16Z</time>
   </trkpt>
   <trkpt lat="12.9000350" lon="99.6804470">
    <ele>108.0</ele>
    <time>2018-01-28T03:10:17Z</time>
   </trkpt>
   <trkpt lat="12.9000170" lon="99.6803890">
    <ele>108.0</ele>
    <time>2018-01-28T03:10:18Z</time>
   </trkpt>
   <trkpt lat="12.9000010" lon="99.6803300">
    <ele>108.0</ele>
    <time>2018-01-28T03:10:19Z</time>
   </trkpt>
   <trkpt lat="12.8999830" lon="99.6802710">
    <ele>108.0</ele>
    <time>2018-01-28T03:10:20Z</time>
   </trkpt>
   <trkpt lat="12.8999660" lon="99.6802160">
    <ele>108.0</ele>
    <time>2018-01-28T03:10:21Z</time>
   </trkpt>
   <trkpt lat="12.8999580" lon="99.6801590">
    <ele>108.0</ele>
    <time>2018-01-28T03:10:22Z</time>
   </trkpt>
   <trkpt lat="12.8999460" lon="99.6801010">
    <ele>108.0</ele>
    <time>2018-01-28T03:10:23Z</time>
   </trkpt>
   <trkpt lat="12.8999330" lon="99.6800460">
    <ele>108.0</ele>
    <time>2018-01-28T03:10:24Z</time>
   </trkpt>
   <trkpt lat="12.8999260" lon="99.6799890">
    <ele>108.0</ele>
    <time>2018-01-28T03:10:25Z</time>
   </trkpt>
   <trkpt lat="12.8999200" lon="99.6799310">
    <ele>108.0</ele>
    <time>2018-01-28T03:10:26Z</time>
   </trkpt>
   <trkpt lat="12.8999170" lon="99.6798800">
    <ele>108.0</ele>
    <time>2018-01-28T03:10:27Z</time>
   </trkpt>
   <trkpt lat="12.8999150" lon="99.6798260">
    <ele>108.0</ele>
    <time>2018-01-28T03:10:28Z</time>
   </trkpt>
   <trkpt lat="12.8999200" lon="99.6797760">
    <ele>108.0</ele>
    <time>2018-01-28T03:10:29Z</time>
   </trkpt>
   <trkpt lat="12.8999280" lon="99.6797320">
    <ele>108.0</ele>
    <time>2018-01-28T03:10:30Z</time>
   </trkpt>
   <trkpt lat="12.8999250" lon="99.6796850">
    <ele>108.1</ele>
    <time>2018-01-28T03:10:31Z</time>
   </trkpt>
   <trkpt lat="12.8999240" lon="99.6796480">
    <ele>108.1</ele>
    <time>2018-01-28T03:10:32Z</time>
   </trkpt>
   <trkpt lat="12.8999250" lon="99.6796050">
    <ele>108.1</ele>
    <time>2018-01-28T03:10:33Z</time>
   </trkpt>
   <trkpt lat="12.8999180" lon="99.6795620">
    <ele>108.1</ele>
    <time>2018-01-28T03:10:34Z</time>
   </trkpt>
   <trkpt lat="12.8999080" lon="99.6795190">
    <ele>108.1</ele>
    <time>2018-01-28T03:10:35Z</time>
   </trkpt>
   <trkpt lat="12.8999000" lon="99.6794770">
    <ele>108.2</ele>
    <time>2018-01-28T03:10:36Z</time>
   </trkpt>
   <trkpt lat="12.8998960" lon="99.6794380">
    <ele>108.2</ele>
    <time>2018-01-28T03:10:37Z</time>
   </trkpt>
   <trkpt lat="12.8998950" lon="99.6793960">
    <ele>108.2</ele>
    <time>2018-01-28T03:10:38Z</time>
   </trkpt>
   <trkpt lat="12.8998940" lon="99.6793490">
    <ele>108.3</ele>
    <time>2018-01-28T03:10:39Z</time>
   </trkpt>
   <trkpt lat="12.8998930" lon="99.6793050">
    <ele>108.5</ele>
    <time>2018-01-28T03:10:40Z</time>
   </trkpt>
   <trkpt lat="12.8998880" lon="99.6792640">
    <ele>108.6</ele>
    <time>2018-01-28T03:10:41Z</time>
   </trkpt>
   <trkpt lat="12.8998850" lon="99.6792240">
    <ele>108.7</ele>
    <time>2018-01-28T03:10:42Z</time>
   </trkpt>
   <trkpt lat="12.8998820" lon="99.6791820">
    <ele>108.9</ele>
    <time>2018-01-28T03:10:43Z</time>
   </trkpt>
   <trkpt lat="12.8998780" lon="99.6791390">
    <ele>109.0</ele>
    <time>2018-01-28T03:10:44Z</time>
   </trkpt>
   <trkpt lat="12.8998730" lon="99.6790970">
    <ele>109.2</ele>
    <time>2018-01-28T03:10:45Z</time>
   </trkpt>
   <trkpt lat="12.8998670" lon="99.6790560">
    <ele>109.4</ele>
    <time>2018-01-28T03:10:46Z</time>
   </trkpt>
   <trkpt lat="12.8998620" lon="99.6790150">
    <ele>109.6</ele>
    <time>2018-01-28T03:10:47Z</time>
   </trkpt>
   <trkpt lat="12.8998590" lon="99.6789720">
    <ele>109.8</ele>
    <time>2018-01-28T03:10:48Z</time>
   </trkpt>
   <trkpt lat="12.8998550" lon="99.6789300">
    <ele>110.0</ele>
    <time>2018-01-28T03:10:49Z</time>
   </trkpt>
   <trkpt lat="12.8998510" lon="99.6788900">
    <ele>110.2</ele>
    <time>2018-01-28T03:10:50Z</time>
   </trkpt>
   <trkpt lat="12.8998430" lon="99.6788490">
    <ele>110.3</ele>
    <time>2018-01-28T03:10:51Z</time>
   </trkpt>
   <trkpt lat="12.8998350" lon="99.6788100">
    <ele>110.5</ele>
    <time>2018-01-28T03:10:52Z</time>
   </trkpt>
   <trkpt lat="12.8998240" lon="99.6787600">
    <ele>110.9</ele>
    <time>2018-01-28T03:10:53Z</time>
   </trkpt>
   <trkpt lat="12.8998130" lon="99.6787140">
    <ele>111.2</ele>
    <time>2018-01-28T03:10:54Z</time>
   </trkpt>
   <trkpt lat="12.8997960" lon="99.6786630">
    <ele>111.7</ele>
    <time>2018-01-28T03:10:55Z</time>
   </trkpt>
   <trkpt lat="12.8997620" lon="99.6786230">
    <ele>112.1</ele>
    <time>2018-01-28T03:10:56Z</time>
   </trkpt>
   <trkpt lat="12.8997480" lon="99.6785830">
    <ele>112.4</ele>
    <time>2018-01-28T03:10:57Z</time>
   </trkpt>
   <trkpt lat="12.8997260" lon="99.6785430">
    <ele>112.8</ele>
    <time>2018-01-28T03:10:58Z</time>
   </trkpt>
   <trkpt lat="12.8997060" lon="99.6785030">
    <ele>113.1</ele>
    <time>2018-01-28T03:10:59Z</time>
   </trkpt>
   <trkpt lat="12.8996980" lon="99.6784660">
    <ele>113.4</ele>
    <time>2018-01-28T03:11:00Z</time>
   </trkpt>
   <trkpt lat="12.8996840" lon="99.6784180">
    <ele>113.7</ele>
    <time>2018-01-28T03:11:01Z</time>
   </trkpt>
   <trkpt lat="12.8996560" lon="99.6783790">
    <ele>114.0</ele>
    <time>2018-01-28T03:11:02Z</time>
   </trkpt>
   <trkpt lat="12.8996330" lon="99.6783440">
    <ele>114.2</ele>
    <time>2018-01-28T03:11:03Z</time>
   </trkpt>
   <trkpt lat="12.8996030" lon="99.6783050">
    <ele>114.4</ele>
    <time>2018-01-28T03:11:04Z</time>
   </trkpt>
   <trkpt lat="12.8995800" lon="99.6782660">
    <ele>114.6</ele>
    <time>2018-01-28T03:11:05Z</time>
   </trkpt>
   <trkpt lat="12.8995690" lon="99.6782300">
    <ele>114.7</ele>
    <time>2018-01-28T03:11:06Z</time>
   </trkpt>
   <trkpt lat="12.8995520" lon="99.6781940">
    <ele>114.9</ele>
    <time>2018-01-28T03:11:07Z</time>
   </trkpt>
   <trkpt lat="12.8995410" lon="99.6781460">
    <ele>115.0</ele>
    <time>2018-01-28T03:11:08Z</time>
   </trkpt>
   <trkpt lat="12.8995380" lon="99.6781030">
    <ele>115.0</ele>
    <time>2018-01-28T03:11:09Z</time>
   </trkpt>
   <trkpt lat="12.8995370" lon="99.6780570">
    <ele>115.0</ele>
    <time>2018-01-28T03:11:10Z</time>
   </trkpt>
   <trkpt lat="12.8995510" lon="99.6780140">
    <ele>115.0</ele>
    <time>2018-01-28T03:11:11Z</time>
   </trkpt>
   <trkpt lat="12.8995500" lon="99.6779760">
    <ele>115.3</ele>
    <time>2018-01-28T03:11:12Z</time>
   </trkpt>
   <trkpt lat="12.8995510" lon="99.6779410">
    <ele>115.6</ele>
    <time>2018-01-28T03:11:13Z</time>
   </trkpt>
   <trkpt lat="12.8995570" lon="99.6779040">
    <ele>115.8</ele>
    <time>2018-01-28T03:11:14Z</time>
   </trkpt>
   <trkpt lat="12.8995620" lon="99.6778730">
    <ele>116.0</ele>
    <time>2018-01-28T03:11:15Z</time>
   </trkpt>
   <trkpt lat="12.8995880" lon="99.6778400">
    <ele>115.9</ele>
    <time>2018-01-28T03:11:17Z</time>
   </trkpt>
   <trkpt lat="12.8996210" lon="99.6778180">
    <ele>116.0</ele>
    <time>2018-01-28T03:11:18Z</time>
   </trkpt>
   <trkpt lat="12.8996500" lon="99.6778100">
    <ele>116.2</ele>
    <time>2018-01-28T03:11:19Z</time>
   </trkpt>
   <trkpt lat="12.8996780" lon="99.6778120">
    <ele>116.6</ele>
    <time>2018-01-28T03:11:20Z</time>
   </trkpt>
   <trkpt lat="12.8997030" lon="99.6778230">
    <ele>116.6</ele>
    <time>2018-01-28T03:11:21Z</time>
   </trkpt>
   <trkpt lat="12.8997270" lon="99.6778370">
    <ele>117.0</ele>
    <time>2018-01-28T03:11:22Z</time>
   </trkpt>
   <trkpt lat="12.8997720" lon="99.6778640">
    <ele>117.0</ele>
    <time>2018-01-28T03:11:24Z</time>
   </trkpt>
   <trkpt lat="12.8998180" lon="99.6778880">
    <ele>116.9</ele>
    <time>2018-01-28T03:11:26Z</time>
   </trkpt>
   <trkpt lat="12.8998610" lon="99.6779110">
    <ele>117.4</ele>
    <time>2018-01-28T03:11:28Z</time>
   </trkpt>
   <trkpt lat="12.8998990" lon="99.6779270">
    <ele>117.3</ele>
    <time>2018-01-28T03:11:30Z</time>
   </trkpt>
   <trkpt lat="12.8999340" lon="99.6779440">
    <ele>117.8</ele>
    <time>2018-01-28T03:11:32Z</time>
   </trkpt>
   <trkpt lat="12.8999710" lon="99.6779610">
    <ele>118.2</ele>
    <time>2018-01-28T03:11:34Z</time>
   </trkpt>
   <trkpt lat="12.9000160" lon="99.6779730">
    <ele>118.3</ele>
    <time>2018-01-28T03:11:36Z</time>
   </trkpt>
   <trkpt lat="12.9000640" lon="99.6779820">
    <ele>118.8</ele>
    <time>2018-01-28T03:11:38Z</time>
   </trkpt>
   <trkpt lat="12.9001110" lon="99.6779940">
    <ele>119.3</ele>
    <time>2018-01-28T03:11:40Z</time>
   </trkpt>
   <trkpt lat="12.9001580" lon="99.6780120">
    <ele>119.4</ele>
    <time>2018-01-28T03:11:42Z</time>
   </trkpt>
   <trkpt lat="12.9002090" lon="99.6780280">
    <ele>120.4</ele>
    <time>2018-01-28T03:11:44Z</time>
   </trkpt>
   <trkpt lat="12.9002360" lon="99.6780350">
    <ele>120.3</ele>
    <time>2018-01-28T03:11:45Z</time>
   </trkpt>
   <trkpt lat="12.9002650" lon="99.6780420">
    <ele>120.8</ele>
    <time>2018-01-28T03:11:46Z</time>
   </trkpt>
   <trkpt lat="12.9002940" lon="99.6780480">
    <ele>121.2</ele>
    <time>2018-01-28T03:11:47Z</time>
   </trkpt>
   <trkpt lat="12.9003220" lon="99.6780530">
    <ele>121.2</ele>
    <time>2018-01-28T03:11:48Z</time>
   </trkpt>
   <trkpt lat="12.9003730" lon="99.6780650">
    <ele>121.1</ele>
    <time>2018-01-28T03:11:50Z</time>
   </trkpt>
   <trkpt lat="12.9004230" lon="99.6780810">
    <ele>122.1</ele>
    <time>2018-01-28T03:11:52Z</time>
   </trkpt>
   <trkpt lat="12.9004730" lon="99.6781010">
    <ele>122.3</ele>
    <time>2018-01-28T03:11:54Z</time>
   </trkpt>
   <trkpt lat="12.9004990" lon="99.6781130">
    <ele>122.3</ele>
    <time>2018-01-28T03:11:55Z</time>
   </trkpt>
   <trkpt lat="12.9005260" lon="99.6781260">
    <ele>123.1</ele>
    <time>2018-01-28T03:11:56Z</time>
   </trkpt>
   <trkpt lat="12.9005530" lon="99.6781400">
    <ele>123.5</ele>
    <time>2018-01-28T03:11:57Z</time>
   </trkpt>
   <trkpt lat="12.9005800" lon="99.6781540">
    <ele>123.5</ele>
    <time>2018-01-28T03:11:58Z</time>
   </trkpt>
   <trkpt lat="12.9006040" lon="99.6781660">
    <ele>124.3</ele>
    <time>2018-01-28T03:11:59Z</time>
   </trkpt>
   <trkpt lat="12.9006510" lon="99.6781900">
    <ele>124.5</ele>
    <time>2018-01-28T03:12:01Z</time>
   </trkpt>
   <trkpt lat="12.9006770" lon="99.6782010">
    <ele>125.2</ele>
    <time>2018-01-28T03:12:02Z</time>
   </trkpt>
   <trkpt lat="12.9007020" lon="99.6782110">
    <ele>125.2</ele>
    <time>2018-01-28T03:12:03Z</time>
   </trkpt>
   <trkpt lat="12.9007280" lon="99.6782230">
    <ele>125.9</ele>
    <time>2018-01-28T03:12:04Z</time>
   </trkpt>
   <trkpt lat="12.9007750" lon="99.6782490">
    <ele>126.0</ele>
    <time>2018-01-28T03:12:06Z</time>
   </trkpt>
   <trkpt lat="12.9008030" lon="99.6782610">
    <ele>126.6</ele>
    <time>2018-01-28T03:12:07Z</time>
   </trkpt>
   <trkpt lat="12.9008290" lon="99.6782690">
    <ele>126.0</ele>
    <time>2018-01-28T03:12:08Z</time>
   </trkpt>
   <trkpt lat="12.9008550" lon="99.6782820">
    <ele>126.7</ele>
    <time>2018-01-28T03:12:09Z</time>
   </trkpt>
   <trkpt lat="12.9008780" lon="99.6783030">
    <ele>127.5</ele>
    <time>2018-01-28T03:12:10Z</time>
   </trkpt>
   <trkpt lat="12.9008970" lon="99.6783360">
    <ele>127.0</ele>
    <time>2018-01-28T03:12:11Z</time>
   </trkpt>
   <trkpt lat="12.9009080" lon="99.6783810">
    <ele>126.8</ele>
    <time>2018-01-28T03:12:12Z</time>
   </trkpt>
   <trkpt lat="12.9009110" lon="99.6784320">
    <ele>126.7</ele>
    <time>2018-01-28T03:12:13Z</time>
   </trkpt>
   <trkpt lat="12.9009100" lon="99.6784840">
    <ele>126.8</ele>
    <time>2018-01-28T03:12:14Z</time>
   </trkpt>
   <trkpt lat="12.9009080" lon="99.6785300">
    <ele>126.8</ele>
    <time>2018-01-28T03:12:15Z</time>
   </trkpt>
   <trkpt lat="12.9009080" lon="99.6785770">
    <ele>126.8</ele>
    <time>2018-01-28T03:12:16Z</time>
   </trkpt>
   <trkpt lat="12.9009120" lon="99.6786270">
    <ele>126.6</ele>
    <time>2018-01-28T03:12:17Z</time>
   </trkpt>
   <trkpt lat="12.9009230" lon="99.6786770">
    <ele>126.7</ele>
    <time>2018-01-28T03:12:18Z</time>
   </trkpt>
   <trkpt lat="12.9009390" lon="99.6787280">
    <ele>126.1</ele>
    <time>2018-01-28T03:12:19Z</time>
   </trkpt>
   <trkpt lat="12.9009570" lon="99.6787740">
    <ele>125.4</ele>
    <time>2018-01-28T03:12:20Z</time>
   </trkpt>
   <trkpt lat="12.9009840" lon="99.6788200">
    <ele>124.9</ele>
    <time>2018-01-28T03:12:21Z</time>
   </trkpt>
   <trkpt lat="12.9010320" lon="99.6788950">
    <ele>123.3</ele>
    <time>2018-01-28T03:12:22Z</time>
   </trkpt>
   <trkpt lat="12.9010710" lon="99.6789410">
    <ele>122.8</ele>
    <time>2018-01-28T03:12:23Z</time>
   </trkpt>
   <trkpt lat="12.9011150" lon="99.6789850">
    <ele>122.0</ele>
    <time>2018-01-28T03:12:24Z</time>
   </trkpt>
   <trkpt lat="12.9011570" lon="99.6790200">
    <ele>121.5</ele>
    <time>2018-01-28T03:12:25Z</time>
   </trkpt>
   <trkpt lat="12.9012070" lon="99.6790560">
    <ele>120.8</ele>
    <time>2018-01-28T03:12:26Z</time>
   </trkpt>
   <trkpt lat="12.9012600" lon="99.6790940">
    <ele>120.0</ele>
    <time>2018-01-28T03:12:27Z</time>
   </trkpt>
   <trkpt lat="12.9013030" lon="99.6791310">
    <ele>119.4</ele>
    <time>2018-01-28T03:12:28Z</time>
   </trkpt>
   <trkpt lat="12.9013420" lon="99.6791680">
    <ele>119.8</ele>
    <time>2018-01-28T03:12:29Z</time>
   </trkpt>
   <trkpt lat="12.9013810" lon="99.6792030">
    <ele>119.6</ele>
    <time>2018-01-28T03:12:30Z</time>
   </trkpt>
   <trkpt lat="12.9014210" lon="99.6792510">
    <ele>119.1</ele>
    <time>2018-01-28T03:12:31Z</time>
   </trkpt>
   <trkpt lat="12.9014490" lon="99.6792960">
    <ele>119.2</ele>
    <time>2018-01-28T03:12:32Z</time>
   </trkpt>
   <trkpt lat="12.9014840" lon="99.6793460">
    <ele>118.6</ele>
    <time>2018-01-28T03:12:33Z</time>
   </trkpt>
   <trkpt lat="12.9014950" lon="99.6793980">
    <ele>118.2</ele>
    <time>2018-01-28T03:12:34Z</time>
   </trkpt>
   <trkpt lat="12.9015150" lon="99.6794560">
    <ele>118.4</ele>
    <time>2018-01-28T03:12:35Z</time>
   </trkpt>
   <trkpt lat="12.9015340" lon="99.6795210">
    <ele>118.0</ele>
    <time>2018-01-28T03:12:36Z</time>
   </trkpt>
   <trkpt lat="12.9015540" lon="99.6795870">
    <ele>118.3</ele>
    <time>2018-01-28T03:12:37Z</time>
   </trkpt>
   <trkpt lat="12.9015490" lon="99.6796540">
    <ele>117.7</ele>
    <time>2018-01-28T03:12:38Z</time>
   </trkpt>
   <trkpt lat="12.9015470" lon="99.6797260">
    <ele>117.5</ele>
    <time>2018-01-28T03:12:39Z</time>
   </trkpt>
   <trkpt lat="12.9015340" lon="99.6797890">
    <ele>117.2</ele>
    <time>2018-01-28T03:12:40Z</time>
   </trkpt>
   <trkpt lat="12.9015050" lon="99.6798590">
    <ele>117.6</ele>
    <time>2018-01-28T03:12:41Z</time>
   </trkpt>
   <trkpt lat="12.9014920" lon="99.6799430">
    <ele>117.7</ele>
    <time>2018-01-28T03:12:42Z</time>
   </trkpt>
   <trkpt lat="12.9014890" lon="99.6800140">
    <ele>117.6</ele>
    <time>2018-01-28T03:12:43Z</time>
   </trkpt>
   <trkpt lat="12.9014950" lon="99.6800860">
    <ele>117.5</ele>
    <time>2018-01-28T03:12:44Z</time>
   </trkpt>
   <trkpt lat="12.9015110" lon="99.6801400">
    <ele>117.6</ele>
    <time>2018-01-28T03:12:45Z</time>
   </trkpt>
   <trkpt lat="12.9015330" lon="99.6801860">
    <ele>117.6</ele>
    <time>2018-01-28T03:12:46Z</time>
   </trkpt>
   <trkpt lat="12.9015680" lon="99.6802150">
    <ele>117.6</ele>
    <time>2018-01-28T03:12:47Z</time>
   </trkpt>
   <trkpt lat="12.9016050" lon="99.6802430">
    <ele>117.1</ele>
    <time>2018-01-28T03:12:48Z</time>
   </trkpt>
   <trkpt lat="12.9016420" lon="99.6802700">
    <ele>116.6</ele>
    <time>2018-01-28T03:12:49Z</time>
   </trkpt>
   <trkpt lat="12.9016800" lon="99.6802990">
    <ele>115.7</ele>
    <time>2018-01-28T03:12:50Z</time>
   </trkpt>
   <trkpt lat="12.9017060" lon="99.6803090">
    <ele>115.7</ele>
    <time>2018-01-28T03:12:52Z</time>
   </trkpt>
   <trkpt lat="12.9017350" lon="99.6803170">
    <ele>115.1</ele>
    <time>2018-01-28T03:12:53Z</time>
   </trkpt>
   <trkpt lat="12.9017630" lon="99.6803230">
    <ele>114.6</ele>
    <time>2018-01-28T03:12:54Z</time>
   </trkpt>
   <trkpt lat="12.9020500" lon="99.6803130">
    <ele>112.5</ele>
    <time>2018-01-28T03:12:56Z</time>
   </trkpt>
   <trkpt lat="12.9021210" lon="99.6802960">
    <ele>112.2</ele>
    <time>2018-01-28T03:12:57Z</time>
   </trkpt>
   <trkpt lat="12.9021910" lon="99.6802670">
    <ele>112.3</ele>
    <time>2018-01-28T03:12:58Z</time>
   </trkpt>
   <trkpt lat="12.9022550" lon="99.6802340">
    <ele>112.5</ele>
    <time>2018-01-28T03:12:59Z</time>
   </trkpt>
   <trkpt lat="12.9023170" lon="99.6801990">
    <ele>112.3</ele>
    <time>2018-01-28T03:13:00Z</time>
   </trkpt>
   <trkpt lat="12.9023780" lon="99.6801620">
    <ele>112.0</ele>
    <time>2018-01-28T03:13:01Z</time>
   </trkpt>
   <trkpt lat="12.9024260" lon="99.6801230">
    <ele>111.8</ele>
    <time>2018-01-28T03:13:02Z</time>
   </trkpt>
   <trkpt lat="12.9024880" lon="99.6800860">
    <ele>111.9</ele>
    <time>2018-01-28T03:13:03Z</time>
   </trkpt>
   <trkpt lat="12.9025550" lon="99.6800470">
    <ele>112.3</ele>
    <time>2018-01-28T03:13:04Z</time>
   </trkpt>
   <trkpt lat="12.9026260" lon="99.6800010">
    <ele>112.8</ele>
    <time>2018-01-28T03:13:05Z</time>
   </trkpt>
   <trkpt lat="12.9026900" lon="99.6799540">
    <ele>113.4</ele>
    <time>2018-01-28T03:13:06Z</time>
   </trkpt>
   <trkpt lat="12.9027570" lon="99.6799030">
    <ele>113.9</ele>
    <time>2018-01-28T03:13:07Z</time>
   </trkpt>
   <trkpt lat="12.9028240" lon="99.6798610">
    <ele>113.5</ele>
    <time>2018-01-28T03:13:08Z</time>
   </trkpt>
   <trkpt lat="12.9028980" lon="99.6798270">
    <ele>112.4</ele>
    <time>2018-01-28T03:13:09Z</time>
   </trkpt>
   <trkpt lat="12.9029460" lon="99.6798000">
    <ele>112.0</ele>
    <time>2018-01-28T03:13:10Z</time>
   </trkpt>
   <trkpt lat="12.9030050" lon="99.6797690">
    <ele>111.9</ele>
    <time>2018-01-28T03:13:11Z</time>
   </trkpt>
   <trkpt lat="12.9030520" lon="99.6797450">
    <ele>111.4</ele>
    <time>2018-01-28T03:13:12Z</time>
   </trkpt>
   <trkpt lat="12.9031080" lon="99.6797040">
    <ele>110.8</ele>
    <time>2018-01-28T03:13:13Z</time>
   </trkpt>
   <trkpt lat="12.9031690" lon="99.6796830">
    <ele>110.8</ele>
    <time>2018-01-28T03:13:14Z</time>
   </trkpt>
   <trkpt lat="12.9032370" lon="99.6796540">
    <ele>109.7</ele>
    <time>2018-01-28T03:13:15Z</time>
   </trkpt>
   <trkpt lat="12.9032970" lon="99.6796410">
    <ele>109.6</ele>
    <time>2018-01-28T03:13:16Z</time>
   </trkpt>
   <trkpt lat="12.9033680" lon="99.6796270">
    <ele>108.4</ele>
    <time>2018-01-28T03:13:17Z</time>
   </trkpt>
   <trkpt lat="12.9034370" lon="99.6796170">
    <ele>107.6</ele>
    <time>2018-01-28T03:13:18Z</time>
   </trkpt>
   <trkpt lat="12.9035170" lon="99.6796150">
    <ele>107.2</ele>
    <time>2018-01-28T03:13:19Z</time>
   </trkpt>
   <trkpt lat="12.9035930" lon="99.6796270">
    <ele>106.9</ele>
    <time>2018-01-28T03:13:20Z</time>
   </trkpt>
   <trkpt lat="12.9036530" lon="99.6796690">
    <ele>106.2</ele>
    <time>2018-01-28T03:13:21Z</time>
   </trkpt>
   <trkpt lat="12.9037040" lon="99.6797170">
    <ele>106.0</ele>
    <time>2018-01-28T03:13:22Z</time>
   </trkpt>
   <trkpt lat="12.9037460" lon="99.6797710">
    <ele>106.4</ele>
    <time>2018-01-28T03:13:23Z</time>
   </trkpt>
   <trkpt lat="12.9037890" lon="99.6798120">
    <ele>106.3</ele>
    <time>2018-01-28T03:13:24Z</time>
   </trkpt>
   <trkpt lat="12.9038430" lon="99.6798410">
    <ele>106.3</ele>
    <time>2018-01-28T03:13:25Z</time>
   </trkpt>
   <trkpt lat="12.9039060" lon="99.6798570">
    <ele>105.1</ele>
    <time>2018-01-28T03:13:26Z</time>
   </trkpt>
   <trkpt lat="12.9039660" lon="99.6798640">
    <ele>104.5</ele>
    <time>2018-01-28T03:13:27Z</time>
   </trkpt>
   <trkpt lat="12.9040340" lon="99.6798750">
    <ele>103.3</ele>
    <time>2018-01-28T03:13:28Z</time>
   </trkpt>
   <trkpt lat="12.9041000" lon="99.6798830">
    <ele>102.7</ele>
    <time>2018-01-28T03:13:29Z</time>
   </trkpt>
   <trkpt lat="12.9041740" lon="99.6798900">
    <ele>102.6</ele>
    <time>2018-01-28T03:13:30Z</time>
   </trkpt>
   <trkpt lat="12.9042480" lon="99.6798970">
    <ele>102.7</ele>
    <time>2018-01-28T03:13:31Z</time>
   </trkpt>
   <trkpt lat="12.9043200" lon="99.6799100">
    <ele>102.4</ele>
    <time>2018-01-28T03:13:32Z</time>
   </trkpt>
   <trkpt lat="12.9043880" lon="99.6799220">
    <ele>102.4</ele>
    <time>2018-01-28T03:13:33Z</time>
   </trkpt>
   <trkpt lat="12.9044460" lon="99.6799300">
    <ele>102.4</ele>
    <time>2018-01-28T03:13:34Z</time>
   </trkpt>
   <trkpt lat="12.9045120" lon="99.6799360">
    <ele>102.2</ele>
    <time>2018-01-28T03:13:35Z</time>
   </trkpt>
   <trkpt lat="12.9045770" lon="99.6799360">
    <ele>101.7</ele>
    <time>2018-01-28T03:13:36Z</time>
   </trkpt>
   <trkpt lat="12.9046450" lon="99.6799380">
    <ele>100.9</ele>
    <time>2018-01-28T03:13:37Z</time>
   </trkpt>
   <trkpt lat="12.9047140" lon="99.6799430">
    <ele>100.6</ele>
    <time>2018-01-28T03:13:38Z</time>
   </trkpt>
   <trkpt lat="12.9047790" lon="99.6799430">
    <ele>99.8</ele>
    <time>2018-01-28T03:13:39Z</time>
   </trkpt>
   <trkpt lat="12.9048420" lon="99.6799480">
    <ele>99.4</ele>
    <time>2018-01-28T03:13:40Z</time>
   </trkpt>
   <trkpt lat="12.9049060" lon="99.6799520">
    <ele>98.7</ele>
    <time>2018-01-28T03:13:41Z</time>
   </trkpt>
   <trkpt lat="12.9049740" lon="99.6799580">
    <ele>98.5</ele>
    <time>2018-01-28T03:13:42Z</time>
   </trkpt>
   <trkpt lat="12.9050390" lon="99.6799620">
    <ele>98.4</ele>
    <time>2018-01-28T03:13:43Z</time>
   </trkpt>
   <trkpt lat="12.9051000" lon="99.6799660">
    <ele>98.4</ele>
    <time>2018-01-28T03:13:44Z</time>
   </trkpt>
   <trkpt lat="12.9051600" lon="99.6799750">
    <ele>98.4</ele>
    <time>2018-01-28T03:13:45Z</time>
   </trkpt>
   <trkpt lat="12.9052230" lon="99.6799790">
    <ele>98.4</ele>
    <time>2018-01-28T03:13:46Z</time>
   </trkpt>
   <trkpt lat="12.9052900" lon="99.6799800">
    <ele>98.9</ele>
    <time>2018-01-28T03:13:47Z</time>
   </trkpt>
   <trkpt lat="12.9053540" lon="99.6799790">
    <ele>100.2</ele>
    <time>2018-01-28T03:13:48Z</time>
   </trkpt>
   <trkpt lat="12.9054110" lon="99.6799840">
    <ele>101.0</ele>
    <time>2018-01-28T03:13:49Z</time>
   </trkpt>
   <trkpt lat="12.9054630" lon="99.6799850">
    <ele>101.6</ele>
    <time>2018-01-28T03:13:50Z</time>
   </trkpt>
   <trkpt lat="12.9055270" lon="99.6799980">
    <ele>102.3</ele>
    <time>2018-01-28T03:13:51Z</time>
   </trkpt>
   <trkpt lat="12.9055920" lon="99.6800090">
    <ele>102.4</ele>
    <time>2018-01-28T03:13:52Z</time>
   </trkpt>
   <trkpt lat="12.9056570" lon="99.6800140">
    <ele>101.9</ele>
    <time>2018-01-28T03:13:53Z</time>
   </trkpt>
   <trkpt lat="12.9057210" lon="99.6800240">
    <ele>101.4</ele>
    <time>2018-01-28T03:13:54Z</time>
   </trkpt>
   <trkpt lat="12.9057780" lon="99.6800290">
    <ele>100.0</ele>
    <time>2018-01-28T03:13:55Z</time>
   </trkpt>
   <trkpt lat="12.9058380" lon="99.6800370">
    <ele>99.6</ele>
    <time>2018-01-28T03:13:56Z</time>
   </trkpt>
   <trkpt lat="12.9058870" lon="99.6800470">
    <ele>99.3</ele>
    <time>2018-01-28T03:13:57Z</time>
   </trkpt>
   <trkpt lat="12.9059440" lon="99.6800640">
    <ele>99.1</ele>
    <time>2018-01-28T03:13:58Z</time>
   </trkpt>
   <trkpt lat="12.9059900" lon="99.6800680">
    <ele>99.3</ele>
    <time>2018-01-28T03:13:59Z</time>
   </trkpt>
   <trkpt lat="12.9060370" lon="99.6800520">
    <ele>99.5</ele>
    <time>2018-01-28T03:14:00Z</time>
   </trkpt>
   <trkpt lat="12.9060830" lon="99.6800280">
    <ele>99.8</ele>
    <time>2018-01-28T03:14:01Z</time>
   </trkpt>
   <trkpt lat="12.9061300" lon="99.6800230">
    <ele>100.3</ele>
    <time>2018-01-28T03:14:02Z</time>
   </trkpt>
   <trkpt lat="12.9061740" lon="99.6800030">
    <ele>100.6</ele>
    <time>2018-01-28T03:14:03Z</time>
   </trkpt>
   <trkpt lat="12.9062310" lon="99.6799840">
    <ele>101.1</ele>
    <time>2018-01-28T03:14:04Z</time>
   </trkpt>
   <trkpt lat="12.9062880" lon="99.6799890">
    <ele>102.0</ele>
    <time>2018-01-28T03:14:05Z</time>
   </trkpt>
   <trkpt lat="12.9063380" lon="99.6799900">
    <ele>102.6</ele>
    <time>2018-01-28T03:14:06Z</time>
   </trkpt>
   <trkpt lat="12.9063890" lon="99.6799980">
    <ele>103.3</ele>
    <time>2018-01-28T03:14:07Z</time>
   </trkpt>
   <trkpt lat="12.9064310" lon="99.6800090">
    <ele>104.0</ele>
    <time>2018-01-28T03:14:08Z</time>
   </trkpt>
   <trkpt lat="12.9064690" lon="99.6800200">
    <ele>104.7</ele>
    <time>2018-01-28T03:14:09Z</time>
   </trkpt>
   <trkpt lat="12.9065030" lon="99.6800430">
    <ele>105.6</ele>
    <time>2018-01-28T03:14:10Z</time>
   </trkpt>
   <trkpt lat="12.9065390" lon="99.6800720">
    <ele>106.4</ele>
    <time>2018-01-28T03:14:11Z</time>
   </trkpt>
   <trkpt lat="12.9065640" lon="99.6801000">
    <ele>106.4</ele>
    <time>2018-01-28T03:14:12Z</time>
   </trkpt>
   <trkpt lat="12.9066060" lon="99.6801140">
    <ele>107.1</ele>
    <time>2018-01-28T03:14:13Z</time>
   </trkpt>
   <trkpt lat="12.9066360" lon="99.6801270">
    <ele>107.3</ele>
    <time>2018-01-28T03:14:14Z</time>
   </trkpt>
   <trkpt lat="12.9066680" lon="99.6801380">
    <ele>107.3</ele>
    <time>2018-01-28T03:14:15Z</time>
   </trkpt>
   <trkpt lat="12.9067080" lon="99.6801540">
    <ele>107.3</ele>
    <time>2018-01-28T03:14:17Z</time>
   </trkpt>
   <trkpt lat="12.9067420" lon="99.6801730">
    <ele>107.5</ele>
    <time>2018-01-28T03:14:18Z</time>
   </trkpt>
   <trkpt lat="12.9067750" lon="99.6801940">
    <ele>107.5</ele>
    <time>2018-01-28T03:14:19Z</time>
   </trkpt>
   <trkpt lat="12.9068350" lon="99.6802230">
    <ele>107.3</ele>
    <time>2018-01-28T03:14:20Z</time>
   </trkpt>
   <trkpt lat="12.9068690" lon="99.6802490">
    <ele>107.1</ele>
    <time>2018-01-28T03:14:21Z</time>
   </trkpt>
   <trkpt lat="12.9068930" lon="99.6802870">
    <ele>107.2</ele>
    <time>2018-01-28T03:14:22Z</time>
   </trkpt>
   <trkpt lat="12.9069100" lon="99.6803350">
    <ele>107.3</ele>
    <time>2018-01-28T03:14:23Z</time>
   </trkpt>
   <trkpt lat="12.9069250" lon="99.6803860">
    <ele>107.5</ele>
    <time>2018-01-28T03:14:24Z</time>
   </trkpt>
   <trkpt lat="12.9069380" lon="99.6804350">
    <ele>107.7</ele>
    <time>2018-01-28T03:14:25Z</time>
   </trkpt>
   <trkpt lat="12.9069440" lon="99.6804880">
    <ele>107.9</ele>
    <time>2018-01-28T03:14:26Z</time>
   </trkpt>
   <trkpt lat="12.9069530" lon="99.6805510">
    <ele>108.4</ele>
    <time>2018-01-28T03:14:27Z</time>
   </trkpt>
   <trkpt lat="12.9069590" lon="99.6806030">
    <ele>108.8</ele>
    <time>2018-01-28T03:14:28Z</time>
   </trkpt>
   <trkpt lat="12.9069910" lon="99.6806510">
    <ele>109.3</ele>
    <time>2018-01-28T03:14:29Z</time>
   </trkpt>
   <trkpt lat="12.9069960" lon="99.6807040">
    <ele>109.8</ele>
    <time>2018-01-28T03:14:30Z</time>
   </trkpt>
   <trkpt lat="12.9069950" lon="99.6807550">
    <ele>110.3</ele>
    <time>2018-01-28T03:14:31Z</time>
   </trkpt>
   <trkpt lat="12.9070000" lon="99.6807980">
    <ele>110.7</ele>
    <time>2018-01-28T03:14:32Z</time>
   </trkpt>
   <trkpt lat="12.9070130" lon="99.6808520">
    <ele>111.2</ele>
    <time>2018-01-28T03:14:33Z</time>
   </trkpt>
   <trkpt lat="12.9070340" lon="99.6809050">
    <ele>111.3</ele>
    <time>2018-01-28T03:14:34Z</time>
   </trkpt>
   <trkpt lat="12.9070600" lon="99.6809500">
    <ele>111.4</ele>
    <time>2018-01-28T03:14:35Z</time>
   </trkpt>
   <trkpt lat="12.9070840" lon="99.6809860">
    <ele>111.5</ele>
    <time>2018-01-28T03:14:36Z</time>
   </trkpt>
   <trkpt lat="12.9071190" lon="99.6810260">
    <ele>111.4</ele>
    <time>2018-01-28T03:14:37Z</time>
   </trkpt>
   <trkpt lat="12.9071470" lon="99.6810710">
    <ele>111.3</ele>
    <time>2018-01-28T03:14:38Z</time>
   </trkpt>
   <trkpt lat="12.9071770" lon="99.6811120">
    <ele>110.8</ele>
    <time>2018-01-28T03:14:39Z</time>
   </trkpt>
   <trkpt lat="12.9072030" lon="99.6811490">
    <ele>110.3</ele>
    <time>2018-01-28T03:14:40Z</time>
   </trkpt>
   <trkpt lat="12.9072290" lon="99.6811970">
    <ele>109.9</ele>
    <time>2018-01-28T03:14:41Z</time>
   </trkpt>
   <trkpt lat="12.9072570" lon="99.6812360">
    <ele>109.4</ele>
    <time>2018-01-28T03:14:42Z</time>
   </trkpt>
   <trkpt lat="12.9072820" lon="99.6812710">
    <ele>109.2</ele>
    <time>2018-01-28T03:14:43Z</time>
   </trkpt>
   <trkpt lat="12.9073000" lon="99.6813070">
    <ele>109.0</ele>
    <time>2018-01-28T03:14:44Z</time>
   </trkpt>
   <trkpt lat="12.9073010" lon="99.6813380">
    <ele>109.0</ele>
    <time>2018-01-28T03:14:45Z</time>
   </trkpt>
   <trkpt lat="12.9073190" lon="99.6813770">
    <ele>109.0</ele>
    <time>2018-01-28T03:14:46Z</time>
   </trkpt>
   <trkpt lat="12.9073290" lon="99.6814160">
    <ele>109.3</ele>
    <time>2018-01-28T03:14:47Z</time>
   </trkpt>
   <trkpt lat="12.9073260" lon="99.6814460">
    <ele>109.3</ele>
    <time>2018-01-28T03:14:48Z</time>
   </trkpt>
   <trkpt lat="12.9073370" lon="99.6814820">
    <ele>109.3</ele>
    <time>2018-01-28T03:14:49Z</time>
   </trkpt>
   <trkpt lat="12.9073530" lon="99.6815060">
    <ele>109.3</ele>
    <time>2018-01-28T03:14:50Z</time>
   </trkpt>
   <trkpt lat="12.9073820" lon="99.6814680">
    <ele>109.5</ele>
    <time>2018-01-28T03:14:52Z</time>
   </trkpt>
   <trkpt lat="12.9073640" lon="99.6814280">
    <ele>109.5</ele>
    <time>2018-01-28T03:14:53Z</time>
   </trkpt>
   <trkpt lat="12.9073360" lon="99.6813900">
    <ele>109.0</ele>
    <time>2018-01-28T03:14:54Z</time>
   </trkpt>
   <trkpt lat="12.9073090" lon="99.6813500">
    <ele>108.8</ele>
    <time>2018-01-28T03:14:55Z</time>
   </trkpt>
   <trkpt lat="12.9072770" lon="99.6813060">
    <ele>108.9</ele>
    <time>2018-01-28T03:14:56Z</time>
   </trkpt>
   <trkpt lat="12.9072520" lon="99.6812610">
    <ele>109.1</ele>
    <time>2018-01-28T03:14:57Z</time>
   </trkpt>
   <trkpt lat="12.9072290" lon="99.6812170">
    <ele>109.6</ele>
    <time>2018-01-28T03:14:58Z</time>
   </trkpt>
   <trkpt lat="12.9072020" lon="99.6811660">
    <ele>109.9</ele>
    <time>2018-01-28T03:14:59Z</time>
   </trkpt>
   <trkpt lat="12.9071870" lon="99.6811130">
    <ele>110.4</ele>
    <time>2018-01-28T03:15:00Z</time>
   </trkpt>
   <trkpt lat="12.9071770" lon="99.6810730">
    <ele>110.6</ele>
    <time>2018-01-28T03:15:01Z</time>
   </trkpt>
   <trkpt lat="12.9071600" lon="99.6810330">
    <ele>110.7</ele>
    <time>2018-01-28T03:15:02Z</time>
   </trkpt>
   <trkpt lat="12.9071460" lon="99.6809980">
    <ele>110.9</ele>
    <time>2018-01-28T03:15:03Z</time>
   </trkpt>
   <trkpt lat="12.9071690" lon="99.6809720">
    <ele>110.6</ele>
    <time>2018-01-28T03:15:04Z</time>
   </trkpt>
   <trkpt lat="12.9071420" lon="99.6810100">
    <ele>110.8</ele>
    <time>2018-01-28T03:15:08Z</time>
   </trkpt>
   <trkpt lat="12.9071370" lon="99.6810450">
    <ele>110.8</ele>
    <time>2018-01-28T03:15:09Z</time>
   </trkpt>
   <trkpt lat="12.9071470" lon="99.6810910">
    <ele>110.7</ele>
    <time>2018-01-28T03:15:10Z</time>
   </trkpt>
   <trkpt lat="12.9071610" lon="99.6811190">
    <ele>110.3</ele>
    <time>2018-01-28T03:15:12Z</time>
   </trkpt>
   <trkpt lat="12.9071840" lon="99.6811540">
    <ele>110.0</ele>
    <time>2018-01-28T03:15:13Z</time>
   </trkpt>
   <trkpt lat="12.9072090" lon="99.6811960">
    <ele>109.4</ele>
    <time>2018-01-28T03:15:14Z</time>
   </trkpt>
   <trkpt lat="12.9072320" lon="99.6812350">
    <ele>109.0</ele>
    <time>2018-01-28T03:15:15Z</time>
   </trkpt>
   <trkpt lat="12.9072570" lon="99.6812840">
    <ele>108.6</ele>
    <time>2018-01-28T03:15:16Z</time>
   </trkpt>
   <trkpt lat="12.9072800" lon="99.6813300">
    <ele>108.4</ele>
    <time>2018-01-28T03:15:17Z</time>
   </trkpt>
   <trkpt lat="12.9073050" lon="99.6813740">
    <ele>108.5</ele>
    <time>2018-01-28T03:15:18Z</time>
   </trkpt>
   <trkpt lat="12.9073300" lon="99.6814130">
    <ele>108.7</ele>
    <time>2018-01-28T03:15:19Z</time>
   </trkpt>
   <trkpt lat="12.9073560" lon="99.6814510">
    <ele>108.8</ele>
    <time>2018-01-28T03:15:20Z</time>
   </trkpt>
   <trkpt lat="12.9074060" lon="99.6815110">
    <ele>109.0</ele>
    <time>2018-01-28T03:15:21Z</time>
   </trkpt>
   <trkpt lat="12.9074780" lon="99.6815440">
    <ele>108.8</ele>
    <time>2018-01-28T03:15:22Z</time>
   </trkpt>
   <trkpt lat="12.9075070" lon="99.6815240">
    <ele>109.4</ele>
    <time>2018-01-28T03:15:23Z</time>
   </trkpt>
   <trkpt lat="12.9075120" lon="99.6814850">
    <ele>109.6</ele>
    <time>2018-01-28T03:15:24Z</time>
   </trkpt>
   <trkpt lat="12.9075150" lon="99.6814450">
    <ele>109.6</ele>
    <time>2018-01-28T03:15:25Z</time>
   </trkpt>
   <trkpt lat="12.9075080" lon="99.6814120">
    <ele>109.7</ele>
    <time>2018-01-28T03:15:26Z</time>
   </trkpt>
   <trkpt lat="12.9075040" lon="99.6813600">
    <ele>109.5</ele>
    <time>2018-01-28T03:15:28Z</time>
   </trkpt>
   <trkpt lat="12.9075150" lon="99.6813070">
    <ele>108.8</ele>
    <time>2018-01-28T03:15:30Z</time>
   </trkpt>
   <trkpt lat="12.9075600" lon="99.6812730">
    <ele>109.0</ele>
    <time>2018-01-28T03:15:32Z</time>
   </trkpt>
   <trkpt lat="12.9076010" lon="99.6812630">
    <ele>108.9</ele>
    <time>2018-01-28T03:15:34Z</time>
   </trkpt>
   <trkpt lat="12.9076330" lon="99.6812600">
    <ele>109.3</ele>
    <time>2018-01-28T03:15:35Z</time>
   </trkpt>
   <trkpt lat="12.9076690" lon="99.6812580">
    <ele>109.7</ele>
    <time>2018-01-28T03:15:36Z</time>
   </trkpt>
   <trkpt lat="12.9077010" lon="99.6812580">
    <ele>110.2</ele>
    <time>2018-01-28T03:15:37Z</time>
   </trkpt>
   <trkpt lat="12.9077330" lon="99.6812540">
    <ele>110.1</ele>
    <time>2018-01-28T03:15:38Z</time>
   </trkpt>
   <trkpt lat="12.9077670" lon="99.6812480">
    <ele>110.7</ele>
    <time>2018-01-28T03:15:39Z</time>
   </trkpt>
   <trkpt lat="12.9078040" lon="99.6812430">
    <ele>111.2</ele>
    <time>2018-01-28T03:15:40Z</time>
   </trkpt>
   <trkpt lat="12.9078390" lon="99.6812390">
    <ele>111.8</ele>
    <time>2018-01-28T03:15:41Z</time>
   </trkpt>
   <trkpt lat="12.9078770" lon="99.6812350">
    <ele>112.3</ele>
    <time>2018-01-28T03:15:42Z</time>
   </trkpt>
   <trkpt lat="12.9079080" lon="99.6812300">
    <ele>112.8</ele>
    <time>2018-01-28T03:15:43Z</time>
   </trkpt>
   <trkpt lat="12.9079390" lon="99.6812310">
    <ele>112.7</ele>
    <time>2018-01-28T03:15:44Z</time>
   </trkpt>
   <trkpt lat="12.9079740" lon="99.6812350">
    <ele>113.1</ele>
    <time>2018-01-28T03:15:45Z</time>
   </trkpt>
   <trkpt lat="12.9080100" lon="99.6812420">
    <ele>113.4</ele>
    <time>2018-01-28T03:15:46Z</time>
   </trkpt>
   <trkpt lat="12.9080390" lon="99.6812490">
    <ele>113.6</ele>
    <time>2018-01-28T03:15:47Z</time>
   </trkpt>
   <trkpt lat="12.9080680" lon="99.6812600">
    <ele>113.6</ele>
    <time>2018-01-28T03:15:48Z</time>
   </trkpt>
   <trkpt lat="12.9080970" lon="99.6812810">
    <ele>113.8</ele>
    <time>2018-01-28T03:15:49Z</time>
   </trkpt>
   <trkpt lat="12.9081260" lon="99.6813120">
    <ele>114.0</ele>
    <time>2018-01-28T03:15:50Z</time>
   </trkpt>
   <trkpt lat="12.9081510" lon="99.6813460">
    <ele>114.0</ele>
    <time>2018-01-28T03:15:51Z</time>
   </trkpt>
   <trkpt lat="12.9081720" lon="99.6813820">
    <ele>114.2</ele>
    <time>2018-01-28T03:15:52Z</time>
   </trkpt>
   <trkpt lat="12.9081870" lon="99.6814210">
    <ele>114.2</ele>
    <time>2018-01-28T03:15:53Z</time>
   </trkpt>
   <trkpt lat="12.9081900" lon="99.6814680">
    <ele>114.2</ele>
    <time>2018-01-28T03:15:54Z</time>
   </trkpt>
   <trkpt lat="12.9081790" lon="99.6815170">
    <ele>114.2</ele>
    <time>2018-01-28T03:15:55Z</time>
   </trkpt>
   <trkpt lat="12.9081580" lon="99.6815660">
    <ele>114.2</ele>
    <time>2018-01-28T03:15:56Z</time>
   </trkpt>
   <trkpt lat="12.9081390" lon="99.6816170">
    <ele>114.2</ele>
    <time>2018-01-28T03:15:57Z</time>
   </trkpt>
   <trkpt lat="12.9081400" lon="99.6816570">
    <ele>114.2</ele>
    <time>2018-01-28T03:15:58Z</time>
   </trkpt>
   <trkpt lat="12.9081690" lon="99.6816790">
    <ele>114.2</ele>
    <time>2018-01-28T03:15:59Z</time>
   </trkpt>
   <trkpt lat="12.9082170" lon="99.6816680">
    <ele>114.2</ele>
    <time>2018-01-28T03:16:00Z</time>
   </trkpt>
   <trkpt lat="12.9082640" lon="99.6816320">
    <ele>114.2</ele>
    <time>2018-01-28T03:16:01Z</time>
   </trkpt>
   <trkpt lat="12.9083080" lon="99.6815930">
    <ele>114.2</ele>
    <time>2018-01-28T03:16:02Z</time>
   </trkpt>
   <trkpt lat="12.9083480" lon="99.6815580">
    <ele>114.2</ele>
    <time>2018-01-28T03:16:03Z</time>
   </trkpt>
   <trkpt lat="12.9083880" lon="99.6815270">
    <ele>114.2</ele>
    <time>2018-01-28T03:16:04Z</time>
   </trkpt>
   <trkpt lat="12.9084250" lon="99.6814980">
    <ele>114.2</ele>
    <time>2018-01-28T03:16:05Z</time>
   </trkpt>
   <trkpt lat="12.9084660" lon="99.6814710">
    <ele>114.2</ele>
    <time>2018-01-28T03:16:06Z</time>
   </trkpt>
   <trkpt lat="12.9085140" lon="99.6814530">
    <ele>114.2</ele>
    <time>2018-01-28T03:16:07Z</time>
   </trkpt>
   <trkpt lat="12.9085670" lon="99.6814230">
    <ele>114.2</ele>
    <time>2018-01-28T03:16:08Z</time>
   </trkpt>
   <trkpt lat="12.9086120" lon="99.6814050">
    <ele>114.1</ele>
    <time>2018-01-28T03:16:09Z</time>
   </trkpt>
   <trkpt lat="12.9086530" lon="99.6813890">
    <ele>114.1</ele>
    <time>2018-01-28T03:16:10Z</time>
   </trkpt>
   <trkpt lat="12.9086880" lon="99.6813570">
    <ele>114.1</ele>
    <time>2018-01-28T03:16:11Z</time>
   </trkpt>
   <trkpt lat="12.9087160" lon="99.6813320">
    <ele>114.1</ele>
    <time>2018-01-28T03:16:12Z</time>
   </trkpt>
   <trkpt lat="12.9087380" lon="99.6813010">
    <ele>114.1</ele>
    <time>2018-01-28T03:16:14Z</time>
   </trkpt>
   <trkpt lat="12.9087410" lon="99.6812710">
    <ele>114.1</ele>
    <time>2018-01-28T03:16:16Z</time>
   </trkpt>
   <trkpt lat="12.9087400" lon="99.6812350">
    <ele>114.0</ele>
    <time>2018-01-28T03:16:18Z</time>
   </trkpt>
   <trkpt lat="12.9087600" lon="99.6811830">
    <ele>114.0</ele>
    <time>2018-01-28T03:16:20Z</time>
   </trkpt>
   <trkpt lat="12.9087720" lon="99.6811560">
    <ele>113.7</ele>
    <time>2018-01-28T03:16:21Z</time>
   </trkpt>
   <trkpt lat="12.9087830" lon="99.6811250">
    <ele>113.6</ele>
    <time>2018-01-28T03:16:22Z</time>
   </trkpt>
   <trkpt lat="12.9087990" lon="99.6810870">
    <ele>113.4</ele>
    <time>2018-01-28T03:16:23Z</time>
   </trkpt>
   <trkpt lat="12.9088140" lon="99.6810470">
    <ele>113.2</ele>
    <time>2018-01-28T03:16:24Z</time>
   </trkpt>
   <trkpt lat="12.9088320" lon="99.6810050">
    <ele>113.0</ele>
    <time>2018-01-28T03:16:25Z</time>
   </trkpt>
   <trkpt lat="12.9088540" lon="99.6809590">
    <ele>112.8</ele>
    <time>2018-01-28T03:16:26Z</time>
   </trkpt>
   <trkpt lat="12.9088680" lon="99.6809330">
    <ele>112.7</ele>
    <time>2018-01-28T03:16:27Z</time>
   </trkpt>
   <trkpt lat="12.9088790" lon="99.6809040">
    <ele>112.3</ele>
    <time>2018-01-28T03:16:28Z</time>
   </trkpt>
   <trkpt lat="12.9088910" lon="99.6808710">
    <ele>112.0</ele>
    <time>2018-01-28T03:16:29Z</time>
   </trkpt>
   <trkpt lat="12.9088980" lon="99.6808340">
    <ele>111.7</ele>
    <time>2018-01-28T03:16:30Z</time>
   </trkpt>
   <trkpt lat="12.9089050" lon="99.6807930">
    <ele>111.4</ele>
    <time>2018-01-28T03:16:31Z</time>
   </trkpt>
   <trkpt lat="12.9089110" lon="99.6807570">
    <ele>111.5</ele>
    <time>2018-01-28T03:16:32Z</time>
   </trkpt>
   <trkpt lat="12.9089190" lon="99.6807230">
    <ele>111.5</ele>
    <time>2018-01-28T03:16:33Z</time>
   </trkpt>
   <trkpt lat="12.9089290" lon="99.6806880">
    <ele>111.7</ele>
    <time>2018-01-28T03:16:34Z</time>
   </trkpt>
   <trkpt lat="12.9089370" lon="99.6806550">
    <ele>112.0</ele>
    <time>2018-01-28T03:16:35Z</time>
   </trkpt>
   <trkpt lat="12.9089380" lon="99.6806200">
    <ele>112.3</ele>
    <time>2018-01-28T03:16:36Z</time>
   </trkpt>
   <trkpt lat="12.9089280" lon="99.6805800">
    <ele>112.7</ele>
    <time>2018-01-28T03:16:37Z</time>
   </trkpt>
   <trkpt lat="12.9089090" lon="99.6805390">
    <ele>112.7</ele>
    <time>2018-01-28T03:16:38Z</time>
   </trkpt>
   <trkpt lat="12.9088900" lon="99.6804960">
    <ele>113.0</ele>
    <time>2018-01-28T03:16:39Z</time>
   </trkpt>
   <trkpt lat="12.9088720" lon="99.6804550">
    <ele>113.2</ele>
    <time>2018-01-28T03:16:40Z</time>
   </trkpt>
   <trkpt lat="12.9088550" lon="99.6804130">
    <ele>112.7</ele>
    <time>2018-01-28T03:16:41Z</time>
   </trkpt>
   <trkpt lat="12.9088380" lon="99.6803730">
    <ele>112.8</ele>
    <time>2018-01-28T03:16:42Z</time>
   </trkpt>
   <trkpt lat="12.9088170" lon="99.6803350">
    <ele>112.0</ele>
    <time>2018-01-28T03:16:43Z</time>
   </trkpt>
   <trkpt lat="12.9087920" lon="99.6802910">
    <ele>111.9</ele>
    <time>2018-01-28T03:16:44Z</time>
   </trkpt>
   <trkpt lat="12.9087630" lon="99.6802380">
    <ele>110.6</ele>
    <time>2018-01-28T03:16:45Z</time>
   </trkpt>
   <trkpt lat="12.9087320" lon="99.6801790">
    <ele>109.9</ele>
    <time>2018-01-28T03:16:46Z</time>
   </trkpt>
   <trkpt lat="12.9086990" lon="99.6801180">
    <ele>109.2</ele>
    <time>2018-01-28T03:16:47Z</time>
   </trkpt>
   <trkpt lat="12.9086670" lon="99.6800560">
    <ele>108.6</ele>
    <time>2018-01-28T03:16:48Z</time>
   </trkpt>
   <trkpt lat="12.9086360" lon="99.6799980">
    <ele>108.0</ele>
    <time>2018-01-28T03:16:49Z</time>
   </trkpt>
   <trkpt lat="12.9086120" lon="99.6799490">
    <ele>107.7</ele>
    <time>2018-01-28T03:16:50Z</time>
   </trkpt>
   <trkpt lat="12.9085940" lon="99.6799120">
    <ele>107.8</ele>
    <time>2018-01-28T03:16:51Z</time>
   </trkpt>
   <trkpt lat="12.9085820" lon="99.6798770">
    <ele>108.0</ele>
    <time>2018-01-28T03:16:52Z</time>
   </trkpt>
   <trkpt lat="12.9085740" lon="99.6798450">
    <ele>107.8</ele>
    <time>2018-01-28T03:16:53Z</time>
   </trkpt>
   <trkpt lat="12.9085670" lon="99.6798150">
    <ele>107.8</ele>
    <time>2018-01-28T03:16:54Z</time>
   </trkpt>
   <trkpt lat="12.9085560" lon="99.6797840">
    <ele>108.1</ele>
    <time>2018-01-28T03:16:55Z</time>
   </trkpt>
   <trkpt lat="12.9085430" lon="99.6797560">
    <ele>108.4</ele>
    <time>2018-01-28T03:16:56Z</time>
   </trkpt>
   <trkpt lat="12.9085270" lon="99.6797310">
    <ele>108.2</ele>
    <time>2018-01-28T03:16:57Z</time>
   </trkpt>
   <trkpt lat="12.9084910" lon="99.6797040">
    <ele>108.6</ele>
    <time>2018-01-28T03:16:59Z</time>
   </trkpt>
   <trkpt lat="12.9084670" lon="99.6796890">
    <ele>108.4</ele>
    <time>2018-01-28T03:17:00Z</time>
   </trkpt>
   <trkpt lat="12.9084420" lon="99.6796600">
    <ele>108.8</ele>
    <time>2018-01-28T03:17:01Z</time>
   </trkpt>
   <trkpt lat="12.9084230" lon="99.6796180">
    <ele>109.4</ele>
    <time>2018-01-28T03:17:02Z</time>
   </trkpt>
   <trkpt lat="12.9084100" lon="99.6795640">
    <ele>109.9</ele>
    <time>2018-01-28T03:17:03Z</time>
   </trkpt>
   <trkpt lat="12.9083980" lon="99.6795060">
    <ele>110.5</ele>
    <time>2018-01-28T03:17:04Z</time>
   </trkpt>
   <trkpt lat="12.9083870" lon="99.6794530">
    <ele>110.8</ele>
    <time>2018-01-28T03:17:05Z</time>
   </trkpt>
   <trkpt lat="12.9083740" lon="99.6794020">
    <ele>111.1</ele>
    <time>2018-01-28T03:17:06Z</time>
   </trkpt>
   <trkpt lat="12.9083610" lon="99.6793500">
    <ele>110.9</ele>
    <time>2018-01-28T03:17:07Z</time>
   </trkpt>
   <trkpt lat="12.9083500" lon="99.6792990">
    <ele>110.8</ele>
    <time>2018-01-28T03:17:08Z</time>
   </trkpt>
   <trkpt lat="12.9083400" lon="99.6792560">
    <ele>110.6</ele>
    <time>2018-01-28T03:17:09Z</time>
   </trkpt>
   <trkpt lat="12.9083330" lon="99.6792200">
    <ele>110.3</ele>
    <time>2018-01-28T03:17:10Z</time>
   </trkpt>
   <trkpt lat="12.9083260" lon="99.6791820">
    <ele>110.1</ele>
    <time>2018-01-28T03:17:11Z</time>
   </trkpt>
   <trkpt lat="12.9083190" lon="99.6791480">
    <ele>109.5</ele>
    <time>2018-01-28T03:17:12Z</time>
   </trkpt>
   <trkpt lat="12.9083090" lon="99.6790950">
    <ele>109.3</ele>
    <time>2018-01-28T03:17:14Z</time>
   </trkpt>
   <trkpt lat="12.9083050" lon="99.6790590">
    <ele>109.1</ele>
    <time>2018-01-28T03:17:15Z</time>
   </trkpt>
   <trkpt lat="12.9083020" lon="99.6790110">
    <ele>108.9</ele>
    <time>2018-01-28T03:17:16Z</time>
   </trkpt>
   <trkpt lat="12.9083000" lon="99.6789580">
    <ele>108.6</ele>
    <time>2018-01-28T03:17:17Z</time>
   </trkpt>
   <trkpt lat="12.9082980" lon="99.6789040">
    <ele>108.1</ele>
    <time>2018-01-28T03:17:18Z</time>
   </trkpt>
   <trkpt lat="12.9082950" lon="99.6788430">
    <ele>108.1</ele>
    <time>2018-01-28T03:17:19Z</time>
   </trkpt>
   <trkpt lat="12.9082850" lon="99.6787800">
    <ele>108.3</ele>
    <time>2018-01-28T03:17:20Z</time>
   </trkpt>
   <trkpt lat="12.9082660" lon="99.6787220">
    <ele>107.6</ele>
    <time>2018-01-28T03:17:21Z</time>
   </trkpt>
   <trkpt lat="12.9082420" lon="99.6786750">
    <ele>107.6</ele>
    <time>2018-01-28T03:17:22Z</time>
   </trkpt>
   <trkpt lat="12.9082160" lon="99.6786330">
    <ele>106.8</ele>
    <time>2018-01-28T03:17:23Z</time>
   </trkpt>
   <trkpt lat="12.9081940" lon="99.6785840">
    <ele>105.6</ele>
    <time>2018-01-28T03:17:24Z</time>
   </trkpt>
   <trkpt lat="12.9081880" lon="99.6785280">
    <ele>105.7</ele>
    <time>2018-01-28T03:17:25Z</time>
   </trkpt>
   <trkpt lat="12.9081880" lon="99.6784670">
    <ele>105.7</ele>
    <time>2018-01-28T03:17:26Z</time>
   </trkpt>
   <trkpt lat="12.9081920" lon="99.6784160">
    <ele>105.7</ele>
    <time>2018-01-28T03:17:27Z</time>
   </trkpt>
   <trkpt lat="12.9081920" lon="99.6783640">
    <ele>105.9</ele>
    <time>2018-01-28T03:17:28Z</time>
   </trkpt>
   <trkpt lat="12.9081940" lon="99.6783210">
    <ele>106.1</ele>
    <time>2018-01-28T03:17:29Z</time>
   </trkpt>
   <trkpt lat="12.9082010" lon="99.6782750">
    <ele>108.4</ele>
    <time>2018-01-28T03:17:30Z</time>
   </trkpt>
   <trkpt lat="12.9082040" lon="99.6782260">
    <ele>108.9</ele>
    <time>2018-01-28T03:17:31Z</time>
   </trkpt>
   <trkpt lat="12.9082080" lon="99.6781790">
    <ele>109.5</ele>
    <time>2018-01-28T03:17:32Z</time>
   </trkpt>
   <trkpt lat="12.9082090" lon="99.6781290">
    <ele>109.4</ele>
    <time>2018-01-28T03:17:33Z</time>
   </trkpt>
   <trkpt lat="12.9082170" lon="99.6780780">
    <ele>109.2</ele>
    <time>2018-01-28T03:17:34Z</time>
   </trkpt>
   <trkpt lat="12.9082270" lon="99.6780400">
    <ele>108.9</ele>
    <time>2018-01-28T03:17:35Z</time>
   </trkpt>
   <trkpt lat="12.9082330" lon="99.6779980">
    <ele>108.3</ele>
    <time>2018-01-28T03:17:36Z</time>
   </trkpt>
   <trkpt lat="12.9082430" lon="99.6779600">
    <ele>108.8</ele>
    <time>2018-01-28T03:17:37Z</time>
   </trkpt>
   <trkpt lat="12.9082530" lon="99.6779250">
    <ele>108.0</ele>
    <time>2018-01-28T03:17:38Z</time>
   </trkpt>
   <trkpt lat="12.9082640" lon="99.6778970">
    <ele>108.1</ele>
    <time>2018-01-28T03:17:39Z</time>
   </trkpt>
   <trkpt lat="12.9082820" lon="99.6778500">
    <ele>108.4</ele>
    <time>2018-01-28T03:17:41Z</time>
   </trkpt>
   <trkpt lat="12.9082990" lon="99.6778070">
    <ele>107.6</ele>
    <time>2018-01-28T03:17:43Z</time>
   </trkpt>
   <trkpt lat="12.9083080" lon="99.6777640">
    <ele>106.7</ele>
    <time>2018-01-28T03:17:45Z</time>
   </trkpt>
   <trkpt lat="12.9083120" lon="99.6777340">
    <ele>105.9</ele>
    <time>2018-01-28T03:17:46Z</time>
   </trkpt>
   <trkpt lat="12.9083190" lon="99.6776960">
    <ele>105.3</ele>
    <time>2018-01-28T03:17:48Z</time>
   </trkpt>
   <trkpt lat="12.9083330" lon="99.6776510">
    <ele>106.0</ele>
    <time>2018-01-28T03:17:50Z</time>
   </trkpt>
   <trkpt lat="12.9083410" lon="99.6776200">
    <ele>105.6</ele>
    <time>2018-01-28T03:17:51Z</time>
   </trkpt>
   <trkpt lat="12.9083500" lon="99.6775840">
    <ele>105.7</ele>
    <time>2018-01-28T03:17:52Z</time>
   </trkpt>
   <trkpt lat="12.9083580" lon="99.6775490">
    <ele>105.3</ele>
    <time>2018-01-28T03:17:53Z</time>
   </trkpt>
   <trkpt lat="12.9083680" lon="99.6775080">
    <ele>105.8</ele>
    <time>2018-01-28T03:17:54Z</time>
   </trkpt>
   <trkpt lat="12.9083780" lon="99.6774740">
    <ele>105.0</ele>
    <time>2018-01-28T03:17:55Z</time>
   </trkpt>
   <trkpt lat="12.9083890" lon="99.6774390">
    <ele>104.1</ele>
    <time>2018-01-28T03:17:56Z</time>
   </trkpt>
   <trkpt lat="12.9084020" lon="99.6774030">
    <ele>103.2</ele>
    <time>2018-01-28T03:17:57Z</time>
   </trkpt>
   <trkpt lat="12.9084150" lon="99.6773680">
    <ele>103.6</ele>
    <time>2018-01-28T03:17:58Z</time>
   </trkpt>
   <trkpt lat="12.9084280" lon="99.6773340">
    <ele>102.7</ele>
    <time>2018-01-28T03:17:59Z</time>
   </trkpt>
   <trkpt lat="12.9084410" lon="99.6772840">
    <ele>102.2</ele>
    <time>2018-01-28T03:18:01Z</time>
   </trkpt>
   <trkpt lat="12.9084490" lon="99.6772510">
    <ele>102.0</ele>
    <time>2018-01-28T03:18:02Z</time>
   </trkpt>
   <trkpt lat="12.9084590" lon="99.6772170">
    <ele>102.3</ele>
    <time>2018-01-28T03:18:03Z</time>
   </trkpt>
   <trkpt lat="12.9084690" lon="99.6771820">
    <ele>102.1</ele>
    <time>2018-01-28T03:18:04Z</time>
   </trkpt>
   <trkpt lat="12.9084790" lon="99.6771450">
    <ele>101.7</ele>
    <time>2018-01-28T03:18:05Z</time>
   </trkpt>
   <trkpt lat="12.9084910" lon="99.6771090">
    <ele>101.4</ele>
    <time>2018-01-28T03:18:06Z</time>
   </trkpt>
   <trkpt lat="12.9085070" lon="99.6770770">
    <ele>101.4</ele>
    <time>2018-01-28T03:18:07Z</time>
   </trkpt>
   <trkpt lat="12.9085270" lon="99.6770490">
    <ele>100.9</ele>
    <time>2018-01-28T03:18:08Z</time>
   </trkpt>
   <trkpt lat="12.9085520" lon="99.6770180">
    <ele>100.6</ele>
    <time>2018-01-28T03:18:09Z</time>
   </trkpt>
   <trkpt lat="12.9085800" lon="99.6769800">
    <ele>100.6</ele>
    <time>2018-01-28T03:18:10Z</time>
   </trkpt>
   <trkpt lat="12.9086100" lon="99.6769380">
    <ele>100.4</ele>
    <time>2018-01-28T03:18:11Z</time>
   </trkpt>
   <trkpt lat="12.9086380" lon="99.6768870">
    <ele>100.7</ele>
    <time>2018-01-28T03:18:12Z</time>
   </trkpt>
   <trkpt lat="12.9086640" lon="99.6768300">
    <ele>101.0</ele>
    <time>2018-01-28T03:18:13Z</time>
   </trkpt>
   <trkpt lat="12.9086840" lon="99.6767850">
    <ele>100.7</ele>
    <time>2018-01-28T03:18:14Z</time>
   </trkpt>
   <trkpt lat="12.9087120" lon="99.6767120">
    <ele>100.6</ele>
    <time>2018-01-28T03:18:15Z</time>
   </trkpt>
   <trkpt lat="12.9087470" lon="99.6766580">
    <ele>101.0</ele>
    <time>2018-01-28T03:18:16Z</time>
   </trkpt>
   <trkpt lat="12.9087640" lon="99.6765920">
    <ele>100.1</ele>
    <time>2018-01-28T03:18:17Z</time>
   </trkpt>
   <trkpt lat="12.9087810" lon="99.6765340">
    <ele>99.6</ele>
    <time>2018-01-28T03:18:18Z</time>
   </trkpt>
   <trkpt lat="12.9087990" lon="99.6764780">
    <ele>99.9</ele>
    <time>2018-01-28T03:18:19Z</time>
   </trkpt>
   <trkpt lat="12.9088130" lon="99.6764100">
    <ele>98.8</ele>
    <time>2018-01-28T03:18:20Z</time>
   </trkpt>
   <trkpt lat="12.9088420" lon="99.6763430">
    <ele>98.8</ele>
    <time>2018-01-28T03:18:21Z</time>
   </trkpt>
   <trkpt lat="12.9088670" lon="99.6762770">
    <ele>97.7</ele>
    <time>2018-01-28T03:18:22Z</time>
   </trkpt>
   <trkpt lat="12.9088930" lon="99.6762150">
    <ele>97.6</ele>
    <time>2018-01-28T03:18:23Z</time>
   </trkpt>
   <trkpt lat="12.9089210" lon="99.6761540">
    <ele>97.3</ele>
    <time>2018-01-28T03:18:24Z</time>
   </trkpt>
   <trkpt lat="12.9089490" lon="99.6760930">
    <ele>97.0</ele>
    <time>2018-01-28T03:18:25Z</time>
   </trkpt>
   <trkpt lat="12.9089730" lon="99.6760260">
    <ele>96.9</ele>
    <time>2018-01-28T03:18:26Z</time>
   </trkpt>
   <trkpt lat="12.9089930" lon="99.6759600">
    <ele>97.3</ele>
    <time>2018-01-28T03:18:27Z</time>
   </trkpt>
   <trkpt lat="12.9090100" lon="99.6758960">
    <ele>97.2</ele>
    <time>2018-01-28T03:18:28Z</time>
   </trkpt>
   <trkpt lat="12.9090160" lon="99.6758280">
    <ele>97.1</ele>
    <time>2018-01-28T03:18:29Z</time>
   </trkpt>
   <trkpt lat="12.9090420" lon="99.6757460">
    <ele>97.1</ele>
    <time>2018-01-28T03:18:30Z</time>
   </trkpt>
   <trkpt lat="12.9090600" lon="99.6756790">
    <ele>96.3</ele>
    <time>2018-01-28T03:18:31Z</time>
   </trkpt>
   <trkpt lat="12.9090710" lon="99.6756160">
    <ele>95.8</ele>
    <time>2018-01-28T03:18:32Z</time>
   </trkpt>
   <trkpt lat="12.9090960" lon="99.6755550">
    <ele>94.7</ele>
    <time>2018-01-28T03:18:33Z</time>
   </trkpt>
   <trkpt lat="12.9091240" lon="99.6754880">
    <ele>94.2</ele>
    <time>2018-01-28T03:18:34Z</time>
   </trkpt>
   <trkpt lat="12.9091480" lon="99.6754200">
    <ele>93.4</ele>
    <time>2018-01-28T03:18:35Z</time>
   </trkpt>
   <trkpt lat="12.9091710" lon="99.6753550">
    <ele>93.0</ele>
    <time>2018-01-28T03:18:36Z</time>
   </trkpt>
   <trkpt lat="12.9091920" lon="99.6752960">
    <ele>91.9</ele>
    <time>2018-01-28T03:18:37Z</time>
   </trkpt>
   <trkpt lat="12.9092140" lon="99.6752160">
    <ele>90.8</ele>
    <time>2018-01-28T03:18:38Z</time>
   </trkpt>
   <trkpt lat="12.9092320" lon="99.6751350">
    <ele>89.9</ele>
    <time>2018-01-28T03:18:39Z</time>
   </trkpt>
   <trkpt lat="12.9092500" lon="99.6750780">
    <ele>89.4</ele>
    <time>2018-01-28T03:18:40Z</time>
   </trkpt>
   <trkpt lat="12.9092680" lon="99.6750110">
    <ele>89.1</ele>
    <time>2018-01-28T03:18:41Z</time>
   </trkpt>
   <trkpt lat="12.9092820" lon="99.6749500">
    <ele>88.7</ele>
    <time>2018-01-28T03:18:42Z</time>
   </trkpt>
   <trkpt lat="12.9092980" lon="99.6748880">
    <ele>89.1</ele>
    <time>2018-01-28T03:18:43Z</time>
   </trkpt>
   <trkpt lat="12.9093150" lon="99.6748370">
    <ele>89.3</ele>
    <time>2018-01-28T03:18:44Z</time>
   </trkpt>
   <trkpt lat="12.9093240" lon="99.6747810">
    <ele>89.9</ele>
    <time>2018-01-28T03:18:45Z</time>
   </trkpt>
   <trkpt lat="12.9093340" lon="99.6747180">
    <ele>90.4</ele>
    <time>2018-01-28T03:18:46Z</time>
   </trkpt>
   <trkpt lat="12.9093510" lon="99.6746630">
    <ele>90.6</ele>
    <time>2018-01-28T03:18:47Z</time>
   </trkpt>
   <trkpt lat="12.9093640" lon="99.6746200">
    <ele>90.7</ele>
    <time>2018-01-28T03:18:48Z</time>
   </trkpt>
   <trkpt lat="12.9093760" lon="99.6745750">
    <ele>91.4</ele>
    <time>2018-01-28T03:18:49Z</time>
   </trkpt>
   <trkpt lat="12.9094020" lon="99.6745490">
    <ele>91.4</ele>
    <time>2018-01-28T03:18:50Z</time>
   </trkpt>
   <trkpt lat="12.9094620" lon="99.6745600">
    <ele>92.3</ele>
    <time>2018-01-28T03:18:52Z</time>
   </trkpt>
   <trkpt lat="12.9095110" lon="99.6745710">
    <ele>92.7</ele>
    <time>2018-01-28T03:18:54Z</time>
   </trkpt>
   <trkpt lat="12.9095420" lon="99.6745780">
    <ele>92.8</ele>
    <time>2018-01-28T03:18:55Z</time>
   </trkpt>
   <trkpt lat="12.9095700" lon="99.6745820">
    <ele>92.8</ele>
    <time>2018-01-28T03:18:56Z</time>
   </trkpt>
   <trkpt lat="12.9096200" lon="99.6745950">
    <ele>93.0</ele>
    <time>2018-01-28T03:18:58Z</time>
   </trkpt>
   <trkpt lat="12.9096530" lon="99.6746040">
    <ele>93.1</ele>
    <time>2018-01-28T03:18:59Z</time>
   </trkpt>
   <trkpt lat="12.9096900" lon="99.6746130">
    <ele>93.1</ele>
    <time>2018-01-28T03:19:00Z</time>
   </trkpt>
   <trkpt lat="12.9097350" lon="99.6746220">
    <ele>93.1</ele>
    <time>2018-01-28T03:19:01Z</time>
   </trkpt>
   <trkpt lat="12.9097870" lon="99.6746320">
    <ele>93.1</ele>
    <time>2018-01-28T03:19:02Z</time>
   </trkpt>
   <trkpt lat="12.9098570" lon="99.6746430">
    <ele>93.3</ele>
    <time>2018-01-28T03:19:03Z</time>
   </trkpt>
   <trkpt lat="12.9099510" lon="99.6746600">
    <ele>93.3</ele>
    <time>2018-01-28T03:19:04Z</time>
   </trkpt>
   <trkpt lat="12.9100120" lon="99.6746690">
    <ele>93.2</ele>
    <time>2018-01-28T03:19:05Z</time>
   </trkpt>
   <trkpt lat="12.9100680" lon="99.6746770">
    <ele>93.2</ele>
    <time>2018-01-28T03:19:06Z</time>
   </trkpt>
   <trkpt lat="12.9101110" lon="99.6746770">
    <ele>93.1</ele>
    <time>2018-01-28T03:19:07Z</time>
   </trkpt>
   <trkpt lat="12.9101480" lon="99.6746670">
    <ele>92.8</ele>
    <time>2018-01-28T03:19:08Z</time>
   </trkpt>
   <trkpt lat="12.9101710" lon="99.6746470">
    <ele>92.2</ele>
    <time>2018-01-28T03:19:09Z</time>
   </trkpt>
   <trkpt lat="12.9101850" lon="99.6746160">
    <ele>91.9</ele>
    <time>2018-01-28T03:19:10Z</time>
   </trkpt>
   <trkpt lat="12.9101960" lon="99.6745820">
    <ele>91.9</ele>
    <time>2018-01-28T03:19:11Z</time>
   </trkpt>
   <trkpt lat="12.9102110" lon="99.6745460">
    <ele>90.9</ele>
    <time>2018-01-28T03:19:12Z</time>
   </trkpt>
   <trkpt lat="12.9102260" lon="99.6745090">
    <ele>90.3</ele>
    <time>2018-01-28T03:19:13Z</time>
   </trkpt>
   <trkpt lat="12.9102400" lon="99.6744720">
    <ele>89.6</ele>
    <time>2018-01-28T03:19:14Z</time>
   </trkpt>
   <trkpt lat="12.9102460" lon="99.6744320">
    <ele>88.9</ele>
    <time>2018-01-28T03:19:15Z</time>
   </trkpt>
   <trkpt lat="12.9102420" lon="99.6743850">
    <ele>88.2</ele>
    <time>2018-01-28T03:19:16Z</time>
   </trkpt>
   <trkpt lat="12.9102290" lon="99.6743360">
    <ele>87.6</ele>
    <time>2018-01-28T03:19:17Z</time>
   </trkpt>
   <trkpt lat="12.9102070" lon="99.6742830">
    <ele>86.9</ele>
    <time>2018-01-28T03:19:18Z</time>
   </trkpt>
   <trkpt lat="12.9101770" lon="99.6742320">
    <ele>86.3</ele>
    <time>2018-01-28T03:19:19Z</time>
   </trkpt>
   <trkpt lat="12.9101410" lon="99.6741890">
    <ele>86.3</ele>
    <time>2018-01-28T03:19:20Z</time>
   </trkpt>
   <trkpt lat="12.9100810" lon="99.6741520">
    <ele>87.0</ele>
    <time>2018-01-28T03:19:21Z</time>
   </trkpt>
   <trkpt lat="12.9100520" lon="99.6740720">
    <ele>86.6</ele>
    <time>2018-01-28T03:19:22Z</time>
   </trkpt>
   <trkpt lat="12.9100120" lon="99.6740380">
    <ele>86.6</ele>
    <time>2018-01-28T03:19:23Z</time>
   </trkpt>
   <trkpt lat="12.9099750" lon="99.6740010">
    <ele>86.5</ele>
    <time>2018-01-28T03:19:24Z</time>
   </trkpt>
   <trkpt lat="12.9099360" lon="99.6739690">
    <ele>86.5</ele>
    <time>2018-01-28T03:19:25Z</time>
   </trkpt>
   <trkpt lat="12.9099050" lon="99.6739260">
    <ele>86.6</ele>
    <time>2018-01-28T03:19:26Z</time>
   </trkpt>
   <trkpt lat="12.9098840" lon="99.6738780">
    <ele>86.3</ele>
    <time>2018-01-28T03:19:27Z</time>
   </trkpt>
   <trkpt lat="12.9098770" lon="99.6738270">
    <ele>86.1</ele>
    <time>2018-01-28T03:19:28Z</time>
   </trkpt>
   <trkpt lat="12.9098850" lon="99.6737790">
    <ele>85.9</ele>
    <time>2018-01-28T03:19:29Z</time>
   </trkpt>
   <trkpt lat="12.9099030" lon="99.6737280">
    <ele>85.7</ele>
    <time>2018-01-28T03:19:30Z</time>
   </trkpt>
   <trkpt lat="12.9099320" lon="99.6736840">
    <ele>84.9</ele>
    <time>2018-01-28T03:19:31Z</time>
   </trkpt>
   <trkpt lat="12.9099700" lon="99.6736470">
    <ele>84.3</ele>
    <time>2018-01-28T03:19:32Z</time>
   </trkpt>
   <trkpt lat="12.9100220" lon="99.6736250">
    <ele>83.9</ele>
    <time>2018-01-28T03:19:33Z</time>
   </trkpt>
   <trkpt lat="12.9100750" lon="99.6736150">
    <ele>83.9</ele>
    <time>2018-01-28T03:19:34Z</time>
   </trkpt>
   <trkpt lat="12.9101280" lon="99.6736080">
    <ele>83.9</ele>
    <time>2018-01-28T03:19:35Z</time>
   </trkpt>
   <trkpt lat="12.9101850" lon="99.6735990">
    <ele>84.0</ele>
    <time>2018-01-28T03:19:36Z</time>
   </trkpt>
   <trkpt lat="12.9102450" lon="99.6735880">
    <ele>84.1</ele>
    <time>2018-01-28T03:19:37Z</time>
   </trkpt>
   <trkpt lat="12.9102940" lon="99.6735670">
    <ele>83.9</ele>
    <time>2018-01-28T03:19:38Z</time>
   </trkpt>
   <trkpt lat="12.9103430" lon="99.6735310">
    <ele>83.8</ele>
    <time>2018-01-28T03:19:39Z</time>
   </trkpt>
   <trkpt lat="12.9103750" lon="99.6734870">
    <ele>83.8</ele>
    <time>2018-01-28T03:19:40Z</time>
   </trkpt>
   <trkpt lat="12.9104020" lon="99.6734320">
    <ele>84.2</ele>
    <time>2018-01-28T03:19:41Z</time>
   </trkpt>
   <trkpt lat="12.9104170" lon="99.6733780">
    <ele>84.2</ele>
    <time>2018-01-28T03:19:42Z</time>
   </trkpt>
   <trkpt lat="12.9104260" lon="99.6733190">
    <ele>84.5</ele>
    <time>2018-01-28T03:19:43Z</time>
   </trkpt>
   <trkpt lat="12.9104370" lon="99.6732600">
    <ele>84.5</ele>
    <time>2018-01-28T03:19:44Z</time>
   </trkpt>
   <trkpt lat="12.9104610" lon="99.6732050">
    <ele>84.2</ele>
    <time>2018-01-28T03:19:45Z</time>
   </trkpt>
   <trkpt lat="12.9104850" lon="99.6731420">
    <ele>84.1</ele>
    <time>2018-01-28T03:19:46Z</time>
   </trkpt>
   <trkpt lat="12.9105090" lon="99.6730820">
    <ele>84.1</ele>
    <time>2018-01-28T03:19:47Z</time>
   </trkpt>
   <trkpt lat="12.9105310" lon="99.6730200">
    <ele>84.5</ele>
    <time>2018-01-28T03:19:48Z</time>
   </trkpt>
   <trkpt lat="12.9105470" lon="99.6729580">
    <ele>84.8</ele>
    <time>2018-01-28T03:19:49Z</time>
   </trkpt>
   <trkpt lat="12.9105640" lon="99.6728970">
    <ele>85.4</ele>
    <time>2018-01-28T03:19:50Z</time>
   </trkpt>
   <trkpt lat="12.9105670" lon="99.6728360">
    <ele>85.8</ele>
    <time>2018-01-28T03:19:51Z</time>
   </trkpt>
   <trkpt lat="12.9105910" lon="99.6727700">
    <ele>86.8</ele>
    <time>2018-01-28T03:19:52Z</time>
   </trkpt>
   <trkpt lat="12.9106110" lon="99.6727110">
    <ele>87.3</ele>
    <time>2018-01-28T03:19:53Z</time>
   </trkpt>
   <trkpt lat="12.9106370" lon="99.6726540">
    <ele>87.6</ele>
    <time>2018-01-28T03:19:54Z</time>
   </trkpt>
   <trkpt lat="12.9106710" lon="99.6726070">
    <ele>87.8</ele>
    <time>2018-01-28T03:19:55Z</time>
   </trkpt>
   <trkpt lat="12.9107060" lon="99.6725610">
    <ele>88.1</ele>
    <time>2018-01-28T03:19:56Z</time>
   </trkpt>
   <trkpt lat="12.9107450" lon="99.6725180">
    <ele>88.0</ele>
    <time>2018-01-28T03:19:57Z</time>
   </trkpt>
   <trkpt lat="12.9107800" lon="99.6724790">
    <ele>87.8</ele>
    <time>2018-01-28T03:19:58Z</time>
   </trkpt>
   <trkpt lat="12.9108090" lon="99.6724330">
    <ele>87.6</ele>
    <time>2018-01-28T03:19:59Z</time>
   </trkpt>
   <trkpt lat="12.9108510" lon="99.6724050">
    <ele>87.5</ele>
    <time>2018-01-28T03:20:00Z</time>
   </trkpt>
   <trkpt lat="12.9108820" lon="99.6723500">
    <ele>87.6</ele>
    <time>2018-01-28T03:20:01Z</time>
   </trkpt>
   <trkpt lat="12.9109140" lon="99.6722980">
    <ele>87.8</ele>
    <time>2018-01-28T03:20:02Z</time>
   </trkpt>
   <trkpt lat="12.9109490" lon="99.6722640">
    <ele>87.9</ele>
    <time>2018-01-28T03:20:03Z</time>
   </trkpt>
   <trkpt lat="12.9109900" lon="99.6722310">
    <ele>87.9</ele>
    <time>2018-01-28T03:20:04Z</time>
   </trkpt>
   <trkpt lat="12.9110350" lon="99.6722070">
    <ele>87.9</ele>
    <time>2018-01-28T03:20:05Z</time>
   </trkpt>
   <trkpt lat="12.9110890" lon="99.6721800">
    <ele>87.9</ele>
    <time>2018-01-28T03:20:06Z</time>
   </trkpt>
   <trkpt lat="12.9111350" lon="99.6721500">
    <ele>87.9</ele>
    <time>2018-01-28T03:20:07Z</time>
   </trkpt>
   <trkpt lat="12.9111750" lon="99.6721270">
    <ele>87.9</ele>
    <time>2018-01-28T03:20:08Z</time>
   </trkpt>
   <trkpt lat="12.9112050" lon="99.6721000">
    <ele>87.9</ele>
    <time>2018-01-28T03:20:09Z</time>
   </trkpt>
   <trkpt lat="12.9112280" lon="99.6720690">
    <ele>88.0</ele>
    <time>2018-01-28T03:20:10Z</time>
   </trkpt>
   <trkpt lat="12.9112460" lon="99.6720430">
    <ele>88.0</ele>
    <time>2018-01-28T03:20:11Z</time>
   </trkpt>
   <trkpt lat="12.9112490" lon="99.6720030">
    <ele>88.1</ele>
    <time>2018-01-28T03:20:12Z</time>
   </trkpt>
   <trkpt lat="12.9112440" lon="99.6719670">
    <ele>88.1</ele>
    <time>2018-01-28T03:20:13Z</time>
   </trkpt>
   <trkpt lat="12.9112260" lon="99.6719260">
    <ele>88.1</ele>
    <time>2018-01-28T03:20:14Z</time>
   </trkpt>
   <trkpt lat="12.9111940" lon="99.6718850">
    <ele>88.2</ele>
    <time>2018-01-28T03:20:15Z</time>
   </trkpt>
   <trkpt lat="12.9111720" lon="99.6718640">
    <ele>88.2</ele>
    <time>2018-01-28T03:20:16Z</time>
   </trkpt>
   <trkpt lat="12.9111240" lon="99.6718430">
    <ele>88.1</ele>
    <time>2018-01-28T03:20:18Z</time>
   </trkpt>
   <trkpt lat="12.9110970" lon="99.6718360">
    <ele>88.2</ele>
    <time>2018-01-28T03:20:19Z</time>
   </trkpt>
   <trkpt lat="12.9110680" lon="99.6718240">
    <ele>88.1</ele>
    <time>2018-01-28T03:20:22Z</time>
   </trkpt>
   <trkpt lat="12.9110450" lon="99.6718050">
    <ele>88.2</ele>
    <time>2018-01-28T03:20:27Z</time>
   </trkpt>
   <trkpt lat="12.9110360" lon="99.6717730">
    <ele>88.1</ele>
    <time>2018-01-28T03:20:36Z</time>
   </trkpt>
   <trkpt lat="12.9110540" lon="99.6717430">
    <ele>88.0</ele>
    <time>2018-01-28T03:20:39Z</time>
   </trkpt>
   <trkpt lat="12.9110810" lon="99.6717270">
    <ele>87.9</ele>
    <time>2018-01-28T03:20:42Z</time>
   </trkpt>
   <trkpt lat="12.9111030" lon="99.6717030">
    <ele>87.8</ele>
    <time>2018-01-28T03:20:44Z</time>
   </trkpt>
   <trkpt lat="12.9111110" lon="99.6716670">
    <ele>87.7</ele>
    <time>2018-01-28T03:20:46Z</time>
   </trkpt>
   <trkpt lat="12.9110950" lon="99.6716270">
    <ele>87.5</ele>
    <time>2018-01-28T03:20:48Z</time>
   </trkpt>
   <trkpt lat="12.9110750" lon="99.6715840">
    <ele>87.4</ele>
    <time>2018-01-28T03:20:50Z</time>
   </trkpt>
   <trkpt lat="12.9110810" lon="99.6715290">
    <ele>87.3</ele>
    <time>2018-01-28T03:20:52Z</time>
   </trkpt>
   <trkpt lat="12.9111000" lon="99.6714970">
    <ele>87.2</ele>
    <time>2018-01-28T03:20:53Z</time>
   </trkpt>
   <trkpt lat="12.9111230" lon="99.6714640">
    <ele>87.1</ele>
    <time>2018-01-28T03:20:54Z</time>
   </trkpt>
   <trkpt lat="12.9111490" lon="99.6714280">
    <ele>87.0</ele>
    <time>2018-01-28T03:20:55Z</time>
   </trkpt>
   <trkpt lat="12.9111750" lon="99.6713880">
    <ele>86.9</ele>
    <time>2018-01-28T03:20:56Z</time>
   </trkpt>
   <trkpt lat="12.9112040" lon="99.6713420">
    <ele>86.9</ele>
    <time>2018-01-28T03:20:57Z</time>
   </trkpt>
   <trkpt lat="12.9112450" lon="99.6712630">
    <ele>86.7</ele>
    <time>2018-01-28T03:20:58Z</time>
   </trkpt>
   <trkpt lat="12.9112710" lon="99.6712150">
    <ele>86.7</ele>
    <time>2018-01-28T03:20:59Z</time>
   </trkpt>
   <trkpt lat="12.9112990" lon="99.6711640">
    <ele>86.6</ele>
    <time>2018-01-28T03:21:00Z</time>
   </trkpt>
   <trkpt lat="12.9113230" lon="99.6711100">
    <ele>86.6</ele>
    <time>2018-01-28T03:21:01Z</time>
   </trkpt>
   <trkpt lat="12.9113510" lon="99.6710540">
    <ele>86.6</ele>
    <time>2018-01-28T03:21:02Z</time>
   </trkpt>
   <trkpt lat="12.9113750" lon="99.6709940">
    <ele>86.5</ele>
    <time>2018-01-28T03:21:03Z</time>
   </trkpt>
   <trkpt lat="12.9113970" lon="99.6709320">
    <ele>86.5</ele>
    <time>2018-01-28T03:21:04Z</time>
   </trkpt>
   <trkpt lat="12.9114240" lon="99.6708700">
    <ele>86.4</ele>
    <time>2018-01-28T03:21:05Z</time>
   </trkpt>
   <trkpt lat="12.9114500" lon="99.6708020">
    <ele>86.3</ele>
    <time>2018-01-28T03:21:06Z</time>
   </trkpt>
   <trkpt lat="12.9114720" lon="99.6707370">
    <ele>86.2</ele>
    <time>2018-01-28T03:21:07Z</time>
   </trkpt>
   <trkpt lat="12.9114920" lon="99.6706710">
    <ele>86.1</ele>
    <time>2018-01-28T03:21:08Z</time>
   </trkpt>
   <trkpt lat="12.9115130" lon="99.6706080">
    <ele>85.9</ele>
    <time>2018-01-28T03:21:09Z</time>
   </trkpt>
   <trkpt lat="12.9115340" lon="99.6705390">
    <ele>85.7</ele>
    <time>2018-01-28T03:21:10Z</time>
   </trkpt>
   <trkpt lat="12.9115480" lon="99.6704580">
    <ele>85.4</ele>
    <time>2018-01-28T03:21:11Z</time>
   </trkpt>
   <trkpt lat="12.9115630" lon="99.6703890">
    <ele>85.2</ele>
    <time>2018-01-28T03:21:12Z</time>
   </trkpt>
   <trkpt lat="12.9115650" lon="99.6703140">
    <ele>84.8</ele>
    <time>2018-01-28T03:21:13Z</time>
   </trkpt>
   <trkpt lat="12.9115840" lon="99.6702250">
    <ele>84.4</ele>
    <time>2018-01-28T03:21:14Z</time>
   </trkpt>
   <trkpt lat="12.9115950" lon="99.6701550">
    <ele>84.0</ele>
    <time>2018-01-28T03:21:15Z</time>
   </trkpt>
   <trkpt lat="12.9116080" lon="99.6700720">
    <ele>83.5</ele>
    <time>2018-01-28T03:21:16Z</time>
   </trkpt>
   <trkpt lat="12.9116230" lon="99.6700050">
    <ele>83.2</ele>
    <time>2018-01-28T03:21:17Z</time>
   </trkpt>
   <trkpt lat="12.9116140" lon="99.6699310">
    <ele>82.8</ele>
    <time>2018-01-28T03:21:18Z</time>
   </trkpt>
   <trkpt lat="12.9116100" lon="99.6698580">
    <ele>82.4</ele>
    <time>2018-01-28T03:21:19Z</time>
   </trkpt>
   <trkpt lat="12.9116020" lon="99.6697910">
    <ele>82.1</ele>
    <time>2018-01-28T03:21:20Z</time>
   </trkpt>
   <trkpt lat="12.9115930" lon="99.6697280">
    <ele>81.9</ele>
    <time>2018-01-28T03:21:21Z</time>
   </trkpt>
   <trkpt lat="12.9115900" lon="99.6696640">
    <ele>81.6</ele>
    <time>2018-01-28T03:21:22Z</time>
   </trkpt>
   <trkpt lat="12.9115650" lon="99.6696010">
    <ele>81.4</ele>
    <time>2018-01-28T03:21:23Z</time>
   </trkpt>
   <trkpt lat="12.9115600" lon="99.6695420">
    <ele>81.2</ele>
    <time>2018-01-28T03:21:24Z</time>
   </trkpt>
   <trkpt lat="12.9115390" lon="99.6694870">
    <ele>81.0</ele>
    <time>2018-01-28T03:21:25Z</time>
   </trkpt>
   <trkpt lat="12.9115330" lon="99.6694420">
    <ele>80.9</ele>
    <time>2018-01-28T03:21:26Z</time>
   </trkpt>
   <trkpt lat="12.9115090" lon="99.6694050">
    <ele>80.8</ele>
    <time>2018-01-28T03:21:27Z</time>
   </trkpt>
   <trkpt lat="12.9115070" lon="99.6693760">
    <ele>80.7</ele>
    <time>2018-01-28T03:21:28Z</time>
   </trkpt>
   <trkpt lat="12.9115140" lon="99.6693410">
    <ele>80.6</ele>
    <time>2018-01-28T03:21:29Z</time>
   </trkpt>
   <trkpt lat="12.9115340" lon="99.6692910">
    <ele>80.4</ele>
    <time>2018-01-28T03:21:31Z</time>
   </trkpt>
   <trkpt lat="12.9115550" lon="99.6692620">
    <ele>80.3</ele>
    <time>2018-01-28T03:21:32Z</time>
   </trkpt>
   <trkpt lat="12.9115810" lon="99.6692250">
    <ele>80.2</ele>
    <time>2018-01-28T03:21:33Z</time>
   </trkpt>
   <trkpt lat="12.9116350" lon="99.6692060">
    <ele>80.4</ele>
    <time>2018-01-28T03:21:34Z</time>
   </trkpt>
   <trkpt lat="12.9116880" lon="99.6691810">
    <ele>80.6</ele>
    <time>2018-01-28T03:21:35Z</time>
   </trkpt>
   <trkpt lat="12.9117560" lon="99.6691660">
    <ele>80.8</ele>
    <time>2018-01-28T03:21:36Z</time>
   </trkpt>
   <trkpt lat="12.9118130" lon="99.6691640">
    <ele>80.9</ele>
    <time>2018-01-28T03:21:37Z</time>
   </trkpt>
   <trkpt lat="12.9118690" lon="99.6691510">
    <ele>81.1</ele>
    <time>2018-01-28T03:21:38Z</time>
   </trkpt>
   <trkpt lat="12.9119410" lon="99.6691370">
    <ele>81.3</ele>
    <time>2018-01-28T03:21:39Z</time>
   </trkpt>
   <trkpt lat="12.9120140" lon="99.6691150">
    <ele>81.5</ele>
    <time>2018-01-28T03:21:40Z</time>
   </trkpt>
   <trkpt lat="12.9120830" lon="99.6690900">
    <ele>81.5</ele>
    <time>2018-01-28T03:21:41Z</time>
   </trkpt>
   <trkpt lat="12.9121570" lon="99.6690870">
    <ele>81.4</ele>
    <time>2018-01-28T03:21:42Z</time>
   </trkpt>
   <trkpt lat="12.9122370" lon="99.6690810">
    <ele>81.2</ele>
    <time>2018-01-28T03:21:43Z</time>
   </trkpt>
   <trkpt lat="12.9123170" lon="99.6690890">
    <ele>81.5</ele>
    <time>2018-01-28T03:21:44Z</time>
   </trkpt>
   <trkpt lat="12.9123730" lon="99.6691130">
    <ele>81.8</ele>
    <time>2018-01-28T03:21:45Z</time>
   </trkpt>
   <trkpt lat="12.9124340" lon="99.6691300">
    <ele>82.2</ele>
    <time>2018-01-28T03:21:46Z</time>
   </trkpt>
   <trkpt lat="12.9124890" lon="99.6691390">
    <ele>82.5</ele>
    <time>2018-01-28T03:21:47Z</time>
   </trkpt>
   <trkpt lat="12.9125350" lon="99.6691470">
    <ele>82.6</ele>
    <time>2018-01-28T03:21:48Z</time>
   </trkpt>
   <trkpt lat="12.9125750" lon="99.6691420">
    <ele>82.7</ele>
    <time>2018-01-28T03:21:49Z</time>
   </trkpt>
   <trkpt lat="12.9126230" lon="99.6691210">
    <ele>82.5</ele>
    <time>2018-01-28T03:21:50Z</time>
   </trkpt>
   <trkpt lat="12.9126750" lon="99.6691060">
    <ele>82.8</ele>
    <time>2018-01-28T03:21:51Z</time>
   </trkpt>
   <trkpt lat="12.9127290" lon="99.6690990">
    <ele>83.0</ele>
    <time>2018-01-28T03:21:52Z</time>
   </trkpt>
   <trkpt lat="12.9127730" lon="99.6690970">
    <ele>83.2</ele>
    <time>2018-01-28T03:21:53Z</time>
   </trkpt>
   <trkpt lat="12.9128320" lon="99.6690850">
    <ele>83.5</ele>
    <time>2018-01-28T03:21:54Z</time>
   </trkpt>
   <trkpt lat="12.9128860" lon="99.6690850">
    <ele>83.9</ele>
    <time>2018-01-28T03:21:55Z</time>
   </trkpt>
   <trkpt lat="12.9129260" lon="99.6690890">
    <ele>84.1</ele>
    <time>2018-01-28T03:21:56Z</time>
   </trkpt>
   <trkpt lat="12.9129840" lon="99.6690840">
    <ele>84.3</ele>
    <time>2018-01-28T03:21:57Z</time>
   </trkpt>
   <trkpt lat="12.9130410" lon="99.6690940">
    <ele>84.3</ele>
    <time>2018-01-28T03:21:58Z</time>
   </trkpt>
   <trkpt lat="12.9130910" lon="99.6691040">
    <ele>84.3</ele>
    <time>2018-01-28T03:21:59Z</time>
   </trkpt>
   <trkpt lat="12.9131550" lon="99.6691150">
    <ele>84.1</ele>
    <time>2018-01-28T03:22:00Z</time>
   </trkpt>
   <trkpt lat="12.9132150" lon="99.6691150">
    <ele>83.9</ele>
    <time>2018-01-28T03:22:01Z</time>
   </trkpt>
   <trkpt lat="12.9132690" lon="99.6691100">
    <ele>83.4</ele>
    <time>2018-01-28T03:22:02Z</time>
   </trkpt>
   <trkpt lat="12.9133150" lon="99.6691130">
    <ele>83.1</ele>
    <time>2018-01-28T03:22:03Z</time>
   </trkpt>
   <trkpt lat="12.9133660" lon="99.6691150">
    <ele>82.8</ele>
    <time>2018-01-28T03:22:04Z</time>
   </trkpt>
   <trkpt lat="12.9134130" lon="99.6691140">
    <ele>82.5</ele>
    <time>2018-01-28T03:22:05Z</time>
   </trkpt>
   <trkpt lat="12.9134410" lon="99.6691150">
    <ele>82.2</ele>
    <time>2018-01-28T03:22:06Z</time>
   </trkpt>
   <trkpt lat="12.9134830" lon="99.6691270">
    <ele>82.1</ele>
    <time>2018-01-28T03:22:08Z</time>
   </trkpt>
   <trkpt lat="12.9135190" lon="99.6691310">
    <ele>81.9</ele>
    <time>2018-01-28T03:22:09Z</time>
   </trkpt>
   <trkpt lat="12.9135660" lon="99.6691360">
    <ele>81.9</ele>
    <time>2018-01-28T03:22:10Z</time>
   </trkpt>
   <trkpt lat="12.9136430" lon="99.6691230">
    <ele>82.3</ele>
    <time>2018-01-28T03:22:12Z</time>
   </trkpt>
   <trkpt lat="12.9137440" lon="99.6691240">
    <ele>82.9</ele>
    <time>2018-01-28T03:22:13Z</time>
   </trkpt>
   <trkpt lat="12.9137790" lon="99.6691220">
    <ele>83.3</ele>
    <time>2018-01-28T03:22:14Z</time>
   </trkpt>
   <trkpt lat="12.9138250" lon="99.6691230">
    <ele>83.5</ele>
    <time>2018-01-28T03:22:15Z</time>
   </trkpt>
   <trkpt lat="12.9138680" lon="99.6691240">
    <ele>83.7</ele>
    <time>2018-01-28T03:22:16Z</time>
   </trkpt>
   <trkpt lat="12.9139090" lon="99.6691090">
    <ele>83.9</ele>
    <time>2018-01-28T03:22:17Z</time>
   </trkpt>
   <trkpt lat="12.9139490" lon="99.6691090">
    <ele>84.2</ele>
    <time>2018-01-28T03:22:18Z</time>
   </trkpt>
   <trkpt lat="12.9139750" lon="99.6691030">
    <ele>84.5</ele>
    <time>2018-01-28T03:22:19Z</time>
   </trkpt>
   <trkpt lat="12.9140050" lon="99.6691010">
    <ele>84.5</ele>
    <time>2018-01-28T03:22:20Z</time>
   </trkpt>
   <trkpt lat="12.9140530" lon="99.6691020">
    <ele>85.0</ele>
    <time>2018-01-28T03:22:22Z</time>
   </trkpt>
   <trkpt lat="12.9141060" lon="99.6691050">
    <ele>86.0</ele>
    <time>2018-01-28T03:22:24Z</time>
   </trkpt>
   <trkpt lat="12.9141460" lon="99.6691240">
    <ele>86.4</ele>
    <time>2018-01-28T03:22:25Z</time>
   </trkpt>
   <trkpt lat="12.9141730" lon="99.6691310">
    <ele>86.3</ele>
    <time>2018-01-28T03:22:26Z</time>
   </trkpt>
   <trkpt lat="12.9142080" lon="99.6691390">
    <ele>86.5</ele>
    <time>2018-01-28T03:22:27Z</time>
   </trkpt>
   <trkpt lat="12.9142370" lon="99.6691430">
    <ele>86.6</ele>
    <time>2018-01-28T03:22:28Z</time>
   </trkpt>
   <trkpt lat="12.9142660" lon="99.6691480">
    <ele>86.6</ele>
    <time>2018-01-28T03:22:29Z</time>
   </trkpt>
   <trkpt lat="12.9142980" lon="99.6691500">
    <ele>86.6</ele>
    <time>2018-01-28T03:22:30Z</time>
   </trkpt>
   <trkpt lat="12.9143270" lon="99.6691510">
    <ele>86.7</ele>
    <time>2018-01-28T03:22:31Z</time>
   </trkpt>
   <trkpt lat="12.9143550" lon="99.6691520">
    <ele>86.8</ele>
    <time>2018-01-28T03:22:32Z</time>
   </trkpt>
   <trkpt lat="12.9143840" lon="99.6691510">
    <ele>86.8</ele>
    <time>2018-01-28T03:22:33Z</time>
   </trkpt>
   <trkpt lat="12.9144640" lon="99.6691420">
    <ele>87.1</ele>
    <time>2018-01-28T03:22:35Z</time>
   </trkpt>
   <trkpt lat="12.9144940" lon="99.6691410">
    <ele>87.3</ele>
    <time>2018-01-28T03:22:36Z</time>
   </trkpt>
   <trkpt lat="12.9145260" lon="99.6691410">
    <ele>87.6</ele>
    <time>2018-01-28T03:22:37Z</time>
   </trkpt>
   <trkpt lat="12.9145620" lon="99.6691430">
    <ele>87.8</ele>
    <time>2018-01-28T03:22:38Z</time>
   </trkpt>
   <trkpt lat="12.9145960" lon="99.6691430">
    <ele>87.8</ele>
    <time>2018-01-28T03:22:39Z</time>
   </trkpt>
   <trkpt lat="12.9146240" lon="99.6691510">
    <ele>88.0</ele>
    <time>2018-01-28T03:22:40Z</time>
   </trkpt>
   <trkpt lat="12.9146580" lon="99.6691520">
    <ele>88.2</ele>
    <time>2018-01-28T03:22:41Z</time>
   </trkpt>
   <trkpt lat="12.9146950" lon="99.6691550">
    <ele>88.2</ele>
    <time>2018-01-28T03:22:42Z</time>
   </trkpt>
   <trkpt lat="12.9147350" lon="99.6691550">
    <ele>88.2</ele>
    <time>2018-01-28T03:22:43Z</time>
   </trkpt>
   <trkpt lat="12.9147900" lon="99.6691580">
    <ele>88.2</ele>
    <time>2018-01-28T03:22:44Z</time>
   </trkpt>
   <trkpt lat="12.9148240" lon="99.6691570">
    <ele>88.1</ele>
    <time>2018-01-28T03:22:45Z</time>
   </trkpt>
   <trkpt lat="12.9148530" lon="99.6691540">
    <ele>88.0</ele>
    <time>2018-01-28T03:22:46Z</time>
   </trkpt>
   <trkpt lat="12.9148810" lon="99.6691520">
    <ele>88.0</ele>
    <time>2018-01-28T03:22:47Z</time>
   </trkpt>
   <trkpt lat="12.9149140" lon="99.6691540">
    <ele>88.0</ele>
    <time>2018-01-28T03:22:48Z</time>
   </trkpt>
   <trkpt lat="12.9149450" lon="99.6691570">
    <ele>87.9</ele>
    <time>2018-01-28T03:22:49Z</time>
   </trkpt>
   <trkpt lat="12.9149920" lon="99.6691550">
    <ele>87.9</ele>
    <time>2018-01-28T03:22:51Z</time>
   </trkpt>
   <trkpt lat="12.9150220" lon="99.6691530">
    <ele>87.9</ele>
    <time>2018-01-28T03:22:52Z</time>
   </trkpt>
   <trkpt lat="12.9150520" lon="99.6691500">
    <ele>87.9</ele>
    <time>2018-01-28T03:22:53Z</time>
   </trkpt>
   <trkpt lat="12.9150800" lon="99.6691480">
    <ele>88.0</ele>
    <time>2018-01-28T03:22:54Z</time>
   </trkpt>
   <trkpt lat="12.9151200" lon="99.6691460">
    <ele>88.2</ele>
    <time>2018-01-28T03:22:56Z</time>
   </trkpt>
   <trkpt lat="12.9151780" lon="99.6691440">
    <ele>88.4</ele>
    <time>2018-01-28T03:22:58Z</time>
   </trkpt>
   <trkpt lat="12.9152080" lon="99.6691440">
    <ele>88.8</ele>
    <time>2018-01-28T03:22:59Z</time>
   </trkpt>
   <trkpt lat="12.9152360" lon="99.6691430">
    <ele>89.1</ele>
    <time>2018-01-28T03:23:00Z</time>
   </trkpt>
   <trkpt lat="12.9152680" lon="99.6691440">
    <ele>89.3</ele>
    <time>2018-01-28T03:23:01Z</time>
   </trkpt>
   <trkpt lat="12.9153020" lon="99.6691440">
    <ele>89.3</ele>
    <time>2018-01-28T03:23:02Z</time>
   </trkpt>
   <trkpt lat="12.9153370" lon="99.6691440">
    <ele>89.4</ele>
    <time>2018-01-28T03:23:03Z</time>
   </trkpt>
   <trkpt lat="12.9153710" lon="99.6691440">
    <ele>89.4</ele>
    <time>2018-01-28T03:23:04Z</time>
   </trkpt>
   <trkpt lat="12.9154070" lon="99.6691440">
    <ele>89.2</ele>
    <time>2018-01-28T03:23:05Z</time>
   </trkpt>
   <trkpt lat="12.9154440" lon="99.6691450">
    <ele>89.1</ele>
    <time>2018-01-28T03:23:06Z</time>
   </trkpt>
   <trkpt lat="12.9154810" lon="99.6691460">
    <ele>89.2</ele>
    <time>2018-01-28T03:23:07Z</time>
   </trkpt>
   <trkpt lat="12.9155180" lon="99.6691460">
    <ele>89.2</ele>
    <time>2018-01-28T03:23:08Z</time>
   </trkpt>
   <trkpt lat="12.9155580" lon="99.6691460">
    <ele>89.4</ele>
    <time>2018-01-28T03:23:09Z</time>
   </trkpt>
   <trkpt lat="12.9155950" lon="99.6691450">
    <ele>89.7</ele>
    <time>2018-01-28T03:23:10Z</time>
   </trkpt>
   <trkpt lat="12.9156300" lon="99.6691430">
    <ele>90.1</ele>
    <time>2018-01-28T03:23:11Z</time>
   </trkpt>
   <trkpt lat="12.9156680" lon="99.6691400">
    <ele>90.4</ele>
    <time>2018-01-28T03:23:12Z</time>
   </trkpt>
   <trkpt lat="12.9157050" lon="99.6691370">
    <ele>90.7</ele>
    <time>2018-01-28T03:23:13Z</time>
   </trkpt>
   <trkpt lat="12.9157400" lon="99.6691350">
    <ele>90.9</ele>
    <time>2018-01-28T03:23:14Z</time>
   </trkpt>
   <trkpt lat="12.9157790" lon="99.6691330">
    <ele>91.2</ele>
    <time>2018-01-28T03:23:15Z</time>
   </trkpt>
   <trkpt lat="12.9158170" lon="99.6691320">
    <ele>91.4</ele>
    <time>2018-01-28T03:23:16Z</time>
   </trkpt>
   <trkpt lat="12.9158540" lon="99.6691300">
    <ele>91.6</ele>
    <time>2018-01-28T03:23:17Z</time>
   </trkpt>
   <trkpt lat="12.9158900" lon="99.6691290">
    <ele>91.6</ele>
    <time>2018-01-28T03:23:18Z</time>
   </trkpt>
   <trkpt lat="12.9159280" lon="99.6691280">
    <ele>91.9</ele>
    <time>2018-01-28T03:23:19Z</time>
   </trkpt>
   <trkpt lat="12.9159580" lon="99.6691290">
    <ele>92.1</ele>
    <time>2018-01-28T03:23:20Z</time>
   </trkpt>
   <trkpt lat="12.9159910" lon="99.6691300">
    <ele>92.3</ele>
    <time>2018-01-28T03:23:21Z</time>
   </trkpt>
   <trkpt lat="12.9160250" lon="99.6691320">
    <ele>92.5</ele>
    <time>2018-01-28T03:23:22Z</time>
   </trkpt>
   <trkpt lat="12.9160600" lon="99.6691360">
    <ele>92.5</ele>
    <time>2018-01-28T03:23:23Z</time>
   </trkpt>
   <trkpt lat="12.9160870" lon="99.6691370">
    <ele>92.6</ele>
    <time>2018-01-28T03:23:24Z</time>
   </trkpt>
   <trkpt lat="12.9161190" lon="99.6691260">
    <ele>92.7</ele>
    <time>2018-01-28T03:23:25Z</time>
   </trkpt>
   <trkpt lat="12.9161530" lon="99.6691190">
    <ele>92.8</ele>
    <time>2018-01-28T03:23:26Z</time>
   </trkpt>
   <trkpt lat="12.9161860" lon="99.6691170">
    <ele>92.8</ele>
    <time>2018-01-28T03:23:27Z</time>
   </trkpt>
   <trkpt lat="12.9162130" lon="99.6691200">
    <ele>92.8</ele>
    <time>2018-01-28T03:23:28Z</time>
   </trkpt>
   <trkpt lat="12.9162410" lon="99.6691240">
    <ele>92.8</ele>
    <time>2018-01-28T03:23:29Z</time>
   </trkpt>
   <trkpt lat="12.9162690" lon="99.6691270">
    <ele>92.8</ele>
    <time>2018-01-28T03:23:30Z</time>
   </trkpt>
   <trkpt lat="12.9163100" lon="99.6691290">
    <ele>93.0</ele>
    <time>2018-01-28T03:23:32Z</time>
   </trkpt>
   <trkpt lat="12.9163460" lon="99.6691340">
    <ele>93.2</ele>
    <time>2018-01-28T03:23:34Z</time>
   </trkpt>
   <trkpt lat="12.9163890" lon="99.6691430">
    <ele>93.4</ele>
    <time>2018-01-28T03:23:36Z</time>
   </trkpt>
   <trkpt lat="12.9164400" lon="99.6691450">
    <ele>94.0</ele>
    <time>2018-01-28T03:23:38Z</time>
   </trkpt>
   <trkpt lat="12.9164910" lon="99.6691450">
    <ele>94.3</ele>
    <time>2018-01-28T03:23:40Z</time>
   </trkpt>
   <trkpt lat="12.9165420" lon="99.6691460">
    <ele>94.5</ele>
    <time>2018-01-28T03:23:42Z</time>
   </trkpt>
   <trkpt lat="12.9165920" lon="99.6691440">
    <ele>94.7</ele>
    <time>2018-01-28T03:23:44Z</time>
   </trkpt>
   <trkpt lat="12.9166400" lon="99.6691430">
    <ele>94.9</ele>
    <time>2018-01-28T03:23:46Z</time>
   </trkpt>
   <trkpt lat="12.9166670" lon="99.6691410">
    <ele>95.1</ele>
    <time>2018-01-28T03:23:47Z</time>
   </trkpt>
   <trkpt lat="12.9166960" lon="99.6691400">
    <ele>95.3</ele>
    <time>2018-01-28T03:23:48Z</time>
   </trkpt>
   <trkpt lat="12.9167260" lon="99.6691370">
    <ele>95.3</ele>
    <time>2018-01-28T03:23:49Z</time>
   </trkpt>
   <trkpt lat="12.9167560" lon="99.6691350">
    <ele>95.5</ele>
    <time>2018-01-28T03:23:50Z</time>
   </trkpt>
   <trkpt lat="12.9167880" lon="99.6691330">
    <ele>95.8</ele>
    <time>2018-01-28T03:23:51Z</time>
   </trkpt>
   <trkpt lat="12.9168350" lon="99.6691340">
    <ele>96.0</ele>
    <time>2018-01-28T03:23:52Z</time>
   </trkpt>
   <trkpt lat="12.9168630" lon="99.6691360">
    <ele>96.3</ele>
    <time>2018-01-28T03:23:53Z</time>
   </trkpt>
   <trkpt lat="12.9168910" lon="99.6691360">
    <ele>96.3</ele>
    <time>2018-01-28T03:23:54Z</time>
   </trkpt>
   <trkpt lat="12.9169190" lon="99.6691360">
    <ele>96.6</ele>
    <time>2018-01-28T03:23:55Z</time>
   </trkpt>
   <trkpt lat="12.9169480" lon="99.6691380">
    <ele>96.9</ele>
    <time>2018-01-28T03:23:56Z</time>
   </trkpt>
   <trkpt lat="12.9169780" lon="99.6691390">
    <ele>96.9</ele>
    <time>2018-01-28T03:23:57Z</time>
   </trkpt>
   <trkpt lat="12.9170090" lon="99.6691380">
    <ele>97.2</ele>
    <time>2018-01-28T03:23:58Z</time>
   </trkpt>
   <trkpt lat="12.9170370" lon="99.6691370">
    <ele>97.5</ele>
    <time>2018-01-28T03:23:59Z</time>
   </trkpt>
   <trkpt lat="12.9170860" lon="99.6691350">
    <ele>97.7</ele>
    <time>2018-01-28T03:24:01Z</time>
   </trkpt>
   <trkpt lat="12.9171350" lon="99.6691330">
    <ele>97.9</ele>
    <time>2018-01-28T03:24:03Z</time>
   </trkpt>
   <trkpt lat="12.9171860" lon="99.6691310">
    <ele>98.1</ele>
    <time>2018-01-28T03:24:05Z</time>
   </trkpt>
   <trkpt lat="12.9172330" lon="99.6691290">
    <ele>98.2</ele>
    <time>2018-01-28T03:24:07Z</time>
   </trkpt>
   <trkpt lat="12.9172760" lon="99.6691270">
    <ele>98.4</ele>
    <time>2018-01-28T03:24:09Z</time>
   </trkpt>
   <trkpt lat="12.9173130" lon="99.6691280">
    <ele>98.3</ele>
    <time>2018-01-28T03:24:11Z</time>
   </trkpt>
   <trkpt lat="12.9173440" lon="99.6691290">
    <ele>98.4</ele>
    <time>2018-01-28T03:24:13Z</time>
   </trkpt>
   <trkpt lat="12.9173880" lon="99.6691260">
    <ele>98.5</ele>
    <time>2018-01-28T03:24:15Z</time>
   </trkpt>
   <trkpt lat="12.9174360" lon="99.6691280">
    <ele>98.7</ele>
    <time>2018-01-28T03:24:17Z</time>
   </trkpt>
   <trkpt lat="12.9174780" lon="99.6691330">
    <ele>98.9</ele>
    <time>2018-01-28T03:24:18Z</time>
   </trkpt>
   <trkpt lat="12.9175220" lon="99.6691360">
    <ele>99.0</ele>
    <time>2018-01-28T03:24:19Z</time>
   </trkpt>
   <trkpt lat="12.9175530" lon="99.6691360">
    <ele>99.0</ele>
    <time>2018-01-28T03:24:20Z</time>
   </trkpt>
   <trkpt lat="12.9175850" lon="99.6691360">
    <ele>99.0</ele>
    <time>2018-01-28T03:24:21Z</time>
   </trkpt>
   <trkpt lat="12.9176190" lon="99.6691360">
    <ele>98.9</ele>
    <time>2018-01-28T03:24:22Z</time>
   </trkpt>
   <trkpt lat="12.9176540" lon="99.6691370">
    <ele>98.9</ele>
    <time>2018-01-28T03:24:23Z</time>
   </trkpt>
   <trkpt lat="12.9176890" lon="99.6691390">
    <ele>98.9</ele>
    <time>2018-01-28T03:24:24Z</time>
   </trkpt>
   <trkpt lat="12.9177230" lon="99.6691410">
    <ele>98.9</ele>
    <time>2018-01-28T03:24:25Z</time>
   </trkpt>
   <trkpt lat="12.9177540" lon="99.6691430">
    <ele>98.9</ele>
    <time>2018-01-28T03:24:26Z</time>
   </trkpt>
   <trkpt lat="12.9177860" lon="99.6691460">
    <ele>98.9</ele>
    <time>2018-01-28T03:24:27Z</time>
   </trkpt>
   <trkpt lat="12.9178170" lon="99.6691510">
    <ele>98.9</ele>
    <time>2018-01-28T03:24:28Z</time>
   </trkpt>
   <trkpt lat="12.9178600" lon="99.6691610">
    <ele>98.8</ele>
    <time>2018-01-28T03:24:29Z</time>
   </trkpt>
   <trkpt lat="12.9178900" lon="99.6691650">
    <ele>98.8</ele>
    <time>2018-01-28T03:24:30Z</time>
   </trkpt>
   <trkpt lat="12.9179170" lon="99.6691720">
    <ele>99.0</ele>
    <time>2018-01-28T03:24:31Z</time>
   </trkpt>
   <trkpt lat="12.9179450" lon="99.6691760">
    <ele>99.0</ele>
    <time>2018-01-28T03:24:32Z</time>
   </trkpt>
   <trkpt lat="12.9179740" lon="99.6691820">
    <ele>99.0</ele>
    <time>2018-01-28T03:24:33Z</time>
   </trkpt>
   <trkpt lat="12.9180200" lon="99.6691950">
    <ele>99.1</ele>
    <time>2018-01-28T03:24:35Z</time>
   </trkpt>
   <trkpt lat="12.9180610" lon="99.6692070">
    <ele>99.3</ele>
    <time>2018-01-28T03:24:37Z</time>
   </trkpt>
   <trkpt lat="12.9180980" lon="99.6692200">
    <ele>99.8</ele>
    <time>2018-01-28T03:24:39Z</time>
   </trkpt>
   <trkpt lat="12.9181250" lon="99.6692320">
    <ele>100.1</ele>
    <time>2018-01-28T03:24:40Z</time>
   </trkpt>
   <trkpt lat="12.9181520" lon="99.6692440">
    <ele>100.1</ele>
    <time>2018-01-28T03:24:41Z</time>
   </trkpt>
   <trkpt lat="12.9181800" lon="99.6692590">
    <ele>100.5</ele>
    <time>2018-01-28T03:24:42Z</time>
   </trkpt>
   <trkpt lat="12.9182140" lon="99.6692850">
    <ele>100.8</ele>
    <time>2018-01-28T03:24:43Z</time>
   </trkpt>
   <trkpt lat="12.9182370" lon="99.6693050">
    <ele>100.8</ele>
    <time>2018-01-28T03:24:44Z</time>
   </trkpt>
   <trkpt lat="12.9182740" lon="99.6693270">
    <ele>101.2</ele>
    <time>2018-01-28T03:24:45Z</time>
   </trkpt>
   <trkpt lat="12.9183090" lon="99.6693450">
    <ele>101.8</ele>
    <time>2018-01-28T03:24:46Z</time>
   </trkpt>
   <trkpt lat="12.9183480" lon="99.6693630">
    <ele>102.2</ele>
    <time>2018-01-28T03:24:47Z</time>
   </trkpt>
   <trkpt lat="12.9183960" lon="99.6693890">
    <ele>102.7</ele>
    <time>2018-01-28T03:24:48Z</time>
   </trkpt>
   <trkpt lat="12.9184350" lon="99.6694160">
    <ele>102.9</ele>
    <time>2018-01-28T03:24:49Z</time>
   </trkpt>
   <trkpt lat="12.9184740" lon="99.6694450">
    <ele>103.3</ele>
    <time>2018-01-28T03:24:50Z</time>
   </trkpt>
   <trkpt lat="12.9185140" lon="99.6694760">
    <ele>103.8</ele>
    <time>2018-01-28T03:24:51Z</time>
   </trkpt>
   <trkpt lat="12.9185560" lon="99.6695080">
    <ele>104.0</ele>
    <time>2018-01-28T03:24:52Z</time>
   </trkpt>
   <trkpt lat="12.9185970" lon="99.6695390">
    <ele>104.5</ele>
    <time>2018-01-28T03:24:53Z</time>
   </trkpt>
   <trkpt lat="12.9186400" lon="99.6695690">
    <ele>105.0</ele>
    <time>2018-01-28T03:24:54Z</time>
   </trkpt>
   <trkpt lat="12.9186790" lon="99.6695960">
    <ele>105.2</ele>
    <time>2018-01-28T03:24:55Z</time>
   </trkpt>
   <trkpt lat="12.9187160" lon="99.6696210">
    <ele>105.9</ele>
    <time>2018-01-28T03:24:56Z</time>
   </trkpt>
   <trkpt lat="12.9187520" lon="99.6696470">
    <ele>106.7</ele>
    <time>2018-01-28T03:24:57Z</time>
   </trkpt>
   <trkpt lat="12.9187860" lon="99.6696720">
    <ele>106.9</ele>
    <time>2018-01-28T03:24:58Z</time>
   </trkpt>
   <trkpt lat="12.9188170" lon="99.6696960">
    <ele>107.5</ele>
    <time>2018-01-28T03:24:59Z</time>
   </trkpt>
   <trkpt lat="12.9188500" lon="99.6697200">
    <ele>107.5</ele>
    <time>2018-01-28T03:25:00Z</time>
   </trkpt>
   <trkpt lat="12.9188800" lon="99.6697430">
    <ele>108.0</ele>
    <time>2018-01-28T03:25:01Z</time>
   </trkpt>
   <trkpt lat="12.9189150" lon="99.6697630">
    <ele>107.5</ele>
    <time>2018-01-28T03:25:02Z</time>
   </trkpt>
   <trkpt lat="12.9189530" lon="99.6697850">
    <ele>107.7</ele>
    <time>2018-01-28T03:25:03Z</time>
   </trkpt>
   <trkpt lat="12.9189890" lon="99.6698020">
    <ele>107.7</ele>
    <time>2018-01-28T03:25:04Z</time>
   </trkpt>
   <trkpt lat="12.9190190" lon="99.6698110">
    <ele>107.3</ele>
    <time>2018-01-28T03:25:06Z</time>
   </trkpt>
   <trkpt lat="12.9190490" lon="99.6698110">
    <ele>106.9</ele>
    <time>2018-01-28T03:25:08Z</time>
   </trkpt>
   <trkpt lat="12.9190940" lon="99.6698180">
    <ele>107.4</ele>
    <time>2018-01-28T03:25:10Z</time>
   </trkpt>
   <trkpt lat="12.9191330" lon="99.6698280">
    <ele>107.2</ele>
    <time>2018-01-28T03:25:12Z</time>
   </trkpt>
   <trkpt lat="12.9191690" lon="99.6698320">
    <ele>107.2</ele>
    <time>2018-01-28T03:25:14Z</time>
   </trkpt>
   <trkpt lat="12.9191960" lon="99.6698410">
    <ele>107.2</ele>
    <time>2018-01-28T03:25:16Z</time>
   </trkpt>
   <trkpt lat="12.9192320" lon="99.6698420">
    <ele>107.2</ele>
    <time>2018-01-28T03:25:19Z</time>
   </trkpt>
   <trkpt lat="12.9192630" lon="99.6698460">
    <ele>107.3</ele>
    <time>2018-01-28T03:25:21Z</time>
   </trkpt>
   <trkpt lat="12.9192970" lon="99.6698480">
    <ele>107.4</ele>
    <time>2018-01-28T03:25:23Z</time>
   </trkpt>
   <trkpt lat="12.9193410" lon="99.6698500">
    <ele>107.4</ele>
    <time>2018-01-28T03:25:25Z</time>
   </trkpt>
   <trkpt lat="12.9193870" lon="99.6698540">
    <ele>107.4</ele>
    <time>2018-01-28T03:25:27Z</time>
   </trkpt>
   <trkpt lat="12.9194320" lon="99.6698570">
    <ele>107.4</ele>
    <time>2018-01-28T03:25:29Z</time>
   </trkpt>
   <trkpt lat="12.9194830" lon="99.6698590">
    <ele>107.7</ele>
    <time>2018-01-28T03:25:31Z</time>
   </trkpt>
   <trkpt lat="12.9195340" lon="99.6698620">
    <ele>107.8</ele>
    <time>2018-01-28T03:25:33Z</time>
   </trkpt>
   <trkpt lat="12.9195630" lon="99.6698660">
    <ele>108.1</ele>
    <time>2018-01-28T03:25:34Z</time>
   </trkpt>
   <trkpt lat="12.9195910" lon="99.6698740">
    <ele>108.4</ele>
    <time>2018-01-28T03:25:35Z</time>
   </trkpt>
   <trkpt lat="12.9196420" lon="99.6698880">
    <ele>108.7</ele>
    <time>2018-01-28T03:25:37Z</time>
   </trkpt>
   <trkpt lat="12.9196910" lon="99.6698950">
    <ele>109.0</ele>
    <time>2018-01-28T03:25:39Z</time>
   </trkpt>
   <trkpt lat="12.9197320" lon="99.6699080">
    <ele>109.5</ele>
    <time>2018-01-28T03:25:41Z</time>
   </trkpt>
   <trkpt lat="12.9197660" lon="99.6699200">
    <ele>109.7</ele>
    <time>2018-01-28T03:25:43Z</time>
   </trkpt>
   <trkpt lat="12.9198080" lon="99.6699500">
    <ele>110.2</ele>
    <time>2018-01-28T03:25:45Z</time>
   </trkpt>
   <trkpt lat="12.9198370" lon="99.6699690">
    <ele>110.4</ele>
    <time>2018-01-28T03:25:46Z</time>
   </trkpt>
   <trkpt lat="12.9198720" lon="99.6699860">
    <ele>110.9</ele>
    <time>2018-01-28T03:25:47Z</time>
   </trkpt>
   <trkpt lat="12.9199070" lon="99.6699970">
    <ele>110.9</ele>
    <time>2018-01-28T03:25:48Z</time>
   </trkpt>
   <trkpt lat="12.9199420" lon="99.6700050">
    <ele>111.2</ele>
    <time>2018-01-28T03:25:49Z</time>
   </trkpt>
   <trkpt lat="12.9199820" lon="99.6700100">
    <ele>111.4</ele>
    <time>2018-01-28T03:25:50Z</time>
   </trkpt>
   <trkpt lat="12.9200230" lon="99.6700110">
    <ele>111.7</ele>
    <time>2018-01-28T03:25:51Z</time>
   </trkpt>
   <trkpt lat="12.9200640" lon="99.6700100">
    <ele>111.9</ele>
    <time>2018-01-28T03:25:52Z</time>
   </trkpt>
   <trkpt lat="12.9201020" lon="99.6700080">
    <ele>112.1</ele>
    <time>2018-01-28T03:25:53Z</time>
   </trkpt>
   <trkpt lat="12.9201390" lon="99.6700080">
    <ele>112.3</ele>
    <time>2018-01-28T03:25:54Z</time>
   </trkpt>
   <trkpt lat="12.9201780" lon="99.6700100">
    <ele>112.6</ele>
    <time>2018-01-28T03:25:55Z</time>
   </trkpt>
   <trkpt lat="12.9202150" lon="99.6700140">
    <ele>112.9</ele>
    <time>2018-01-28T03:25:56Z</time>
   </trkpt>
   <trkpt lat="12.9202490" lon="99.6700170">
    <ele>113.2</ele>
    <time>2018-01-28T03:25:57Z</time>
   </trkpt>
   <trkpt lat="12.9202810" lon="99.6700180">
    <ele>113.2</ele>
    <time>2018-01-28T03:25:58Z</time>
   </trkpt>
   <trkpt lat="12.9203140" lon="99.6700180">
    <ele>113.4</ele>
    <time>2018-01-28T03:25:59Z</time>
   </trkpt>
   <trkpt lat="12.9203460" lon="99.6700170">
    <ele>113.5</ele>
    <time>2018-01-28T03:26:00Z</time>
   </trkpt>
   <trkpt lat="12.9203770" lon="99.6700150">
    <ele>113.5</ele>
    <time>2018-01-28T03:26:01Z</time>
   </trkpt>
   <trkpt lat="12.9204060" lon="99.6700100">
    <ele>113.5</ele>
    <time>2018-01-28T03:26:02Z</time>
   </trkpt>
   <trkpt lat="12.9204540" lon="99.6700000">
    <ele>113.6</ele>
    <time>2018-01-28T03:26:04Z</time>
   </trkpt>
   <trkpt lat="12.9204980" lon="99.6699890">
    <ele>114.0</ele>
    <time>2018-01-28T03:26:06Z</time>
   </trkpt>
   <trkpt lat="12.9205460" lon="99.6699620">
    <ele>114.5</ele>
    <time>2018-01-28T03:26:08Z</time>
   </trkpt>
   <trkpt lat="12.9205760" lon="99.6699450">
    <ele>114.5</ele>
    <time>2018-01-28T03:26:09Z</time>
   </trkpt>
   <trkpt lat="12.9206050" lon="99.6699270">
    <ele>115.1</ele>
    <time>2018-01-28T03:26:10Z</time>
   </trkpt>
   <trkpt lat="12.9206290" lon="99.6699070">
    <ele>115.7</ele>
    <time>2018-01-28T03:26:11Z</time>
   </trkpt>
   <trkpt lat="12.9206660" lon="99.6698740">
    <ele>116.4</ele>
    <time>2018-01-28T03:26:13Z</time>
   </trkpt>
   <trkpt lat="12.9206980" lon="99.6698370">
    <ele>116.3</ele>
    <time>2018-01-28T03:26:15Z</time>
   </trkpt>
   <trkpt lat="12.9207100" lon="99.6698090">
    <ele>116.8</ele>
    <time>2018-01-28T03:26:16Z</time>
   </trkpt>
   <trkpt lat="12.9207180" lon="99.6697760">
    <ele>116.7</ele>
    <time>2018-01-28T03:26:17Z</time>
   </trkpt>
   <trkpt lat="12.9207220" lon="99.6697430">
    <ele>116.6</ele>
    <time>2018-01-28T03:26:18Z</time>
   </trkpt>
   <trkpt lat="12.9207240" lon="99.6697070">
    <ele>116.5</ele>
    <time>2018-01-28T03:26:19Z</time>
   </trkpt>
   <trkpt lat="12.9207230" lon="99.6696690">
    <ele>116.5</ele>
    <time>2018-01-28T03:26:20Z</time>
   </trkpt>
   <trkpt lat="12.9207200" lon="99.6696320">
    <ele>116.4</ele>
    <time>2018-01-28T03:26:21Z</time>
   </trkpt>
   <trkpt lat="12.9207200" lon="99.6695940">
    <ele>116.3</ele>
    <time>2018-01-28T03:26:22Z</time>
   </trkpt>
   <trkpt lat="12.9207250" lon="99.6695550">
    <ele>116.1</ele>
    <time>2018-01-28T03:26:23Z</time>
   </trkpt>
   <trkpt lat="12.9207330" lon="99.6695160">
    <ele>116.1</ele>
    <time>2018-01-28T03:26:24Z</time>
   </trkpt>
   <trkpt lat="12.9207400" lon="99.6694800">
    <ele>115.8</ele>
    <time>2018-01-28T03:26:25Z</time>
   </trkpt>
   <trkpt lat="12.9207430" lon="99.6694430">
    <ele>115.5</ele>
    <time>2018-01-28T03:26:26Z</time>
   </trkpt>
   <trkpt lat="12.9207430" lon="99.6694060">
    <ele>115.0</ele>
    <time>2018-01-28T03:26:27Z</time>
   </trkpt>
   <trkpt lat="12.9207440" lon="99.6693720">
    <ele>114.6</ele>
    <time>2018-01-28T03:26:28Z</time>
   </trkpt>
   <trkpt lat="12.9207520" lon="99.6693380">
    <ele>114.8</ele>
    <time>2018-01-28T03:26:29Z</time>
   </trkpt>
   <trkpt lat="12.9207540" lon="99.6693020">
    <ele>114.8</ele>
    <time>2018-01-28T03:26:30Z</time>
   </trkpt>
   <trkpt lat="12.9207490" lon="99.6692660">
    <ele>114.2</ele>
    <time>2018-01-28T03:26:31Z</time>
   </trkpt>
   <trkpt lat="12.9207470" lon="99.6692240">
    <ele>113.0</ele>
    <time>2018-01-28T03:26:32Z</time>
   </trkpt>
   <trkpt lat="12.9207490" lon="99.6691800">
    <ele>113.2</ele>
    <time>2018-01-28T03:26:33Z</time>
   </trkpt>
   <trkpt lat="12.9207530" lon="99.6691430">
    <ele>112.7</ele>
    <time>2018-01-28T03:26:34Z</time>
   </trkpt>
   <trkpt lat="12.9207550" lon="99.6691080">
    <ele>112.2</ele>
    <time>2018-01-28T03:26:35Z</time>
   </trkpt>
   <trkpt lat="12.9207570" lon="99.6690730">
    <ele>111.9</ele>
    <time>2018-01-28T03:26:36Z</time>
   </trkpt>
   <trkpt lat="12.9207580" lon="99.6690380">
    <ele>111.7</ele>
    <time>2018-01-28T03:26:37Z</time>
   </trkpt>
   <trkpt lat="12.9207560" lon="99.6689700">
    <ele>111.5</ele>
    <time>2018-01-28T03:26:38Z</time>
   </trkpt>
   <trkpt lat="12.9207590" lon="99.6689320">
    <ele>111.4</ele>
    <time>2018-01-28T03:26:39Z</time>
   </trkpt>
   <trkpt lat="12.9207640" lon="99.6688950">
    <ele>111.3</ele>
    <time>2018-01-28T03:26:40Z</time>
   </trkpt>
   <trkpt lat="12.9207750" lon="99.6688580">
    <ele>111.1</ele>
    <time>2018-01-28T03:26:41Z</time>
   </trkpt>
   <trkpt lat="12.9207930" lon="99.6688210">
    <ele>111.1</ele>
    <time>2018-01-28T03:26:42Z</time>
   </trkpt>
   <trkpt lat="12.9208310" lon="99.6687880">
    <ele>111.4</ele>
    <time>2018-01-28T03:26:43Z</time>
   </trkpt>
   <trkpt lat="12.9208600" lon="99.6687600">
    <ele>111.1</ele>
    <time>2018-01-28T03:26:44Z</time>
   </trkpt>
   <trkpt lat="12.9208940" lon="99.6687350">
    <ele>110.9</ele>
    <time>2018-01-28T03:26:45Z</time>
   </trkpt>
   <trkpt lat="12.9209150" lon="99.6687140">
    <ele>111.1</ele>
    <time>2018-01-28T03:26:46Z</time>
   </trkpt>
   <trkpt lat="12.9209330" lon="99.6686820">
    <ele>110.9</ele>
    <time>2018-01-28T03:26:48Z</time>
   </trkpt>
   <trkpt lat="12.9209450" lon="99.6686450">
    <ele>110.7</ele>
    <time>2018-01-28T03:26:50Z</time>
   </trkpt>
   <trkpt lat="12.9209620" lon="99.6685930">
    <ele>110.8</ele>
    <time>2018-01-28T03:26:52Z</time>
   </trkpt>
   <trkpt lat="12.9209730" lon="99.6685630">
    <ele>110.5</ele>
    <time>2018-01-28T03:26:53Z</time>
   </trkpt>
   <trkpt lat="12.9209860" lon="99.6685360">
    <ele>110.5</ele>
    <time>2018-01-28T03:26:54Z</time>
   </trkpt>
   <trkpt lat="12.9210000" lon="99.6685100">
    <ele>110.6</ele>
    <time>2018-01-28T03:26:55Z</time>
   </trkpt>
   <trkpt lat="12.9210270" lon="99.6684650">
    <ele>110.3</ele>
    <time>2018-01-28T03:26:57Z</time>
   </trkpt>
   <trkpt lat="12.9210420" lon="99.6684140">
    <ele>110.9</ele>
    <time>2018-01-28T03:26:59Z</time>
   </trkpt>
   <trkpt lat="12.9210450" lon="99.6683820">
    <ele>110.8</ele>
    <time>2018-01-28T03:27:00Z</time>
   </trkpt>
   <trkpt lat="12.9210480" lon="99.6683470">
    <ele>110.9</ele>
    <time>2018-01-28T03:27:01Z</time>
   </trkpt>
   <trkpt lat="12.9210520" lon="99.6683150">
    <ele>110.9</ele>
    <time>2018-01-28T03:27:02Z</time>
   </trkpt>
   <trkpt lat="12.9210600" lon="99.6682850">
    <ele>111.0</ele>
    <time>2018-01-28T03:27:03Z</time>
   </trkpt>
   <trkpt lat="12.9210730" lon="99.6682540">
    <ele>111.1</ele>
    <time>2018-01-28T03:27:04Z</time>
   </trkpt>
   <trkpt lat="12.9210910" lon="99.6682150">
    <ele>111.2</ele>
    <time>2018-01-28T03:27:06Z</time>
   </trkpt>
   <trkpt lat="12.9211050" lon="99.6681650">
    <ele>110.9</ele>
    <time>2018-01-28T03:27:08Z</time>
   </trkpt>
   <trkpt lat="12.9211330" lon="99.6681170">
    <ele>110.9</ele>
    <time>2018-01-28T03:27:10Z</time>
   </trkpt>
   <trkpt lat="12.9211380" lon="99.6680850">
    <ele>110.6</ele>
    <time>2018-01-28T03:27:11Z</time>
   </trkpt>
   <trkpt lat="12.9211390" lon="99.6680520">
    <ele>110.5</ele>
    <time>2018-01-28T03:27:12Z</time>
   </trkpt>
   <trkpt lat="12.9211310" lon="99.6680130">
    <ele>110.5</ele>
    <time>2018-01-28T03:27:13Z</time>
   </trkpt>
   <trkpt lat="12.9211340" lon="99.6679830">
    <ele>110.4</ele>
    <time>2018-01-28T03:27:14Z</time>
   </trkpt>
   <trkpt lat="12.9211420" lon="99.6679430">
    <ele>110.4</ele>
    <time>2018-01-28T03:27:16Z</time>
   </trkpt>
   <trkpt lat="12.9211630" lon="99.6679170">
    <ele>110.4</ele>
    <time>2018-01-28T03:27:21Z</time>
   </trkpt>
   <trkpt lat="12.9211780" lon="99.6678830">
    <ele>110.7</ele>
    <time>2018-01-28T03:27:24Z</time>
   </trkpt>
   <trkpt lat="12.9211800" lon="99.6679180">
    <ele>110.7</ele>
    <time>2018-01-28T03:27:34Z</time>
   </trkpt>
   <trkpt lat="12.9211740" lon="99.6679450">
    <ele>110.8</ele>
    <time>2018-01-28T03:27:36Z</time>
   </trkpt>
   <trkpt lat="12.9211680" lon="99.6679790">
    <ele>110.7</ele>
    <time>2018-01-28T03:27:38Z</time>
   </trkpt>
   <trkpt lat="12.9211830" lon="99.6680150">
    <ele>110.8</ele>
    <time>2018-01-28T03:27:40Z</time>
   </trkpt>
   <trkpt lat="12.9211960" lon="99.6680450">
    <ele>110.8</ele>
    <time>2018-01-28T03:27:42Z</time>
   </trkpt>
   <trkpt lat="12.9212060" lon="99.6680780">
    <ele>110.9</ele>
    <time>2018-01-28T03:27:44Z</time>
   </trkpt>
   <trkpt lat="12.9212250" lon="99.6681060">
    <ele>111.7</ele>
    <time>2018-01-28T03:27:46Z</time>
   </trkpt>
   <trkpt lat="12.9212500" lon="99.6681330">
    <ele>112.3</ele>
    <time>2018-01-28T03:27:48Z</time>
   </trkpt>
   <trkpt lat="12.9212710" lon="99.6681650">
    <ele>112.5</ele>
    <time>2018-01-28T03:27:50Z</time>
   </trkpt>
   <trkpt lat="12.9212790" lon="99.6682050">
    <ele>112.8</ele>
    <time>2018-01-28T03:27:52Z</time>
   </trkpt>
   <trkpt lat="12.9212820" lon="99.6682410">
    <ele>113.1</ele>
    <time>2018-01-28T03:27:54Z</time>
   </trkpt>
   <trkpt lat="12.9212920" lon="99.6682720">
    <ele>113.8</ele>
    <time>2018-01-28T03:27:57Z</time>
   </trkpt>
   <trkpt lat="12.9213030" lon="99.6683030">
    <ele>113.8</ele>
    <time>2018-01-28T03:28:03Z</time>
   </trkpt>
   <trkpt lat="12.9213230" lon="99.6683250">
    <ele>114.1</ele>
    <time>2018-01-28T03:28:05Z</time>
   </trkpt>
   <trkpt lat="12.9213580" lon="99.6683410">
    <ele>114.4</ele>
    <time>2018-01-28T03:28:07Z</time>
   </trkpt>
   <trkpt lat="12.9213910" lon="99.6683490">
    <ele>114.6</ele>
    <time>2018-01-28T03:28:09Z</time>
   </trkpt>
   <trkpt lat="12.9214250" lon="99.6683530">
    <ele>114.8</ele>
    <time>2018-01-28T03:28:11Z</time>
   </trkpt>
   <trkpt lat="12.9214550" lon="99.6683590">
    <ele>115.1</ele>
    <time>2018-01-28T03:28:13Z</time>
   </trkpt>
   <trkpt lat="12.9214850" lon="99.6683710">
    <ele>115.3</ele>
    <time>2018-01-28T03:28:15Z</time>
   </trkpt>
   <trkpt lat="12.9215150" lon="99.6683830">
    <ele>115.5</ele>
    <time>2018-01-28T03:28:17Z</time>
   </trkpt>
   <trkpt lat="12.9215480" lon="99.6683950">
    <ele>115.6</ele>
    <time>2018-01-28T03:28:19Z</time>
   </trkpt>
   <trkpt lat="12.9215790" lon="99.6684050">
    <ele>116.0</ele>
    <time>2018-01-28T03:28:21Z</time>
   </trkpt>
   <trkpt lat="12.9216130" lon="99.6684160">
    <ele>116.2</ele>
    <time>2018-01-28T03:28:23Z</time>
   </trkpt>
   <trkpt lat="12.9216450" lon="99.6684260">
    <ele>116.5</ele>
    <time>2018-01-28T03:28:25Z</time>
   </trkpt>
   <trkpt lat="12.9216830" lon="99.6684280">
    <ele>117.0</ele>
    <time>2018-01-28T03:28:28Z</time>
   </trkpt>
   <trkpt lat="12.9217150" lon="99.6684450">
    <ele>118.3</ele>
    <time>2018-01-28T03:28:31Z</time>
   </trkpt>
   <trkpt lat="12.9217470" lon="99.6684570">
    <ele>118.3</ele>
    <time>2018-01-28T03:28:34Z</time>
   </trkpt>
   <trkpt lat="12.9217740" lon="99.6684660">
    <ele>119.2</ele>
    <time>2018-01-28T03:28:36Z</time>
   </trkpt>
   <trkpt lat="12.9217990" lon="99.6684790">
    <ele>120.2</ele>
    <time>2018-01-28T03:28:38Z</time>
   </trkpt>
   <trkpt lat="12.9218280" lon="99.6684870">
    <ele>121.0</ele>
    <time>2018-01-28T03:28:40Z</time>
   </trkpt>
   <trkpt lat="12.9218570" lon="99.6684880">
    <ele>122.0</ele>
    <time>2018-01-28T03:28:42Z</time>
   </trkpt>
   <trkpt lat="12.9218910" lon="99.6684930">
    <ele>122.8</ele>
    <time>2018-01-28T03:28:44Z</time>
   </trkpt>
   <trkpt lat="12.9219210" lon="99.6685060">
    <ele>123.5</ele>
    <time>2018-01-28T03:28:46Z</time>
   </trkpt>
   <trkpt lat="12.9219520" lon="99.6685170">
    <ele>123.5</ele>
    <time>2018-01-28T03:28:49Z</time>
   </trkpt>
   <trkpt lat="12.9219830" lon="99.6685370">
    <ele>124.9</ele>
    <time>2018-01-28T03:28:52Z</time>
   </trkpt>
   <trkpt lat="12.9219880" lon="99.6685700">
    <ele>125.6</ele>
    <time>2018-01-28T03:28:54Z</time>
   </trkpt>
   <trkpt lat="12.9219810" lon="99.6686060">
    <ele>125.6</ele>
    <time>2018-01-28T03:28:56Z</time>
   </trkpt>
   <trkpt lat="12.9219740" lon="99.6686400">
    <ele>126.3</ele>
    <time>2018-01-28T03:28:58Z</time>
   </trkpt>
   <trkpt lat="12.9219620" lon="99.6686760">
    <ele>127.1</ele>
    <time>2018-01-28T03:29:00Z</time>
   </trkpt>
   <trkpt lat="12.9219590" lon="99.6687110">
    <ele>127.1</ele>
    <time>2018-01-28T03:29:03Z</time>
   </trkpt>
   <trkpt lat="12.9219560" lon="99.6686830">
    <ele>126.3</ele>
    <time>2018-01-28T03:29:08Z</time>
   </trkpt>
   <trkpt lat="12.9219660" lon="99.6687220">
    <ele>127.8</ele>
    <time>2018-01-28T03:29:18Z</time>
   </trkpt>
   <trkpt lat="12.9219920" lon="99.6687360">
    <ele>127.8</ele>
    <time>2018-01-28T03:29:20Z</time>
   </trkpt>
   <trkpt lat="12.9220040" lon="99.6687710">
    <ele>129.3</ele>
    <time>2018-01-28T03:29:23Z</time>
   </trkpt>
   <trkpt lat="12.9220060" lon="99.6688060">
    <ele>130.0</ele>
    <time>2018-01-28T03:29:26Z</time>
   </trkpt>
   <trkpt lat="12.9220040" lon="99.6688420">
    <ele>130.8</ele>
    <time>2018-01-28T03:29:29Z</time>
   </trkpt>
   <trkpt lat="12.9219850" lon="99.6688160">
    <ele>129.3</ele>
    <time>2018-01-28T03:29:33Z</time>
   </trkpt>
   <trkpt lat="12.9219740" lon="99.6687830">
    <ele>128.6</ele>
    <time>2018-01-28T03:29:47Z</time>
   </trkpt>
   <trkpt lat="12.9219680" lon="99.6687440">
    <ele>128.6</ele>
    <time>2018-01-28T03:29:50Z</time>
   </trkpt>
   <trkpt lat="12.9219650" lon="99.6687120">
    <ele>127.8</ele>
    <time>2018-01-28T03:29:52Z</time>
   </trkpt>
   <trkpt lat="12.9219700" lon="99.6686740">
    <ele>127.0</ele>
    <time>2018-01-28T03:29:56Z</time>
   </trkpt>
   <trkpt lat="12.9219770" lon="99.6686350">
    <ele>126.2</ele>
    <time>2018-01-28T03:29:58Z</time>
   </trkpt>
   <trkpt lat="12.9219770" lon="99.6686010">
    <ele>125.4</ele>
    <time>2018-01-28T03:30:00Z</time>
   </trkpt>
   <trkpt lat="12.9219830" lon="99.6685720">
    <ele>125.4</ele>
    <time>2018-01-28T03:30:35Z</time>
   </trkpt>
   <trkpt lat="12.9219800" lon="99.6685420">
    <ele>124.8</ele>
    <time>2018-01-28T03:30:38Z</time>
   </trkpt>
   <trkpt lat="12.9219520" lon="99.6685460">
    <ele>124.0</ele>
    <time>2018-01-28T03:30:47Z</time>
   </trkpt>
   <trkpt lat="12.9219310" lon="99.6685640">
    <ele>124.0</ele>
    <time>2018-01-28T03:30:50Z</time>
   </trkpt>
   <trkpt lat="12.9219510" lon="99.6685860">
    <ele>124.7</ele>
    <time>2018-01-28T03:31:10Z</time>
   </trkpt>
   <trkpt lat="12.9219450" lon="99.6685570">
    <ele>124.0</ele>
    <time>2018-01-28T03:31:14Z</time>
   </trkpt>
   <trkpt lat="12.9219130" lon="99.6685270">
    <ele>123.3</ele>
    <time>2018-01-28T03:31:17Z</time>
   </trkpt>
   <trkpt lat="12.9218810" lon="99.6685160">
    <ele>122.6</ele>
    <time>2018-01-28T03:31:19Z</time>
   </trkpt>
   <trkpt lat="12.9218520" lon="99.6685070">
    <ele>121.8</ele>
    <time>2018-01-28T03:31:21Z</time>
   </trkpt>
   <trkpt lat="12.9218150" lon="99.6684980">
    <ele>120.8</ele>
    <time>2018-01-28T03:31:23Z</time>
   </trkpt>
   <trkpt lat="12.9217830" lon="99.6684950">
    <ele>119.7</ele>
    <time>2018-01-28T03:31:25Z</time>
   </trkpt>
   <trkpt lat="12.9217540" lon="99.6684820">
    <ele>119.0</ele>
    <time>2018-01-28T03:31:27Z</time>
   </trkpt>
   <trkpt lat="12.9217250" lon="99.6684670">
    <ele>118.0</ele>
    <time>2018-01-28T03:31:29Z</time>
   </trkpt>
   <trkpt lat="12.9216920" lon="99.6684500">
    <ele>117.2</ele>
    <time>2018-01-28T03:31:31Z</time>
   </trkpt>
   <trkpt lat="12.9216640" lon="99.6684350">
    <ele>116.2</ele>
    <time>2018-01-28T03:31:33Z</time>
   </trkpt>
   <trkpt lat="12.9216310" lon="99.6684270">
    <ele>116.2</ele>
    <time>2018-01-28T03:31:36Z</time>
   </trkpt>
   <trkpt lat="12.9215980" lon="99.6684200">
    <ele>115.9</ele>
    <time>2018-01-28T03:31:39Z</time>
   </trkpt>
   <trkpt lat="12.9215640" lon="99.6684020">
    <ele>115.7</ele>
    <time>2018-01-28T03:31:42Z</time>
   </trkpt>
   <trkpt lat="12.9215410" lon="99.6683890">
    <ele>115.1</ele>
    <time>2018-01-28T03:31:44Z</time>
   </trkpt>
   <trkpt lat="12.9215120" lon="99.6683710">
    <ele>115.1</ele>
    <time>2018-01-28T03:31:46Z</time>
   </trkpt>
   <trkpt lat="12.9214770" lon="99.6683440">
    <ele>114.6</ele>
    <time>2018-01-28T03:31:48Z</time>
   </trkpt>
   <trkpt lat="12.9214320" lon="99.6683210">
    <ele>114.5</ele>
    <time>2018-01-28T03:31:50Z</time>
   </trkpt>
   <trkpt lat="12.9214030" lon="99.6683160">
    <ele>114.2</ele>
    <time>2018-01-28T03:31:52Z</time>
   </trkpt>
   <trkpt lat="12.9213680" lon="99.6682990">
    <ele>113.7</ele>
    <time>2018-01-28T03:31:54Z</time>
   </trkpt>
   <trkpt lat="12.9213390" lon="99.6682730">
    <ele>113.7</ele>
    <time>2018-01-28T03:31:55Z</time>
   </trkpt>
   <trkpt lat="12.9213190" lon="99.6682500">
    <ele>113.1</ele>
    <time>2018-01-28T03:31:56Z</time>
   </trkpt>
   <trkpt lat="12.9212910" lon="99.6682030">
    <ele>112.8</ele>
    <time>2018-01-28T03:31:58Z</time>
   </trkpt>
   <trkpt lat="12.9212730" lon="99.6681780">
    <ele>112.0</ele>
    <time>2018-01-28T03:31:59Z</time>
   </trkpt>
   <trkpt lat="12.9212530" lon="99.6681530">
    <ele>112.0</ele>
    <time>2018-01-28T03:32:00Z</time>
   </trkpt>
   <trkpt lat="12.9212280" lon="99.6681230">
    <ele>111.2</ele>
    <time>2018-01-28T03:32:02Z</time>
   </trkpt>
   <trkpt lat="12.9211870" lon="99.6681020">
    <ele>110.6</ele>
    <time>2018-01-28T03:32:04Z</time>
   </trkpt>
   <trkpt lat="12.9211440" lon="99.6681100">
    <ele>110.3</ele>
    <time>2018-01-28T03:32:06Z</time>
   </trkpt>
   <trkpt lat="12.9211130" lon="99.6681460">
    <ele>110.3</ele>
    <time>2018-01-28T03:32:08Z</time>
   </trkpt>
   <trkpt lat="12.9211020" lon="99.6681840">
    <ele>110.6</ele>
    <time>2018-01-28T03:32:10Z</time>
   </trkpt>
   <trkpt lat="12.9210930" lon="99.6682210">
    <ele>110.6</ele>
    <time>2018-01-28T03:32:13Z</time>
   </trkpt>
   <trkpt lat="12.9210620" lon="99.6682380">
    <ele>110.4</ele>
    <time>2018-01-28T03:32:30Z</time>
   </trkpt>
   <trkpt lat="12.9210240" lon="99.6682420">
    <ele>110.1</ele>
    <time>2018-01-28T03:32:32Z</time>
   </trkpt>
   <trkpt lat="12.9209850" lon="99.6682320">
    <ele>109.7</ele>
    <time>2018-01-28T03:32:34Z</time>
   </trkpt>
   <trkpt lat="12.9209420" lon="99.6682140">
    <ele>109.5</ele>
    <time>2018-01-28T03:32:36Z</time>
   </trkpt>
   <trkpt lat="12.9208920" lon="99.6681930">
    <ele>108.9</ele>
    <time>2018-01-28T03:32:38Z</time>
   </trkpt>
   <trkpt lat="12.9208640" lon="99.6681840">
    <ele>108.4</ele>
    <time>2018-01-28T03:32:39Z</time>
   </trkpt>
   <trkpt lat="12.9208350" lon="99.6681750">
    <ele>108.2</ele>
    <time>2018-01-28T03:32:40Z</time>
   </trkpt>
   <trkpt lat="12.9207840" lon="99.6681610">
    <ele>106.8</ele>
    <time>2018-01-28T03:32:42Z</time>
   </trkpt>
   <trkpt lat="12.9207490" lon="99.6681500">
    <ele>106.8</ele>
    <time>2018-01-28T03:32:43Z</time>
   </trkpt>
   <trkpt lat="12.9207090" lon="99.6681390">
    <ele>105.7</ele>
    <time>2018-01-28T03:32:44Z</time>
   </trkpt>
   <trkpt lat="12.9206690" lon="99.6681250">
    <ele>105.0</ele>
    <time>2018-01-28T03:32:45Z</time>
   </trkpt>
   <trkpt lat="12.9206260" lon="99.6681090">
    <ele>104.5</ele>
    <time>2018-01-28T03:32:46Z</time>
   </trkpt>
   <trkpt lat="12.9205790" lon="99.6680930">
    <ele>103.4</ele>
    <time>2018-01-28T03:32:47Z</time>
   </trkpt>
   <trkpt lat="12.9205390" lon="99.6680800">
    <ele>103.4</ele>
    <time>2018-01-28T03:32:48Z</time>
   </trkpt>
   <trkpt lat="12.9205110" lon="99.6680690">
    <ele>103.3</ele>
    <time>2018-01-28T03:32:49Z</time>
   </trkpt>
   <trkpt lat="12.9204850" lon="99.6680610">
    <ele>103.3</ele>
    <time>2018-01-28T03:32:50Z</time>
   </trkpt>
   <trkpt lat="12.9204560" lon="99.6680530">
    <ele>102.8</ele>
    <time>2018-01-28T03:32:51Z</time>
   </trkpt>
   <trkpt lat="12.9204220" lon="99.6680470">
    <ele>102.7</ele>
    <time>2018-01-28T03:32:52Z</time>
   </trkpt>
   <trkpt lat="12.9203900" lon="99.6680380">
    <ele>102.7</ele>
    <time>2018-01-28T03:32:53Z</time>
   </trkpt>
   <trkpt lat="12.9203450" lon="99.6680180">
    <ele>102.7</ele>
    <time>2018-01-28T03:32:54Z</time>
   </trkpt>
   <trkpt lat="12.9203050" lon="99.6680040">
    <ele>102.2</ele>
    <time>2018-01-28T03:32:55Z</time>
   </trkpt>
   <trkpt lat="12.9202690" lon="99.6679870">
    <ele>102.2</ele>
    <time>2018-01-28T03:32:56Z</time>
   </trkpt>
   <trkpt lat="12.9202470" lon="99.6679640">
    <ele>101.5</ele>
    <time>2018-01-28T03:32:57Z</time>
   </trkpt>
   <trkpt lat="12.9202610" lon="99.6679280">
    <ele>101.5</ele>
    <time>2018-01-28T03:32:58Z</time>
   </trkpt>
   <trkpt lat="12.9202710" lon="99.6678950">
    <ele>100.9</ele>
    <time>2018-01-28T03:32:59Z</time>
   </trkpt>
   <trkpt lat="12.9202800" lon="99.6678570">
    <ele>100.8</ele>
    <time>2018-01-28T03:33:01Z</time>
   </trkpt>
   <trkpt lat="12.9202850" lon="99.6678280">
    <ele>100.7</ele>
    <time>2018-01-28T03:33:02Z</time>
   </trkpt>
   <trkpt lat="12.9202980" lon="99.6677270">
    <ele>100.8</ele>
    <time>2018-01-28T03:33:04Z</time>
   </trkpt>
   <trkpt lat="12.9203020" lon="99.6676920">
    <ele>100.7</ele>
    <time>2018-01-28T03:33:05Z</time>
   </trkpt>
   <trkpt lat="12.9203140" lon="99.6676520">
    <ele>100.7</ele>
    <time>2018-01-28T03:33:06Z</time>
   </trkpt>
   <trkpt lat="12.9203260" lon="99.6676110">
    <ele>100.7</ele>
    <time>2018-01-28T03:33:07Z</time>
   </trkpt>
   <trkpt lat="12.9203380" lon="99.6675680">
    <ele>101.0</ele>
    <time>2018-01-28T03:33:08Z</time>
   </trkpt>
   <trkpt lat="12.9203540" lon="99.6675300">
    <ele>101.1</ele>
    <time>2018-01-28T03:33:09Z</time>
   </trkpt>
   <trkpt lat="12.9203660" lon="99.6674880">
    <ele>101.3</ele>
    <time>2018-01-28T03:33:10Z</time>
   </trkpt>
   <trkpt lat="12.9203760" lon="99.6674480">
    <ele>101.6</ele>
    <time>2018-01-28T03:33:11Z</time>
   </trkpt>
   <trkpt lat="12.9203780" lon="99.6674070">
    <ele>101.7</ele>
    <time>2018-01-28T03:33:12Z</time>
   </trkpt>
   <trkpt lat="12.9203670" lon="99.6673670">
    <ele>101.6</ele>
    <time>2018-01-28T03:33:13Z</time>
   </trkpt>
   <trkpt lat="12.9203270" lon="99.6673390">
    <ele>101.4</ele>
    <time>2018-01-28T03:33:14Z</time>
   </trkpt>
   <trkpt lat="12.9203000" lon="99.6673210">
    <ele>101.2</ele>
    <time>2018-01-28T03:33:15Z</time>
   </trkpt>
   <trkpt lat="12.9202530" lon="99.6672880">
    <ele>100.8</ele>
    <time>2018-01-28T03:33:16Z</time>
   </trkpt>
   <trkpt lat="12.9202050" lon="99.6672560">
    <ele>100.3</ele>
    <time>2018-01-28T03:33:17Z</time>
   </trkpt>
   <trkpt lat="12.9201760" lon="99.6672280">
    <ele>99.9</ele>
    <time>2018-01-28T03:33:18Z</time>
   </trkpt>
   <trkpt lat="12.9201500" lon="99.6672130">
    <ele>99.6</ele>
    <time>2018-01-28T03:33:19Z</time>
   </trkpt>
   <trkpt lat="12.9201300" lon="99.6671940">
    <ele>99.4</ele>
    <time>2018-01-28T03:33:20Z</time>
   </trkpt>
   <trkpt lat="12.9200900" lon="99.6671620">
    <ele>99.0</ele>
    <time>2018-01-28T03:33:22Z</time>
   </trkpt>
   <trkpt lat="12.9200570" lon="99.6671350">
    <ele>98.4</ele>
    <time>2018-01-28T03:33:24Z</time>
   </trkpt>
   <trkpt lat="12.9200360" lon="99.6671170">
    <ele>98.4</ele>
    <time>2018-01-28T03:33:27Z</time>
   </trkpt>
   <trkpt lat="12.9200070" lon="99.6671000">
    <ele>97.9</ele>
    <time>2018-01-28T03:33:30Z</time>
   </trkpt>
   <trkpt lat="12.9199780" lon="99.6670710">
    <ele>97.6</ele>
    <time>2018-01-28T03:33:32Z</time>
   </trkpt>
   <trkpt lat="12.9199590" lon="99.6670340">
    <ele>97.6</ele>
    <time>2018-01-28T03:33:34Z</time>
   </trkpt>
   <trkpt lat="12.9199230" lon="99.6670000">
    <ele>96.9</ele>
    <time>2018-01-28T03:33:36Z</time>
   </trkpt>
   <trkpt lat="12.9198660" lon="99.6669720">
    <ele>96.0</ele>
    <time>2018-01-28T03:33:38Z</time>
   </trkpt>
   <trkpt lat="12.9198260" lon="99.6669560">
    <ele>95.6</ele>
    <time>2018-01-28T03:33:39Z</time>
   </trkpt>
   <trkpt lat="12.9197900" lon="99.6669400">
    <ele>95.6</ele>
    <time>2018-01-28T03:33:40Z</time>
   </trkpt>
   <trkpt lat="12.9197630" lon="99.6669270">
    <ele>95.3</ele>
    <time>2018-01-28T03:33:41Z</time>
   </trkpt>
   <trkpt lat="12.9197130" lon="99.6669060">
    <ele>95.1</ele>
    <time>2018-01-28T03:33:43Z</time>
   </trkpt>
   <trkpt lat="12.9196850" lon="99.6668940">
    <ele>94.8</ele>
    <time>2018-01-28T03:33:44Z</time>
   </trkpt>
   <trkpt lat="12.9196570" lon="99.6668710">
    <ele>94.6</ele>
    <time>2018-01-28T03:33:45Z</time>
   </trkpt>
   <trkpt lat="12.9196370" lon="99.6668400">
    <ele>94.6</ele>
    <time>2018-01-28T03:33:46Z</time>
   </trkpt>
   <trkpt lat="12.9196250" lon="99.6668060">
    <ele>94.6</ele>
    <time>2018-01-28T03:33:47Z</time>
   </trkpt>
   <trkpt lat="12.9196180" lon="99.6667610">
    <ele>94.7</ele>
    <time>2018-01-28T03:33:48Z</time>
   </trkpt>
   <trkpt lat="12.9196020" lon="99.6666800">
    <ele>95.1</ele>
    <time>2018-01-28T03:33:49Z</time>
   </trkpt>
   <trkpt lat="12.9196030" lon="99.6666420">
    <ele>95.1</ele>
    <time>2018-01-28T03:33:50Z</time>
   </trkpt>
   <trkpt lat="12.9196030" lon="99.6666020">
    <ele>95.3</ele>
    <time>2018-01-28T03:33:51Z</time>
   </trkpt>
   <trkpt lat="12.9196050" lon="99.6665700">
    <ele>95.6</ele>
    <time>2018-01-28T03:33:52Z</time>
   </trkpt>
   <trkpt lat="12.9195970" lon="99.6665270">
    <ele>95.8</ele>
    <time>2018-01-28T03:33:54Z</time>
   </trkpt>
   <trkpt lat="12.9195910" lon="99.6664970">
    <ele>96.0</ele>
    <time>2018-01-28T03:33:55Z</time>
   </trkpt>
   <trkpt lat="12.9195850" lon="99.6664690">
    <ele>96.0</ele>
    <time>2018-01-28T03:33:56Z</time>
   </trkpt>
   <trkpt lat="12.9195750" lon="99.6664200">
    <ele>96.4</ele>
    <time>2018-01-28T03:33:58Z</time>
   </trkpt>
   <trkpt lat="12.9195660" lon="99.6663650">
    <ele>96.5</ele>
    <time>2018-01-28T03:34:00Z</time>
   </trkpt>
   <trkpt lat="12.9195620" lon="99.6663360">
    <ele>96.5</ele>
    <time>2018-01-28T03:34:01Z</time>
   </trkpt>
   <trkpt lat="12.9195600" lon="99.6663070">
    <ele>96.5</ele>
    <time>2018-01-28T03:34:02Z</time>
   </trkpt>
   <trkpt lat="12.9195580" lon="99.6662770">
    <ele>96.5</ele>
    <time>2018-01-28T03:34:03Z</time>
   </trkpt>
   <trkpt lat="12.9195550" lon="99.6662460">
    <ele>96.5</ele>
    <time>2018-01-28T03:34:04Z</time>
   </trkpt>
   <trkpt lat="12.9195510" lon="99.6662180">
    <ele>96.5</ele>
    <time>2018-01-28T03:34:05Z</time>
   </trkpt>
   <trkpt lat="12.9195480" lon="99.6661860">
    <ele>96.5</ele>
    <time>2018-01-28T03:34:06Z</time>
   </trkpt>
   <trkpt lat="12.9195440" lon="99.6661530">
    <ele>96.3</ele>
    <time>2018-01-28T03:34:07Z</time>
   </trkpt>
   <trkpt lat="12.9195350" lon="99.6661150">
    <ele>96.1</ele>
    <time>2018-01-28T03:34:08Z</time>
   </trkpt>
   <trkpt lat="12.9195220" lon="99.6660730">
    <ele>95.8</ele>
    <time>2018-01-28T03:34:09Z</time>
   </trkpt>
   <trkpt lat="12.9195100" lon="99.6660310">
    <ele>95.6</ele>
    <time>2018-01-28T03:34:10Z</time>
   </trkpt>
   <trkpt lat="12.9195000" lon="99.6659890">
    <ele>95.3</ele>
    <time>2018-01-28T03:34:11Z</time>
   </trkpt>
   <trkpt lat="12.9194940" lon="99.6659330">
    <ele>95.1</ele>
    <time>2018-01-28T03:34:12Z</time>
   </trkpt>
   <trkpt lat="12.9194820" lon="99.6658900">
    <ele>94.8</ele>
    <time>2018-01-28T03:34:13Z</time>
   </trkpt>
   <trkpt lat="12.9194800" lon="99.6658440">
    <ele>94.5</ele>
    <time>2018-01-28T03:34:14Z</time>
   </trkpt>
   <trkpt lat="12.9194770" lon="99.6658090">
    <ele>94.3</ele>
    <time>2018-01-28T03:34:15Z</time>
   </trkpt>
   <trkpt lat="12.9194790" lon="99.6657690">
    <ele>94.0</ele>
    <time>2018-01-28T03:34:16Z</time>
   </trkpt>
   <trkpt lat="12.9194730" lon="99.6657250">
    <ele>93.8</ele>
    <time>2018-01-28T03:34:17Z</time>
   </trkpt>
   <trkpt lat="12.9194740" lon="99.6656790">
    <ele>93.5</ele>
    <time>2018-01-28T03:34:18Z</time>
   </trkpt>
   <trkpt lat="12.9194730" lon="99.6656400">
    <ele>93.1</ele>
    <time>2018-01-28T03:34:19Z</time>
   </trkpt>
   <trkpt lat="12.9194730" lon="99.6655960">
    <ele>92.6</ele>
    <time>2018-01-28T03:34:20Z</time>
   </trkpt>
   <trkpt lat="12.9194710" lon="99.6655500">
    <ele>92.1</ele>
    <time>2018-01-28T03:34:21Z</time>
   </trkpt>
   <trkpt lat="12.9194650" lon="99.6655020">
    <ele>91.6</ele>
    <time>2018-01-28T03:34:22Z</time>
   </trkpt>
   <trkpt lat="12.9194560" lon="99.6654370">
    <ele>91.3</ele>
    <time>2018-01-28T03:34:23Z</time>
   </trkpt>
   <trkpt lat="12.9194580" lon="99.6653710">
    <ele>90.8</ele>
    <time>2018-01-28T03:34:24Z</time>
   </trkpt>
   <trkpt lat="12.9194540" lon="99.6653100">
    <ele>90.5</ele>
    <time>2018-01-28T03:34:25Z</time>
   </trkpt>
   <trkpt lat="12.9194620" lon="99.6652400">
    <ele>90.0</ele>
    <time>2018-01-28T03:34:26Z</time>
   </trkpt>
   <trkpt lat="12.9194620" lon="99.6651710">
    <ele>89.5</ele>
    <time>2018-01-28T03:34:27Z</time>
   </trkpt>
   <trkpt lat="12.9194520" lon="99.6651050">
    <ele>89.2</ele>
    <time>2018-01-28T03:34:28Z</time>
   </trkpt>
   <trkpt lat="12.9194360" lon="99.6650380">
    <ele>88.7</ele>
    <time>2018-01-28T03:34:29Z</time>
   </trkpt>
   <trkpt lat="12.9194220" lon="99.6649770">
    <ele>88.4</ele>
    <time>2018-01-28T03:34:30Z</time>
   </trkpt>
   <trkpt lat="12.9194060" lon="99.6649260">
    <ele>88.3</ele>
    <time>2018-01-28T03:34:31Z</time>
   </trkpt>
   <trkpt lat="12.9193970" lon="99.6648730">
    <ele>88.0</ele>
    <time>2018-01-28T03:34:32Z</time>
   </trkpt>
   <trkpt lat="12.9193860" lon="99.6648230">
    <ele>87.8</ele>
    <time>2018-01-28T03:34:33Z</time>
   </trkpt>
   <trkpt lat="12.9193790" lon="99.6647820">
    <ele>87.9</ele>
    <time>2018-01-28T03:34:34Z</time>
   </trkpt>
   <trkpt lat="12.9193720" lon="99.6647480">
    <ele>88.2</ele>
    <time>2018-01-28T03:34:35Z</time>
   </trkpt>
   <trkpt lat="12.9193650" lon="99.6647090">
    <ele>87.9</ele>
    <time>2018-01-28T03:34:36Z</time>
   </trkpt>
   <trkpt lat="12.9193670" lon="99.6646710">
    <ele>88.4</ele>
    <time>2018-01-28T03:34:37Z</time>
   </trkpt>
   <trkpt lat="12.9193550" lon="99.6646230">
    <ele>88.7</ele>
    <time>2018-01-28T03:34:38Z</time>
   </trkpt>
   <trkpt lat="12.9193530" lon="99.6645910">
    <ele>88.8</ele>
    <time>2018-01-28T03:34:39Z</time>
   </trkpt>
   <trkpt lat="12.9193400" lon="99.6645550">
    <ele>88.9</ele>
    <time>2018-01-28T03:34:40Z</time>
   </trkpt>
   <trkpt lat="12.9193340" lon="99.6645230">
    <ele>89.0</ele>
    <time>2018-01-28T03:34:42Z</time>
   </trkpt>
   <trkpt lat="12.9193710" lon="99.6644670">
    <ele>89.4</ele>
    <time>2018-01-28T03:34:44Z</time>
   </trkpt>
   <trkpt lat="12.9194100" lon="99.6644430">
    <ele>89.6</ele>
    <time>2018-01-28T03:34:45Z</time>
   </trkpt>
   <trkpt lat="12.9194510" lon="99.6644230">
    <ele>89.9</ele>
    <time>2018-01-28T03:34:46Z</time>
   </trkpt>
   <trkpt lat="12.9194900" lon="99.6644050">
    <ele>90.1</ele>
    <time>2018-01-28T03:34:47Z</time>
   </trkpt>
   <trkpt lat="12.9195320" lon="99.6643890">
    <ele>90.4</ele>
    <time>2018-01-28T03:34:48Z</time>
   </trkpt>
   <trkpt lat="12.9195680" lon="99.6643700">
    <ele>90.5</ele>
    <time>2018-01-28T03:34:49Z</time>
   </trkpt>
   <trkpt lat="12.9196030" lon="99.6643490">
    <ele>90.6</ele>
    <time>2018-01-28T03:34:50Z</time>
   </trkpt>
   <trkpt lat="12.9196370" lon="99.6643260">
    <ele>90.6</ele>
    <time>2018-01-28T03:34:51Z</time>
   </trkpt>
   <trkpt lat="12.9196730" lon="99.6643050">
    <ele>90.6</ele>
    <time>2018-01-28T03:34:52Z</time>
   </trkpt>
   <trkpt lat="12.9197050" lon="99.6642780">
    <ele>90.6</ele>
    <time>2018-01-28T03:34:53Z</time>
   </trkpt>
   <trkpt lat="12.9197410" lon="99.6642470">
    <ele>90.7</ele>
    <time>2018-01-28T03:34:54Z</time>
   </trkpt>
   <trkpt lat="12.9197740" lon="99.6642200">
    <ele>90.8</ele>
    <time>2018-01-28T03:34:55Z</time>
   </trkpt>
   <trkpt lat="12.9198080" lon="99.6641910">
    <ele>90.9</ele>
    <time>2018-01-28T03:34:56Z</time>
   </trkpt>
   <trkpt lat="12.9198410" lon="99.6641620">
    <ele>91.0</ele>
    <time>2018-01-28T03:34:57Z</time>
   </trkpt>
   <trkpt lat="12.9198700" lon="99.6641360">
    <ele>91.2</ele>
    <time>2018-01-28T03:34:58Z</time>
   </trkpt>
   <trkpt lat="12.9198970" lon="99.6641130">
    <ele>91.4</ele>
    <time>2018-01-28T03:34:59Z</time>
   </trkpt>
   <trkpt lat="12.9199240" lon="99.6640880">
    <ele>91.6</ele>
    <time>2018-01-28T03:35:00Z</time>
   </trkpt>
   <trkpt lat="12.9199490" lon="99.6640610">
    <ele>91.8</ele>
    <time>2018-01-28T03:35:01Z</time>
   </trkpt>
   <trkpt lat="12.9199720" lon="99.6640350">
    <ele>92.0</ele>
    <time>2018-01-28T03:35:02Z</time>
   </trkpt>
   <trkpt lat="12.9199920" lon="99.6640120">
    <ele>92.1</ele>
    <time>2018-01-28T03:35:03Z</time>
   </trkpt>
   <trkpt lat="12.9200150" lon="99.6639890">
    <ele>92.2</ele>
    <time>2018-01-28T03:35:04Z</time>
   </trkpt>
   <trkpt lat="12.9200440" lon="99.6639630">
    <ele>92.3</ele>
    <time>2018-01-28T03:35:05Z</time>
   </trkpt>
   <trkpt lat="12.9200760" lon="99.6639360">
    <ele>92.4</ele>
    <time>2018-01-28T03:35:06Z</time>
   </trkpt>
   <trkpt lat="12.9201110" lon="99.6639100">
    <ele>92.6</ele>
    <time>2018-01-28T03:35:07Z</time>
   </trkpt>
   <trkpt lat="12.9201510" lon="99.6638850">
    <ele>92.7</ele>
    <time>2018-01-28T03:35:08Z</time>
   </trkpt>
   <trkpt lat="12.9201920" lon="99.6638610">
    <ele>92.8</ele>
    <time>2018-01-28T03:35:09Z</time>
   </trkpt>
   <trkpt lat="12.9202370" lon="99.6638350">
    <ele>93.0</ele>
    <time>2018-01-28T03:35:10Z</time>
   </trkpt>
   <trkpt lat="12.9202810" lon="99.6638070">
    <ele>93.2</ele>
    <time>2018-01-28T03:35:11Z</time>
   </trkpt>
   <trkpt lat="12.9203250" lon="99.6637790">
    <ele>93.4</ele>
    <time>2018-01-28T03:35:12Z</time>
   </trkpt>
   <trkpt lat="12.9203700" lon="99.6637490">
    <ele>93.6</ele>
    <time>2018-01-28T03:35:13Z</time>
   </trkpt>
   <trkpt lat="12.9204110" lon="99.6637230">
    <ele>93.7</ele>
    <time>2018-01-28T03:35:14Z</time>
   </trkpt>
   <trkpt lat="12.9204550" lon="99.6636970">
    <ele>93.9</ele>
    <time>2018-01-28T03:35:15Z</time>
   </trkpt>
   <trkpt lat="12.9204950" lon="99.6636740">
    <ele>94.1</ele>
    <time>2018-01-28T03:35:16Z</time>
   </trkpt>
   <trkpt lat="12.9205360" lon="99.6636540">
    <ele>94.3</ele>
    <time>2018-01-28T03:35:17Z</time>
   </trkpt>
   <trkpt lat="12.9205790" lon="99.6636360">
    <ele>94.4</ele>
    <time>2018-01-28T03:35:18Z</time>
   </trkpt>
   <trkpt lat="12.9206250" lon="99.6636200">
    <ele>94.5</ele>
    <time>2018-01-28T03:35:19Z</time>
   </trkpt>
   <trkpt lat="12.9206680" lon="99.6636060">
    <ele>94.6</ele>
    <time>2018-01-28T03:35:20Z</time>
   </trkpt>
   <trkpt lat="12.9207090" lon="99.6635910">
    <ele>94.6</ele>
    <time>2018-01-28T03:35:21Z</time>
   </trkpt>
   <trkpt lat="12.9207480" lon="99.6635770">
    <ele>94.6</ele>
    <time>2018-01-28T03:35:22Z</time>
   </trkpt>
   <trkpt lat="12.9207910" lon="99.6635610">
    <ele>94.7</ele>
    <time>2018-01-28T03:35:23Z</time>
   </trkpt>
   <trkpt lat="12.9208350" lon="99.6635470">
    <ele>94.8</ele>
    <time>2018-01-28T03:35:24Z</time>
   </trkpt>
   <trkpt lat="12.9208740" lon="99.6635350">
    <ele>94.9</ele>
    <time>2018-01-28T03:35:25Z</time>
   </trkpt>
   <trkpt lat="12.9209180" lon="99.6635230">
    <ele>95.0</ele>
    <time>2018-01-28T03:35:26Z</time>
   </trkpt>
   <trkpt lat="12.9209620" lon="99.6635110">
    <ele>95.1</ele>
    <time>2018-01-28T03:35:27Z</time>
   </trkpt>
   <trkpt lat="12.9210030" lon="99.6635000">
    <ele>95.2</ele>
    <time>2018-01-28T03:35:28Z</time>
   </trkpt>
   <trkpt lat="12.9210500" lon="99.6634900">
    <ele>95.2</ele>
    <time>2018-01-28T03:35:29Z</time>
   </trkpt>
   <trkpt lat="12.9210940" lon="99.6634790">
    <ele>95.1</ele>
    <time>2018-01-28T03:35:30Z</time>
   </trkpt>
   <trkpt lat="12.9211310" lon="99.6634710">
    <ele>94.9</ele>
    <time>2018-01-28T03:35:31Z</time>
   </trkpt>
   <trkpt lat="12.9211840" lon="99.6634670">
    <ele>94.9</ele>
    <time>2018-01-28T03:35:33Z</time>
   </trkpt>
   <trkpt lat="12.9212170" lon="99.6634630">
    <ele>94.9</ele>
    <time>2018-01-28T03:35:34Z</time>
   </trkpt>
   <trkpt lat="12.9212450" lon="99.6634530">
    <ele>94.8</ele>
    <time>2018-01-28T03:35:35Z</time>
   </trkpt>
   <trkpt lat="12.9212840" lon="99.6634550">
    <ele>94.7</ele>
    <time>2018-01-28T03:35:36Z</time>
   </trkpt>
   <trkpt lat="12.9213150" lon="99.6634550">
    <ele>94.8</ele>
    <time>2018-01-28T03:35:37Z</time>
   </trkpt>
   <trkpt lat="12.9213530" lon="99.6634580">
    <ele>94.9</ele>
    <time>2018-01-28T03:35:38Z</time>
   </trkpt>
   <trkpt lat="12.9213910" lon="99.6634600">
    <ele>94.9</ele>
    <time>2018-01-28T03:35:39Z</time>
   </trkpt>
   <trkpt lat="12.9214370" lon="99.6634620">
    <ele>94.9</ele>
    <time>2018-01-28T03:35:41Z</time>
   </trkpt>
   <trkpt lat="12.9214760" lon="99.6634610">
    <ele>94.9</ele>
    <time>2018-01-28T03:35:42Z</time>
   </trkpt>
   <trkpt lat="12.9215100" lon="99.6634600">
    <ele>94.9</ele>
    <time>2018-01-28T03:35:43Z</time>
   </trkpt>
   <trkpt lat="12.9215440" lon="99.6634600">
    <ele>94.9</ele>
    <time>2018-01-28T03:35:44Z</time>
   </trkpt>
   <trkpt lat="12.9215780" lon="99.6634610">
    <ele>94.9</ele>
    <time>2018-01-28T03:35:45Z</time>
   </trkpt>
   <trkpt lat="12.9216120" lon="99.6634640">
    <ele>94.9</ele>
    <time>2018-01-28T03:35:46Z</time>
   </trkpt>
   <trkpt lat="12.9216430" lon="99.6634660">
    <ele>94.9</ele>
    <time>2018-01-28T03:35:47Z</time>
   </trkpt>
   <trkpt lat="12.9216770" lon="99.6634700">
    <ele>95.0</ele>
    <time>2018-01-28T03:35:48Z</time>
   </trkpt>
   <trkpt lat="12.9217150" lon="99.6634750">
    <ele>95.4</ele>
    <time>2018-01-28T03:35:49Z</time>
   </trkpt>
   <trkpt lat="12.9217540" lon="99.6634790">
    <ele>95.7</ele>
    <time>2018-01-28T03:35:50Z</time>
   </trkpt>
   <trkpt lat="12.9217940" lon="99.6634830">
    <ele>96.0</ele>
    <time>2018-01-28T03:35:51Z</time>
   </trkpt>
   <trkpt lat="12.9218370" lon="99.6634870">
    <ele>96.3</ele>
    <time>2018-01-28T03:35:52Z</time>
   </trkpt>
   <trkpt lat="12.9218770" lon="99.6634910">
    <ele>96.5</ele>
    <time>2018-01-28T03:35:53Z</time>
   </trkpt>
   <trkpt lat="12.9219180" lon="99.6634970">
    <ele>96.5</ele>
    <time>2018-01-28T03:35:54Z</time>
   </trkpt>
   <trkpt lat="12.9219600" lon="99.6635020">
    <ele>96.6</ele>
    <time>2018-01-28T03:35:55Z</time>
   </trkpt>
   <trkpt lat="12.9220030" lon="99.6635060">
    <ele>96.6</ele>
    <time>2018-01-28T03:35:56Z</time>
   </trkpt>
   <trkpt lat="12.9220440" lon="99.6635090">
    <ele>96.6</ele>
    <time>2018-01-28T03:35:57Z</time>
   </trkpt>
   <trkpt lat="12.9220850" lon="99.6635120">
    <ele>96.6</ele>
    <time>2018-01-28T03:35:58Z</time>
   </trkpt>
   <trkpt lat="12.9221240" lon="99.6635150">
    <ele>96.6</ele>
    <time>2018-01-28T03:35:59Z</time>
   </trkpt>
   <trkpt lat="12.9221630" lon="99.6635170">
    <ele>96.6</ele>
    <time>2018-01-28T03:36:00Z</time>
   </trkpt>
   <trkpt lat="12.9222030" lon="99.6635190">
    <ele>96.6</ele>
    <time>2018-01-28T03:36:01Z</time>
   </trkpt>
   <trkpt lat="12.9222420" lon="99.6635160">
    <ele>96.6</ele>
    <time>2018-01-28T03:36:02Z</time>
   </trkpt>
   <trkpt lat="12.9222810" lon="99.6635110">
    <ele>96.4</ele>
    <time>2018-01-28T03:36:03Z</time>
   </trkpt>
   <trkpt lat="12.9223180" lon="99.6635030">
    <ele>96.3</ele>
    <time>2018-01-28T03:36:04Z</time>
   </trkpt>
   <trkpt lat="12.9223550" lon="99.6634930">
    <ele>96.1</ele>
    <time>2018-01-28T03:36:05Z</time>
   </trkpt>
   <trkpt lat="12.9223930" lon="99.6634820">
    <ele>95.9</ele>
    <time>2018-01-28T03:36:06Z</time>
   </trkpt>
   <trkpt lat="12.9224290" lon="99.6634690">
    <ele>95.7</ele>
    <time>2018-01-28T03:36:07Z</time>
   </trkpt>
   <trkpt lat="12.9224610" lon="99.6634560">
    <ele>95.6</ele>
    <time>2018-01-28T03:36:08Z</time>
   </trkpt>
   <trkpt lat="12.9224960" lon="99.6634430">
    <ele>95.4</ele>
    <time>2018-01-28T03:36:09Z</time>
   </trkpt>
   <trkpt lat="12.9225270" lon="99.6634280">
    <ele>95.2</ele>
    <time>2018-01-28T03:36:10Z</time>
   </trkpt>
   <trkpt lat="12.9225570" lon="99.6634050">
    <ele>94.9</ele>
    <time>2018-01-28T03:36:11Z</time>
   </trkpt>
   <trkpt lat="12.9225800" lon="99.6633720">
    <ele>94.8</ele>
    <time>2018-01-28T03:36:12Z</time>
   </trkpt>
   <trkpt lat="12.9225970" lon="99.6633330">
    <ele>95.2</ele>
    <time>2018-01-28T03:36:13Z</time>
   </trkpt>
   <trkpt lat="12.9226130" lon="99.6632940">
    <ele>95.7</ele>
    <time>2018-01-28T03:36:14Z</time>
   </trkpt>
   <trkpt lat="12.9226330" lon="99.6632650">
    <ele>96.2</ele>
    <time>2018-01-28T03:36:15Z</time>
   </trkpt>
   <trkpt lat="12.9226540" lon="99.6632460">
    <ele>96.6</ele>
    <time>2018-01-28T03:36:16Z</time>
   </trkpt>
   <trkpt lat="12.9226960" lon="99.6632300">
    <ele>97.1</ele>
    <time>2018-01-28T03:36:18Z</time>
   </trkpt>
   <trkpt lat="12.9227390" lon="99.6632320">
    <ele>97.6</ele>
    <time>2018-01-28T03:36:20Z</time>
   </trkpt>
   <trkpt lat="12.9227790" lon="99.6632350">
    <ele>98.0</ele>
    <time>2018-01-28T03:36:22Z</time>
   </trkpt>
   <trkpt lat="12.9228140" lon="99.6632200">
    <ele>98.2</ele>
    <time>2018-01-28T03:36:24Z</time>
   </trkpt>
   <trkpt lat="12.9228390" lon="99.6631940">
    <ele>98.5</ele>
    <time>2018-01-28T03:36:27Z</time>
   </trkpt>
   <trkpt lat="12.9228590" lon="99.6632300">
    <ele>98.9</ele>
    <time>2018-01-28T03:36:41Z</time>
   </trkpt>
   <trkpt lat="12.9228800" lon="99.6632520">
    <ele>99.3</ele>
    <time>2018-01-28T03:36:42Z</time>
   </trkpt>
   <trkpt lat="12.9229100" lon="99.6632700">
    <ele>99.6</ele>
    <time>2018-01-28T03:36:44Z</time>
   </trkpt>
   <trkpt lat="12.9229420" lon="99.6632570">
    <ele>99.8</ele>
    <time>2018-01-28T03:36:46Z</time>
   </trkpt>
   <trkpt lat="12.9229740" lon="99.6632440">
    <ele>100.0</ele>
    <time>2018-01-28T03:36:49Z</time>
   </trkpt>
   <trkpt lat="12.9229970" lon="99.6632680">
    <ele>100.1</ele>
    <time>2018-01-28T03:36:51Z</time>
   </trkpt>
   <trkpt lat="12.9229930" lon="99.6632980">
    <ele>100.1</ele>
    <time>2018-01-28T03:36:53Z</time>
   </trkpt>
   <trkpt lat="12.9229690" lon="99.6633200">
    <ele>100.0</ele>
    <time>2018-01-28T03:36:55Z</time>
   </trkpt>
   <trkpt lat="12.9229360" lon="99.6633320">
    <ele>99.9</ele>
    <time>2018-01-28T03:36:57Z</time>
   </trkpt>
   <trkpt lat="12.9229100" lon="99.6633440">
    <ele>99.8</ele>
    <time>2018-01-28T03:37:01Z</time>
   </trkpt>
   <trkpt lat="12.9228810" lon="99.6633520">
    <ele>99.7</ele>
    <time>2018-01-28T03:37:04Z</time>
   </trkpt>
   <trkpt lat="12.9228400" lon="99.6633610">
    <ele>99.5</ele>
    <time>2018-01-28T03:37:06Z</time>
   </trkpt>
   <trkpt lat="12.9227950" lon="99.6633760">
    <ele>99.2</ele>
    <time>2018-01-28T03:37:08Z</time>
   </trkpt>
   <trkpt lat="12.9227470" lon="99.6633960">
    <ele>98.9</ele>
    <time>2018-01-28T03:37:10Z</time>
   </trkpt>
   <trkpt lat="12.9227210" lon="99.6634080">
    <ele>98.7</ele>
    <time>2018-01-28T03:37:11Z</time>
   </trkpt>
   <trkpt lat="12.9226930" lon="99.6634180">
    <ele>98.6</ele>
    <time>2018-01-28T03:37:12Z</time>
   </trkpt>
   <trkpt lat="12.9226630" lon="99.6634280">
    <ele>98.4</ele>
    <time>2018-01-28T03:37:13Z</time>
   </trkpt>
   <trkpt lat="12.9226340" lon="99.6634360">
    <ele>98.3</ele>
    <time>2018-01-28T03:37:14Z</time>
   </trkpt>
   <trkpt lat="12.9225910" lon="99.6634370">
    <ele>98.1</ele>
    <time>2018-01-28T03:37:16Z</time>
   </trkpt>
   <trkpt lat="12.9225500" lon="99.6634080">
    <ele>97.9</ele>
    <time>2018-01-28T03:37:18Z</time>
   </trkpt>
   <trkpt lat="12.9225260" lon="99.6633650">
    <ele>97.6</ele>
    <time>2018-01-28T03:37:20Z</time>
   </trkpt>
   <trkpt lat="12.9225230" lon="99.6633370">
    <ele>97.4</ele>
    <time>2018-01-28T03:37:23Z</time>
   </trkpt>
   <trkpt lat="12.9225580" lon="99.6633380">
    <ele>97.2</ele>
    <time>2018-01-28T03:37:30Z</time>
   </trkpt>
   <trkpt lat="12.9225290" lon="99.6633340">
    <ele>97.1</ele>
    <time>2018-01-28T03:37:59Z</time>
   </trkpt>
   <trkpt lat="12.9225050" lon="99.6633210">
    <ele>96.9</ele>
    <time>2018-01-28T03:38:11Z</time>
   </trkpt>
   <trkpt lat="12.9224890" lon="99.6632980">
    <ele>96.7</ele>
    <time>2018-01-28T03:38:30Z</time>
   </trkpt>
   <trkpt lat="12.9224920" lon="99.6633300">
    <ele>96.4</ele>
    <time>2018-01-28T03:39:03Z</time>
   </trkpt>
   <trkpt lat="12.9225160" lon="99.6633480">
    <ele>96.2</ele>
    <time>2018-01-28T03:39:07Z</time>
   </trkpt>
   <trkpt lat="12.9225320" lon="99.6633230">
    <ele>95.9</ele>
    <time>2018-01-28T03:39:31Z</time>
   </trkpt>
   <trkpt lat="12.9225380" lon="99.6633630">
    <ele>95.6</ele>
    <time>2018-01-28T03:41:02Z</time>
   </trkpt>
   <trkpt lat="12.9225490" lon="99.6633960">
    <ele>95.4</ele>
    <time>2018-01-28T03:41:04Z</time>
   </trkpt>
   <trkpt lat="12.9225520" lon="99.6634310">
    <ele>95.3</ele>
    <time>2018-01-28T03:41:06Z</time>
   </trkpt>
   <trkpt lat="12.9225950" lon="99.6634400">
    <ele>95.9</ele>
    <time>2018-01-28T03:41:08Z</time>
   </trkpt>
   <trkpt lat="12.9226420" lon="99.6634210">
    <ele>96.6</ele>
    <time>2018-01-28T03:41:10Z</time>
   </trkpt>
   <trkpt lat="12.9226670" lon="99.6634070">
    <ele>97.0</ele>
    <time>2018-01-28T03:41:11Z</time>
   </trkpt>
   <trkpt lat="12.9226920" lon="99.6633900">
    <ele>97.3</ele>
    <time>2018-01-28T03:41:12Z</time>
   </trkpt>
   <trkpt lat="12.9227190" lon="99.6633720">
    <ele>97.6</ele>
    <time>2018-01-28T03:41:13Z</time>
   </trkpt>
   <trkpt lat="12.9227460" lon="99.6633540">
    <ele>98.0</ele>
    <time>2018-01-28T03:41:14Z</time>
   </trkpt>
   <trkpt lat="12.9227710" lon="99.6633370">
    <ele>98.2</ele>
    <time>2018-01-28T03:41:15Z</time>
   </trkpt>
   <trkpt lat="12.9227970" lon="99.6633220">
    <ele>98.4</ele>
    <time>2018-01-28T03:41:16Z</time>
   </trkpt>
   <trkpt lat="12.9228220" lon="99.6633090">
    <ele>98.7</ele>
    <time>2018-01-28T03:41:17Z</time>
   </trkpt>
   <trkpt lat="12.9228670" lon="99.6632860">
    <ele>99.2</ele>
    <time>2018-01-28T03:41:19Z</time>
   </trkpt>
   <trkpt lat="12.9229100" lon="99.6632610">
    <ele>99.7</ele>
    <time>2018-01-28T03:41:21Z</time>
   </trkpt>
   <trkpt lat="12.9229460" lon="99.6632520">
    <ele>99.9</ele>
    <time>2018-01-28T03:41:23Z</time>
   </trkpt>
   <trkpt lat="12.9229740" lon="99.6632480">
    <ele>100.1</ele>
    <time>2018-01-28T03:41:25Z</time>
   </trkpt>
   <trkpt lat="12.9230120" lon="99.6632440">
    <ele>100.0</ele>
    <time>2018-01-28T03:41:27Z</time>
   </trkpt>
   <trkpt lat="12.9230540" lon="99.6632380">
    <ele>99.9</ele>
    <time>2018-01-28T03:41:29Z</time>
   </trkpt>
   <trkpt lat="12.9230790" lon="99.6632210">
    <ele>99.7</ele>
    <time>2018-01-28T03:41:30Z</time>
   </trkpt>
   <trkpt lat="12.9231010" lon="99.6632050">
    <ele>99.5</ele>
    <time>2018-01-28T03:41:31Z</time>
   </trkpt>
   <trkpt lat="12.9231320" lon="99.6631910">
    <ele>99.4</ele>
    <time>2018-01-28T03:41:32Z</time>
   </trkpt>
   <trkpt lat="12.9231600" lon="99.6631770">
    <ele>99.3</ele>
    <time>2018-01-28T03:41:33Z</time>
   </trkpt>
   <trkpt lat="12.9231880" lon="99.6631620">
    <ele>99.3</ele>
    <time>2018-01-28T03:41:34Z</time>
   </trkpt>
   <trkpt lat="12.9232220" lon="99.6631510">
    <ele>99.2</ele>
    <time>2018-01-28T03:41:35Z</time>
   </trkpt>
   <trkpt lat="12.9232520" lon="99.6631400">
    <ele>99.1</ele>
    <time>2018-01-28T03:41:36Z</time>
   </trkpt>
   <trkpt lat="12.9232850" lon="99.6631260">
    <ele>98.9</ele>
    <time>2018-01-28T03:41:37Z</time>
   </trkpt>
   <trkpt lat="12.9233090" lon="99.6631110">
    <ele>98.7</ele>
    <time>2018-01-28T03:41:38Z</time>
   </trkpt>
   <trkpt lat="12.9233350" lon="99.6630990">
    <ele>98.7</ele>
    <time>2018-01-28T03:41:39Z</time>
   </trkpt>
   <trkpt lat="12.9233650" lon="99.6630820">
    <ele>98.6</ele>
    <time>2018-01-28T03:41:40Z</time>
   </trkpt>
   <trkpt lat="12.9233940" lon="99.6630660">
    <ele>98.6</ele>
    <time>2018-01-28T03:41:41Z</time>
   </trkpt>
   <trkpt lat="12.9234240" lon="99.6630500">
    <ele>98.6</ele>
    <time>2018-01-28T03:41:42Z</time>
   </trkpt>
   <trkpt lat="12.9234550" lon="99.6630350">
    <ele>98.7</ele>
    <time>2018-01-28T03:41:43Z</time>
   </trkpt>
   <trkpt lat="12.9234840" lon="99.6630230">
    <ele>98.8</ele>
    <time>2018-01-28T03:41:44Z</time>
   </trkpt>
   <trkpt lat="12.9235120" lon="99.6630080">
    <ele>99.0</ele>
    <time>2018-01-28T03:41:45Z</time>
   </trkpt>
   <trkpt lat="12.9235410" lon="99.6629920">
    <ele>99.2</ele>
    <time>2018-01-28T03:41:46Z</time>
   </trkpt>
   <trkpt lat="12.9235700" lon="99.6629770">
    <ele>99.6</ele>
    <time>2018-01-28T03:41:47Z</time>
   </trkpt>
   <trkpt lat="12.9235970" lon="99.6629630">
    <ele>100.1</ele>
    <time>2018-01-28T03:41:48Z</time>
   </trkpt>
   <trkpt lat="12.9236450" lon="99.6629360">
    <ele>100.8</ele>
    <time>2018-01-28T03:41:50Z</time>
   </trkpt>
   <trkpt lat="12.9236700" lon="99.6629210">
    <ele>101.2</ele>
    <time>2018-01-28T03:41:51Z</time>
   </trkpt>
   <trkpt lat="12.9236960" lon="99.6629100">
    <ele>101.6</ele>
    <time>2018-01-28T03:41:52Z</time>
   </trkpt>
   <trkpt lat="12.9237310" lon="99.6628910">
    <ele>102.7</ele>
    <time>2018-01-28T03:41:54Z</time>
   </trkpt>
   <trkpt lat="12.9237610" lon="99.6628720">
    <ele>103.7</ele>
    <time>2018-01-28T03:41:56Z</time>
   </trkpt>
   <trkpt lat="12.9237930" lon="99.6628520">
    <ele>104.5</ele>
    <time>2018-01-28T03:41:58Z</time>
   </trkpt>
   <trkpt lat="12.9238220" lon="99.6628290">
    <ele>105.1</ele>
    <time>2018-01-28T03:42:00Z</time>
   </trkpt>
   <trkpt lat="12.9238560" lon="99.6628040">
    <ele>105.7</ele>
    <time>2018-01-28T03:42:02Z</time>
   </trkpt>
   <trkpt lat="12.9238910" lon="99.6627770">
    <ele>106.5</ele>
    <time>2018-01-28T03:42:04Z</time>
   </trkpt>
   <trkpt lat="12.9239250" lon="99.6627520">
    <ele>107.3</ele>
    <time>2018-01-28T03:42:06Z</time>
   </trkpt>
   <trkpt lat="12.9239610" lon="99.6627230">
    <ele>107.5</ele>
    <time>2018-01-28T03:42:08Z</time>
   </trkpt>
   <trkpt lat="12.9239990" lon="99.6626910">
    <ele>107.7</ele>
    <time>2018-01-28T03:42:10Z</time>
   </trkpt>
   <trkpt lat="12.9240370" lon="99.6626590">
    <ele>108.0</ele>
    <time>2018-01-28T03:42:12Z</time>
   </trkpt>
   <trkpt lat="12.9240720" lon="99.6626240">
    <ele>108.0</ele>
    <time>2018-01-28T03:42:14Z</time>
   </trkpt>
   <trkpt lat="12.9241020" lon="99.6625950">
    <ele>107.8</ele>
    <time>2018-01-28T03:42:16Z</time>
   </trkpt>
   <trkpt lat="12.9241300" lon="99.6625650">
    <ele>107.7</ele>
    <time>2018-01-28T03:42:18Z</time>
   </trkpt>
   <trkpt lat="12.9241590" lon="99.6625380">
    <ele>107.9</ele>
    <time>2018-01-28T03:42:20Z</time>
   </trkpt>
   <trkpt lat="12.9241900" lon="99.6625110">
    <ele>108.1</ele>
    <time>2018-01-28T03:42:22Z</time>
   </trkpt>
   <trkpt lat="12.9242160" lon="99.6624850">
    <ele>108.2</ele>
    <time>2018-01-28T03:42:24Z</time>
   </trkpt>
   <trkpt lat="12.9242460" lon="99.6624600">
    <ele>108.3</ele>
    <time>2018-01-28T03:42:26Z</time>
   </trkpt>
   <trkpt lat="12.9242780" lon="99.6624410">
    <ele>108.5</ele>
    <time>2018-01-28T03:42:28Z</time>
   </trkpt>
   <trkpt lat="12.9243030" lon="99.6624120">
    <ele>108.7</ele>
    <time>2018-01-28T03:42:30Z</time>
   </trkpt>
   <trkpt lat="12.9243270" lon="99.6623810">
    <ele>108.8</ele>
    <time>2018-01-28T03:42:32Z</time>
   </trkpt>
   <trkpt lat="12.9243560" lon="99.6623580">
    <ele>109.0</ele>
    <time>2018-01-28T03:42:34Z</time>
   </trkpt>
   <trkpt lat="12.9243840" lon="99.6623320">
    <ele>109.2</ele>
    <time>2018-01-28T03:42:36Z</time>
   </trkpt>
   <trkpt lat="12.9244050" lon="99.6623050">
    <ele>109.9</ele>
    <time>2018-01-28T03:42:38Z</time>
   </trkpt>
   <trkpt lat="12.9244250" lon="99.6622770">
    <ele>110.5</ele>
    <time>2018-01-28T03:42:40Z</time>
   </trkpt>
   <trkpt lat="12.9244480" lon="99.6622490">
    <ele>111.0</ele>
    <time>2018-01-28T03:42:42Z</time>
   </trkpt>
   <trkpt lat="12.9244750" lon="99.6622230">
    <ele>111.3</ele>
    <time>2018-01-28T03:42:44Z</time>
   </trkpt>
   <trkpt lat="12.9244930" lon="99.6622020">
    <ele>111.5</ele>
    <time>2018-01-28T03:42:46Z</time>
   </trkpt>
   <trkpt lat="12.9245090" lon="99.6621670">
    <ele>111.7</ele>
    <time>2018-01-28T03:42:48Z</time>
   </trkpt>
   <trkpt lat="12.9245410" lon="99.6621730">
    <ele>111.8</ele>
    <time>2018-01-28T03:42:54Z</time>
   </trkpt>
   <trkpt lat="12.9245670" lon="99.6621880">
    <ele>111.9</ele>
    <time>2018-01-28T03:42:58Z</time>
   </trkpt>
   <trkpt lat="12.9245790" lon="99.6621630">
    <ele>112.0</ele>
    <time>2018-01-28T03:43:00Z</time>
   </trkpt>
   <trkpt lat="12.9245860" lon="99.6621360">
    <ele>112.2</ele>
    <time>2018-01-28T03:43:02Z</time>
   </trkpt>
   <trkpt lat="12.9246200" lon="99.6621120">
    <ele>112.5</ele>
    <time>2018-01-28T03:43:05Z</time>
   </trkpt>
   <trkpt lat="12.9246400" lon="99.6620900">
    <ele>112.8</ele>
    <time>2018-01-28T03:43:07Z</time>
   </trkpt>
   <trkpt lat="12.9246630" lon="99.6620670">
    <ele>113.2</ele>
    <time>2018-01-28T03:43:09Z</time>
   </trkpt>
   <trkpt lat="12.9246880" lon="99.6620500">
    <ele>113.4</ele>
    <time>2018-01-28T03:43:11Z</time>
   </trkpt>
   <trkpt lat="12.9247160" lon="99.6620350">
    <ele>113.4</ele>
    <time>2018-01-28T03:43:13Z</time>
   </trkpt>
   <trkpt lat="12.9247410" lon="99.6620220">
    <ele>113.5</ele>
    <time>2018-01-28T03:43:15Z</time>
   </trkpt>
   <trkpt lat="12.9247590" lon="99.6620530">
    <ele>113.5</ele>
    <time>2018-01-28T03:43:20Z</time>
   </trkpt>
   <trkpt lat="12.9247290" lon="99.6620880">
    <ele>113.4</ele>
    <time>2018-01-28T03:43:22Z</time>
   </trkpt>
   <trkpt lat="12.9246900" lon="99.6621130">
    <ele>113.3</ele>
    <time>2018-01-28T03:43:24Z</time>
   </trkpt>
   <trkpt lat="12.9246670" lon="99.6621300">
    <ele>113.0</ele>
    <time>2018-01-28T03:43:25Z</time>
   </trkpt>
   <trkpt lat="12.9246370" lon="99.6621540">
    <ele>112.5</ele>
    <time>2018-01-28T03:43:26Z</time>
   </trkpt>
   <trkpt lat="12.9246040" lon="99.6621800">
    <ele>112.2</ele>
    <time>2018-01-28T03:43:27Z</time>
   </trkpt>
   <trkpt lat="12.9245710" lon="99.6622080">
    <ele>112.0</ele>
    <time>2018-01-28T03:43:28Z</time>
   </trkpt>
   <trkpt lat="12.9245350" lon="99.6622370">
    <ele>111.8</ele>
    <time>2018-01-28T03:43:29Z</time>
   </trkpt>
   <trkpt lat="12.9244980" lon="99.6622650">
    <ele>111.6</ele>
    <time>2018-01-28T03:43:30Z</time>
   </trkpt>
   <trkpt lat="12.9244760" lon="99.6622900">
    <ele>111.4</ele>
    <time>2018-01-28T03:43:31Z</time>
   </trkpt>
   <trkpt lat="12.9244230" lon="99.6623440">
    <ele>110.8</ele>
    <time>2018-01-28T03:43:32Z</time>
   </trkpt>
   <trkpt lat="12.9243850" lon="99.6623800">
    <ele>109.8</ele>
    <time>2018-01-28T03:43:33Z</time>
   </trkpt>
   <trkpt lat="12.9243370" lon="99.6624280">
    <ele>109.0</ele>
    <time>2018-01-28T03:43:34Z</time>
   </trkpt>
   <trkpt lat="12.9242860" lon="99.6624820">
    <ele>108.7</ele>
    <time>2018-01-28T03:43:35Z</time>
   </trkpt>
   <trkpt lat="12.9242330" lon="99.6625320">
    <ele>108.3</ele>
    <time>2018-01-28T03:43:36Z</time>
   </trkpt>
   <trkpt lat="12.9241850" lon="99.6625850">
    <ele>108.1</ele>
    <time>2018-01-28T03:43:37Z</time>
   </trkpt>
   <trkpt lat="12.9241300" lon="99.6626460">
    <ele>107.7</ele>
    <time>2018-01-28T03:43:38Z</time>
   </trkpt>
   <trkpt lat="12.9240700" lon="99.6627060">
    <ele>108.0</ele>
    <time>2018-01-28T03:43:39Z</time>
   </trkpt>
   <trkpt lat="12.9240040" lon="99.6627590">
    <ele>107.8</ele>
    <time>2018-01-28T03:43:40Z</time>
   </trkpt>
   <trkpt lat="12.9239350" lon="99.6628110">
    <ele>107.4</ele>
    <time>2018-01-28T03:43:41Z</time>
   </trkpt>
   <trkpt lat="12.9238570" lon="99.6628580">
    <ele>106.1</ele>
    <time>2018-01-28T03:43:42Z</time>
   </trkpt>
   <trkpt lat="12.9237730" lon="99.6629120">
    <ele>104.5</ele>
    <time>2018-01-28T03:43:43Z</time>
   </trkpt>
   <trkpt lat="12.9236910" lon="99.6629570">
    <ele>102.1</ele>
    <time>2018-01-28T03:43:44Z</time>
   </trkpt>
   <trkpt lat="12.9236100" lon="99.6630080">
    <ele>100.6</ele>
    <time>2018-01-28T03:43:45Z</time>
   </trkpt>
   <trkpt lat="12.9235180" lon="99.6630530">
    <ele>99.2</ele>
    <time>2018-01-28T03:43:46Z</time>
   </trkpt>
   <trkpt lat="12.9234340" lon="99.6630930">
    <ele>98.6</ele>
    <time>2018-01-28T03:43:47Z</time>
   </trkpt>
   <trkpt lat="12.9233470" lon="99.6631500">
    <ele>98.6</ele>
    <time>2018-01-28T03:43:48Z</time>
   </trkpt>
   <trkpt lat="12.9232840" lon="99.6631970">
    <ele>98.8</ele>
    <time>2018-01-28T03:43:49Z</time>
   </trkpt>
   <trkpt lat="12.9232220" lon="99.6632320">
    <ele>99.2</ele>
    <time>2018-01-28T03:43:50Z</time>
   </trkpt>
   <trkpt lat="12.9231590" lon="99.6632520">
    <ele>99.3</ele>
    <time>2018-01-28T03:43:51Z</time>
   </trkpt>
   <trkpt lat="12.9231040" lon="99.6632800">
    <ele>99.5</ele>
    <time>2018-01-28T03:43:52Z</time>
   </trkpt>
   <trkpt lat="12.9230470" lon="99.6633150">
    <ele>99.9</ele>
    <time>2018-01-28T03:43:53Z</time>
   </trkpt>
   <trkpt lat="12.9230010" lon="99.6633380">
    <ele>100.0</ele>
    <time>2018-01-28T03:43:54Z</time>
   </trkpt>
   <trkpt lat="12.9229470" lon="99.6633460">
    <ele>99.9</ele>
    <time>2018-01-28T03:43:55Z</time>
   </trkpt>
   <trkpt lat="12.9228920" lon="99.6633710">
    <ele>99.6</ele>
    <time>2018-01-28T03:43:56Z</time>
   </trkpt>
   <trkpt lat="12.9228450" lon="99.6633830">
    <ele>99.0</ele>
    <time>2018-01-28T03:43:57Z</time>
   </trkpt>
   <trkpt lat="12.9227990" lon="99.6634080">
    <ele>98.5</ele>
    <time>2018-01-28T03:43:58Z</time>
   </trkpt>
   <trkpt lat="12.9227500" lon="99.6634300">
    <ele>98.0</ele>
    <time>2018-01-28T03:43:59Z</time>
   </trkpt>
   <trkpt lat="12.9227150" lon="99.6634520">
    <ele>97.7</ele>
    <time>2018-01-28T03:44:00Z</time>
   </trkpt>
   <trkpt lat="12.9226840" lon="99.6634660">
    <ele>97.3</ele>
    <time>2018-01-28T03:44:01Z</time>
   </trkpt>
   <trkpt lat="12.9226470" lon="99.6634800">
    <ele>96.8</ele>
    <time>2018-01-28T03:44:02Z</time>
   </trkpt>
   <trkpt lat="12.9226150" lon="99.6634860">
    <ele>96.4</ele>
    <time>2018-01-28T03:44:03Z</time>
   </trkpt>
   <trkpt lat="12.9225680" lon="99.6635000">
    <ele>95.6</ele>
    <time>2018-01-28T03:44:05Z</time>
   </trkpt>
   <trkpt lat="12.9225340" lon="99.6635050">
    <ele>95.3</ele>
    <time>2018-01-28T03:44:08Z</time>
   </trkpt>
   <trkpt lat="12.9225010" lon="99.6635000">
    <ele>94.9</ele>
    <time>2018-01-28T03:44:10Z</time>
   </trkpt>
   <trkpt lat="12.9224660" lon="99.6635080">
    <ele>94.8</ele>
    <time>2018-01-28T03:44:12Z</time>
   </trkpt>
   <trkpt lat="12.9224350" lon="99.6635310">
    <ele>95.1</ele>
    <time>2018-01-28T03:44:15Z</time>
   </trkpt>
   <trkpt lat="12.9224070" lon="99.6635390">
    <ele>95.3</ele>
    <time>2018-01-28T03:44:17Z</time>
   </trkpt>
   <trkpt lat="12.9223710" lon="99.6635490">
    <ele>95.5</ele>
    <time>2018-01-28T03:44:19Z</time>
   </trkpt>
   <trkpt lat="12.9223370" lon="99.6635530">
    <ele>95.7</ele>
    <time>2018-01-28T03:44:21Z</time>
   </trkpt>
   <trkpt lat="12.9222950" lon="99.6635600">
    <ele>95.9</ele>
    <time>2018-01-28T03:44:23Z</time>
   </trkpt>
   <trkpt lat="12.9222660" lon="99.6635660">
    <ele>96.1</ele>
    <time>2018-01-28T03:44:24Z</time>
   </trkpt>
   <trkpt lat="12.9222390" lon="99.6635710">
    <ele>96.2</ele>
    <time>2018-01-28T03:44:25Z</time>
   </trkpt>
   <trkpt lat="12.9222100" lon="99.6635770">
    <ele>96.4</ele>
    <time>2018-01-28T03:44:26Z</time>
   </trkpt>
   <trkpt lat="12.9221780" lon="99.6635770">
    <ele>96.5</ele>
    <time>2018-01-28T03:44:27Z</time>
   </trkpt>
   <trkpt lat="12.9221450" lon="99.6635780">
    <ele>96.6</ele>
    <time>2018-01-28T03:44:28Z</time>
   </trkpt>
   <trkpt lat="12.9221120" lon="99.6635760">
    <ele>96.6</ele>
    <time>2018-01-28T03:44:29Z</time>
   </trkpt>
   <trkpt lat="12.9220810" lon="99.6635770">
    <ele>96.6</ele>
    <time>2018-01-28T03:44:30Z</time>
   </trkpt>
   <trkpt lat="12.9220480" lon="99.6635750">
    <ele>96.6</ele>
    <time>2018-01-28T03:44:31Z</time>
   </trkpt>
   <trkpt lat="12.9220130" lon="99.6635680">
    <ele>96.6</ele>
    <time>2018-01-28T03:44:32Z</time>
   </trkpt>
   <trkpt lat="12.9219760" lon="99.6635590">
    <ele>96.6</ele>
    <time>2018-01-28T03:44:33Z</time>
   </trkpt>
   <trkpt lat="12.9219360" lon="99.6635490">
    <ele>96.6</ele>
    <time>2018-01-28T03:44:34Z</time>
   </trkpt>
   <trkpt lat="12.9218990" lon="99.6635430">
    <ele>96.6</ele>
    <time>2018-01-28T03:44:35Z</time>
   </trkpt>
   <trkpt lat="12.9218600" lon="99.6635340">
    <ele>96.6</ele>
    <time>2018-01-28T03:44:36Z</time>
   </trkpt>
   <trkpt lat="12.9218230" lon="99.6635280">
    <ele>96.5</ele>
    <time>2018-01-28T03:44:37Z</time>
   </trkpt>
   <trkpt lat="12.9217890" lon="99.6635220">
    <ele>96.5</ele>
    <time>2018-01-28T03:44:38Z</time>
   </trkpt>
   <trkpt lat="12.9217620" lon="99.6635190">
    <ele>96.3</ele>
    <time>2018-01-28T03:44:39Z</time>
   </trkpt>
   <trkpt lat="12.9217150" lon="99.6635240">
    <ele>96.0</ele>
    <time>2018-01-28T03:44:41Z</time>
   </trkpt>
   <trkpt lat="12.9216720" lon="99.6635220">
    <ele>95.6</ele>
    <time>2018-01-28T03:44:43Z</time>
   </trkpt>
   <trkpt lat="12.9216380" lon="99.6635160">
    <ele>95.3</ele>
    <time>2018-01-28T03:47:25Z</time>
   </trkpt>
   <trkpt lat="12.9215980" lon="99.6635230">
    <ele>94.9</ele>
    <time>2018-01-28T03:47:27Z</time>
   </trkpt>
   <trkpt lat="12.9215450" lon="99.6635160">
    <ele>94.9</ele>
    <time>2018-01-28T03:47:29Z</time>
   </trkpt>
   <trkpt lat="12.9215140" lon="99.6635120">
    <ele>94.9</ele>
    <time>2018-01-28T03:47:30Z</time>
   </trkpt>
   <trkpt lat="12.9214810" lon="99.6635090">
    <ele>94.9</ele>
    <time>2018-01-28T03:47:31Z</time>
   </trkpt>
   <trkpt lat="12.9214490" lon="99.6635080">
    <ele>94.9</ele>
    <time>2018-01-28T03:47:32Z</time>
   </trkpt>
   <trkpt lat="12.9214190" lon="99.6635090">
    <ele>94.9</ele>
    <time>2018-01-28T03:47:33Z</time>
   </trkpt>
   <trkpt lat="12.9213840" lon="99.6635100">
    <ele>94.9</ele>
    <time>2018-01-28T03:47:34Z</time>
   </trkpt>
   <trkpt lat="12.9213480" lon="99.6635120">
    <ele>94.9</ele>
    <time>2018-01-28T03:47:35Z</time>
   </trkpt>
   <trkpt lat="12.9213100" lon="99.6635170">
    <ele>94.9</ele>
    <time>2018-01-28T03:47:36Z</time>
   </trkpt>
   <trkpt lat="12.9212710" lon="99.6635220">
    <ele>94.8</ele>
    <time>2018-01-28T03:47:37Z</time>
   </trkpt>
   <trkpt lat="12.9212340" lon="99.6635280">
    <ele>94.7</ele>
    <time>2018-01-28T03:47:38Z</time>
   </trkpt>
   <trkpt lat="12.9212000" lon="99.6635290">
    <ele>94.8</ele>
    <time>2018-01-28T03:47:39Z</time>
   </trkpt>
   <trkpt lat="12.9211690" lon="99.6635300">
    <ele>94.9</ele>
    <time>2018-01-28T03:47:40Z</time>
   </trkpt>
   <trkpt lat="12.9211270" lon="99.6635310">
    <ele>94.9</ele>
    <time>2018-01-28T03:47:42Z</time>
   </trkpt>
   <trkpt lat="12.9210800" lon="99.6635410">
    <ele>95.0</ele>
    <time>2018-01-28T03:49:00Z</time>
   </trkpt>
   <trkpt lat="12.9210500" lon="99.6635440">
    <ele>95.1</ele>
    <time>2018-01-28T03:49:01Z</time>
   </trkpt>
   <trkpt lat="12.9210200" lon="99.6635470">
    <ele>95.2</ele>
    <time>2018-01-28T03:49:02Z</time>
   </trkpt>
   <trkpt lat="12.9209850" lon="99.6635510">
    <ele>95.2</ele>
    <time>2018-01-28T03:49:03Z</time>
   </trkpt>
   <trkpt lat="12.9209370" lon="99.6635480">
    <ele>95.1</ele>
    <time>2018-01-28T03:49:04Z</time>
   </trkpt>
   <trkpt lat="12.9208970" lon="99.6635580">
    <ele>95.0</ele>
    <time>2018-01-28T03:49:05Z</time>
   </trkpt>
   <trkpt lat="12.9208590" lon="99.6635700">
    <ele>94.9</ele>
    <time>2018-01-28T03:49:06Z</time>
   </trkpt>
   <trkpt lat="12.9208190" lon="99.6635830">
    <ele>94.8</ele>
    <time>2018-01-28T03:49:07Z</time>
   </trkpt>
   <trkpt lat="12.9207740" lon="99.6635950">
    <ele>94.7</ele>
    <time>2018-01-28T03:49:08Z</time>
   </trkpt>
   <trkpt lat="12.9207310" lon="99.6636060">
    <ele>94.6</ele>
    <time>2018-01-28T03:49:09Z</time>
   </trkpt>
   <trkpt lat="12.9206850" lon="99.6636170">
    <ele>94.6</ele>
    <time>2018-01-28T03:49:10Z</time>
   </trkpt>
   <trkpt lat="12.9206260" lon="99.6636340">
    <ele>94.6</ele>
    <time>2018-01-28T03:49:11Z</time>
   </trkpt>
   <trkpt lat="12.9205810" lon="99.6636500">
    <ele>94.5</ele>
    <time>2018-01-28T03:49:12Z</time>
   </trkpt>
   <trkpt lat="12.9205340" lon="99.6636730">
    <ele>94.3</ele>
    <time>2018-01-28T03:49:13Z</time>
   </trkpt>
   <trkpt lat="12.9204890" lon="99.6636920">
    <ele>94.2</ele>
    <time>2018-01-28T03:49:14Z</time>
   </trkpt>
   <trkpt lat="12.9204400" lon="99.6637190">
    <ele>93.9</ele>
    <time>2018-01-28T03:49:15Z</time>
   </trkpt>
   <trkpt lat="12.9204040" lon="99.6637510">
    <ele>93.7</ele>
    <time>2018-01-28T03:49:16Z</time>
   </trkpt>
   <trkpt lat="12.9203480" lon="99.6637750">
    <ele>93.6</ele>
    <time>2018-01-28T03:49:17Z</time>
   </trkpt>
   <trkpt lat="12.9202970" lon="99.6638090">
    <ele>93.4</ele>
    <time>2018-01-28T03:49:18Z</time>
   </trkpt>
   <trkpt lat="12.9202540" lon="99.6638510">
    <ele>93.1</ele>
    <time>2018-01-28T03:49:19Z</time>
   </trkpt>
   <trkpt lat="12.9201990" lon="99.6638910">
    <ele>92.8</ele>
    <time>2018-01-28T03:49:20Z</time>
   </trkpt>
   <trkpt lat="12.9201650" lon="99.6639270">
    <ele>92.7</ele>
    <time>2018-01-28T03:49:21Z</time>
   </trkpt>
   <trkpt lat="12.9201280" lon="99.6639660">
    <ele>92.6</ele>
    <time>2018-01-28T03:49:22Z</time>
   </trkpt>
   <trkpt lat="12.9201010" lon="99.6640020">
    <ele>92.4</ele>
    <time>2018-01-28T03:49:23Z</time>
   </trkpt>
   <trkpt lat="12.9200460" lon="99.6640370">
    <ele>92.2</ele>
    <time>2018-01-28T03:49:24Z</time>
   </trkpt>
   <trkpt lat="12.9199910" lon="99.6640810">
    <ele>92.0</ele>
    <time>2018-01-28T03:49:25Z</time>
   </trkpt>
   <trkpt lat="12.9199350" lon="99.6641290">
    <ele>91.5</ele>
    <time>2018-01-28T03:49:26Z</time>
   </trkpt>
   <trkpt lat="12.9198790" lon="99.6641650">
    <ele>91.2</ele>
    <time>2018-01-28T03:49:27Z</time>
   </trkpt>
   <trkpt lat="12.9198250" lon="99.6642110">
    <ele>90.9</ele>
    <time>2018-01-28T03:49:28Z</time>
   </trkpt>
   <trkpt lat="12.9197720" lon="99.6642550">
    <ele>90.7</ele>
    <time>2018-01-28T03:49:29Z</time>
   </trkpt>
   <trkpt lat="12.9197110" lon="99.6642940">
    <ele>90.6</ele>
    <time>2018-01-28T03:49:30Z</time>
   </trkpt>
   <trkpt lat="12.9196540" lon="99.6643400">
    <ele>90.6</ele>
    <time>2018-01-28T03:49:31Z</time>
   </trkpt>
   <trkpt lat="12.9195950" lon="99.6643840">
    <ele>90.5</ele>
    <time>2018-01-28T03:49:32Z</time>
   </trkpt>
   <trkpt lat="12.9195360" lon="99.6644270">
    <ele>90.2</ele>
    <time>2018-01-28T03:49:33Z</time>
   </trkpt>
   <trkpt lat="12.9194750" lon="99.6644540">
    <ele>89.8</ele>
    <time>2018-01-28T03:49:34Z</time>
   </trkpt>
   <trkpt lat="12.9194060" lon="99.6644800">
    <ele>89.3</ele>
    <time>2018-01-28T03:49:35Z</time>
   </trkpt>
   <trkpt lat="12.9193400" lon="99.6645050">
    <ele>89.0</ele>
    <time>2018-01-28T03:49:36Z</time>
   </trkpt>
   <trkpt lat="12.9192720" lon="99.6645310">
    <ele>88.8</ele>
    <time>2018-01-28T03:49:37Z</time>
   </trkpt>
   <trkpt lat="12.9191940" lon="99.6645420">
    <ele>88.3</ele>
    <time>2018-01-28T03:49:38Z</time>
   </trkpt>
   <trkpt lat="12.9191310" lon="99.6645610">
    <ele>87.9</ele>
    <time>2018-01-28T03:49:39Z</time>
   </trkpt>
   <trkpt lat="12.9190610" lon="99.6645700">
    <ele>87.7</ele>
    <time>2018-01-28T03:49:40Z</time>
   </trkpt>
   <trkpt lat="12.9189860" lon="99.6645690">
    <ele>87.6</ele>
    <time>2018-01-28T03:49:41Z</time>
   </trkpt>
   <trkpt lat="12.9189060" lon="99.6645730">
    <ele>87.6</ele>
    <time>2018-01-28T03:49:42Z</time>
   </trkpt>
   <trkpt lat="12.9188220" lon="99.6645780">
    <ele>87.6</ele>
    <time>2018-01-28T03:49:43Z</time>
   </trkpt>
   <trkpt lat="12.9187310" lon="99.6645690">
    <ele>87.6</ele>
    <time>2018-01-28T03:49:44Z</time>
   </trkpt>
   <trkpt lat="12.9186480" lon="99.6645730">
    <ele>87.5</ele>
    <time>2018-01-28T03:49:45Z</time>
   </trkpt>
   <trkpt lat="12.9185650" lon="99.6645750">
    <ele>87.1</ele>
    <time>2018-01-28T03:49:46Z</time>
   </trkpt>
   <trkpt lat="12.9184940" lon="99.6645790">
    <ele>86.7</ele>
    <time>2018-01-28T03:49:47Z</time>
   </trkpt>
   <trkpt lat="12.9184250" lon="99.6645810">
    <ele>86.5</ele>
    <time>2018-01-28T03:49:48Z</time>
   </trkpt>
   <trkpt lat="12.9183470" lon="99.6645880">
    <ele>86.5</ele>
    <time>2018-01-28T03:49:49Z</time>
   </trkpt>
   <trkpt lat="12.9182700" lon="99.6645820">
    <ele>86.6</ele>
    <time>2018-01-28T03:49:50Z</time>
   </trkpt>
   <trkpt lat="12.9182000" lon="99.6645840">
    <ele>86.7</ele>
    <time>2018-01-28T03:49:51Z</time>
   </trkpt>
   <trkpt lat="12.9181240" lon="99.6645810">
    <ele>86.7</ele>
    <time>2018-01-28T03:49:52Z</time>
   </trkpt>
   <trkpt lat="12.9180490" lon="99.6645890">
    <ele>86.7</ele>
    <time>2018-01-28T03:49:53Z</time>
   </trkpt>
   <trkpt lat="12.9179930" lon="99.6645980">
    <ele>86.7</ele>
    <time>2018-01-28T03:49:54Z</time>
   </trkpt>
   <trkpt lat="12.9179210" lon="99.6646060">
    <ele>86.7</ele>
    <time>2018-01-28T03:49:55Z</time>
   </trkpt>
   <trkpt lat="12.9178480" lon="99.6646050">
    <ele>86.0</ele>
    <time>2018-01-28T03:49:56Z</time>
   </trkpt>
   <trkpt lat="12.9177930" lon="99.6646050">
    <ele>85.3</ele>
    <time>2018-01-28T03:49:57Z</time>
   </trkpt>
   <trkpt lat="12.9177240" lon="99.6646060">
    <ele>84.5</ele>
    <time>2018-01-28T03:49:58Z</time>
   </trkpt>
   <trkpt lat="12.9176550" lon="99.6646020">
    <ele>83.9</ele>
    <time>2018-01-28T03:49:59Z</time>
   </trkpt>
   <trkpt lat="12.9175850" lon="99.6646070">
    <ele>83.6</ele>
    <time>2018-01-28T03:50:00Z</time>
   </trkpt>
   <trkpt lat="12.9174990" lon="99.6646020">
    <ele>83.6</ele>
    <time>2018-01-28T03:50:01Z</time>
   </trkpt>
   <trkpt lat="12.9174370" lon="99.6645960">
    <ele>83.5</ele>
    <time>2018-01-28T03:50:02Z</time>
   </trkpt>
   <trkpt lat="12.9173690" lon="99.6646040">
    <ele>83.2</ele>
    <time>2018-01-28T03:50:03Z</time>
   </trkpt>
   <trkpt lat="12.9173030" lon="99.6645980">
    <ele>82.1</ele>
    <time>2018-01-28T03:50:04Z</time>
   </trkpt>
   <trkpt lat="12.9172390" lon="99.6645870">
    <ele>81.4</ele>
    <time>2018-01-28T03:50:05Z</time>
   </trkpt>
   <trkpt lat="12.9171740" lon="99.6645840">
    <ele>80.9</ele>
    <time>2018-01-28T03:50:06Z</time>
   </trkpt>
   <trkpt lat="12.9171080" lon="99.6645850">
    <ele>80.6</ele>
    <time>2018-01-28T03:50:07Z</time>
   </trkpt>
   <trkpt lat="12.9170530" lon="99.6645850">
    <ele>80.3</ele>
    <time>2018-01-28T03:50:08Z</time>
   </trkpt>
   <trkpt lat="12.9170070" lon="99.6645830">
    <ele>80.1</ele>
    <time>2018-01-28T03:50:09Z</time>
   </trkpt>
   <trkpt lat="12.9169580" lon="99.6645800">
    <ele>79.8</ele>
    <time>2018-01-28T03:50:10Z</time>
   </trkpt>
   <trkpt lat="12.9169190" lon="99.6645730">
    <ele>79.5</ele>
    <time>2018-01-28T03:50:11Z</time>
   </trkpt>
   <trkpt lat="12.9168800" lon="99.6645670">
    <ele>79.3</ele>
    <time>2018-01-28T03:50:12Z</time>
   </trkpt>
   <trkpt lat="12.9168570" lon="99.6645420">
    <ele>79.2</ele>
    <time>2018-01-28T03:50:14Z</time>
   </trkpt>
   <trkpt lat="12.9168460" lon="99.6645090">
    <ele>79.1</ele>
    <time>2018-01-28T03:50:15Z</time>
   </trkpt>
   <trkpt lat="12.9168400" lon="99.6644660">
    <ele>79.1</ele>
    <time>2018-01-28T03:50:16Z</time>
   </trkpt>
   <trkpt lat="12.9168310" lon="99.6644280">
    <ele>79.2</ele>
    <time>2018-01-28T03:50:17Z</time>
   </trkpt>
   <trkpt lat="12.9168220" lon="99.6643970">
    <ele>79.2</ele>
    <time>2018-01-28T03:50:18Z</time>
   </trkpt>
   <trkpt lat="12.9168080" lon="99.6643520">
    <ele>79.0</ele>
    <time>2018-01-28T03:50:20Z</time>
   </trkpt>
   <trkpt lat="12.9167980" lon="99.6643230">
    <ele>79.0</ele>
    <time>2018-01-28T03:50:21Z</time>
   </trkpt>
   <trkpt lat="12.9167940" lon="99.6642590">
    <ele>78.5</ele>
    <time>2018-01-28T03:50:22Z</time>
   </trkpt>
   <trkpt lat="12.9167810" lon="99.6642260">
    <ele>78.4</ele>
    <time>2018-01-28T03:50:23Z</time>
   </trkpt>
   <trkpt lat="12.9167600" lon="99.6641840">
    <ele>78.5</ele>
    <time>2018-01-28T03:50:24Z</time>
   </trkpt>
   <trkpt lat="12.9167420" lon="99.6641480">
    <ele>78.5</ele>
    <time>2018-01-28T03:50:26Z</time>
   </trkpt>
   <trkpt lat="12.9167260" lon="99.6641220">
    <ele>78.5</ele>
    <time>2018-01-28T03:50:28Z</time>
   </trkpt>
   <trkpt lat="12.9167120" lon="99.6640930">
    <ele>78.6</ele>
    <time>2018-01-28T03:50:31Z</time>
   </trkpt>
   <trkpt lat="12.9166850" lon="99.6640740">
    <ele>78.6</ele>
    <time>2018-01-28T03:50:34Z</time>
   </trkpt>
   <trkpt lat="12.9166690" lon="99.6640400">
    <ele>78.8</ele>
    <time>2018-01-28T03:50:37Z</time>
   </trkpt>
   <trkpt lat="12.9166580" lon="99.6640110">
    <ele>79.0</ele>
    <time>2018-01-28T03:50:40Z</time>
   </trkpt>
   <trkpt lat="12.9166490" lon="99.6639780">
    <ele>79.0</ele>
    <time>2018-01-28T03:50:46Z</time>
   </trkpt>
   <trkpt lat="12.9166210" lon="99.6639710">
    <ele>79.4</ele>
    <time>2018-01-28T03:50:48Z</time>
   </trkpt>
   <trkpt lat="12.9165900" lon="99.6639660">
    <ele>79.4</ele>
    <time>2018-01-28T03:50:52Z</time>
   </trkpt>
   <trkpt lat="12.9165940" lon="99.6639370">
    <ele>79.4</ele>
    <time>2018-01-28T03:50:58Z</time>
   </trkpt>
   <trkpt lat="12.9166120" lon="99.6639090">
    <ele>79.7</ele>
    <time>2018-01-28T03:51:02Z</time>
   </trkpt>
   <trkpt lat="12.9166290" lon="99.6638840">
    <ele>80.1</ele>
    <time>2018-01-28T03:51:07Z</time>
   </trkpt>
   <trkpt lat="12.9166250" lon="99.6638560">
    <ele>80.1</ele>
    <time>2018-01-28T03:51:09Z</time>
   </trkpt>
   <trkpt lat="12.9166230" lon="99.6638250">
    <ele>80.5</ele>
    <time>2018-01-28T03:51:12Z</time>
   </trkpt>
   <trkpt lat="12.9166160" lon="99.6637940">
    <ele>80.9</ele>
    <time>2018-01-28T03:51:17Z</time>
   </trkpt>
   <trkpt lat="12.9166250" lon="99.6637590">
    <ele>81.3</ele>
    <time>2018-01-28T03:51:21Z</time>
   </trkpt>
   <trkpt lat="12.9166240" lon="99.6637250">
    <ele>81.3</ele>
    <time>2018-01-28T03:51:25Z</time>
   </trkpt>
   <trkpt lat="12.9166250" lon="99.6636960">
    <ele>81.7</ele>
    <time>2018-01-28T03:51:28Z</time>
   </trkpt>
   <trkpt lat="12.9166240" lon="99.6636630">
    <ele>82.0</ele>
    <time>2018-01-28T03:51:31Z</time>
   </trkpt>
   <trkpt lat="12.9166260" lon="99.6636330">
    <ele>82.2</ele>
    <time>2018-01-28T03:51:34Z</time>
   </trkpt>
   <trkpt lat="12.9166270" lon="99.6635870">
    <ele>82.1</ele>
    <time>2018-01-28T03:51:37Z</time>
   </trkpt>
   <trkpt lat="12.9166290" lon="99.6635560">
    <ele>82.1</ele>
    <time>2018-01-28T03:51:39Z</time>
   </trkpt>
   <trkpt lat="12.9166340" lon="99.6635120">
    <ele>81.9</ele>
    <time>2018-01-28T03:51:41Z</time>
   </trkpt>
   <trkpt lat="12.9166380" lon="99.6634670">
    <ele>81.6</ele>
    <time>2018-01-28T03:51:43Z</time>
   </trkpt>
   <trkpt lat="12.9166390" lon="99.6634140">
    <ele>81.2</ele>
    <time>2018-01-28T03:51:45Z</time>
   </trkpt>
   <trkpt lat="12.9166380" lon="99.6633770">
    <ele>81.2</ele>
    <time>2018-01-28T03:51:46Z</time>
   </trkpt>
   <trkpt lat="12.9166360" lon="99.6633380">
    <ele>81.1</ele>
    <time>2018-01-28T03:51:47Z</time>
   </trkpt>
   <trkpt lat="12.9166350" lon="99.6633000">
    <ele>81.1</ele>
    <time>2018-01-28T03:51:48Z</time>
   </trkpt>
   <trkpt lat="12.9166340" lon="99.6632650">
    <ele>81.1</ele>
    <time>2018-01-28T03:51:49Z</time>
   </trkpt>
   <trkpt lat="12.9166320" lon="99.6632270">
    <ele>81.2</ele>
    <time>2018-01-28T03:51:50Z</time>
   </trkpt>
   <trkpt lat="12.9166300" lon="99.6631900">
    <ele>81.3</ele>
    <time>2018-01-28T03:51:51Z</time>
   </trkpt>
   <trkpt lat="12.9166280" lon="99.6631520">
    <ele>81.3</ele>
    <time>2018-01-28T03:51:52Z</time>
   </trkpt>
   <trkpt lat="12.9166260" lon="99.6631180">
    <ele>81.3</ele>
    <time>2018-01-28T03:51:53Z</time>
   </trkpt>
   <trkpt lat="12.9166290" lon="99.6630820">
    <ele>81.3</ele>
    <time>2018-01-28T03:51:54Z</time>
   </trkpt>
   <trkpt lat="12.9166390" lon="99.6630440">
    <ele>81.4</ele>
    <time>2018-01-28T03:51:55Z</time>
   </trkpt>
   <trkpt lat="12.9166770" lon="99.6629960">
    <ele>81.1</ele>
    <time>2018-01-28T03:51:56Z</time>
   </trkpt>
   <trkpt lat="12.9167110" lon="99.6629820">
    <ele>80.8</ele>
    <time>2018-01-28T03:51:57Z</time>
   </trkpt>
   <trkpt lat="12.9167480" lon="99.6629700">
    <ele>80.5</ele>
    <time>2018-01-28T03:51:58Z</time>
   </trkpt>
   <trkpt lat="12.9167870" lon="99.6629650">
    <ele>80.2</ele>
    <time>2018-01-28T03:51:59Z</time>
   </trkpt>
   <trkpt lat="12.9168250" lon="99.6629610">
    <ele>80.0</ele>
    <time>2018-01-28T03:52:00Z</time>
   </trkpt>
   <trkpt lat="12.9168640" lon="99.6629560">
    <ele>79.8</ele>
    <time>2018-01-28T03:52:01Z</time>
   </trkpt>
   <trkpt lat="12.9169020" lon="99.6629500">
    <ele>79.8</ele>
    <time>2018-01-28T03:52:02Z</time>
   </trkpt>
   <trkpt lat="12.9169400" lon="99.6629440">
    <ele>79.9</ele>
    <time>2018-01-28T03:52:03Z</time>
   </trkpt>
   <trkpt lat="12.9169760" lon="99.6629370">
    <ele>79.9</ele>
    <time>2018-01-28T03:52:04Z</time>
   </trkpt>
   <trkpt lat="12.9170140" lon="99.6629290">
    <ele>80.1</ele>
    <time>2018-01-28T03:52:05Z</time>
   </trkpt>
   <trkpt lat="12.9170510" lon="99.6629210">
    <ele>80.3</ele>
    <time>2018-01-28T03:52:06Z</time>
   </trkpt>
   <trkpt lat="12.9170870" lon="99.6629130">
    <ele>80.5</ele>
    <time>2018-01-28T03:52:07Z</time>
   </trkpt>
   <trkpt lat="12.9171190" lon="99.6629080">
    <ele>80.8</ele>
    <time>2018-01-28T03:52:08Z</time>
   </trkpt>
   <trkpt lat="12.9171480" lon="99.6629030">
    <ele>80.9</ele>
    <time>2018-01-28T03:52:09Z</time>
   </trkpt>
   <trkpt lat="12.9171740" lon="99.6628990">
    <ele>81.1</ele>
    <time>2018-01-28T03:52:10Z</time>
   </trkpt>
   <trkpt lat="12.9172050" lon="99.6628920">
    <ele>81.3</ele>
    <time>2018-01-28T03:52:11Z</time>
   </trkpt>
   <trkpt lat="12.9172420" lon="99.6628850">
    <ele>81.6</ele>
    <time>2018-01-28T03:52:12Z</time>
   </trkpt>
   <trkpt lat="12.9172780" lon="99.6628790">
    <ele>81.8</ele>
    <time>2018-01-28T03:52:13Z</time>
   </trkpt>
   <trkpt lat="12.9173160" lon="99.6628730">
    <ele>81.8</ele>
    <time>2018-01-28T03:52:14Z</time>
   </trkpt>
   <trkpt lat="12.9173540" lon="99.6628660">
    <ele>82.1</ele>
    <time>2018-01-28T03:52:15Z</time>
   </trkpt>
   <trkpt lat="12.9173940" lon="99.6628600">
    <ele>82.4</ele>
    <time>2018-01-28T03:52:16Z</time>
   </trkpt>
   <trkpt lat="12.9174330" lon="99.6628550">
    <ele>82.7</ele>
    <time>2018-01-28T03:52:17Z</time>
   </trkpt>
   <trkpt lat="12.9174710" lon="99.6628540">
    <ele>82.9</ele>
    <time>2018-01-28T03:52:18Z</time>
   </trkpt>
   <trkpt lat="12.9175100" lon="99.6628580">
    <ele>83.0</ele>
    <time>2018-01-28T03:52:19Z</time>
   </trkpt>
   <trkpt lat="12.9175510" lon="99.6628670">
    <ele>83.0</ele>
    <time>2018-01-28T03:52:20Z</time>
   </trkpt>
   <trkpt lat="12.9175910" lon="99.6628780">
    <ele>82.9</ele>
    <time>2018-01-28T03:52:21Z</time>
   </trkpt>
   <trkpt lat="12.9176330" lon="99.6628880">
    <ele>82.9</ele>
    <time>2018-01-28T03:52:22Z</time>
   </trkpt>
   <trkpt lat="12.9176730" lon="99.6628940">
    <ele>82.9</ele>
    <time>2018-01-28T03:52:23Z</time>
   </trkpt>
   <trkpt lat="12.9177120" lon="99.6628980">
    <ele>83.1</ele>
    <time>2018-01-28T03:52:24Z</time>
   </trkpt>
   <trkpt lat="12.9177520" lon="99.6628940">
    <ele>83.3</ele>
    <time>2018-01-28T03:52:25Z</time>
   </trkpt>
   <trkpt lat="12.9177850" lon="99.6628800">
    <ele>83.6</ele>
    <time>2018-01-28T03:52:26Z</time>
   </trkpt>
   <trkpt lat="12.9178160" lon="99.6628580">
    <ele>83.6</ele>
    <time>2018-01-28T03:52:27Z</time>
   </trkpt>
   <trkpt lat="12.9178440" lon="99.6628340">
    <ele>83.9</ele>
    <time>2018-01-28T03:52:28Z</time>
   </trkpt>
   <trkpt lat="12.9178700" lon="99.6628090">
    <ele>84.2</ele>
    <time>2018-01-28T03:52:29Z</time>
   </trkpt>
   <trkpt lat="12.9178940" lon="99.6627820">
    <ele>84.2</ele>
    <time>2018-01-28T03:52:30Z</time>
   </trkpt>
   <trkpt lat="12.9179210" lon="99.6627520">
    <ele>84.8</ele>
    <time>2018-01-28T03:52:31Z</time>
   </trkpt>
   <trkpt lat="12.9179500" lon="99.6627260">
    <ele>85.4</ele>
    <time>2018-01-28T03:52:32Z</time>
   </trkpt>
   <trkpt lat="12.9179760" lon="99.6627020">
    <ele>85.4</ele>
    <time>2018-01-28T03:52:33Z</time>
   </trkpt>
   <trkpt lat="12.9179990" lon="99.6626810">
    <ele>85.9</ele>
    <time>2018-01-28T03:52:34Z</time>
   </trkpt>
   <trkpt lat="12.9180190" lon="99.6626610">
    <ele>85.9</ele>
    <time>2018-01-28T03:52:35Z</time>
   </trkpt>
   <trkpt lat="12.9180390" lon="99.6626400">
    <ele>86.2</ele>
    <time>2018-01-28T03:52:36Z</time>
   </trkpt>
   <trkpt lat="12.9180600" lon="99.6626200">
    <ele>86.2</ele>
    <time>2018-01-28T03:52:37Z</time>
   </trkpt>
   <trkpt lat="12.9180810" lon="99.6626040">
    <ele>86.5</ele>
    <time>2018-01-28T03:52:38Z</time>
   </trkpt>
   <trkpt lat="12.9181230" lon="99.6625710">
    <ele>86.7</ele>
    <time>2018-01-28T03:52:40Z</time>
   </trkpt>
   <trkpt lat="12.9181430" lon="99.6625530">
    <ele>86.6</ele>
    <time>2018-01-28T03:52:41Z</time>
   </trkpt>
   <trkpt lat="12.9181650" lon="99.6625340">
    <ele>86.6</ele>
    <time>2018-01-28T03:52:42Z</time>
   </trkpt>
   <trkpt lat="12.9181890" lon="99.6625130">
    <ele>86.5</ele>
    <time>2018-01-28T03:52:43Z</time>
   </trkpt>
   <trkpt lat="12.9182110" lon="99.6624950">
    <ele>86.4</ele>
    <time>2018-01-28T03:52:44Z</time>
   </trkpt>
   <trkpt lat="12.9182340" lon="99.6624770">
    <ele>86.4</ele>
    <time>2018-01-28T03:52:45Z</time>
   </trkpt>
   <trkpt lat="12.9182580" lon="99.6624600">
    <ele>86.0</ele>
    <time>2018-01-28T03:52:46Z</time>
   </trkpt>
   <trkpt lat="12.9182830" lon="99.6624430">
    <ele>85.7</ele>
    <time>2018-01-28T03:52:47Z</time>
   </trkpt>
   <trkpt lat="12.9183080" lon="99.6624260">
    <ele>85.8</ele>
    <time>2018-01-28T03:52:48Z</time>
   </trkpt>
   <trkpt lat="12.9183300" lon="99.6624090">
    <ele>85.4</ele>
    <time>2018-01-28T03:52:49Z</time>
   </trkpt>
   <trkpt lat="12.9183490" lon="99.6623850">
    <ele>85.6</ele>
    <time>2018-01-28T03:52:50Z</time>
   </trkpt>
   <trkpt lat="12.9183600" lon="99.6623580">
    <ele>85.6</ele>
    <time>2018-01-28T03:52:51Z</time>
   </trkpt>
   <trkpt lat="12.9183560" lon="99.6623250">
    <ele>85.8</ele>
    <time>2018-01-28T03:52:52Z</time>
   </trkpt>
   <trkpt lat="12.9183400" lon="99.6622940">
    <ele>86.1</ele>
    <time>2018-01-28T03:52:53Z</time>
   </trkpt>
   <trkpt lat="12.9183160" lon="99.6622700">
    <ele>86.3</ele>
    <time>2018-01-28T03:52:54Z</time>
   </trkpt>
   <trkpt lat="12.9182870" lon="99.6622470">
    <ele>86.6</ele>
    <time>2018-01-28T03:52:55Z</time>
   </trkpt>
   <trkpt lat="12.9182590" lon="99.6622210">
    <ele>86.8</ele>
    <time>2018-01-28T03:52:56Z</time>
   </trkpt>
   <trkpt lat="12.9182390" lon="99.6621910">
    <ele>87.1</ele>
    <time>2018-01-28T03:52:57Z</time>
   </trkpt>
   <trkpt lat="12.9182250" lon="99.6621570">
    <ele>87.6</ele>
    <time>2018-01-28T03:52:58Z</time>
   </trkpt>
   <trkpt lat="12.9182140" lon="99.6621250">
    <ele>87.9</ele>
    <time>2018-01-28T03:52:59Z</time>
   </trkpt>
   <trkpt lat="12.9182070" lon="99.6620930">
    <ele>87.9</ele>
    <time>2018-01-28T03:53:00Z</time>
   </trkpt>
   <trkpt lat="12.9182020" lon="99.6620610">
    <ele>88.1</ele>
    <time>2018-01-28T03:53:01Z</time>
   </trkpt>
   <trkpt lat="12.9181980" lon="99.6620300">
    <ele>88.5</ele>
    <time>2018-01-28T03:53:02Z</time>
   </trkpt>
   <trkpt lat="12.9181890" lon="99.6620020">
    <ele>88.9</ele>
    <time>2018-01-28T03:53:03Z</time>
   </trkpt>
   <trkpt lat="12.9181760" lon="99.6619750">
    <ele>88.8</ele>
    <time>2018-01-28T03:53:04Z</time>
   </trkpt>
   <trkpt lat="12.9181600" lon="99.6619480">
    <ele>89.1</ele>
    <time>2018-01-28T03:53:05Z</time>
   </trkpt>
   <trkpt lat="12.9181410" lon="99.6619200">
    <ele>89.0</ele>
    <time>2018-01-28T03:53:06Z</time>
   </trkpt>
   <trkpt lat="12.9181200" lon="99.6618930">
    <ele>89.2</ele>
    <time>2018-01-28T03:53:07Z</time>
   </trkpt>
   <trkpt lat="12.9181030" lon="99.6618650">
    <ele>89.2</ele>
    <time>2018-01-28T03:53:08Z</time>
   </trkpt>
   <trkpt lat="12.9180880" lon="99.6618360">
    <ele>89.2</ele>
    <time>2018-01-28T03:53:09Z</time>
   </trkpt>
   <trkpt lat="12.9180750" lon="99.6618070">
    <ele>89.3</ele>
    <time>2018-01-28T03:53:10Z</time>
   </trkpt>
   <trkpt lat="12.9180620" lon="99.6617810">
    <ele>89.0</ele>
    <time>2018-01-28T03:53:11Z</time>
   </trkpt>
   <trkpt lat="12.9180390" lon="99.6617440">
    <ele>88.9</ele>
    <time>2018-01-28T03:53:13Z</time>
   </trkpt>
   <trkpt lat="12.9180050" lon="99.6616970">
    <ele>88.3</ele>
    <time>2018-01-28T03:53:15Z</time>
   </trkpt>
   <trkpt lat="12.9179870" lon="99.6616720">
    <ele>88.2</ele>
    <time>2018-01-28T03:53:16Z</time>
   </trkpt>
   <trkpt lat="12.9179700" lon="99.6616490">
    <ele>87.3</ele>
    <time>2018-01-28T03:53:17Z</time>
   </trkpt>
   <trkpt lat="12.9179470" lon="99.6616300">
    <ele>87.3</ele>
    <time>2018-01-28T03:53:18Z</time>
   </trkpt>
   <trkpt lat="12.9179200" lon="99.6616160">
    <ele>86.2</ele>
    <time>2018-01-28T03:53:19Z</time>
   </trkpt>
   <trkpt lat="12.9178850" lon="99.6616060">
    <ele>85.6</ele>
    <time>2018-01-28T03:53:20Z</time>
   </trkpt>
   <trkpt lat="12.9178560" lon="99.6615980">
    <ele>85.2</ele>
    <time>2018-01-28T03:53:21Z</time>
   </trkpt>
   <trkpt lat="12.9178250" lon="99.6615940">
    <ele>85.2</ele>
    <time>2018-01-28T03:53:22Z</time>
   </trkpt>
   <trkpt lat="12.9177910" lon="99.6615910">
    <ele>84.8</ele>
    <time>2018-01-28T03:53:23Z</time>
   </trkpt>
   <trkpt lat="12.9177430" lon="99.6615700">
    <ele>84.0</ele>
    <time>2018-01-28T03:53:25Z</time>
   </trkpt>
   <trkpt lat="12.9177160" lon="99.6615380">
    <ele>83.8</ele>
    <time>2018-01-28T03:53:27Z</time>
   </trkpt>
   <trkpt lat="12.9177020" lon="99.6614830">
    <ele>83.2</ele>
    <time>2018-01-28T03:53:29Z</time>
   </trkpt>
   <trkpt lat="12.9176780" lon="99.6614570">
    <ele>82.9</ele>
    <time>2018-01-28T03:53:30Z</time>
   </trkpt>
   <trkpt lat="12.9176450" lon="99.6614360">
    <ele>82.3</ele>
    <time>2018-01-28T03:53:31Z</time>
   </trkpt>
   <trkpt lat="12.9176010" lon="99.6614300">
    <ele>81.9</ele>
    <time>2018-01-28T03:53:32Z</time>
   </trkpt>
   <trkpt lat="12.9175590" lon="99.6614080">
    <ele>81.5</ele>
    <time>2018-01-28T03:53:33Z</time>
   </trkpt>
   <trkpt lat="12.9175090" lon="99.6613960">
    <ele>81.2</ele>
    <time>2018-01-28T03:53:34Z</time>
   </trkpt>
   <trkpt lat="12.9174660" lon="99.6613800">
    <ele>81.0</ele>
    <time>2018-01-28T03:53:35Z</time>
   </trkpt>
   <trkpt lat="12.9174170" lon="99.6613770">
    <ele>80.9</ele>
    <time>2018-01-28T03:53:36Z</time>
   </trkpt>
   <trkpt lat="12.9173540" lon="99.6613800">
    <ele>80.9</ele>
    <time>2018-01-28T03:53:37Z</time>
   </trkpt>
   <trkpt lat="12.9173030" lon="99.6614020">
    <ele>80.9</ele>
    <time>2018-01-28T03:53:38Z</time>
   </trkpt>
   <trkpt lat="12.9172550" lon="99.6614200">
    <ele>80.5</ele>
    <time>2018-01-28T03:53:39Z</time>
   </trkpt>
   <trkpt lat="12.9172120" lon="99.6614440">
    <ele>80.5</ele>
    <time>2018-01-28T03:53:40Z</time>
   </trkpt>
   <trkpt lat="12.9171540" lon="99.6614510">
    <ele>80.3</ele>
    <time>2018-01-28T03:53:41Z</time>
   </trkpt>
   <trkpt lat="12.9171020" lon="99.6614530">
    <ele>80.7</ele>
    <time>2018-01-28T03:53:42Z</time>
   </trkpt>
   <trkpt lat="12.9170500" lon="99.6614520">
    <ele>81.0</ele>
    <time>2018-01-28T03:53:43Z</time>
   </trkpt>
   <trkpt lat="12.9170050" lon="99.6614570">
    <ele>81.4</ele>
    <time>2018-01-28T03:53:44Z</time>
   </trkpt>
   <trkpt lat="12.9169500" lon="99.6614530">
    <ele>81.6</ele>
    <time>2018-01-28T03:53:45Z</time>
   </trkpt>
   <trkpt lat="12.9169010" lon="99.6614560">
    <ele>81.8</ele>
    <time>2018-01-28T03:53:46Z</time>
   </trkpt>
   <trkpt lat="12.9168410" lon="99.6614500">
    <ele>82.2</ele>
    <time>2018-01-28T03:53:47Z</time>
   </trkpt>
   <trkpt lat="12.9167830" lon="99.6614580">
    <ele>82.5</ele>
    <time>2018-01-28T03:53:48Z</time>
   </trkpt>
   <trkpt lat="12.9167330" lon="99.6614470">
    <ele>82.7</ele>
    <time>2018-01-28T03:53:49Z</time>
   </trkpt>
   <trkpt lat="12.9166850" lon="99.6614470">
    <ele>83.0</ele>
    <time>2018-01-28T03:53:50Z</time>
   </trkpt>
   <trkpt lat="12.9166280" lon="99.6614540">
    <ele>83.0</ele>
    <time>2018-01-28T03:53:51Z</time>
   </trkpt>
   <trkpt lat="12.9165650" lon="99.6614570">
    <ele>82.8</ele>
    <time>2018-01-28T03:53:52Z</time>
   </trkpt>
   <trkpt lat="12.9165020" lon="99.6614360">
    <ele>82.2</ele>
    <time>2018-01-28T03:53:53Z</time>
   </trkpt>
   <trkpt lat="12.9164530" lon="99.6614000">
    <ele>81.8</ele>
    <time>2018-01-28T03:53:54Z</time>
   </trkpt>
   <trkpt lat="12.9164050" lon="99.6613730">
    <ele>81.5</ele>
    <time>2018-01-28T03:53:55Z</time>
   </trkpt>
   <trkpt lat="12.9163470" lon="99.6613470">
    <ele>81.0</ele>
    <time>2018-01-28T03:53:56Z</time>
   </trkpt>
   <trkpt lat="12.9162940" lon="99.6613150">
    <ele>80.7</ele>
    <time>2018-01-28T03:53:57Z</time>
   </trkpt>
   <trkpt lat="12.9162510" lon="99.6612850">
    <ele>80.4</ele>
    <time>2018-01-28T03:53:58Z</time>
   </trkpt>
   <trkpt lat="12.9162140" lon="99.6612510">
    <ele>80.2</ele>
    <time>2018-01-28T03:53:59Z</time>
   </trkpt>
   <trkpt lat="12.9161800" lon="99.6612220">
    <ele>79.9</ele>
    <time>2018-01-28T03:54:00Z</time>
   </trkpt>
   <trkpt lat="12.9161510" lon="99.6612030">
    <ele>79.9</ele>
    <time>2018-01-28T03:54:01Z</time>
   </trkpt>
   <trkpt lat="12.9161200" lon="99.6611700">
    <ele>79.7</ele>
    <time>2018-01-28T03:54:02Z</time>
   </trkpt>
   <trkpt lat="12.9160820" lon="99.6611380">
    <ele>79.7</ele>
    <time>2018-01-28T03:54:03Z</time>
   </trkpt>
   <trkpt lat="12.9160620" lon="99.6611000">
    <ele>79.7</ele>
    <time>2018-01-28T03:54:04Z</time>
   </trkpt>
   <trkpt lat="12.9160690" lon="99.6610530">
    <ele>79.6</ele>
    <time>2018-01-28T03:54:05Z</time>
   </trkpt>
   <trkpt lat="12.9160800" lon="99.6610150">
    <ele>79.8</ele>
    <time>2018-01-28T03:54:06Z</time>
   </trkpt>
   <trkpt lat="12.9161000" lon="99.6609790">
    <ele>79.8</ele>
    <time>2018-01-28T03:54:07Z</time>
   </trkpt>
   <trkpt lat="12.9161240" lon="99.6609400">
    <ele>80.0</ele>
    <time>2018-01-28T03:54:08Z</time>
   </trkpt>
   <trkpt lat="12.9161630" lon="99.6608970">
    <ele>80.3</ele>
    <time>2018-01-28T03:54:09Z</time>
   </trkpt>
   <trkpt lat="12.9162090" lon="99.6608620">
    <ele>80.8</ele>
    <time>2018-01-28T03:54:10Z</time>
   </trkpt>
   <trkpt lat="12.9162570" lon="99.6608380">
    <ele>81.4</ele>
    <time>2018-01-28T03:54:11Z</time>
   </trkpt>
   <trkpt lat="12.9163140" lon="99.6608120">
    <ele>81.8</ele>
    <time>2018-01-28T03:54:12Z</time>
   </trkpt>
   <trkpt lat="12.9163740" lon="99.6607950">
    <ele>81.8</ele>
    <time>2018-01-28T03:54:13Z</time>
   </trkpt>
   <trkpt lat="12.9164390" lon="99.6607840">
    <ele>81.8</ele>
    <time>2018-01-28T03:54:14Z</time>
   </trkpt>
   <trkpt lat="12.9164920" lon="99.6607710">
    <ele>81.7</ele>
    <time>2018-01-28T03:54:15Z</time>
   </trkpt>
   <trkpt lat="12.9165440" lon="99.6607550">
    <ele>81.7</ele>
    <time>2018-01-28T03:54:16Z</time>
   </trkpt>
   <trkpt lat="12.9165890" lon="99.6607430">
    <ele>81.7</ele>
    <time>2018-01-28T03:54:17Z</time>
   </trkpt>
   <trkpt lat="12.9166300" lon="99.6607340">
    <ele>81.6</ele>
    <time>2018-01-28T03:54:18Z</time>
   </trkpt>
   <trkpt lat="12.9166720" lon="99.6607140">
    <ele>81.6</ele>
    <time>2018-01-28T03:54:19Z</time>
   </trkpt>
   <trkpt lat="12.9167120" lon="99.6607020">
    <ele>81.5</ele>
    <time>2018-01-28T03:54:20Z</time>
   </trkpt>
   <trkpt lat="12.9167400" lon="99.6606830">
    <ele>81.4</ele>
    <time>2018-01-28T03:54:21Z</time>
   </trkpt>
   <trkpt lat="12.9167710" lon="99.6606630">
    <ele>81.5</ele>
    <time>2018-01-28T03:54:23Z</time>
   </trkpt>
   <trkpt lat="12.9167860" lon="99.6606360">
    <ele>81.5</ele>
    <time>2018-01-28T03:54:24Z</time>
   </trkpt>
   <trkpt lat="12.9167890" lon="99.6606060">
    <ele>81.7</ele>
    <time>2018-01-28T03:54:25Z</time>
   </trkpt>
   <trkpt lat="12.9167550" lon="99.6606030">
    <ele>81.6</ele>
    <time>2018-01-28T03:54:26Z</time>
   </trkpt>
   <trkpt lat="12.9167420" lon="99.6605470">
    <ele>81.8</ele>
    <time>2018-01-28T03:54:27Z</time>
   </trkpt>
   <trkpt lat="12.9167100" lon="99.6605350">
    <ele>81.7</ele>
    <time>2018-01-28T03:54:28Z</time>
   </trkpt>
   <trkpt lat="12.9166800" lon="99.6605210">
    <ele>81.6</ele>
    <time>2018-01-28T03:54:29Z</time>
   </trkpt>
   <trkpt lat="12.9166500" lon="99.6605090">
    <ele>81.5</ele>
    <time>2018-01-28T03:54:30Z</time>
   </trkpt>
   <trkpt lat="12.9166130" lon="99.6604960">
    <ele>81.4</ele>
    <time>2018-01-28T03:54:31Z</time>
   </trkpt>
   <trkpt lat="12.9165730" lon="99.6604890">
    <ele>81.3</ele>
    <time>2018-01-28T03:54:32Z</time>
   </trkpt>
   <trkpt lat="12.9165300" lon="99.6604830">
    <ele>81.3</ele>
    <time>2018-01-28T03:54:33Z</time>
   </trkpt>
   <trkpt lat="12.9164890" lon="99.6604720">
    <ele>81.4</ele>
    <time>2018-01-28T03:54:34Z</time>
   </trkpt>
   <trkpt lat="12.9164560" lon="99.6604600">
    <ele>81.4</ele>
    <time>2018-01-28T03:54:35Z</time>
   </trkpt>
   <trkpt lat="12.9164100" lon="99.6604400">
    <ele>81.1</ele>
    <time>2018-01-28T03:54:37Z</time>
   </trkpt>
   <trkpt lat="12.9163780" lon="99.6604360">
    <ele>81.1</ele>
    <time>2018-01-28T03:54:38Z</time>
   </trkpt>
   <trkpt lat="12.9163390" lon="99.6604350">
    <ele>81.1</ele>
    <time>2018-01-28T03:54:39Z</time>
   </trkpt>
   <trkpt lat="12.9162990" lon="99.6604330">
    <ele>81.1</ele>
    <time>2018-01-28T03:54:40Z</time>
   </trkpt>
   <trkpt lat="12.9162550" lon="99.6604290">
    <ele>81.0</ele>
    <time>2018-01-28T03:54:41Z</time>
   </trkpt>
   <trkpt lat="12.9161920" lon="99.6604110">
    <ele>80.7</ele>
    <time>2018-01-28T03:54:42Z</time>
   </trkpt>
   <trkpt lat="12.9161370" lon="99.6603970">
    <ele>80.8</ele>
    <time>2018-01-28T03:54:43Z</time>
   </trkpt>
   <trkpt lat="12.9161080" lon="99.6603830">
    <ele>80.8</ele>
    <time>2018-01-28T03:54:44Z</time>
   </trkpt>
   <trkpt lat="12.9160810" lon="99.6603650">
    <ele>80.5</ele>
    <time>2018-01-28T03:54:45Z</time>
   </trkpt>
   <trkpt lat="12.9160590" lon="99.6603390">
    <ele>80.5</ele>
    <time>2018-01-28T03:54:46Z</time>
   </trkpt>
   <trkpt lat="12.9160380" lon="99.6603010">
    <ele>80.2</ele>
    <time>2018-01-28T03:54:47Z</time>
   </trkpt>
   <trkpt lat="12.9160200" lon="99.6602590">
    <ele>79.9</ele>
    <time>2018-01-28T03:54:48Z</time>
   </trkpt>
   <trkpt lat="12.9159990" lon="99.6602250">
    <ele>79.6</ele>
    <time>2018-01-28T03:54:49Z</time>
   </trkpt>
   <trkpt lat="12.9159760" lon="99.6601930">
    <ele>79.3</ele>
    <time>2018-01-28T03:54:50Z</time>
   </trkpt>
   <trkpt lat="12.9159510" lon="99.6601700">
    <ele>79.3</ele>
    <time>2018-01-28T03:54:51Z</time>
   </trkpt>
   <trkpt lat="12.9159240" lon="99.6601570">
    <ele>79.1</ele>
    <time>2018-01-28T03:54:52Z</time>
   </trkpt>
   <trkpt lat="12.9158950" lon="99.6601500">
    <ele>79.0</ele>
    <time>2018-01-28T03:54:53Z</time>
   </trkpt>
   <trkpt lat="12.9158660" lon="99.6601440">
    <ele>79.0</ele>
    <time>2018-01-28T03:54:54Z</time>
   </trkpt>
   <trkpt lat="12.9158390" lon="99.6601360">
    <ele>79.1</ele>
    <time>2018-01-28T03:54:55Z</time>
   </trkpt>
   <trkpt lat="12.9158130" lon="99.6601260">
    <ele>79.1</ele>
    <time>2018-01-28T03:54:56Z</time>
   </trkpt>
   <trkpt lat="12.9157590" lon="99.6601080">
    <ele>78.8</ele>
    <time>2018-01-28T03:54:58Z</time>
   </trkpt>
   <trkpt lat="12.9157240" lon="99.6601030">
    <ele>78.8</ele>
    <time>2018-01-28T03:54:59Z</time>
   </trkpt>
   <trkpt lat="12.9156810" lon="99.6600990">
    <ele>78.8</ele>
    <time>2018-01-28T03:55:00Z</time>
   </trkpt>
   <trkpt lat="12.9156440" lon="99.6600980">
    <ele>78.8</ele>
    <time>2018-01-28T03:55:02Z</time>
   </trkpt>
   <trkpt lat="12.9155960" lon="99.6600940">
    <ele>78.5</ele>
    <time>2018-01-28T03:55:03Z</time>
   </trkpt>
   <trkpt lat="12.9155320" lon="99.6600920">
    <ele>78.3</ele>
    <time>2018-01-28T03:55:04Z</time>
   </trkpt>
   <trkpt lat="12.9154720" lon="99.6600970">
    <ele>78.0</ele>
    <time>2018-01-28T03:55:05Z</time>
   </trkpt>
   <trkpt lat="12.9154130" lon="99.6601070">
    <ele>77.9</ele>
    <time>2018-01-28T03:55:06Z</time>
   </trkpt>
   <trkpt lat="12.9153670" lon="99.6601170">
    <ele>78.1</ele>
    <time>2018-01-28T03:55:07Z</time>
   </trkpt>
   <trkpt lat="12.9153310" lon="99.6601240">
    <ele>78.1</ele>
    <time>2018-01-28T03:55:08Z</time>
   </trkpt>
   <trkpt lat="12.9152880" lon="99.6601250">
    <ele>78.0</ele>
    <time>2018-01-28T03:55:09Z</time>
   </trkpt>
   <trkpt lat="12.9152250" lon="99.6600880">
    <ele>77.5</ele>
    <time>2018-01-28T03:55:10Z</time>
   </trkpt>
   <trkpt lat="12.9151330" lon="99.6600570">
    <ele>77.1</ele>
    <time>2018-01-28T03:55:11Z</time>
   </trkpt>
   <trkpt lat="12.9150820" lon="99.6600180">
    <ele>76.9</ele>
    <time>2018-01-28T03:55:12Z</time>
   </trkpt>
   <trkpt lat="12.9150340" lon="99.6599740">
    <ele>76.5</ele>
    <time>2018-01-28T03:55:13Z</time>
   </trkpt>
   <trkpt lat="12.9149910" lon="99.6599280">
    <ele>76.2</ele>
    <time>2018-01-28T03:55:14Z</time>
   </trkpt>
   <trkpt lat="12.9149470" lon="99.6598860">
    <ele>75.9</ele>
    <time>2018-01-28T03:55:15Z</time>
   </trkpt>
   <trkpt lat="12.9149040" lon="99.6598500">
    <ele>75.7</ele>
    <time>2018-01-28T03:55:16Z</time>
   </trkpt>
   <trkpt lat="12.9148580" lon="99.6598070">
    <ele>75.5</ele>
    <time>2018-01-28T03:55:17Z</time>
   </trkpt>
   <trkpt lat="12.9148100" lon="99.6597840">
    <ele>75.2</ele>
    <time>2018-01-28T03:55:18Z</time>
   </trkpt>
   <trkpt lat="12.9147570" lon="99.6597620">
    <ele>75.1</ele>
    <time>2018-01-28T03:55:19Z</time>
   </trkpt>
   <trkpt lat="12.9146960" lon="99.6597450">
    <ele>74.9</ele>
    <time>2018-01-28T03:55:20Z</time>
   </trkpt>
   <trkpt lat="12.9146320" lon="99.6597240">
    <ele>74.5</ele>
    <time>2018-01-28T03:55:21Z</time>
   </trkpt>
   <trkpt lat="12.9145750" lon="99.6597110">
    <ele>74.1</ele>
    <time>2018-01-28T03:55:22Z</time>
   </trkpt>
   <trkpt lat="12.9145160" lon="99.6597350">
    <ele>73.6</ele>
    <time>2018-01-28T03:55:23Z</time>
   </trkpt>
   <trkpt lat="12.9144750" lon="99.6597710">
    <ele>73.2</ele>
    <time>2018-01-28T03:55:24Z</time>
   </trkpt>
   <trkpt lat="12.9144430" lon="99.6598240">
    <ele>72.6</ele>
    <time>2018-01-28T03:55:25Z</time>
   </trkpt>
   <trkpt lat="12.9144220" lon="99.6598830">
    <ele>71.9</ele>
    <time>2018-01-28T03:55:26Z</time>
   </trkpt>
   <trkpt lat="12.9143950" lon="99.6599390">
    <ele>71.4</ele>
    <time>2018-01-28T03:55:27Z</time>
   </trkpt>
   <trkpt lat="12.9143700" lon="99.6599930">
    <ele>70.6</ele>
    <time>2018-01-28T03:55:28Z</time>
   </trkpt>
   <trkpt lat="12.9143470" lon="99.6600470">
    <ele>70.3</ele>
    <time>2018-01-28T03:55:29Z</time>
   </trkpt>
   <trkpt lat="12.9143280" lon="99.6600810">
    <ele>70.0</ele>
    <time>2018-01-28T03:55:30Z</time>
   </trkpt>
   <trkpt lat="12.9142990" lon="99.6600890">
    <ele>70.1</ele>
    <time>2018-01-28T03:55:31Z</time>
   </trkpt>
   <trkpt lat="12.9142640" lon="99.6600670">
    <ele>70.4</ele>
    <time>2018-01-28T03:55:33Z</time>
   </trkpt>
   <trkpt lat="12.9142570" lon="99.6600230">
    <ele>70.7</ele>
    <time>2018-01-28T03:55:34Z</time>
   </trkpt>
   <trkpt lat="12.9142450" lon="99.6599780">
    <ele>71.0</ele>
    <time>2018-01-28T03:55:35Z</time>
   </trkpt>
   <trkpt lat="12.9142410" lon="99.6599420">
    <ele>71.2</ele>
    <time>2018-01-28T03:55:36Z</time>
   </trkpt>
   <trkpt lat="12.9142330" lon="99.6599090">
    <ele>71.2</ele>
    <time>2018-01-28T03:55:37Z</time>
   </trkpt>
   <trkpt lat="12.9142170" lon="99.6598580">
    <ele>71.2</ele>
    <time>2018-01-28T03:55:39Z</time>
   </trkpt>
   <trkpt lat="12.9141990" lon="99.6598080">
    <ele>71.1</ele>
    <time>2018-01-28T03:55:40Z</time>
   </trkpt>
   <trkpt lat="12.9141710" lon="99.6597330">
    <ele>70.5</ele>
    <time>2018-01-28T03:55:41Z</time>
   </trkpt>
   <trkpt lat="12.9141310" lon="99.6596030">
    <ele>69.5</ele>
    <time>2018-01-28T03:55:42Z</time>
   </trkpt>
   <trkpt lat="12.9141210" lon="99.6595500">
    <ele>69.4</ele>
    <time>2018-01-28T03:55:43Z</time>
   </trkpt>
   <trkpt lat="12.9141160" lon="99.6594920">
    <ele>69.4</ele>
    <time>2018-01-28T03:55:44Z</time>
   </trkpt>
   <trkpt lat="12.9141110" lon="99.6594330">
    <ele>69.4</ele>
    <time>2018-01-28T03:55:45Z</time>
   </trkpt>
   <trkpt lat="12.9141080" lon="99.6593710">
    <ele>69.3</ele>
    <time>2018-01-28T03:55:46Z</time>
   </trkpt>
   <trkpt lat="12.9141120" lon="99.6593080">
    <ele>69.3</ele>
    <time>2018-01-28T03:55:47Z</time>
   </trkpt>
   <trkpt lat="12.9141170" lon="99.6592460">
    <ele>69.7</ele>
    <time>2018-01-28T03:55:48Z</time>
   </trkpt>
   <trkpt lat="12.9141200" lon="99.6591840">
    <ele>70.1</ele>
    <time>2018-01-28T03:55:49Z</time>
   </trkpt>
   <trkpt lat="12.9141190" lon="99.6591270">
    <ele>70.4</ele>
    <time>2018-01-28T03:55:50Z</time>
   </trkpt>
   <trkpt lat="12.9141280" lon="99.6590690">
    <ele>70.3</ele>
    <time>2018-01-28T03:55:51Z</time>
   </trkpt>
   <trkpt lat="12.9141290" lon="99.6590150">
    <ele>70.0</ele>
    <time>2018-01-28T03:55:52Z</time>
   </trkpt>
   <trkpt lat="12.9141360" lon="99.6589530">
    <ele>69.5</ele>
    <time>2018-01-28T03:55:53Z</time>
   </trkpt>
   <trkpt lat="12.9141450" lon="99.6588880">
    <ele>69.4</ele>
    <time>2018-01-28T03:55:54Z</time>
   </trkpt>
   <trkpt lat="12.9141440" lon="99.6588270">
    <ele>69.5</ele>
    <time>2018-01-28T03:55:55Z</time>
   </trkpt>
   <trkpt lat="12.9141610" lon="99.6587480">
    <ele>69.7</ele>
    <time>2018-01-28T03:55:56Z</time>
   </trkpt>
   <trkpt lat="12.9141710" lon="99.6586790">
    <ele>70.1</ele>
    <time>2018-01-28T03:55:57Z</time>
   </trkpt>
   <trkpt lat="12.9141900" lon="99.6586240">
    <ele>70.4</ele>
    <time>2018-01-28T03:55:58Z</time>
   </trkpt>
   <trkpt lat="12.9141960" lon="99.6585710">
    <ele>70.7</ele>
    <time>2018-01-28T03:55:59Z</time>
   </trkpt>
   <trkpt lat="12.9142100" lon="99.6585200">
    <ele>71.2</ele>
    <time>2018-01-28T03:56:00Z</time>
   </trkpt>
   <trkpt lat="12.9142240" lon="99.6584730">
    <ele>71.4</ele>
    <time>2018-01-28T03:56:01Z</time>
   </trkpt>
   <trkpt lat="12.9142280" lon="99.6584280">
    <ele>71.7</ele>
    <time>2018-01-28T03:56:02Z</time>
   </trkpt>
   <trkpt lat="12.9142290" lon="99.6583870">
    <ele>72.0</ele>
    <time>2018-01-28T03:56:03Z</time>
   </trkpt>
   <trkpt lat="12.9142390" lon="99.6583450">
    <ele>72.1</ele>
    <time>2018-01-28T03:56:04Z</time>
   </trkpt>
   <trkpt lat="12.9142470" lon="99.6583000">
    <ele>72.2</ele>
    <time>2018-01-28T03:56:05Z</time>
   </trkpt>
   <trkpt lat="12.9142470" lon="99.6582580">
    <ele>72.2</ele>
    <time>2018-01-28T03:56:06Z</time>
   </trkpt>
   <trkpt lat="12.9142530" lon="99.6582200">
    <ele>72.0</ele>
    <time>2018-01-28T03:56:07Z</time>
   </trkpt>
   <trkpt lat="12.9142520" lon="99.6581840">
    <ele>71.8</ele>
    <time>2018-01-28T03:56:08Z</time>
   </trkpt>
   <trkpt lat="12.9142520" lon="99.6581490">
    <ele>71.8</ele>
    <time>2018-01-28T03:56:09Z</time>
   </trkpt>
   <trkpt lat="12.9142540" lon="99.6581180">
    <ele>71.4</ele>
    <time>2018-01-28T03:56:10Z</time>
   </trkpt>
   <trkpt lat="12.9142630" lon="99.6580840">
    <ele>71.0</ele>
    <time>2018-01-28T03:56:11Z</time>
   </trkpt>
   <trkpt lat="12.9142720" lon="99.6580500">
    <ele>70.7</ele>
    <time>2018-01-28T03:56:12Z</time>
   </trkpt>
   <trkpt lat="12.9142760" lon="99.6580150">
    <ele>70.7</ele>
    <time>2018-01-28T03:56:13Z</time>
   </trkpt>
   <trkpt lat="12.9142810" lon="99.6579790">
    <ele>70.2</ele>
    <time>2018-01-28T03:56:14Z</time>
   </trkpt>
   <trkpt lat="12.9142840" lon="99.6579390">
    <ele>69.6</ele>
    <time>2018-01-28T03:56:15Z</time>
   </trkpt>
   <trkpt lat="12.9142840" lon="99.6579060">
    <ele>69.1</ele>
    <time>2018-01-28T03:56:16Z</time>
   </trkpt>
   <trkpt lat="12.9142790" lon="99.6578770">
    <ele>68.5</ele>
    <time>2018-01-28T03:56:17Z</time>
   </trkpt>
   <trkpt lat="12.9142620" lon="99.6578520">
    <ele>68.1</ele>
    <time>2018-01-28T03:56:18Z</time>
   </trkpt>
   <trkpt lat="12.9142240" lon="99.6578300">
    <ele>67.5</ele>
    <time>2018-01-28T03:56:20Z</time>
   </trkpt>
   <trkpt lat="12.9141980" lon="99.6578390">
    <ele>67.0</ele>
    <time>2018-01-28T03:56:28Z</time>
   </trkpt>
   <trkpt lat="12.9142040" lon="99.6578090">
    <ele>67.0</ele>
    <time>2018-01-28T03:57:42Z</time>
   </trkpt>
   <trkpt lat="12.9142240" lon="99.6577750">
    <ele>66.8</ele>
    <time>2018-01-28T03:57:44Z</time>
   </trkpt>
   <trkpt lat="12.9142410" lon="99.6577270">
    <ele>66.3</ele>
    <time>2018-01-28T03:57:46Z</time>
   </trkpt>
   <trkpt lat="12.9142500" lon="99.6576980">
    <ele>65.9</ele>
    <time>2018-01-28T03:57:47Z</time>
   </trkpt>
   <trkpt lat="12.9142550" lon="99.6576660">
    <ele>65.6</ele>
    <time>2018-01-28T03:57:48Z</time>
   </trkpt>
   <trkpt lat="12.9142570" lon="99.6576350">
    <ele>65.5</ele>
    <time>2018-01-28T03:57:49Z</time>
   </trkpt>
   <trkpt lat="12.9142580" lon="99.6576030">
    <ele>65.2</ele>
    <time>2018-01-28T03:57:50Z</time>
   </trkpt>
   <trkpt lat="12.9142580" lon="99.6575720">
    <ele>64.8</ele>
    <time>2018-01-28T03:57:51Z</time>
   </trkpt>
   <trkpt lat="12.9142560" lon="99.6575440">
    <ele>64.7</ele>
    <time>2018-01-28T03:57:52Z</time>
   </trkpt>
   <trkpt lat="12.9142440" lon="99.6575080">
    <ele>64.2</ele>
    <time>2018-01-28T03:57:53Z</time>
   </trkpt>
   <trkpt lat="12.9142360" lon="99.6574680">
    <ele>63.6</ele>
    <time>2018-01-28T03:57:54Z</time>
   </trkpt>
   <trkpt lat="12.9142300" lon="99.6574330">
    <ele>63.1</ele>
    <time>2018-01-28T03:57:55Z</time>
   </trkpt>
   <trkpt lat="12.9142250" lon="99.6573950">
    <ele>62.6</ele>
    <time>2018-01-28T03:57:56Z</time>
   </trkpt>
   <trkpt lat="12.9142260" lon="99.6573620">
    <ele>62.4</ele>
    <time>2018-01-28T03:57:57Z</time>
   </trkpt>
   <trkpt lat="12.9142250" lon="99.6573240">
    <ele>62.3</ele>
    <time>2018-01-28T03:57:58Z</time>
   </trkpt>
   <trkpt lat="12.9142260" lon="99.6572940">
    <ele>62.2</ele>
    <time>2018-01-28T03:57:59Z</time>
   </trkpt>
   <trkpt lat="12.9142280" lon="99.6572650">
    <ele>62.3</ele>
    <time>2018-01-28T03:58:00Z</time>
   </trkpt>
   <trkpt lat="12.9142300" lon="99.6572320">
    <ele>62.7</ele>
    <time>2018-01-28T03:58:01Z</time>
   </trkpt>
   <trkpt lat="12.9142270" lon="99.6571970">
    <ele>62.7</ele>
    <time>2018-01-28T03:58:02Z</time>
   </trkpt>
   <trkpt lat="12.9142140" lon="99.6571420">
    <ele>63.6</ele>
    <time>2018-01-28T03:58:03Z</time>
   </trkpt>
   <trkpt lat="12.9141980" lon="99.6571060">
    <ele>64.4</ele>
    <time>2018-01-28T03:58:04Z</time>
   </trkpt>
   <trkpt lat="12.9141870" lon="99.6570730">
    <ele>64.4</ele>
    <time>2018-01-28T03:58:05Z</time>
   </trkpt>
   <trkpt lat="12.9141680" lon="99.6570400">
    <ele>64.5</ele>
    <time>2018-01-28T03:58:06Z</time>
   </trkpt>
   <trkpt lat="12.9141480" lon="99.6570060">
    <ele>65.2</ele>
    <time>2018-01-28T03:58:07Z</time>
   </trkpt>
   <trkpt lat="12.9141280" lon="99.6569700">
    <ele>65.8</ele>
    <time>2018-01-28T03:58:08Z</time>
   </trkpt>
   <trkpt lat="12.9141080" lon="99.6569330">
    <ele>66.5</ele>
    <time>2018-01-28T03:58:09Z</time>
   </trkpt>
   <trkpt lat="12.9140870" lon="99.6568930">
    <ele>66.6</ele>
    <time>2018-01-28T03:58:10Z</time>
   </trkpt>
   <trkpt lat="12.9140650" lon="99.6568510">
    <ele>67.5</ele>
    <time>2018-01-28T03:58:11Z</time>
   </trkpt>
   <trkpt lat="12.9140500" lon="99.6568220">
    <ele>66.6</ele>
    <time>2018-01-28T03:58:12Z</time>
   </trkpt>
   <trkpt lat="12.9140350" lon="99.6567930">
    <ele>67.4</ele>
    <time>2018-01-28T03:58:13Z</time>
   </trkpt>
   <trkpt lat="12.9140170" lon="99.6567570">
    <ele>68.2</ele>
    <time>2018-01-28T03:58:14Z</time>
   </trkpt>
   <trkpt lat="12.9139980" lon="99.6567210">
    <ele>68.0</ele>
    <time>2018-01-28T03:58:15Z</time>
   </trkpt>
   <trkpt lat="12.9139630" lon="99.6566580">
    <ele>68.1</ele>
    <time>2018-01-28T03:58:16Z</time>
   </trkpt>
   <trkpt lat="12.9139410" lon="99.6566190">
    <ele>68.8</ele>
    <time>2018-01-28T03:58:17Z</time>
   </trkpt>
   <trkpt lat="12.9139190" lon="99.6565820">
    <ele>69.0</ele>
    <time>2018-01-28T03:58:18Z</time>
   </trkpt>
   <trkpt lat="12.9139040" lon="99.6565400">
    <ele>69.6</ele>
    <time>2018-01-28T03:58:19Z</time>
   </trkpt>
   <trkpt lat="12.9138860" lon="99.6564990">
    <ele>69.7</ele>
    <time>2018-01-28T03:58:20Z</time>
   </trkpt>
   <trkpt lat="12.9138710" lon="99.6564660">
    <ele>70.2</ele>
    <time>2018-01-28T03:58:21Z</time>
   </trkpt>
   <trkpt lat="12.9138590" lon="99.6564370">
    <ele>70.2</ele>
    <time>2018-01-28T03:58:22Z</time>
   </trkpt>
   <trkpt lat="12.9138420" lon="99.6564040">
    <ele>70.1</ele>
    <time>2018-01-28T03:58:23Z</time>
   </trkpt>
   <trkpt lat="12.9138030" lon="99.6563240">
    <ele>70.5</ele>
    <time>2018-01-28T03:58:25Z</time>
   </trkpt>
   <trkpt lat="12.9137900" lon="99.6562900">
    <ele>71.0</ele>
    <time>2018-01-28T03:58:26Z</time>
   </trkpt>
   <trkpt lat="12.9137770" lon="99.6562630">
    <ele>71.0</ele>
    <time>2018-01-28T03:58:27Z</time>
   </trkpt>
   <trkpt lat="12.9137520" lon="99.6562160">
    <ele>70.9</ele>
    <time>2018-01-28T03:58:29Z</time>
   </trkpt>
   <trkpt lat="12.9137360" lon="99.6561920">
    <ele>71.3</ele>
    <time>2018-01-28T03:58:30Z</time>
   </trkpt>
   <trkpt lat="12.9137120" lon="99.6561530">
    <ele>71.1</ele>
    <time>2018-01-28T03:58:32Z</time>
   </trkpt>
   <trkpt lat="12.9136990" lon="99.6561260">
    <ele>71.1</ele>
    <time>2018-01-28T03:58:33Z</time>
   </trkpt>
   <trkpt lat="12.9136920" lon="99.6560970">
    <ele>71.4</ele>
    <time>2018-01-28T03:58:34Z</time>
   </trkpt>
   <trkpt lat="12.9136910" lon="99.6560520">
    <ele>71.8</ele>
    <time>2018-01-28T03:58:36Z</time>
   </trkpt>
   <trkpt lat="12.9136920" lon="99.6560180">
    <ele>72.2</ele>
    <time>2018-01-28T03:58:37Z</time>
   </trkpt>
   <trkpt lat="12.9136940" lon="99.6559880">
    <ele>72.7</ele>
    <time>2018-01-28T03:58:38Z</time>
   </trkpt>
   <trkpt lat="12.9136960" lon="99.6559330">
    <ele>73.2</ele>
    <time>2018-01-28T03:58:40Z</time>
   </trkpt>
   <trkpt lat="12.9136950" lon="99.6559010">
    <ele>73.7</ele>
    <time>2018-01-28T03:58:41Z</time>
   </trkpt>
   <trkpt lat="12.9136910" lon="99.6558610">
    <ele>73.8</ele>
    <time>2018-01-28T03:58:42Z</time>
   </trkpt>
   <trkpt lat="12.9136840" lon="99.6558190">
    <ele>73.8</ele>
    <time>2018-01-28T03:58:43Z</time>
   </trkpt>
   <trkpt lat="12.9136740" lon="99.6557740">
    <ele>73.0</ele>
    <time>2018-01-28T03:58:44Z</time>
   </trkpt>
   <trkpt lat="12.9136650" lon="99.6557310">
    <ele>73.0</ele>
    <time>2018-01-28T03:58:45Z</time>
   </trkpt>
   <trkpt lat="12.9136590" lon="99.6556930">
    <ele>72.8</ele>
    <time>2018-01-28T03:58:46Z</time>
   </trkpt>
   <trkpt lat="12.9136550" lon="99.6556560">
    <ele>72.8</ele>
    <time>2018-01-28T03:58:47Z</time>
   </trkpt>
   <trkpt lat="12.9136540" lon="99.6556190">
    <ele>72.5</ele>
    <time>2018-01-28T03:58:48Z</time>
   </trkpt>
   <trkpt lat="12.9136560" lon="99.6555860">
    <ele>72.3</ele>
    <time>2018-01-28T03:58:49Z</time>
   </trkpt>
   <trkpt lat="12.9136570" lon="99.6555550">
    <ele>72.0</ele>
    <time>2018-01-28T03:58:50Z</time>
   </trkpt>
   <trkpt lat="12.9136610" lon="99.6555220">
    <ele>71.9</ele>
    <time>2018-01-28T03:58:51Z</time>
   </trkpt>
   <trkpt lat="12.9136660" lon="99.6554860">
    <ele>71.9</ele>
    <time>2018-01-28T03:58:52Z</time>
   </trkpt>
   <trkpt lat="12.9136690" lon="99.6554480">
    <ele>71.8</ele>
    <time>2018-01-28T03:58:53Z</time>
   </trkpt>
   <trkpt lat="12.9136710" lon="99.6554120">
    <ele>71.7</ele>
    <time>2018-01-28T03:58:54Z</time>
   </trkpt>
   <trkpt lat="12.9136730" lon="99.6553780">
    <ele>71.7</ele>
    <time>2018-01-28T03:58:55Z</time>
   </trkpt>
   <trkpt lat="12.9136770" lon="99.6553440">
    <ele>71.5</ele>
    <time>2018-01-28T03:58:56Z</time>
   </trkpt>
   <trkpt lat="12.9136820" lon="99.6553090">
    <ele>71.7</ele>
    <time>2018-01-28T03:58:57Z</time>
   </trkpt>
   <trkpt lat="12.9136850" lon="99.6552720">
    <ele>71.4</ele>
    <time>2018-01-28T03:58:58Z</time>
   </trkpt>
   <trkpt lat="12.9136830" lon="99.6552380">
    <ele>71.2</ele>
    <time>2018-01-28T03:58:59Z</time>
   </trkpt>
   <trkpt lat="12.9136800" lon="99.6552040">
    <ele>70.9</ele>
    <time>2018-01-28T03:59:00Z</time>
   </trkpt>
   <trkpt lat="12.9136780" lon="99.6551670">
    <ele>70.7</ele>
    <time>2018-01-28T03:59:01Z</time>
   </trkpt>
   <trkpt lat="12.9136760" lon="99.6551300">
    <ele>70.2</ele>
    <time>2018-01-28T03:59:02Z</time>
   </trkpt>
   <trkpt lat="12.9136760" lon="99.6550920">
    <ele>69.9</ele>
    <time>2018-01-28T03:59:03Z</time>
   </trkpt>
   <trkpt lat="12.9136780" lon="99.6550540">
    <ele>70.1</ele>
    <time>2018-01-28T03:59:04Z</time>
   </trkpt>
   <trkpt lat="12.9136790" lon="99.6550160">
    <ele>69.9</ele>
    <time>2018-01-28T03:59:05Z</time>
   </trkpt>
   <trkpt lat="12.9136780" lon="99.6549770">
    <ele>69.8</ele>
    <time>2018-01-28T03:59:06Z</time>
   </trkpt>
   <trkpt lat="12.9136760" lon="99.6549380">
    <ele>69.5</ele>
    <time>2018-01-28T03:59:07Z</time>
   </trkpt>
   <trkpt lat="12.9136760" lon="99.6548980">
    <ele>69.5</ele>
    <time>2018-01-28T03:59:08Z</time>
   </trkpt>
   <trkpt lat="12.9136810" lon="99.6548540">
    <ele>69.7</ele>
    <time>2018-01-28T03:59:09Z</time>
   </trkpt>
   <trkpt lat="12.9136870" lon="99.6548080">
    <ele>69.7</ele>
    <time>2018-01-28T03:59:10Z</time>
   </trkpt>
   <trkpt lat="12.9137030" lon="99.6547580">
    <ele>69.7</ele>
    <time>2018-01-28T03:59:11Z</time>
   </trkpt>
   <trkpt lat="12.9137120" lon="99.6547150">
    <ele>69.7</ele>
    <time>2018-01-28T03:59:12Z</time>
   </trkpt>
   <trkpt lat="12.9137200" lon="99.6546750">
    <ele>69.9</ele>
    <time>2018-01-28T03:59:13Z</time>
   </trkpt>
   <trkpt lat="12.9137230" lon="99.6546330">
    <ele>70.0</ele>
    <time>2018-01-28T03:59:14Z</time>
   </trkpt>
   <trkpt lat="12.9137330" lon="99.6545820">
    <ele>70.2</ele>
    <time>2018-01-28T03:59:15Z</time>
   </trkpt>
   <trkpt lat="12.9137390" lon="99.6545340">
    <ele>70.5</ele>
    <time>2018-01-28T03:59:16Z</time>
   </trkpt>
   <trkpt lat="12.9137460" lon="99.6544920">
    <ele>70.4</ele>
    <time>2018-01-28T03:59:17Z</time>
   </trkpt>
   <trkpt lat="12.9137520" lon="99.6544450">
    <ele>70.3</ele>
    <time>2018-01-28T03:59:18Z</time>
   </trkpt>
   <trkpt lat="12.9137630" lon="99.6544040">
    <ele>70.4</ele>
    <time>2018-01-28T03:59:19Z</time>
   </trkpt>
   <trkpt lat="12.9137680" lon="99.6543670">
    <ele>70.4</ele>
    <time>2018-01-28T03:59:20Z</time>
   </trkpt>
   <trkpt lat="12.9137760" lon="99.6543330">
    <ele>70.2</ele>
    <time>2018-01-28T03:59:21Z</time>
   </trkpt>
   <trkpt lat="12.9138120" lon="99.6543000">
    <ele>70.1</ele>
    <time>2018-01-28T03:59:23Z</time>
   </trkpt>
   <trkpt lat="12.9138410" lon="99.6542830">
    <ele>70.0</ele>
    <time>2018-01-28T03:59:25Z</time>
   </trkpt>
   <trkpt lat="12.9138840" lon="99.6542670">
    <ele>69.8</ele>
    <time>2018-01-28T03:59:27Z</time>
   </trkpt>
   <trkpt lat="12.9139230" lon="99.6542350">
    <ele>69.5</ele>
    <time>2018-01-28T03:59:29Z</time>
   </trkpt>
   <trkpt lat="12.9139410" lon="99.6542110">
    <ele>69.5</ele>
    <time>2018-01-28T03:59:30Z</time>
   </trkpt>
   <trkpt lat="12.9139580" lon="99.6541850">
    <ele>69.3</ele>
    <time>2018-01-28T03:59:31Z</time>
   </trkpt>
   <trkpt lat="12.9139750" lon="99.6541570">
    <ele>69.4</ele>
    <time>2018-01-28T03:59:32Z</time>
   </trkpt>
   <trkpt lat="12.9139910" lon="99.6541290">
    <ele>69.4</ele>
    <time>2018-01-28T03:59:33Z</time>
   </trkpt>
   <trkpt lat="12.9140100" lon="99.6541010">
    <ele>69.6</ele>
    <time>2018-01-28T03:59:34Z</time>
   </trkpt>
   <trkpt lat="12.9140300" lon="99.6540700">
    <ele>69.7</ele>
    <time>2018-01-28T03:59:35Z</time>
   </trkpt>
   <trkpt lat="12.9140480" lon="99.6540360">
    <ele>69.9</ele>
    <time>2018-01-28T03:59:36Z</time>
   </trkpt>
   <trkpt lat="12.9140670" lon="99.6540010">
    <ele>70.1</ele>
    <time>2018-01-28T03:59:37Z</time>
   </trkpt>
   <trkpt lat="12.9140870" lon="99.6539640">
    <ele>70.0</ele>
    <time>2018-01-28T03:59:38Z</time>
   </trkpt>
   <trkpt lat="12.9141060" lon="99.6539230">
    <ele>70.0</ele>
    <time>2018-01-28T03:59:39Z</time>
   </trkpt>
   <trkpt lat="12.9141250" lon="99.6538730">
    <ele>70.0</ele>
    <time>2018-01-28T03:59:40Z</time>
   </trkpt>
   <trkpt lat="12.9141390" lon="99.6538110">
    <ele>69.9</ele>
    <time>2018-01-28T03:59:41Z</time>
   </trkpt>
   <trkpt lat="12.9141530" lon="99.6537720">
    <ele>69.8</ele>
    <time>2018-01-28T03:59:42Z</time>
   </trkpt>
   <trkpt lat="12.9141600" lon="99.6537290">
    <ele>69.6</ele>
    <time>2018-01-28T03:59:43Z</time>
   </trkpt>
   <trkpt lat="12.9141850" lon="99.6536840">
    <ele>69.2</ele>
    <time>2018-01-28T03:59:44Z</time>
   </trkpt>
   <trkpt lat="12.9142000" lon="99.6536260">
    <ele>68.9</ele>
    <time>2018-01-28T03:59:45Z</time>
   </trkpt>
   <trkpt lat="12.9142180" lon="99.6535890">
    <ele>68.7</ele>
    <time>2018-01-28T03:59:46Z</time>
   </trkpt>
   <trkpt lat="12.9142200" lon="99.6535390">
    <ele>68.6</ele>
    <time>2018-01-28T03:59:47Z</time>
   </trkpt>
   <trkpt lat="12.9142370" lon="99.6534980">
    <ele>68.6</ele>
    <time>2018-01-28T03:59:48Z</time>
   </trkpt>
   <trkpt lat="12.9142550" lon="99.6534550">
    <ele>68.6</ele>
    <time>2018-01-28T03:59:49Z</time>
   </trkpt>
   <trkpt lat="12.9142640" lon="99.6534200">
    <ele>68.8</ele>
    <time>2018-01-28T03:59:50Z</time>
   </trkpt>
   <trkpt lat="12.9142800" lon="99.6533880">
    <ele>68.8</ele>
    <time>2018-01-28T03:59:51Z</time>
   </trkpt>
   <trkpt lat="12.9142850" lon="99.6533470">
    <ele>68.8</ele>
    <time>2018-01-28T03:59:52Z</time>
   </trkpt>
   <trkpt lat="12.9142820" lon="99.6533060">
    <ele>68.8</ele>
    <time>2018-01-28T03:59:53Z</time>
   </trkpt>
   <trkpt lat="12.9142750" lon="99.6532690">
    <ele>68.8</ele>
    <time>2018-01-28T03:59:54Z</time>
   </trkpt>
   <trkpt lat="12.9142500" lon="99.6532210">
    <ele>68.5</ele>
    <time>2018-01-28T03:59:56Z</time>
   </trkpt>
   <trkpt lat="12.9142150" lon="99.6531840">
    <ele>68.2</ele>
    <time>2018-01-28T03:59:57Z</time>
   </trkpt>
   <trkpt lat="12.9141840" lon="99.6531560">
    <ele>68.2</ele>
    <time>2018-01-28T03:59:58Z</time>
   </trkpt>
   <trkpt lat="12.9141470" lon="99.6531200">
    <ele>68.0</ele>
    <time>2018-01-28T03:59:59Z</time>
   </trkpt>
   <trkpt lat="12.9141010" lon="99.6530750">
    <ele>67.6</ele>
    <time>2018-01-28T04:00:00Z</time>
   </trkpt>
   <trkpt lat="12.9140560" lon="99.6530340">
    <ele>67.3</ele>
    <time>2018-01-28T04:00:01Z</time>
   </trkpt>
   <trkpt lat="12.9140120" lon="99.6529920">
    <ele>66.6</ele>
    <time>2018-01-28T04:00:02Z</time>
   </trkpt>
   <trkpt lat="12.9139680" lon="99.6529460">
    <ele>66.8</ele>
    <time>2018-01-28T04:00:03Z</time>
   </trkpt>
   <trkpt lat="12.9139310" lon="99.6528810">
    <ele>67.1</ele>
    <time>2018-01-28T04:00:04Z</time>
   </trkpt>
   <trkpt lat="12.9138830" lon="99.6528080">
    <ele>67.6</ele>
    <time>2018-01-28T04:00:05Z</time>
   </trkpt>
   <trkpt lat="12.9138780" lon="99.6527560">
    <ele>67.9</ele>
    <time>2018-01-28T04:00:06Z</time>
   </trkpt>
   <trkpt lat="12.9138740" lon="99.6527160">
    <ele>68.2</ele>
    <time>2018-01-28T04:00:07Z</time>
   </trkpt>
   <trkpt lat="12.9138780" lon="99.6526650">
    <ele>68.4</ele>
    <time>2018-01-28T04:00:08Z</time>
   </trkpt>
   <trkpt lat="12.9138840" lon="99.6526380">
    <ele>68.6</ele>
    <time>2018-01-28T04:00:10Z</time>
   </trkpt>
   <trkpt lat="12.9138920" lon="99.6525880">
    <ele>68.8</ele>
    <time>2018-01-28T04:00:12Z</time>
   </trkpt>
   <trkpt lat="12.9138960" lon="99.6525460">
    <ele>68.9</ele>
    <time>2018-01-28T04:00:13Z</time>
   </trkpt>
   <trkpt lat="12.9139260" lon="99.6523150">
    <ele>69.5</ele>
    <time>2018-01-28T04:00:16Z</time>
   </trkpt>
   <trkpt lat="12.9139320" lon="99.6522700">
    <ele>69.6</ele>
    <time>2018-01-28T04:00:17Z</time>
   </trkpt>
   <trkpt lat="12.9139340" lon="99.6522280">
    <ele>69.7</ele>
    <time>2018-01-28T04:00:18Z</time>
   </trkpt>
   <trkpt lat="12.9139310" lon="99.6521880">
    <ele>69.6</ele>
    <time>2018-01-28T04:00:19Z</time>
   </trkpt>
   <trkpt lat="12.9139300" lon="99.6521510">
    <ele>69.6</ele>
    <time>2018-01-28T04:00:20Z</time>
   </trkpt>
   <trkpt lat="12.9139240" lon="99.6520980">
    <ele>69.3</ele>
    <time>2018-01-28T04:00:22Z</time>
   </trkpt>
   <trkpt lat="12.9139130" lon="99.6520500">
    <ele>69.2</ele>
    <time>2018-01-28T04:00:24Z</time>
   </trkpt>
   <trkpt lat="12.9139070" lon="99.6520040">
    <ele>68.9</ele>
    <time>2018-01-28T04:00:26Z</time>
   </trkpt>
   <trkpt lat="12.9139010" lon="99.6519430">
    <ele>68.7</ele>
    <time>2018-01-28T04:00:28Z</time>
   </trkpt>
   <trkpt lat="12.9138970" lon="99.6519080">
    <ele>68.7</ele>
    <time>2018-01-28T04:00:29Z</time>
   </trkpt>
   <trkpt lat="12.9138950" lon="99.6518710">
    <ele>69.0</ele>
    <time>2018-01-28T04:00:30Z</time>
   </trkpt>
   <trkpt lat="12.9138950" lon="99.6518330">
    <ele>69.0</ele>
    <time>2018-01-28T04:00:31Z</time>
   </trkpt>
   <trkpt lat="12.9138980" lon="99.6517920">
    <ele>69.2</ele>
    <time>2018-01-28T04:00:32Z</time>
   </trkpt>
   <trkpt lat="12.9139000" lon="99.6517520">
    <ele>69.4</ele>
    <time>2018-01-28T04:00:33Z</time>
   </trkpt>
   <trkpt lat="12.9139000" lon="99.6517140">
    <ele>69.8</ele>
    <time>2018-01-28T04:00:34Z</time>
   </trkpt>
   <trkpt lat="12.9139020" lon="99.6516770">
    <ele>70.3</ele>
    <time>2018-01-28T04:00:35Z</time>
   </trkpt>
   <trkpt lat="12.9139000" lon="99.6516380">
    <ele>70.8</ele>
    <time>2018-01-28T04:00:36Z</time>
   </trkpt>
   <trkpt lat="12.9138980" lon="99.6515980">
    <ele>71.3</ele>
    <time>2018-01-28T04:00:37Z</time>
   </trkpt>
   <trkpt lat="12.9138990" lon="99.6515630">
    <ele>71.8</ele>
    <time>2018-01-28T04:00:38Z</time>
   </trkpt>
   <trkpt lat="12.9139040" lon="99.6515270">
    <ele>72.4</ele>
    <time>2018-01-28T04:00:39Z</time>
   </trkpt>
   <trkpt lat="12.9139090" lon="99.6514910">
    <ele>72.4</ele>
    <time>2018-01-28T04:00:40Z</time>
   </trkpt>
   <trkpt lat="12.9139140" lon="99.6514550">
    <ele>73.0</ele>
    <time>2018-01-28T04:00:41Z</time>
   </trkpt>
   <trkpt lat="12.9139190" lon="99.6514200">
    <ele>73.5</ele>
    <time>2018-01-28T04:00:42Z</time>
   </trkpt>
   <trkpt lat="12.9139240" lon="99.6513890">
    <ele>74.1</ele>
    <time>2018-01-28T04:00:43Z</time>
   </trkpt>
   <trkpt lat="12.9139270" lon="99.6513550">
    <ele>74.6</ele>
    <time>2018-01-28T04:00:44Z</time>
   </trkpt>
   <trkpt lat="12.9139280" lon="99.6513160">
    <ele>75.0</ele>
    <time>2018-01-28T04:00:45Z</time>
   </trkpt>
   <trkpt lat="12.9139270" lon="99.6512780">
    <ele>75.0</ele>
    <time>2018-01-28T04:00:46Z</time>
   </trkpt>
   <trkpt lat="12.9139260" lon="99.6512410">
    <ele>75.5</ele>
    <time>2018-01-28T04:00:47Z</time>
   </trkpt>
   <trkpt lat="12.9139220" lon="99.6512030">
    <ele>75.6</ele>
    <time>2018-01-28T04:00:48Z</time>
   </trkpt>
   <trkpt lat="12.9139200" lon="99.6511680">
    <ele>75.4</ele>
    <time>2018-01-28T04:00:49Z</time>
   </trkpt>
   <trkpt lat="12.9139200" lon="99.6511340">
    <ele>75.1</ele>
    <time>2018-01-28T04:00:50Z</time>
   </trkpt>
   <trkpt lat="12.9139200" lon="99.6511030">
    <ele>74.9</ele>
    <time>2018-01-28T04:00:51Z</time>
   </trkpt>
   <trkpt lat="12.9139180" lon="99.6510720">
    <ele>74.9</ele>
    <time>2018-01-28T04:00:52Z</time>
   </trkpt>
   <trkpt lat="12.9139190" lon="99.6510410">
    <ele>74.7</ele>
    <time>2018-01-28T04:00:53Z</time>
   </trkpt>
   <trkpt lat="12.9139210" lon="99.6510110">
    <ele>74.6</ele>
    <time>2018-01-28T04:00:54Z</time>
   </trkpt>
   <trkpt lat="12.9139240" lon="99.6509820">
    <ele>74.5</ele>
    <time>2018-01-28T04:00:55Z</time>
   </trkpt>
   <trkpt lat="12.9139290" lon="99.6509340">
    <ele>74.3</ele>
    <time>2018-01-28T04:00:57Z</time>
   </trkpt>
   <trkpt lat="12.9139410" lon="99.6508890">
    <ele>74.3</ele>
    <time>2018-01-28T04:00:59Z</time>
   </trkpt>
   <trkpt lat="12.9139770" lon="99.6508440">
    <ele>74.2</ele>
    <time>2018-01-28T04:01:01Z</time>
   </trkpt>
   <trkpt lat="12.9140070" lon="99.6508210">
    <ele>74.2</ele>
    <time>2018-01-28T04:01:02Z</time>
   </trkpt>
   <trkpt lat="12.9140420" lon="99.6507970">
    <ele>74.1</ele>
    <time>2018-01-28T04:01:03Z</time>
   </trkpt>
   <trkpt lat="12.9140780" lon="99.6507730">
    <ele>74.0</ele>
    <time>2018-01-28T04:01:04Z</time>
   </trkpt>
   <trkpt lat="12.9141130" lon="99.6507450">
    <ele>74.1</ele>
    <time>2018-01-28T04:01:05Z</time>
   </trkpt>
   <trkpt lat="12.9141470" lon="99.6507170">
    <ele>73.7</ele>
    <time>2018-01-28T04:01:06Z</time>
   </trkpt>
   <trkpt lat="12.9141910" lon="99.6506960">
    <ele>73.1</ele>
    <time>2018-01-28T04:01:07Z</time>
   </trkpt>
   <trkpt lat="12.9142380" lon="99.6506790">
    <ele>72.4</ele>
    <time>2018-01-28T04:01:08Z</time>
   </trkpt>
   <trkpt lat="12.9142850" lon="99.6506560">
    <ele>71.9</ele>
    <time>2018-01-28T04:01:09Z</time>
   </trkpt>
   <trkpt lat="12.9143370" lon="99.6506270">
    <ele>71.4</ele>
    <time>2018-01-28T04:01:10Z</time>
   </trkpt>
   <trkpt lat="12.9143830" lon="99.6505910">
    <ele>70.7</ele>
    <time>2018-01-28T04:01:11Z</time>
   </trkpt>
   <trkpt lat="12.9144320" lon="99.6505580">
    <ele>69.4</ele>
    <time>2018-01-28T04:01:12Z</time>
   </trkpt>
   <trkpt lat="12.9144730" lon="99.6505210">
    <ele>69.0</ele>
    <time>2018-01-28T04:01:13Z</time>
   </trkpt>
   <trkpt lat="12.9145020" lon="99.6504710">
    <ele>69.2</ele>
    <time>2018-01-28T04:01:14Z</time>
   </trkpt>
   <trkpt lat="12.9145320" lon="99.6504260">
    <ele>68.8</ele>
    <time>2018-01-28T04:01:15Z</time>
   </trkpt>
   <trkpt lat="12.9145590" lon="99.6503750">
    <ele>68.2</ele>
    <time>2018-01-28T04:01:16Z</time>
   </trkpt>
   <trkpt lat="12.9145860" lon="99.6503290">
    <ele>68.6</ele>
    <time>2018-01-28T04:01:17Z</time>
   </trkpt>
   <trkpt lat="12.9146300" lon="99.6502910">
    <ele>67.9</ele>
    <time>2018-01-28T04:01:18Z</time>
   </trkpt>
   <trkpt lat="12.9146640" lon="99.6502470">
    <ele>67.5</ele>
    <time>2018-01-28T04:01:19Z</time>
   </trkpt>
   <trkpt lat="12.9147150" lon="99.6502000">
    <ele>67.5</ele>
    <time>2018-01-28T04:01:20Z</time>
   </trkpt>
   <trkpt lat="12.9147520" lon="99.6501650">
    <ele>67.0</ele>
    <time>2018-01-28T04:01:21Z</time>
   </trkpt>
   <trkpt lat="12.9147940" lon="99.6501300">
    <ele>67.0</ele>
    <time>2018-01-28T04:01:22Z</time>
   </trkpt>
   <trkpt lat="12.9148250" lon="99.6500920">
    <ele>67.1</ele>
    <time>2018-01-28T04:01:23Z</time>
   </trkpt>
   <trkpt lat="12.9148640" lon="99.6500560">
    <ele>67.1</ele>
    <time>2018-01-28T04:01:24Z</time>
   </trkpt>
   <trkpt lat="12.9148920" lon="99.6500150">
    <ele>67.1</ele>
    <time>2018-01-28T04:01:25Z</time>
   </trkpt>
   <trkpt lat="12.9149240" lon="99.6499740">
    <ele>67.7</ele>
    <time>2018-01-28T04:01:26Z</time>
   </trkpt>
   <trkpt lat="12.9149560" lon="99.6499300">
    <ele>68.0</ele>
    <time>2018-01-28T04:01:27Z</time>
   </trkpt>
   <trkpt lat="12.9149910" lon="99.6498920">
    <ele>68.3</ele>
    <time>2018-01-28T04:01:28Z</time>
   </trkpt>
   <trkpt lat="12.9150120" lon="99.6498430">
    <ele>69.1</ele>
    <time>2018-01-28T04:01:29Z</time>
   </trkpt>
   <trkpt lat="12.9150330" lon="99.6497930">
    <ele>69.6</ele>
    <time>2018-01-28T04:01:30Z</time>
   </trkpt>
   <trkpt lat="12.9150520" lon="99.6497530">
    <ele>70.6</ele>
    <time>2018-01-28T04:01:31Z</time>
   </trkpt>
   <trkpt lat="12.9150770" lon="99.6497080">
    <ele>71.1</ele>
    <time>2018-01-28T04:01:32Z</time>
   </trkpt>
   <trkpt lat="12.9151020" lon="99.6496670">
    <ele>71.6</ele>
    <time>2018-01-28T04:01:33Z</time>
   </trkpt>
   <trkpt lat="12.9151210" lon="99.6496180">
    <ele>72.6</ele>
    <time>2018-01-28T04:01:34Z</time>
   </trkpt>
   <trkpt lat="12.9151550" lon="99.6495670">
    <ele>73.0</ele>
    <time>2018-01-28T04:01:35Z</time>
   </trkpt>
   <trkpt lat="12.9151870" lon="99.6495220">
    <ele>73.2</ele>
    <time>2018-01-28T04:01:36Z</time>
   </trkpt>
   <trkpt lat="12.9152100" lon="99.6494640">
    <ele>74.8</ele>
    <time>2018-01-28T04:01:37Z</time>
   </trkpt>
   <trkpt lat="12.9152430" lon="99.6494240">
    <ele>74.8</ele>
    <time>2018-01-28T04:01:38Z</time>
   </trkpt>
   <trkpt lat="12.9152820" lon="99.6493790">
    <ele>74.8</ele>
    <time>2018-01-28T04:01:39Z</time>
   </trkpt>
   <trkpt lat="12.9153070" lon="99.6493400">
    <ele>75.4</ele>
    <time>2018-01-28T04:01:40Z</time>
   </trkpt>
   <trkpt lat="12.9153310" lon="99.6492900">
    <ele>75.3</ele>
    <time>2018-01-28T04:01:41Z</time>
   </trkpt>
   <trkpt lat="12.9153590" lon="99.6492470">
    <ele>75.3</ele>
    <time>2018-01-28T04:01:42Z</time>
   </trkpt>
   <trkpt lat="12.9153690" lon="99.6491970">
    <ele>75.8</ele>
    <time>2018-01-28T04:01:43Z</time>
   </trkpt>
   <trkpt lat="12.9153870" lon="99.6491550">
    <ele>76.1</ele>
    <time>2018-01-28T04:01:44Z</time>
   </trkpt>
   <trkpt lat="12.9153990" lon="99.6491090">
    <ele>75.8</ele>
    <time>2018-01-28T04:01:45Z</time>
   </trkpt>
   <trkpt lat="12.9154170" lon="99.6490690">
    <ele>75.9</ele>
    <time>2018-01-28T04:01:46Z</time>
   </trkpt>
   <trkpt lat="12.9154340" lon="99.6490270">
    <ele>76.0</ele>
    <time>2018-01-28T04:01:47Z</time>
   </trkpt>
   <trkpt lat="12.9154530" lon="99.6489840">
    <ele>76.0</ele>
    <time>2018-01-28T04:01:49Z</time>
   </trkpt>
   <trkpt lat="12.9154740" lon="99.6489490">
    <ele>76.2</ele>
    <time>2018-01-28T04:01:50Z</time>
   </trkpt>
   <trkpt lat="12.9154940" lon="99.6489230">
    <ele>76.0</ele>
    <time>2018-01-28T04:01:51Z</time>
   </trkpt>
   <trkpt lat="12.9156070" lon="99.6488020">
    <ele>76.1</ele>
    <time>2018-01-28T04:01:54Z</time>
   </trkpt>
   <trkpt lat="12.9156410" lon="99.6487820">
    <ele>76.9</ele>
    <time>2018-01-28T04:01:55Z</time>
   </trkpt>
   <trkpt lat="12.9156720" lon="99.6487610">
    <ele>76.8</ele>
    <time>2018-01-28T04:01:56Z</time>
   </trkpt>
   <trkpt lat="12.9157070" lon="99.6487450">
    <ele>77.0</ele>
    <time>2018-01-28T04:01:57Z</time>
   </trkpt>
   <trkpt lat="12.9157450" lon="99.6487250">
    <ele>78.0</ele>
    <time>2018-01-28T04:01:58Z</time>
   </trkpt>
   <trkpt lat="12.9157760" lon="99.6487070">
    <ele>78.2</ele>
    <time>2018-01-28T04:01:59Z</time>
   </trkpt>
   <trkpt lat="12.9158050" lon="99.6486860">
    <ele>79.0</ele>
    <time>2018-01-28T04:02:00Z</time>
   </trkpt>
   <trkpt lat="12.9158290" lon="99.6486660">
    <ele>79.1</ele>
    <time>2018-01-28T04:02:01Z</time>
   </trkpt>
   <trkpt lat="12.9158510" lon="99.6486470">
    <ele>79.6</ele>
    <time>2018-01-28T04:02:02Z</time>
   </trkpt>
   <trkpt lat="12.9158770" lon="99.6486220">
    <ele>79.3</ele>
    <time>2018-01-28T04:02:03Z</time>
   </trkpt>
   <trkpt lat="12.9159030" lon="99.6485970">
    <ele>79.3</ele>
    <time>2018-01-28T04:02:04Z</time>
   </trkpt>
   <trkpt lat="12.9159260" lon="99.6485710">
    <ele>79.6</ele>
    <time>2018-01-28T04:02:05Z</time>
   </trkpt>
   <trkpt lat="12.9159510" lon="99.6485410">
    <ele>79.3</ele>
    <time>2018-01-28T04:02:06Z</time>
   </trkpt>
   <trkpt lat="12.9159760" lon="99.6485070">
    <ele>79.5</ele>
    <time>2018-01-28T04:02:07Z</time>
   </trkpt>
   <trkpt lat="12.9159990" lon="99.6484700">
    <ele>79.6</ele>
    <time>2018-01-28T04:02:08Z</time>
   </trkpt>
   <trkpt lat="12.9160240" lon="99.6484310">
    <ele>79.9</ele>
    <time>2018-01-28T04:02:09Z</time>
   </trkpt>
   <trkpt lat="12.9160520" lon="99.6483880">
    <ele>80.1</ele>
    <time>2018-01-28T04:02:10Z</time>
   </trkpt>
   <trkpt lat="12.9160840" lon="99.6483420">
    <ele>80.3</ele>
    <time>2018-01-28T04:02:11Z</time>
   </trkpt>
   <trkpt lat="12.9161200" lon="99.6482950">
    <ele>80.6</ele>
    <time>2018-01-28T04:02:12Z</time>
   </trkpt>
   <trkpt lat="12.9161570" lon="99.6482500">
    <ele>80.8</ele>
    <time>2018-01-28T04:02:13Z</time>
   </trkpt>
   <trkpt lat="12.9161960" lon="99.6482110">
    <ele>81.1</ele>
    <time>2018-01-28T04:02:14Z</time>
   </trkpt>
   <trkpt lat="12.9162310" lon="99.6481790">
    <ele>81.3</ele>
    <time>2018-01-28T04:02:15Z</time>
   </trkpt>
   <trkpt lat="12.9162710" lon="99.6481440">
    <ele>81.3</ele>
    <time>2018-01-28T04:02:16Z</time>
   </trkpt>
   <trkpt lat="12.9163100" lon="99.6481090">
    <ele>81.6</ele>
    <time>2018-01-28T04:02:17Z</time>
   </trkpt>
   <trkpt lat="12.9163470" lon="99.6480760">
    <ele>81.9</ele>
    <time>2018-01-28T04:02:18Z</time>
   </trkpt>
   <trkpt lat="12.9163800" lon="99.6480420">
    <ele>81.9</ele>
    <time>2018-01-28T04:02:19Z</time>
   </trkpt>
   <trkpt lat="12.9164110" lon="99.6480080">
    <ele>81.9</ele>
    <time>2018-01-28T04:02:20Z</time>
   </trkpt>
   <trkpt lat="12.9164420" lon="99.6479770">
    <ele>81.4</ele>
    <time>2018-01-28T04:02:21Z</time>
   </trkpt>
   <trkpt lat="12.9164750" lon="99.6479480">
    <ele>81.8</ele>
    <time>2018-01-28T04:02:22Z</time>
   </trkpt>
   <trkpt lat="12.9165110" lon="99.6479170">
    <ele>81.4</ele>
    <time>2018-01-28T04:02:23Z</time>
   </trkpt>
   <trkpt lat="12.9165450" lon="99.6478870">
    <ele>80.7</ele>
    <time>2018-01-28T04:02:24Z</time>
   </trkpt>
   <trkpt lat="12.9165730" lon="99.6478590">
    <ele>80.2</ele>
    <time>2018-01-28T04:02:25Z</time>
   </trkpt>
   <trkpt lat="12.9166060" lon="99.6478310">
    <ele>79.7</ele>
    <time>2018-01-28T04:02:26Z</time>
   </trkpt>
   <trkpt lat="12.9166390" lon="99.6478010">
    <ele>79.6</ele>
    <time>2018-01-28T04:02:27Z</time>
   </trkpt>
   <trkpt lat="12.9166700" lon="99.6477720">
    <ele>79.2</ele>
    <time>2018-01-28T04:02:28Z</time>
   </trkpt>
   <trkpt lat="12.9167000" lon="99.6477420">
    <ele>79.0</ele>
    <time>2018-01-28T04:02:29Z</time>
   </trkpt>
   <trkpt lat="12.9167310" lon="99.6477080">
    <ele>79.2</ele>
    <time>2018-01-28T04:02:30Z</time>
   </trkpt>
   <trkpt lat="12.9167620" lon="99.6476730">
    <ele>78.7</ele>
    <time>2018-01-28T04:02:31Z</time>
   </trkpt>
   <trkpt lat="12.9167890" lon="99.6476370">
    <ele>78.4</ele>
    <time>2018-01-28T04:02:32Z</time>
   </trkpt>
   <trkpt lat="12.9168190" lon="99.6476010">
    <ele>78.2</ele>
    <time>2018-01-28T04:02:33Z</time>
   </trkpt>
   <trkpt lat="12.9168460" lon="99.6475680">
    <ele>78.5</ele>
    <time>2018-01-28T04:02:34Z</time>
   </trkpt>
   <trkpt lat="12.9168740" lon="99.6475330">
    <ele>78.5</ele>
    <time>2018-01-28T04:02:35Z</time>
   </trkpt>
   <trkpt lat="12.9169010" lon="99.6475020">
    <ele>78.2</ele>
    <time>2018-01-28T04:02:36Z</time>
   </trkpt>
   <trkpt lat="12.9169310" lon="99.6474700">
    <ele>78.4</ele>
    <time>2018-01-28T04:02:37Z</time>
   </trkpt>
   <trkpt lat="12.9169640" lon="99.6474380">
    <ele>78.4</ele>
    <time>2018-01-28T04:02:38Z</time>
   </trkpt>
   <trkpt lat="12.9169980" lon="99.6474100">
    <ele>78.1</ele>
    <time>2018-01-28T04:02:39Z</time>
   </trkpt>
   <trkpt lat="12.9170350" lon="99.6473810">
    <ele>77.9</ele>
    <time>2018-01-28T04:02:40Z</time>
   </trkpt>
   <trkpt lat="12.9170730" lon="99.6473510">
    <ele>77.9</ele>
    <time>2018-01-28T04:02:41Z</time>
   </trkpt>
   <trkpt lat="12.9171100" lon="99.6473210">
    <ele>78.0</ele>
    <time>2018-01-28T04:02:42Z</time>
   </trkpt>
   <trkpt lat="12.9171470" lon="99.6472890">
    <ele>78.0</ele>
    <time>2018-01-28T04:02:43Z</time>
   </trkpt>
   <trkpt lat="12.9171830" lon="99.6472580">
    <ele>78.3</ele>
    <time>2018-01-28T04:02:44Z</time>
   </trkpt>
   <trkpt lat="12.9172230" lon="99.6472300">
    <ele>79.0</ele>
    <time>2018-01-28T04:02:45Z</time>
   </trkpt>
   <trkpt lat="12.9172650" lon="99.6472050">
    <ele>79.1</ele>
    <time>2018-01-28T04:02:46Z</time>
   </trkpt>
   <trkpt lat="12.9173090" lon="99.6471830">
    <ele>79.6</ele>
    <time>2018-01-28T04:02:47Z</time>
   </trkpt>
   <trkpt lat="12.9173510" lon="99.6471660">
    <ele>79.6</ele>
    <time>2018-01-28T04:02:48Z</time>
   </trkpt>
   <trkpt lat="12.9173980" lon="99.6471510">
    <ele>79.6</ele>
    <time>2018-01-28T04:02:49Z</time>
   </trkpt>
   <trkpt lat="12.9174490" lon="99.6471360">
    <ele>79.2</ele>
    <time>2018-01-28T04:02:50Z</time>
   </trkpt>
   <trkpt lat="12.9174990" lon="99.6471180">
    <ele>79.0</ele>
    <time>2018-01-28T04:02:51Z</time>
   </trkpt>
   <trkpt lat="12.9175470" lon="99.6470930">
    <ele>79.0</ele>
    <time>2018-01-28T04:02:52Z</time>
   </trkpt>
   <trkpt lat="12.9175940" lon="99.6470690">
    <ele>79.0</ele>
    <time>2018-01-28T04:02:53Z</time>
   </trkpt>
   <trkpt lat="12.9176370" lon="99.6470460">
    <ele>79.0</ele>
    <time>2018-01-28T04:02:54Z</time>
   </trkpt>
   <trkpt lat="12.9176800" lon="99.6470230">
    <ele>79.0</ele>
    <time>2018-01-28T04:02:55Z</time>
   </trkpt>
   <trkpt lat="12.9177120" lon="99.6469970">
    <ele>79.1</ele>
    <time>2018-01-28T04:02:56Z</time>
   </trkpt>
   <trkpt lat="12.9177610" lon="99.6469480">
    <ele>79.1</ele>
    <time>2018-01-28T04:02:57Z</time>
   </trkpt>
   <trkpt lat="12.9177790" lon="99.6469070">
    <ele>79.0</ele>
    <time>2018-01-28T04:02:58Z</time>
   </trkpt>
   <trkpt lat="12.9177870" lon="99.6468570">
    <ele>79.0</ele>
    <time>2018-01-28T04:02:59Z</time>
   </trkpt>
   <trkpt lat="12.9177980" lon="99.6468060">
    <ele>78.9</ele>
    <time>2018-01-28T04:03:00Z</time>
   </trkpt>
   <trkpt lat="12.9178150" lon="99.6467580">
    <ele>78.9</ele>
    <time>2018-01-28T04:03:01Z</time>
   </trkpt>
   <trkpt lat="12.9178280" lon="99.6467110">
    <ele>79.0</ele>
    <time>2018-01-28T04:03:02Z</time>
   </trkpt>
   <trkpt lat="12.9178430" lon="99.6466670">
    <ele>78.9</ele>
    <time>2018-01-28T04:03:03Z</time>
   </trkpt>
   <trkpt lat="12.9178580" lon="99.6466240">
    <ele>78.9</ele>
    <time>2018-01-28T04:03:04Z</time>
   </trkpt>
   <trkpt lat="12.9178760" lon="99.6465840">
    <ele>78.9</ele>
    <time>2018-01-28T04:03:05Z</time>
   </trkpt>
   <trkpt lat="12.9178980" lon="99.6465510">
    <ele>78.8</ele>
    <time>2018-01-28T04:03:06Z</time>
   </trkpt>
   <trkpt lat="12.9179180" lon="99.6465170">
    <ele>78.7</ele>
    <time>2018-01-28T04:03:07Z</time>
   </trkpt>
   <trkpt lat="12.9179440" lon="99.6464830">
    <ele>78.5</ele>
    <time>2018-01-28T04:03:08Z</time>
   </trkpt>
   <trkpt lat="12.9179710" lon="99.6464480">
    <ele>78.2</ele>
    <time>2018-01-28T04:03:09Z</time>
   </trkpt>
   <trkpt lat="12.9179980" lon="99.6464150">
    <ele>77.9</ele>
    <time>2018-01-28T04:03:10Z</time>
   </trkpt>
   <trkpt lat="12.9180340" lon="99.6463840">
    <ele>77.9</ele>
    <time>2018-01-28T04:03:11Z</time>
   </trkpt>
   <trkpt lat="12.9180660" lon="99.6463550">
    <ele>78.1</ele>
    <time>2018-01-28T04:03:12Z</time>
   </trkpt>
   <trkpt lat="12.9180980" lon="99.6463250">
    <ele>78.3</ele>
    <time>2018-01-28T04:03:13Z</time>
   </trkpt>
   <trkpt lat="12.9181370" lon="99.6463000">
    <ele>78.3</ele>
    <time>2018-01-28T04:03:14Z</time>
   </trkpt>
   <trkpt lat="12.9181800" lon="99.6462840">
    <ele>78.6</ele>
    <time>2018-01-28T04:03:15Z</time>
   </trkpt>
   <trkpt lat="12.9182250" lon="99.6462700">
    <ele>78.6</ele>
    <time>2018-01-28T04:03:16Z</time>
   </trkpt>
   <trkpt lat="12.9182860" lon="99.6462390">
    <ele>78.8</ele>
    <time>2018-01-28T04:03:19Z</time>
   </trkpt>
   <trkpt lat="12.9183340" lon="99.6462180">
    <ele>78.8</ele>
    <time>2018-01-28T04:03:20Z</time>
   </trkpt>
   <trkpt lat="12.9183650" lon="99.6462050">
    <ele>79.3</ele>
    <time>2018-01-28T04:03:21Z</time>
   </trkpt>
   <trkpt lat="12.9184060" lon="99.6461900">
    <ele>79.6</ele>
    <time>2018-01-28T04:03:22Z</time>
   </trkpt>
   <trkpt lat="12.9184610" lon="99.6461730">
    <ele>79.8</ele>
    <time>2018-01-28T04:03:23Z</time>
   </trkpt>
   <trkpt lat="12.9185210" lon="99.6461540">
    <ele>80.3</ele>
    <time>2018-01-28T04:03:24Z</time>
   </trkpt>
   <trkpt lat="12.9185880" lon="99.6461310">
    <ele>81.1</ele>
    <time>2018-01-28T04:03:25Z</time>
   </trkpt>
   <trkpt lat="12.9186520" lon="99.6461060">
    <ele>81.9</ele>
    <time>2018-01-28T04:03:26Z</time>
   </trkpt>
   <trkpt lat="12.9187170" lon="99.6460840">
    <ele>82.3</ele>
    <time>2018-01-28T04:03:27Z</time>
   </trkpt>
   <trkpt lat="12.9187810" lon="99.6460650">
    <ele>82.7</ele>
    <time>2018-01-28T04:03:28Z</time>
   </trkpt>
   <trkpt lat="12.9188420" lon="99.6460490">
    <ele>82.7</ele>
    <time>2018-01-28T04:03:29Z</time>
   </trkpt>
   <trkpt lat="12.9189020" lon="99.6460320">
    <ele>83.0</ele>
    <time>2018-01-28T04:03:30Z</time>
   </trkpt>
   <trkpt lat="12.9189570" lon="99.6460120">
    <ele>83.2</ele>
    <time>2018-01-28T04:03:31Z</time>
   </trkpt>
   <trkpt lat="12.9190040" lon="99.6459880">
    <ele>84.0</ele>
    <time>2018-01-28T04:03:32Z</time>
   </trkpt>
   <trkpt lat="12.9190430" lon="99.6459610">
    <ele>84.0</ele>
    <time>2018-01-28T04:03:33Z</time>
   </trkpt>
   <trkpt lat="12.9190740" lon="99.6459290">
    <ele>84.5</ele>
    <time>2018-01-28T04:03:34Z</time>
   </trkpt>
   <trkpt lat="12.9190930" lon="99.6458920">
    <ele>84.8</ele>
    <time>2018-01-28T04:03:35Z</time>
   </trkpt>
   <trkpt lat="12.9191040" lon="99.6458500">
    <ele>85.0</ele>
    <time>2018-01-28T04:03:36Z</time>
   </trkpt>
   <trkpt lat="12.9191130" lon="99.6458080">
    <ele>85.2</ele>
    <time>2018-01-28T04:03:37Z</time>
   </trkpt>
   <trkpt lat="12.9191220" lon="99.6457700">
    <ele>85.5</ele>
    <time>2018-01-28T04:03:38Z</time>
   </trkpt>
   <trkpt lat="12.9191290" lon="99.6457330">
    <ele>85.5</ele>
    <time>2018-01-28T04:03:39Z</time>
   </trkpt>
   <trkpt lat="12.9191350" lon="99.6456980">
    <ele>85.5</ele>
    <time>2018-01-28T04:03:40Z</time>
   </trkpt>
   <trkpt lat="12.9191390" lon="99.6456630">
    <ele>85.5</ele>
    <time>2018-01-28T04:03:41Z</time>
   </trkpt>
   <trkpt lat="12.9191460" lon="99.6456300">
    <ele>85.4</ele>
    <time>2018-01-28T04:03:42Z</time>
   </trkpt>
   <trkpt lat="12.9191580" lon="99.6455990">
    <ele>85.5</ele>
    <time>2018-01-28T04:03:43Z</time>
   </trkpt>
   <trkpt lat="12.9191750" lon="99.6455700">
    <ele>85.5</ele>
    <time>2018-01-28T04:03:44Z</time>
   </trkpt>
   <trkpt lat="12.9191910" lon="99.6455450">
    <ele>85.4</ele>
    <time>2018-01-28T04:03:45Z</time>
   </trkpt>
   <trkpt lat="12.9192130" lon="99.6455010">
    <ele>85.4</ele>
    <time>2018-01-28T04:03:47Z</time>
   </trkpt>
   <trkpt lat="12.9192230" lon="99.6454550">
    <ele>85.4</ele>
    <time>2018-01-28T04:03:49Z</time>
   </trkpt>
   <trkpt lat="12.9192300" lon="99.6454030">
    <ele>85.4</ele>
    <time>2018-01-28T04:03:51Z</time>
   </trkpt>
   <trkpt lat="12.9192360" lon="99.6453540">
    <ele>85.4</ele>
    <time>2018-01-28T04:03:53Z</time>
   </trkpt>
   <trkpt lat="12.9192420" lon="99.6453140">
    <ele>85.4</ele>
    <time>2018-01-28T04:03:55Z</time>
   </trkpt>
   <trkpt lat="12.9192440" lon="99.6452780">
    <ele>85.4</ele>
    <time>2018-01-28T04:03:57Z</time>
   </trkpt>
   <trkpt lat="12.9192390" lon="99.6452490">
    <ele>85.4</ele>
    <time>2018-01-28T04:03:59Z</time>
   </trkpt>
   <trkpt lat="12.9192130" lon="99.6452340">
    <ele>85.4</ele>
    <time>2018-01-28T04:04:23Z</time>
   </trkpt>
   <trkpt lat="12.9191980" lon="99.6452020">
    <ele>85.6</ele>
    <time>2018-01-28T04:04:25Z</time>
   </trkpt>
   <trkpt lat="12.9191890" lon="99.6451710">
    <ele>85.9</ele>
    <time>2018-01-28T04:04:27Z</time>
   </trkpt>
   <trkpt lat="12.9191800" lon="99.6451330">
    <ele>86.3</ele>
    <time>2018-01-28T04:04:29Z</time>
   </trkpt>
   <trkpt lat="12.9191680" lon="99.6451060">
    <ele>86.3</ele>
    <time>2018-01-28T04:04:30Z</time>
   </trkpt>
   <trkpt lat="12.9191520" lon="99.6450770">
    <ele>86.2</ele>
    <time>2018-01-28T04:04:31Z</time>
   </trkpt>
   <trkpt lat="12.9191350" lon="99.6450490">
    <ele>86.2</ele>
    <time>2018-01-28T04:04:32Z</time>
   </trkpt>
   <trkpt lat="12.9191190" lon="99.6450200">
    <ele>86.2</ele>
    <time>2018-01-28T04:04:33Z</time>
   </trkpt>
   <trkpt lat="12.9191020" lon="99.6449880">
    <ele>86.0</ele>
    <time>2018-01-28T04:04:34Z</time>
   </trkpt>
   <trkpt lat="12.9190870" lon="99.6449540">
    <ele>86.0</ele>
    <time>2018-01-28T04:04:35Z</time>
   </trkpt>
   <trkpt lat="12.9190740" lon="99.6449190">
    <ele>85.9</ele>
    <time>2018-01-28T04:04:36Z</time>
   </trkpt>
   <trkpt lat="12.9190590" lon="99.6448760">
    <ele>85.6</ele>
    <time>2018-01-28T04:04:37Z</time>
   </trkpt>
   <trkpt lat="12.9190520" lon="99.6448290">
    <ele>85.4</ele>
    <time>2018-01-28T04:04:38Z</time>
   </trkpt>
   <trkpt lat="12.9190460" lon="99.6447800">
    <ele>85.3</ele>
    <time>2018-01-28T04:04:39Z</time>
   </trkpt>
   <trkpt lat="12.9190470" lon="99.6447320">
    <ele>85.1</ele>
    <time>2018-01-28T04:04:40Z</time>
   </trkpt>
   <trkpt lat="12.9190490" lon="99.6446830">
    <ele>85.0</ele>
    <time>2018-01-28T04:04:41Z</time>
   </trkpt>
   <trkpt lat="12.9190490" lon="99.6446420">
    <ele>84.8</ele>
    <time>2018-01-28T04:04:42Z</time>
   </trkpt>
   <trkpt lat="12.9190450" lon="99.6445800">
    <ele>84.7</ele>
    <time>2018-01-28T04:04:43Z</time>
   </trkpt>
   <trkpt lat="12.9190480" lon="99.6445280">
    <ele>84.6</ele>
    <time>2018-01-28T04:04:44Z</time>
   </trkpt>
   <trkpt lat="12.9190550" lon="99.6444740">
    <ele>84.7</ele>
    <time>2018-01-28T04:04:45Z</time>
   </trkpt>
   <trkpt lat="12.9190640" lon="99.6444210">
    <ele>84.8</ele>
    <time>2018-01-28T04:04:46Z</time>
   </trkpt>
   <trkpt lat="12.9190720" lon="99.6443670">
    <ele>85.0</ele>
    <time>2018-01-28T04:04:47Z</time>
   </trkpt>
   <trkpt lat="12.9190860" lon="99.6443120">
    <ele>85.9</ele>
    <time>2018-01-28T04:04:48Z</time>
   </trkpt>
   <trkpt lat="12.9191050" lon="99.6442640">
    <ele>86.2</ele>
    <time>2018-01-28T04:04:49Z</time>
   </trkpt>
   <trkpt lat="12.9191260" lon="99.6442160">
    <ele>86.9</ele>
    <time>2018-01-28T04:04:50Z</time>
   </trkpt>
   <trkpt lat="12.9191440" lon="99.6441730">
    <ele>86.8</ele>
    <time>2018-01-28T04:04:51Z</time>
   </trkpt>
   <trkpt lat="12.9191630" lon="99.6441150">
    <ele>87.0</ele>
    <time>2018-01-28T04:04:52Z</time>
   </trkpt>
   <trkpt lat="12.9191830" lon="99.6440570">
    <ele>86.5</ele>
    <time>2018-01-28T04:04:53Z</time>
   </trkpt>
   <trkpt lat="12.9191980" lon="99.6440050">
    <ele>86.1</ele>
    <time>2018-01-28T04:04:54Z</time>
   </trkpt>
   <trkpt lat="12.9192210" lon="99.6439540">
    <ele>86.1</ele>
    <time>2018-01-28T04:04:55Z</time>
   </trkpt>
   <trkpt lat="12.9192570" lon="99.6439090">
    <ele>86.1</ele>
    <time>2018-01-28T04:04:56Z</time>
   </trkpt>
   <trkpt lat="12.9192910" lon="99.6438670">
    <ele>86.0</ele>
    <time>2018-01-28T04:04:57Z</time>
   </trkpt>
   <trkpt lat="12.9193270" lon="99.6438270">
    <ele>86.4</ele>
    <time>2018-01-28T04:04:58Z</time>
   </trkpt>
   <trkpt lat="12.9193870" lon="99.6437950">
    <ele>86.7</ele>
    <time>2018-01-28T04:04:59Z</time>
   </trkpt>
   <trkpt lat="12.9194280" lon="99.6437660">
    <ele>87.6</ele>
    <time>2018-01-28T04:05:00Z</time>
   </trkpt>
   <trkpt lat="12.9194720" lon="99.6437430">
    <ele>87.8</ele>
    <time>2018-01-28T04:05:01Z</time>
   </trkpt>
   <trkpt lat="12.9195090" lon="99.6437170">
    <ele>88.1</ele>
    <time>2018-01-28T04:05:02Z</time>
   </trkpt>
   <trkpt lat="12.9195340" lon="99.6436950">
    <ele>88.1</ele>
    <time>2018-01-28T04:05:03Z</time>
   </trkpt>
   <trkpt lat="12.9195620" lon="99.6436680">
    <ele>88.7</ele>
    <time>2018-01-28T04:05:04Z</time>
   </trkpt>
   <trkpt lat="12.9195840" lon="99.6436450">
    <ele>89.9</ele>
    <time>2018-01-28T04:05:06Z</time>
   </trkpt>
   <trkpt lat="12.9196120" lon="99.6436220">
    <ele>89.2</ele>
    <time>2018-01-28T04:05:07Z</time>
   </trkpt>
   <trkpt lat="12.9196440" lon="99.6435970">
    <ele>90.4</ele>
    <time>2018-01-28T04:05:08Z</time>
   </trkpt>
   <trkpt lat="12.9196900" lon="99.6435670">
    <ele>90.5</ele>
    <time>2018-01-28T04:05:09Z</time>
   </trkpt>
   <trkpt lat="12.9197330" lon="99.6435370">
    <ele>90.5</ele>
    <time>2018-01-28T04:05:11Z</time>
   </trkpt>
   <trkpt lat="12.9197730" lon="99.6435040">
    <ele>90.3</ele>
    <time>2018-01-28T04:05:13Z</time>
   </trkpt>
   <trkpt lat="12.9197950" lon="99.6434860">
    <ele>91.0</ele>
    <time>2018-01-28T04:05:14Z</time>
   </trkpt>
   <trkpt lat="12.9198200" lon="99.6434710">
    <ele>91.0</ele>
    <time>2018-01-28T04:05:15Z</time>
   </trkpt>
   <trkpt lat="12.9198590" lon="99.6434370">
    <ele>90.6</ele>
    <time>2018-01-28T04:05:17Z</time>
   </trkpt>
   <trkpt lat="12.9198820" lon="99.6434180">
    <ele>90.2</ele>
    <time>2018-01-28T04:05:18Z</time>
   </trkpt>
   <trkpt lat="12.9199070" lon="99.6433980">
    <ele>90.2</ele>
    <time>2018-01-28T04:05:19Z</time>
   </trkpt>
   <trkpt lat="12.9199350" lon="99.6433760">
    <ele>89.6</ele>
    <time>2018-01-28T04:05:20Z</time>
   </trkpt>
   <trkpt lat="12.9199660" lon="99.6433550">
    <ele>90.1</ele>
    <time>2018-01-28T04:05:21Z</time>
   </trkpt>
   <trkpt lat="12.9200060" lon="99.6433270">
    <ele>89.3</ele>
    <time>2018-01-28T04:05:22Z</time>
   </trkpt>
   <trkpt lat="12.9200390" lon="99.6433000">
    <ele>89.6</ele>
    <time>2018-01-28T04:05:23Z</time>
   </trkpt>
   <trkpt lat="12.9200600" lon="99.6432710">
    <ele>88.7</ele>
    <time>2018-01-28T04:05:24Z</time>
   </trkpt>
   <trkpt lat="12.9200760" lon="99.6432380">
    <ele>87.8</ele>
    <time>2018-01-28T04:05:25Z</time>
   </trkpt>
   <trkpt lat="12.9200820" lon="99.6432080">
    <ele>88.2</ele>
    <time>2018-01-28T04:05:26Z</time>
   </trkpt>
   <trkpt lat="12.9200810" lon="99.6431710">
    <ele>87.4</ele>
    <time>2018-01-28T04:05:27Z</time>
   </trkpt>
   <trkpt lat="12.9200770" lon="99.6431160">
    <ele>85.7</ele>
    <time>2018-01-28T04:05:29Z</time>
   </trkpt>
   <trkpt lat="12.9200700" lon="99.6430730">
    <ele>85.2</ele>
    <time>2018-01-28T04:05:30Z</time>
   </trkpt>
   <trkpt lat="12.9200680" lon="99.6430130">
    <ele>84.7</ele>
    <time>2018-01-28T04:05:31Z</time>
   </trkpt>
   <trkpt lat="12.9200660" lon="99.6429560">
    <ele>84.5</ele>
    <time>2018-01-28T04:05:32Z</time>
   </trkpt>
   <trkpt lat="12.9200650" lon="99.6428920">
    <ele>84.2</ele>
    <time>2018-01-28T04:05:33Z</time>
   </trkpt>
   <trkpt lat="12.9200690" lon="99.6428240">
    <ele>84.1</ele>
    <time>2018-01-28T04:05:34Z</time>
   </trkpt>
   <trkpt lat="12.9200750" lon="99.6427600">
    <ele>83.9</ele>
    <time>2018-01-28T04:05:35Z</time>
   </trkpt>
   <trkpt lat="12.9200950" lon="99.6427020">
    <ele>83.8</ele>
    <time>2018-01-28T04:05:36Z</time>
   </trkpt>
   <trkpt lat="12.9201400" lon="99.6426380">
    <ele>83.5</ele>
    <time>2018-01-28T04:05:37Z</time>
   </trkpt>
   <trkpt lat="12.9201780" lon="99.6425810">
    <ele>83.2</ele>
    <time>2018-01-28T04:05:38Z</time>
   </trkpt>
   <trkpt lat="12.9202380" lon="99.6425290">
    <ele>82.9</ele>
    <time>2018-01-28T04:05:39Z</time>
   </trkpt>
   <trkpt lat="12.9202820" lon="99.6424700">
    <ele>82.6</ele>
    <time>2018-01-28T04:05:40Z</time>
   </trkpt>
   <trkpt lat="12.9203360" lon="99.6424100">
    <ele>82.6</ele>
    <time>2018-01-28T04:05:41Z</time>
   </trkpt>
   <trkpt lat="12.9203880" lon="99.6423460">
    <ele>82.9</ele>
    <time>2018-01-28T04:05:42Z</time>
   </trkpt>
   <trkpt lat="12.9204310" lon="99.6422890">
    <ele>83.1</ele>
    <time>2018-01-28T04:05:43Z</time>
   </trkpt>
   <trkpt lat="12.9204910" lon="99.6422360">
    <ele>83.1</ele>
    <time>2018-01-28T04:05:44Z</time>
   </trkpt>
   <trkpt lat="12.9205310" lon="99.6421800">
    <ele>83.0</ele>
    <time>2018-01-28T04:05:45Z</time>
   </trkpt>
   <trkpt lat="12.9205710" lon="99.6421300">
    <ele>82.7</ele>
    <time>2018-01-28T04:05:46Z</time>
   </trkpt>
   <trkpt lat="12.9206100" lon="99.6420830">
    <ele>82.5</ele>
    <time>2018-01-28T04:05:47Z</time>
   </trkpt>
   <trkpt lat="12.9206490" lon="99.6420380">
    <ele>82.2</ele>
    <time>2018-01-28T04:05:48Z</time>
   </trkpt>
   <trkpt lat="12.9206980" lon="99.6419950">
    <ele>82.0</ele>
    <time>2018-01-28T04:05:49Z</time>
   </trkpt>
   <trkpt lat="12.9207300" lon="99.6419540">
    <ele>82.5</ele>
    <time>2018-01-28T04:05:50Z</time>
   </trkpt>
   <trkpt lat="12.9207740" lon="99.6419220">
    <ele>83.0</ele>
    <time>2018-01-28T04:05:51Z</time>
   </trkpt>
   <trkpt lat="12.9208150" lon="99.6418880">
    <ele>84.0</ele>
    <time>2018-01-28T04:05:52Z</time>
   </trkpt>
   <trkpt lat="12.9208510" lon="99.6418500">
    <ele>85.2</ele>
    <time>2018-01-28T04:05:53Z</time>
   </trkpt>
   <trkpt lat="12.9208700" lon="99.6418060">
    <ele>85.7</ele>
    <time>2018-01-28T04:05:54Z</time>
   </trkpt>
   <trkpt lat="12.9208740" lon="99.6417660">
    <ele>87.1</ele>
    <time>2018-01-28T04:05:55Z</time>
   </trkpt>
   <trkpt lat="12.9208920" lon="99.6417340">
    <ele>87.8</ele>
    <time>2018-01-28T04:05:56Z</time>
   </trkpt>
   <trkpt lat="12.9209030" lon="99.6416890">
    <ele>88.6</ele>
    <time>2018-01-28T04:05:57Z</time>
   </trkpt>
   <trkpt lat="12.9209090" lon="99.6416510">
    <ele>89.3</ele>
    <time>2018-01-28T04:05:58Z</time>
   </trkpt>
   <trkpt lat="12.9209090" lon="99.6416140">
    <ele>89.7</ele>
    <time>2018-01-28T04:05:59Z</time>
   </trkpt>
   <trkpt lat="12.9209330" lon="99.6415350">
    <ele>90.6</ele>
    <time>2018-01-28T04:06:03Z</time>
   </trkpt>
   <trkpt lat="12.9209460" lon="99.6415020">
    <ele>90.8</ele>
    <time>2018-01-28T04:06:04Z</time>
   </trkpt>
   <trkpt lat="12.9209880" lon="99.6412760">
    <ele>90.3</ele>
    <time>2018-01-28T04:06:06Z</time>
   </trkpt>
   <trkpt lat="12.9209900" lon="99.6412210">
    <ele>88.9</ele>
    <time>2018-01-28T04:06:07Z</time>
   </trkpt>
   <trkpt lat="12.9210000" lon="99.6411650">
    <ele>89.0</ele>
    <time>2018-01-28T04:06:08Z</time>
   </trkpt>
   <trkpt lat="12.9210110" lon="99.6411170">
    <ele>88.3</ele>
    <time>2018-01-28T04:06:09Z</time>
   </trkpt>
   <trkpt lat="12.9210230" lon="99.6410640">
    <ele>87.6</ele>
    <time>2018-01-28T04:06:10Z</time>
   </trkpt>
   <trkpt lat="12.9210280" lon="99.6410090">
    <ele>86.0</ele>
    <time>2018-01-28T04:06:11Z</time>
   </trkpt>
   <trkpt lat="12.9210370" lon="99.6409530">
    <ele>85.3</ele>
    <time>2018-01-28T04:06:12Z</time>
   </trkpt>
   <trkpt lat="12.9210440" lon="99.6409020">
    <ele>85.5</ele>
    <time>2018-01-28T04:06:13Z</time>
   </trkpt>
   <trkpt lat="12.9210440" lon="99.6408580">
    <ele>84.8</ele>
    <time>2018-01-28T04:06:14Z</time>
   </trkpt>
   <trkpt lat="12.9210460" lon="99.6408160">
    <ele>84.0</ele>
    <time>2018-01-28T04:06:15Z</time>
   </trkpt>
   <trkpt lat="12.9210640" lon="99.6407670">
    <ele>83.2</ele>
    <time>2018-01-28T04:06:16Z</time>
   </trkpt>
   <trkpt lat="12.9210840" lon="99.6407280">
    <ele>83.4</ele>
    <time>2018-01-28T04:06:17Z</time>
   </trkpt>
   <trkpt lat="12.9210890" lon="99.6406670">
    <ele>81.6</ele>
    <time>2018-01-28T04:06:18Z</time>
   </trkpt>
   <trkpt lat="12.9211030" lon="99.6406060">
    <ele>80.6</ele>
    <time>2018-01-28T04:06:19Z</time>
   </trkpt>
   <trkpt lat="12.9211210" lon="99.6405330">
    <ele>79.7</ele>
    <time>2018-01-28T04:06:20Z</time>
   </trkpt>
   <trkpt lat="12.9211440" lon="99.6404610">
    <ele>79.8</ele>
    <time>2018-01-28T04:06:21Z</time>
   </trkpt>
   <trkpt lat="12.9211530" lon="99.6403810">
    <ele>79.1</ele>
    <time>2018-01-28T04:06:22Z</time>
   </trkpt>
   <trkpt lat="12.9211670" lon="99.6402960">
    <ele>79.4</ele>
    <time>2018-01-28T04:06:23Z</time>
   </trkpt>
   <trkpt lat="12.9211690" lon="99.6402130">
    <ele>79.3</ele>
    <time>2018-01-28T04:06:24Z</time>
   </trkpt>
   <trkpt lat="12.9211840" lon="99.6401470">
    <ele>79.2</ele>
    <time>2018-01-28T04:06:25Z</time>
   </trkpt>
   <trkpt lat="12.9211860" lon="99.6400860">
    <ele>79.1</ele>
    <time>2018-01-28T04:06:26Z</time>
   </trkpt>
   <trkpt lat="12.9211980" lon="99.6400320">
    <ele>79.0</ele>
    <time>2018-01-28T04:06:27Z</time>
   </trkpt>
   <trkpt lat="12.9212040" lon="99.6399820">
    <ele>78.4</ele>
    <time>2018-01-28T04:06:28Z</time>
   </trkpt>
   <trkpt lat="12.9212060" lon="99.6399210">
    <ele>78.2</ele>
    <time>2018-01-28T04:06:29Z</time>
   </trkpt>
   <trkpt lat="12.9212090" lon="99.6398650">
    <ele>77.8</ele>
    <time>2018-01-28T04:06:30Z</time>
   </trkpt>
   <trkpt lat="12.9212150" lon="99.6398030">
    <ele>76.8</ele>
    <time>2018-01-28T04:06:31Z</time>
   </trkpt>
   <trkpt lat="12.9212180" lon="99.6397350">
    <ele>76.3</ele>
    <time>2018-01-28T04:06:32Z</time>
   </trkpt>
   <trkpt lat="12.9212270" lon="99.6396650">
    <ele>75.3</ele>
    <time>2018-01-28T04:06:33Z</time>
   </trkpt>
   <trkpt lat="12.9212340" lon="99.6395930">
    <ele>74.3</ele>
    <time>2018-01-28T04:06:34Z</time>
   </trkpt>
   <trkpt lat="12.9212380" lon="99.6395250">
    <ele>73.9</ele>
    <time>2018-01-28T04:06:35Z</time>
   </trkpt>
   <trkpt lat="12.9212370" lon="99.6394570">
    <ele>73.7</ele>
    <time>2018-01-28T04:06:36Z</time>
   </trkpt>
   <trkpt lat="12.9212400" lon="99.6393910">
    <ele>73.6</ele>
    <time>2018-01-28T04:06:37Z</time>
   </trkpt>
   <trkpt lat="12.9212310" lon="99.6393160">
    <ele>73.5</ele>
    <time>2018-01-28T04:06:38Z</time>
   </trkpt>
   <trkpt lat="12.9212400" lon="99.6392570">
    <ele>73.5</ele>
    <time>2018-01-28T04:06:39Z</time>
   </trkpt>
   <trkpt lat="12.9212380" lon="99.6392000">
    <ele>73.4</ele>
    <time>2018-01-28T04:06:40Z</time>
   </trkpt>
   <trkpt lat="12.9212340" lon="99.6391290">
    <ele>73.1</ele>
    <time>2018-01-28T04:06:41Z</time>
   </trkpt>
   <trkpt lat="12.9212390" lon="99.6390690">
    <ele>73.0</ele>
    <time>2018-01-28T04:06:42Z</time>
   </trkpt>
   <trkpt lat="12.9212430" lon="99.6390070">
    <ele>72.9</ele>
    <time>2018-01-28T04:06:43Z</time>
   </trkpt>
   <trkpt lat="12.9212500" lon="99.6389410">
    <ele>72.9</ele>
    <time>2018-01-28T04:06:44Z</time>
   </trkpt>
   <trkpt lat="12.9212770" lon="99.6388800">
    <ele>72.9</ele>
    <time>2018-01-28T04:06:45Z</time>
   </trkpt>
   <trkpt lat="12.9212680" lon="99.6388120">
    <ele>73.2</ele>
    <time>2018-01-28T04:06:46Z</time>
   </trkpt>
   <trkpt lat="12.9212750" lon="99.6387420">
    <ele>73.7</ele>
    <time>2018-01-28T04:06:47Z</time>
   </trkpt>
   <trkpt lat="12.9212740" lon="99.6386480">
    <ele>73.8</ele>
    <time>2018-01-28T04:06:48Z</time>
   </trkpt>
   <trkpt lat="12.9212730" lon="99.6385820">
    <ele>73.8</ele>
    <time>2018-01-28T04:06:49Z</time>
   </trkpt>
   <trkpt lat="12.9212690" lon="99.6385100">
    <ele>73.7</ele>
    <time>2018-01-28T04:06:50Z</time>
   </trkpt>
   <trkpt lat="12.9212560" lon="99.6384410">
    <ele>73.2</ele>
    <time>2018-01-28T04:06:51Z</time>
   </trkpt>
   <trkpt lat="12.9212550" lon="99.6383680">
    <ele>72.9</ele>
    <time>2018-01-28T04:06:52Z</time>
   </trkpt>
   <trkpt lat="12.9212550" lon="99.6383030">
    <ele>72.4</ele>
    <time>2018-01-28T04:06:53Z</time>
   </trkpt>
   <trkpt lat="12.9212620" lon="99.6382380">
    <ele>72.2</ele>
    <time>2018-01-28T04:06:54Z</time>
   </trkpt>
   <trkpt lat="12.9212540" lon="99.6381580">
    <ele>71.8</ele>
    <time>2018-01-28T04:06:55Z</time>
   </trkpt>
   <trkpt lat="12.9212440" lon="99.6380760">
    <ele>71.7</ele>
    <time>2018-01-28T04:06:56Z</time>
   </trkpt>
   <trkpt lat="12.9212400" lon="99.6380030">
    <ele>71.8</ele>
    <time>2018-01-28T04:06:57Z</time>
   </trkpt>
   <trkpt lat="12.9212320" lon="99.6379350">
    <ele>72.1</ele>
    <time>2018-01-28T04:06:58Z</time>
   </trkpt>
   <trkpt lat="12.9212240" lon="99.6378710">
    <ele>72.5</ele>
    <time>2018-01-28T04:06:59Z</time>
   </trkpt>
   <trkpt lat="12.9212190" lon="99.6378020">
    <ele>72.8</ele>
    <time>2018-01-28T04:07:00Z</time>
   </trkpt>
   <trkpt lat="12.9212250" lon="99.6377340">
    <ele>73.3</ele>
    <time>2018-01-28T04:07:01Z</time>
   </trkpt>
   <trkpt lat="12.9212160" lon="99.6376600">
    <ele>73.7</ele>
    <time>2018-01-28T04:07:02Z</time>
   </trkpt>
   <trkpt lat="12.9212090" lon="99.6376110">
    <ele>73.8</ele>
    <time>2018-01-28T04:07:03Z</time>
   </trkpt>
   <trkpt lat="12.9212140" lon="99.6375460">
    <ele>73.9</ele>
    <time>2018-01-28T04:07:04Z</time>
   </trkpt>
   <trkpt lat="12.9212000" lon="99.6374950">
    <ele>73.9</ele>
    <time>2018-01-28T04:07:05Z</time>
   </trkpt>
   <trkpt lat="12.9211920" lon="99.6374470">
    <ele>74.1</ele>
    <time>2018-01-28T04:07:06Z</time>
   </trkpt>
   <trkpt lat="12.9211890" lon="99.6374090">
    <ele>74.4</ele>
    <time>2018-01-28T04:07:07Z</time>
   </trkpt>
   <trkpt lat="12.9211780" lon="99.6373670">
    <ele>74.6</ele>
    <time>2018-01-28T04:07:08Z</time>
   </trkpt>
   <trkpt lat="12.9211700" lon="99.6373300">
    <ele>74.6</ele>
    <time>2018-01-28T04:07:09Z</time>
   </trkpt>
   <trkpt lat="12.9211700" lon="99.6372890">
    <ele>74.7</ele>
    <time>2018-01-28T04:07:10Z</time>
   </trkpt>
   <trkpt lat="12.9211680" lon="99.6372390">
    <ele>74.6</ele>
    <time>2018-01-28T04:07:11Z</time>
   </trkpt>
   <trkpt lat="12.9211680" lon="99.6371880">
    <ele>74.6</ele>
    <time>2018-01-28T04:07:12Z</time>
   </trkpt>
   <trkpt lat="12.9211540" lon="99.6371280">
    <ele>74.2</ele>
    <time>2018-01-28T04:07:13Z</time>
   </trkpt>
   <trkpt lat="12.9211390" lon="99.6370590">
    <ele>72.7</ele>
    <time>2018-01-28T04:07:14Z</time>
   </trkpt>
   <trkpt lat="12.9211140" lon="99.6369900">
    <ele>71.7</ele>
    <time>2018-01-28T04:07:15Z</time>
   </trkpt>
   <trkpt lat="12.9210820" lon="99.6369220">
    <ele>70.9</ele>
    <time>2018-01-28T04:07:16Z</time>
   </trkpt>
   <trkpt lat="12.9210530" lon="99.6368500">
    <ele>70.1</ele>
    <time>2018-01-28T04:07:17Z</time>
   </trkpt>
   <trkpt lat="12.9210180" lon="99.6367780">
    <ele>69.7</ele>
    <time>2018-01-28T04:07:18Z</time>
   </trkpt>
   <trkpt lat="12.9209860" lon="99.6367080">
    <ele>69.5</ele>
    <time>2018-01-28T04:07:19Z</time>
   </trkpt>
   <trkpt lat="12.9209490" lon="99.6366390">
    <ele>69.4</ele>
    <time>2018-01-28T04:07:20Z</time>
   </trkpt>
   <trkpt lat="12.9209150" lon="99.6365710">
    <ele>69.4</ele>
    <time>2018-01-28T04:07:21Z</time>
   </trkpt>
   <trkpt lat="12.9208780" lon="99.6365030">
    <ele>69.0</ele>
    <time>2018-01-28T04:07:22Z</time>
   </trkpt>
   <trkpt lat="12.9208420" lon="99.6364430">
    <ele>68.6</ele>
    <time>2018-01-28T04:07:23Z</time>
   </trkpt>
   <trkpt lat="12.9208150" lon="99.6363680">
    <ele>68.6</ele>
    <time>2018-01-28T04:07:24Z</time>
   </trkpt>
   <trkpt lat="12.9207860" lon="99.6363000">
    <ele>69.1</ele>
    <time>2018-01-28T04:07:25Z</time>
   </trkpt>
   <trkpt lat="12.9207610" lon="99.6362290">
    <ele>69.1</ele>
    <time>2018-01-28T04:07:26Z</time>
   </trkpt>
   <trkpt lat="12.9207310" lon="99.6361580">
    <ele>68.9</ele>
    <time>2018-01-28T04:07:27Z</time>
   </trkpt>
   <trkpt lat="12.9206970" lon="99.6360850">
    <ele>68.6</ele>
    <time>2018-01-28T04:07:28Z</time>
   </trkpt>
   <trkpt lat="12.9206720" lon="99.6360160">
    <ele>69.2</ele>
    <time>2018-01-28T04:07:29Z</time>
   </trkpt>
   <trkpt lat="12.9206410" lon="99.6359580">
    <ele>69.3</ele>
    <time>2018-01-28T04:07:30Z</time>
   </trkpt>
   <trkpt lat="12.9206160" lon="99.6358920">
    <ele>69.8</ele>
    <time>2018-01-28T04:07:31Z</time>
   </trkpt>
   <trkpt lat="12.9205870" lon="99.6358240">
    <ele>69.9</ele>
    <time>2018-01-28T04:07:32Z</time>
   </trkpt>
   <trkpt lat="12.9205570" lon="99.6357650">
    <ele>69.7</ele>
    <time>2018-01-28T04:07:33Z</time>
   </trkpt>
   <trkpt lat="12.9205300" lon="99.6356990">
    <ele>69.3</ele>
    <time>2018-01-28T04:07:34Z</time>
   </trkpt>
   <trkpt lat="12.9205020" lon="99.6356330">
    <ele>69.0</ele>
    <time>2018-01-28T04:07:35Z</time>
   </trkpt>
   <trkpt lat="12.9204770" lon="99.6355700">
    <ele>68.3</ele>
    <time>2018-01-28T04:07:36Z</time>
   </trkpt>
   <trkpt lat="12.9204540" lon="99.6355110">
    <ele>68.1</ele>
    <time>2018-01-28T04:07:37Z</time>
   </trkpt>
   <trkpt lat="12.9204310" lon="99.6354480">
    <ele>68.0</ele>
    <time>2018-01-28T04:07:38Z</time>
   </trkpt>
   <trkpt lat="12.9204040" lon="99.6353820">
    <ele>67.8</ele>
    <time>2018-01-28T04:07:39Z</time>
   </trkpt>
   <trkpt lat="12.9203900" lon="99.6353130">
    <ele>67.9</ele>
    <time>2018-01-28T04:07:40Z</time>
   </trkpt>
   <trkpt lat="12.9203690" lon="99.6352460">
    <ele>67.6</ele>
    <time>2018-01-28T04:07:41Z</time>
   </trkpt>
   <trkpt lat="12.9203430" lon="99.6352070">
    <ele>67.9</ele>
    <time>2018-01-28T04:07:42Z</time>
   </trkpt>
   <trkpt lat="12.9203060" lon="99.6351420">
    <ele>67.8</ele>
    <time>2018-01-28T04:07:43Z</time>
   </trkpt>
   <trkpt lat="12.9202670" lon="99.6350860">
    <ele>68.3</ele>
    <time>2018-01-28T04:07:44Z</time>
   </trkpt>
   <trkpt lat="12.9202490" lon="99.6350210">
    <ele>68.7</ele>
    <time>2018-01-28T04:07:45Z</time>
   </trkpt>
   <trkpt lat="12.9202260" lon="99.6349770">
    <ele>69.2</ele>
    <time>2018-01-28T04:07:46Z</time>
   </trkpt>
   <trkpt lat="12.9201990" lon="99.6349260">
    <ele>69.3</ele>
    <time>2018-01-28T04:07:47Z</time>
   </trkpt>
   <trkpt lat="12.9201690" lon="99.6348840">
    <ele>69.6</ele>
    <time>2018-01-28T04:07:48Z</time>
   </trkpt>
   <trkpt lat="12.9201470" lon="99.6348350">
    <ele>69.8</ele>
    <time>2018-01-28T04:07:49Z</time>
   </trkpt>
   <trkpt lat="12.9201210" lon="99.6347910">
    <ele>70.0</ele>
    <time>2018-01-28T04:07:50Z</time>
   </trkpt>
   <trkpt lat="12.9200960" lon="99.6347530">
    <ele>69.7</ele>
    <time>2018-01-28T04:07:51Z</time>
   </trkpt>
   <trkpt lat="12.9200580" lon="99.6347080">
    <ele>70.2</ele>
    <time>2018-01-28T04:07:52Z</time>
   </trkpt>
   <trkpt lat="12.9200320" lon="99.6346730">
    <ele>69.8</ele>
    <time>2018-01-28T04:07:53Z</time>
   </trkpt>
   <trkpt lat="12.9200120" lon="99.6346470">
    <ele>70.1</ele>
    <time>2018-01-28T04:07:54Z</time>
   </trkpt>
   <trkpt lat="12.9199960" lon="99.6346250">
    <ele>70.1</ele>
    <time>2018-01-28T04:07:56Z</time>
   </trkpt>
   <trkpt lat="12.9199570" lon="99.6345770">
    <ele>70.1</ele>
    <time>2018-01-28T04:07:58Z</time>
   </trkpt>
   <trkpt lat="12.9198980" lon="99.6345160">
    <ele>68.8</ele>
    <time>2018-01-28T04:07:59Z</time>
   </trkpt>
   <trkpt lat="12.9198550" lon="99.6344560">
    <ele>68.8</ele>
    <time>2018-01-28T04:08:00Z</time>
   </trkpt>
   <trkpt lat="12.9198210" lon="99.6344250">
    <ele>69.1</ele>
    <time>2018-01-28T04:08:02Z</time>
   </trkpt>
   <trkpt lat="12.9198120" lon="99.6343820">
    <ele>71.3</ele>
    <time>2018-01-28T04:08:04Z</time>
   </trkpt>
   <trkpt lat="12.9198330" lon="99.6343480">
    <ele>73.2</ele>
    <time>2018-01-28T04:08:06Z</time>
   </trkpt>
   <trkpt lat="12.9198580" lon="99.6343270">
    <ele>74.8</ele>
    <time>2018-01-28T04:08:08Z</time>
   </trkpt>
   <trkpt lat="12.9198830" lon="99.6343100">
    <ele>76.3</ele>
    <time>2018-01-28T04:08:10Z</time>
   </trkpt>
   <trkpt lat="12.9199080" lon="99.6342880">
    <ele>78.0</ele>
    <time>2018-01-28T04:08:13Z</time>
   </trkpt>
   <trkpt lat="12.9199310" lon="99.6342660">
    <ele>79.5</ele>
    <time>2018-01-28T04:08:16Z</time>
   </trkpt>
   <trkpt lat="12.9199560" lon="99.6342370">
    <ele>81.4</ele>
    <time>2018-01-28T04:08:19Z</time>
   </trkpt>
   <trkpt lat="12.9199750" lon="99.6342140">
    <ele>82.8</ele>
    <time>2018-01-28T04:08:21Z</time>
   </trkpt>
   <trkpt lat="12.9199930" lon="99.6341850">
    <ele>84.5</ele>
    <time>2018-01-28T04:08:23Z</time>
   </trkpt>
   <trkpt lat="12.9200140" lon="99.6341550">
    <ele>86.3</ele>
    <time>2018-01-28T04:08:25Z</time>
   </trkpt>
   <trkpt lat="12.9200370" lon="99.6341290">
    <ele>87.3</ele>
    <time>2018-01-28T04:08:27Z</time>
   </trkpt>
   <trkpt lat="12.9200570" lon="99.6341020">
    <ele>87.8</ele>
    <time>2018-01-28T04:08:29Z</time>
   </trkpt>
   <trkpt lat="12.9200750" lon="99.6340770">
    <ele>88.1</ele>
    <time>2018-01-28T04:08:31Z</time>
   </trkpt>
   <trkpt lat="12.9200910" lon="99.6340520">
    <ele>88.5</ele>
    <time>2018-01-28T04:08:33Z</time>
   </trkpt>
   <trkpt lat="12.9201040" lon="99.6340270">
    <ele>88.8</ele>
    <time>2018-01-28T04:08:35Z</time>
   </trkpt>
   <trkpt lat="12.9201180" lon="99.6339970">
    <ele>89.2</ele>
    <time>2018-01-28T04:08:37Z</time>
   </trkpt>
   <trkpt lat="12.9201320" lon="99.6339690">
    <ele>89.5</ele>
    <time>2018-01-28T04:08:39Z</time>
   </trkpt>
   <trkpt lat="12.9201420" lon="99.6339380">
    <ele>89.8</ele>
    <time>2018-01-28T04:08:41Z</time>
   </trkpt>
   <trkpt lat="12.9201490" lon="99.6339070">
    <ele>90.2</ele>
    <time>2018-01-28T04:08:43Z</time>
   </trkpt>
   <trkpt lat="12.9201600" lon="99.6338760">
    <ele>90.6</ele>
    <time>2018-01-28T04:08:45Z</time>
   </trkpt>
   <trkpt lat="12.9201680" lon="99.6338470">
    <ele>91.0</ele>
    <time>2018-01-28T04:08:47Z</time>
   </trkpt>
   <trkpt lat="12.9201740" lon="99.6338160">
    <ele>91.5</ele>
    <time>2018-01-28T04:08:49Z</time>
   </trkpt>
   <trkpt lat="12.9201820" lon="99.6337780">
    <ele>92.0</ele>
    <time>2018-01-28T04:08:52Z</time>
   </trkpt>
   <trkpt lat="12.9201910" lon="99.6337380">
    <ele>92.6</ele>
    <time>2018-01-28T04:08:55Z</time>
   </trkpt>
   <trkpt lat="12.9201950" lon="99.6337090">
    <ele>93.0</ele>
    <time>2018-01-28T04:08:57Z</time>
   </trkpt>
   <trkpt lat="12.9201970" lon="99.6336750">
    <ele>93.5</ele>
    <time>2018-01-28T04:08:59Z</time>
   </trkpt>
   <trkpt lat="12.9201920" lon="99.6336420">
    <ele>94.0</ele>
    <time>2018-01-28T04:09:01Z</time>
   </trkpt>
   <trkpt lat="12.9201860" lon="99.6336090">
    <ele>94.4</ele>
    <time>2018-01-28T04:09:03Z</time>
   </trkpt>
   <trkpt lat="12.9201850" lon="99.6335670">
    <ele>95.0</ele>
    <time>2018-01-28T04:09:06Z</time>
   </trkpt>
   <trkpt lat="12.9201890" lon="99.6335390">
    <ele>95.5</ele>
    <time>2018-01-28T04:09:08Z</time>
   </trkpt>
   <trkpt lat="12.9201940" lon="99.6335050">
    <ele>96.0</ele>
    <time>2018-01-28T04:09:10Z</time>
   </trkpt>
   <trkpt lat="12.9201980" lon="99.6334750">
    <ele>96.5</ele>
    <time>2018-01-28T04:09:12Z</time>
   </trkpt>
   <trkpt lat="12.9201970" lon="99.6334460">
    <ele>97.0</ele>
    <time>2018-01-28T04:09:14Z</time>
   </trkpt>
   <trkpt lat="12.9201960" lon="99.6334080">
    <ele>97.6</ele>
    <time>2018-01-28T04:09:17Z</time>
   </trkpt>
   <trkpt lat="12.9201960" lon="99.6333800">
    <ele>98.1</ele>
    <time>2018-01-28T04:09:19Z</time>
   </trkpt>
   <trkpt lat="12.9201940" lon="99.6333520">
    <ele>98.5</ele>
    <time>2018-01-28T04:09:21Z</time>
   </trkpt>
   <trkpt lat="12.9201900" lon="99.6333180">
    <ele>99.0</ele>
    <time>2018-01-28T04:09:24Z</time>
   </trkpt>
   <trkpt lat="12.9201830" lon="99.6332780">
    <ele>99.7</ele>
    <time>2018-01-28T04:09:27Z</time>
   </trkpt>
   <trkpt lat="12.9201860" lon="99.6332380">
    <ele>100.4</ele>
    <time>2018-01-28T04:09:30Z</time>
   </trkpt>
   <trkpt lat="12.9201780" lon="99.6332000">
    <ele>101.1</ele>
    <time>2018-01-28T04:09:33Z</time>
   </trkpt>
   <trkpt lat="12.9201680" lon="99.6331630">
    <ele>102.0</ele>
    <time>2018-01-28T04:09:36Z</time>
   </trkpt>
   <trkpt lat="12.9201630" lon="99.6331350">
    <ele>102.6</ele>
    <time>2018-01-28T04:09:38Z</time>
   </trkpt>
   <trkpt lat="12.9201590" lon="99.6330940">
    <ele>103.4</ele>
    <time>2018-01-28T04:09:41Z</time>
   </trkpt>
   <trkpt lat="12.9201560" lon="99.6330560">
    <ele>104.2</ele>
    <time>2018-01-28T04:09:44Z</time>
   </trkpt>
   <trkpt lat="12.9201510" lon="99.6330220">
    <ele>104.9</ele>
    <time>2018-01-28T04:09:46Z</time>
   </trkpt>
   <trkpt lat="12.9201430" lon="99.6329950">
    <ele>105.4</ele>
    <time>2018-01-28T04:09:48Z</time>
   </trkpt>
   <trkpt lat="12.9201310" lon="99.6329660">
    <ele>106.0</ele>
    <time>2018-01-28T04:09:50Z</time>
   </trkpt>
   <trkpt lat="12.9201190" lon="99.6329270">
    <ele>106.7</ele>
    <time>2018-01-28T04:09:53Z</time>
   </trkpt>
   <trkpt lat="12.9201110" lon="99.6328940">
    <ele>107.3</ele>
    <time>2018-01-28T04:09:55Z</time>
   </trkpt>
   <trkpt lat="12.9201080" lon="99.6328530">
    <ele>107.9</ele>
    <time>2018-01-28T04:09:58Z</time>
   </trkpt>
   <trkpt lat="12.9201150" lon="99.6328150">
    <ele>108.5</ele>
    <time>2018-01-28T04:10:01Z</time>
   </trkpt>
   <trkpt lat="12.9201160" lon="99.6327860">
    <ele>109.0</ele>
    <time>2018-01-28T04:10:03Z</time>
   </trkpt>
   <trkpt lat="12.9201050" lon="99.6327500">
    <ele>109.5</ele>
    <time>2018-01-28T04:10:06Z</time>
   </trkpt>
   <trkpt lat="12.9200930" lon="99.6327170">
    <ele>109.9</ele>
    <time>2018-01-28T04:10:09Z</time>
   </trkpt>
   <trkpt lat="12.9200820" lon="99.6326830">
    <ele>110.3</ele>
    <time>2018-01-28T04:10:12Z</time>
   </trkpt>
   <trkpt lat="12.9200710" lon="99.6326480">
    <ele>110.9</ele>
    <time>2018-01-28T04:10:15Z</time>
   </trkpt>
   <trkpt lat="12.9200600" lon="99.6326180">
    <ele>111.4</ele>
    <time>2018-01-28T04:10:18Z</time>
   </trkpt>
   <trkpt lat="12.9200500" lon="99.6325830">
    <ele>112.0</ele>
    <time>2018-01-28T04:10:21Z</time>
   </trkpt>
   <trkpt lat="12.9200430" lon="99.6325460">
    <ele>112.7</ele>
    <time>2018-01-28T04:10:24Z</time>
   </trkpt>
   <trkpt lat="12.9200370" lon="99.6325190">
    <ele>113.2</ele>
    <time>2018-01-28T04:10:26Z</time>
   </trkpt>
   <trkpt lat="12.9200280" lon="99.6324900">
    <ele>113.6</ele>
    <time>2018-01-28T04:10:28Z</time>
   </trkpt>
   <trkpt lat="12.9200170" lon="99.6324510">
    <ele>114.3</ele>
    <time>2018-01-28T04:10:31Z</time>
   </trkpt>
   <trkpt lat="12.9200210" lon="99.6324130">
    <ele>114.8</ele>
    <time>2018-01-28T04:10:34Z</time>
   </trkpt>
   <trkpt lat="12.9200170" lon="99.6323730">
    <ele>115.3</ele>
    <time>2018-01-28T04:10:37Z</time>
   </trkpt>
   <trkpt lat="12.9200110" lon="99.6323380">
    <ele>115.7</ele>
    <time>2018-01-28T04:10:40Z</time>
   </trkpt>
   <trkpt lat="12.9200110" lon="99.6323100">
    <ele>116.0</ele>
    <time>2018-01-28T04:10:42Z</time>
   </trkpt>
   <trkpt lat="12.9200070" lon="99.6322820">
    <ele>116.4</ele>
    <time>2018-01-28T04:10:44Z</time>
   </trkpt>
   <trkpt lat="12.9199980" lon="99.6322520">
    <ele>116.7</ele>
    <time>2018-01-28T04:10:46Z</time>
   </trkpt>
   <trkpt lat="12.9199900" lon="99.6322100">
    <ele>117.1</ele>
    <time>2018-01-28T04:10:49Z</time>
   </trkpt>
   <trkpt lat="12.9199810" lon="99.6321790">
    <ele>117.4</ele>
    <time>2018-01-28T04:10:51Z</time>
   </trkpt>
   <trkpt lat="12.9199790" lon="99.6321500">
    <ele>117.6</ele>
    <time>2018-01-28T04:10:53Z</time>
   </trkpt>
   <trkpt lat="12.9199790" lon="99.6321190">
    <ele>117.9</ele>
    <time>2018-01-28T04:10:55Z</time>
   </trkpt>
   <trkpt lat="12.9199810" lon="99.6320810">
    <ele>118.3</ele>
    <time>2018-01-28T04:10:58Z</time>
   </trkpt>
   <trkpt lat="12.9199720" lon="99.6320520">
    <ele>118.7</ele>
    <time>2018-01-28T04:11:00Z</time>
   </trkpt>
   <trkpt lat="12.9199610" lon="99.6320190">
    <ele>119.1</ele>
    <time>2018-01-28T04:11:02Z</time>
   </trkpt>
   <trkpt lat="12.9199480" lon="99.6319930">
    <ele>119.3</ele>
    <time>2018-01-28T04:11:04Z</time>
   </trkpt>
   <trkpt lat="12.9199350" lon="99.6319590">
    <ele>119.6</ele>
    <time>2018-01-28T04:11:06Z</time>
   </trkpt>
   <trkpt lat="12.9199200" lon="99.6319230">
    <ele>119.8</ele>
    <time>2018-01-28T04:11:08Z</time>
   </trkpt>
   <trkpt lat="12.9199000" lon="99.6318820">
    <ele>120.0</ele>
    <time>2018-01-28T04:11:10Z</time>
   </trkpt>
   <trkpt lat="12.9198860" lon="99.6318580">
    <ele>120.0</ele>
    <time>2018-01-28T04:11:11Z</time>
   </trkpt>
   <trkpt lat="12.9198620" lon="99.6318260">
    <ele>120.1</ele>
    <time>2018-01-28T04:11:13Z</time>
   </trkpt>
   <trkpt lat="12.9198410" lon="99.6318000">
    <ele>120.2</ele>
    <time>2018-01-28T04:11:14Z</time>
   </trkpt>
   <trkpt lat="12.9198190" lon="99.6317790">
    <ele>120.2</ele>
    <time>2018-01-28T04:11:15Z</time>
   </trkpt>
   <trkpt lat="12.9197970" lon="99.6317570">
    <ele>120.2</ele>
    <time>2018-01-28T04:11:16Z</time>
   </trkpt>
   <trkpt lat="12.9197740" lon="99.6317380">
    <ele>120.3</ele>
    <time>2018-01-28T04:11:17Z</time>
   </trkpt>
   <trkpt lat="12.9197430" lon="99.6317160">
    <ele>120.3</ele>
    <time>2018-01-28T04:11:18Z</time>
   </trkpt>
   <trkpt lat="12.9196950" lon="99.6316700">
    <ele>120.4</ele>
    <time>2018-01-28T04:11:19Z</time>
   </trkpt>
   <trkpt lat="12.9196400" lon="99.6316450">
    <ele>120.5</ele>
    <time>2018-01-28T04:11:21Z</time>
   </trkpt>
   <trkpt lat="12.9196140" lon="99.6316290">
    <ele>120.5</ele>
    <time>2018-01-28T04:11:22Z</time>
   </trkpt>
   <trkpt lat="12.9195860" lon="99.6316140">
    <ele>120.5</ele>
    <time>2018-01-28T04:11:23Z</time>
   </trkpt>
   <trkpt lat="12.9195580" lon="99.6315980">
    <ele>120.6</ele>
    <time>2018-01-28T04:11:24Z</time>
   </trkpt>
   <trkpt lat="12.9195320" lon="99.6315860">
    <ele>120.6</ele>
    <time>2018-01-28T04:11:25Z</time>
   </trkpt>
   <trkpt lat="12.9195080" lon="99.6315710">
    <ele>120.6</ele>
    <time>2018-01-28T04:11:26Z</time>
   </trkpt>
   <trkpt lat="12.9194860" lon="99.6315540">
    <ele>120.6</ele>
    <time>2018-01-28T04:11:27Z</time>
   </trkpt>
   <trkpt lat="12.9194640" lon="99.6315350">
    <ele>120.7</ele>
    <time>2018-01-28T04:11:28Z</time>
   </trkpt>
   <trkpt lat="12.9194140" lon="99.6315060">
    <ele>120.7</ele>
    <time>2018-01-28T04:11:30Z</time>
   </trkpt>
   <trkpt lat="12.9193860" lon="99.6314900">
    <ele>120.7</ele>
    <time>2018-01-28T04:11:31Z</time>
   </trkpt>
   <trkpt lat="12.9193530" lon="99.6314720">
    <ele>120.8</ele>
    <time>2018-01-28T04:11:32Z</time>
   </trkpt>
   <trkpt lat="12.9193190" lon="99.6314440">
    <ele>120.8</ele>
    <time>2018-01-28T04:11:33Z</time>
   </trkpt>
   <trkpt lat="12.9192930" lon="99.6314220">
    <ele>120.9</ele>
    <time>2018-01-28T04:11:34Z</time>
   </trkpt>
   <trkpt lat="12.9192610" lon="99.6314040">
    <ele>120.9</ele>
    <time>2018-01-28T04:11:35Z</time>
   </trkpt>
   <trkpt lat="12.9192280" lon="99.6313850">
    <ele>120.9</ele>
    <time>2018-01-28T04:11:36Z</time>
   </trkpt>
   <trkpt lat="12.9191950" lon="99.6313660">
    <ele>120.9</ele>
    <time>2018-01-28T04:11:37Z</time>
   </trkpt>
   <trkpt lat="12.9191640" lon="99.6313450">
    <ele>121.0</ele>
    <time>2018-01-28T04:11:38Z</time>
   </trkpt>
   <trkpt lat="12.9191310" lon="99.6313220">
    <ele>121.0</ele>
    <time>2018-01-28T04:11:39Z</time>
   </trkpt>
   <trkpt lat="12.9190970" lon="99.6313020">
    <ele>121.0</ele>
    <time>2018-01-28T04:11:40Z</time>
   </trkpt>
   <trkpt lat="12.9190680" lon="99.6312800">
    <ele>121.1</ele>
    <time>2018-01-28T04:11:41Z</time>
   </trkpt>
   <trkpt lat="12.9190400" lon="99.6312590">
    <ele>121.1</ele>
    <time>2018-01-28T04:11:42Z</time>
   </trkpt>
   <trkpt lat="12.9190120" lon="99.6312390">
    <ele>121.1</ele>
    <time>2018-01-28T04:11:43Z</time>
   </trkpt>
   <trkpt lat="12.9189800" lon="99.6312190">
    <ele>121.2</ele>
    <time>2018-01-28T04:11:44Z</time>
   </trkpt>
   <trkpt lat="12.9189490" lon="99.6312000">
    <ele>121.2</ele>
    <time>2018-01-28T04:11:45Z</time>
   </trkpt>
   <trkpt lat="12.9189160" lon="99.6311810">
    <ele>121.2</ele>
    <time>2018-01-28T04:11:46Z</time>
   </trkpt>
   <trkpt lat="12.9188850" lon="99.6311590">
    <ele>121.2</ele>
    <time>2018-01-28T04:11:47Z</time>
   </trkpt>
   <trkpt lat="12.9188570" lon="99.6311340">
    <ele>121.3</ele>
    <time>2018-01-28T04:11:48Z</time>
   </trkpt>
   <trkpt lat="12.9188250" lon="99.6311090">
    <ele>121.3</ele>
    <time>2018-01-28T04:11:49Z</time>
   </trkpt>
   <trkpt lat="12.9187910" lon="99.6310870">
    <ele>121.3</ele>
    <time>2018-01-28T04:11:50Z</time>
   </trkpt>
   <trkpt lat="12.9187550" lon="99.6310640">
    <ele>121.4</ele>
    <time>2018-01-28T04:11:51Z</time>
   </trkpt>
   <trkpt lat="12.9187200" lon="99.6310420">
    <ele>121.4</ele>
    <time>2018-01-28T04:11:52Z</time>
   </trkpt>
   <trkpt lat="12.9186780" lon="99.6310210">
    <ele>121.4</ele>
    <time>2018-01-28T04:11:53Z</time>
   </trkpt>
   <trkpt lat="12.9186360" lon="99.6309970">
    <ele>121.5</ele>
    <time>2018-01-28T04:11:54Z</time>
   </trkpt>
   <trkpt lat="12.9185920" lon="99.6309730">
    <ele>121.5</ele>
    <time>2018-01-28T04:11:55Z</time>
   </trkpt>
   <trkpt lat="12.9185500" lon="99.6309510">
    <ele>121.5</ele>
    <time>2018-01-28T04:11:56Z</time>
   </trkpt>
   <trkpt lat="12.9185110" lon="99.6309330">
    <ele>121.6</ele>
    <time>2018-01-28T04:11:57Z</time>
   </trkpt>
   <trkpt lat="12.9184750" lon="99.6309140">
    <ele>121.6</ele>
    <time>2018-01-28T04:11:58Z</time>
   </trkpt>
   <trkpt lat="12.9184390" lon="99.6308930">
    <ele>121.6</ele>
    <time>2018-01-28T04:11:59Z</time>
   </trkpt>
   <trkpt lat="12.9184040" lon="99.6308760">
    <ele>121.6</ele>
    <time>2018-01-28T04:12:00Z</time>
   </trkpt>
   <trkpt lat="12.9183710" lon="99.6308570">
    <ele>121.7</ele>
    <time>2018-01-28T04:12:01Z</time>
   </trkpt>
   <trkpt lat="12.9183350" lon="99.6308340">
    <ele>121.7</ele>
    <time>2018-01-28T04:12:02Z</time>
   </trkpt>
   <trkpt lat="12.9182970" lon="99.6308090">
    <ele>121.7</ele>
    <time>2018-01-28T04:12:03Z</time>
   </trkpt>
   <trkpt lat="12.9182610" lon="99.6307860">
    <ele>121.8</ele>
    <time>2018-01-28T04:12:04Z</time>
   </trkpt>
   <trkpt lat="12.9182240" lon="99.6307650">
    <ele>121.8</ele>
    <time>2018-01-28T04:12:05Z</time>
   </trkpt>
   <trkpt lat="12.9181770" lon="99.6307450">
    <ele>121.8</ele>
    <time>2018-01-28T04:12:08Z</time>
   </trkpt>
   <trkpt lat="12.9181380" lon="99.6307160">
    <ele>121.9</ele>
    <time>2018-01-28T04:12:09Z</time>
   </trkpt>
   <trkpt lat="12.9180990" lon="99.6306830">
    <ele>121.9</ele>
    <time>2018-01-28T04:12:10Z</time>
   </trkpt>
   <trkpt lat="12.9180080" lon="99.6306190">
    <ele>122.0</ele>
    <time>2018-01-28T04:12:11Z</time>
   </trkpt>
   <trkpt lat="12.9179740" lon="99.6305950">
    <ele>122.1</ele>
    <time>2018-01-28T04:12:12Z</time>
   </trkpt>
   <trkpt lat="12.9179400" lon="99.6305790">
    <ele>122.1</ele>
    <time>2018-01-28T04:12:13Z</time>
   </trkpt>
   <trkpt lat="12.9179030" lon="99.6305590">
    <ele>122.2</ele>
    <time>2018-01-28T04:12:14Z</time>
   </trkpt>
   <trkpt lat="12.9178650" lon="99.6305390">
    <ele>122.3</ele>
    <time>2018-01-28T04:12:15Z</time>
   </trkpt>
   <trkpt lat="12.9178270" lon="99.6305210">
    <ele>122.4</ele>
    <time>2018-01-28T04:12:16Z</time>
   </trkpt>
   <trkpt lat="12.9177910" lon="99.6305010">
    <ele>122.5</ele>
    <time>2018-01-28T04:12:17Z</time>
   </trkpt>
   <trkpt lat="12.9177540" lon="99.6304780">
    <ele>122.7</ele>
    <time>2018-01-28T04:12:18Z</time>
   </trkpt>
   <trkpt lat="12.9177180" lon="99.6304550">
    <ele>122.8</ele>
    <time>2018-01-28T04:12:19Z</time>
   </trkpt>
   <trkpt lat="12.9176790" lon="99.6304250">
    <ele>123.0</ele>
    <time>2018-01-28T04:12:20Z</time>
   </trkpt>
   <trkpt lat="12.9176430" lon="99.6304010">
    <ele>123.2</ele>
    <time>2018-01-28T04:12:21Z</time>
   </trkpt>
   <trkpt lat="12.9176090" lon="99.6303790">
    <ele>123.4</ele>
    <time>2018-01-28T04:12:22Z</time>
   </trkpt>
   <trkpt lat="12.9175720" lon="99.6303650">
    <ele>123.6</ele>
    <time>2018-01-28T04:12:23Z</time>
   </trkpt>
   <trkpt lat="12.9175380" lon="99.6303390">
    <ele>123.8</ele>
    <time>2018-01-28T04:12:24Z</time>
   </trkpt>
   <trkpt lat="12.9175010" lon="99.6303080">
    <ele>124.0</ele>
    <time>2018-01-28T04:12:25Z</time>
   </trkpt>
   <trkpt lat="12.9174690" lon="99.6302760">
    <ele>124.1</ele>
    <time>2018-01-28T04:12:26Z</time>
   </trkpt>
   <trkpt lat="12.9174390" lon="99.6302440">
    <ele>124.2</ele>
    <time>2018-01-28T04:12:27Z</time>
   </trkpt>
   <trkpt lat="12.9174030" lon="99.6302180">
    <ele>124.3</ele>
    <time>2018-01-28T04:12:28Z</time>
   </trkpt>
   <trkpt lat="12.9173620" lon="99.6301920">
    <ele>124.4</ele>
    <time>2018-01-28T04:12:29Z</time>
   </trkpt>
   <trkpt lat="12.9173200" lon="99.6301640">
    <ele>124.5</ele>
    <time>2018-01-28T04:12:30Z</time>
   </trkpt>
   <trkpt lat="12.9172850" lon="99.6301410">
    <ele>124.5</ele>
    <time>2018-01-28T04:12:31Z</time>
   </trkpt>
   <trkpt lat="12.9172440" lon="99.6301180">
    <ele>124.6</ele>
    <time>2018-01-28T04:12:32Z</time>
   </trkpt>
   <trkpt lat="12.9172090" lon="99.6300940">
    <ele>124.6</ele>
    <time>2018-01-28T04:12:33Z</time>
   </trkpt>
   <trkpt lat="12.9171780" lon="99.6300760">
    <ele>124.6</ele>
    <time>2018-01-28T04:12:34Z</time>
   </trkpt>
   <trkpt lat="12.9171380" lon="99.6300540">
    <ele>124.7</ele>
    <time>2018-01-28T04:12:35Z</time>
   </trkpt>
   <trkpt lat="12.9171030" lon="99.6300340">
    <ele>124.7</ele>
    <time>2018-01-28T04:12:36Z</time>
   </trkpt>
   <trkpt lat="12.9170660" lon="99.6300120">
    <ele>124.7</ele>
    <time>2018-01-28T04:12:37Z</time>
   </trkpt>
   <trkpt lat="12.9170320" lon="99.6299900">
    <ele>124.7</ele>
    <time>2018-01-28T04:12:38Z</time>
   </trkpt>
   <trkpt lat="12.9169940" lon="99.6299820">
    <ele>124.8</ele>
    <time>2018-01-28T04:12:39Z</time>
   </trkpt>
   <trkpt lat="12.9169510" lon="99.6299730">
    <ele>124.8</ele>
    <time>2018-01-28T04:12:40Z</time>
   </trkpt>
   <trkpt lat="12.9169110" lon="99.6299540">
    <ele>124.8</ele>
    <time>2018-01-28T04:12:41Z</time>
   </trkpt>
   <trkpt lat="12.9168740" lon="99.6299270">
    <ele>124.9</ele>
    <time>2018-01-28T04:12:42Z</time>
   </trkpt>
   <trkpt lat="12.9168370" lon="99.6299040">
    <ele>124.9</ele>
    <time>2018-01-28T04:12:43Z</time>
   </trkpt>
   <trkpt lat="12.9168010" lon="99.6298670">
    <ele>124.9</ele>
    <time>2018-01-28T04:12:44Z</time>
   </trkpt>
   <trkpt lat="12.9167540" lon="99.6298330">
    <ele>125.0</ele>
    <time>2018-01-28T04:12:45Z</time>
   </trkpt>
   <trkpt lat="12.9167170" lon="99.6298150">
    <ele>125.0</ele>
    <time>2018-01-28T04:12:46Z</time>
   </trkpt>
   <trkpt lat="12.9166850" lon="99.6297910">
    <ele>125.0</ele>
    <time>2018-01-28T04:12:47Z</time>
   </trkpt>
   <trkpt lat="12.9166440" lon="99.6297640">
    <ele>125.0</ele>
    <time>2018-01-28T04:12:48Z</time>
   </trkpt>
   <trkpt lat="12.9166070" lon="99.6297400">
    <ele>125.1</ele>
    <time>2018-01-28T04:12:49Z</time>
   </trkpt>
   <trkpt lat="12.9165610" lon="99.6297070">
    <ele>125.1</ele>
    <time>2018-01-28T04:12:50Z</time>
   </trkpt>
   <trkpt lat="12.9165110" lon="99.6296910">
    <ele>125.1</ele>
    <time>2018-01-28T04:12:51Z</time>
   </trkpt>
   <trkpt lat="12.9164720" lon="99.6296680">
    <ele>125.2</ele>
    <time>2018-01-28T04:12:52Z</time>
   </trkpt>
   <trkpt lat="12.9164290" lon="99.6296390">
    <ele>125.2</ele>
    <time>2018-01-28T04:12:53Z</time>
   </trkpt>
   <trkpt lat="12.9163840" lon="99.6296150">
    <ele>125.2</ele>
    <time>2018-01-28T04:12:54Z</time>
   </trkpt>
   <trkpt lat="12.9163420" lon="99.6295790">
    <ele>125.3</ele>
    <time>2018-01-28T04:12:55Z</time>
   </trkpt>
   <trkpt lat="12.9162930" lon="99.6295600">
    <ele>125.3</ele>
    <time>2018-01-28T04:12:56Z</time>
   </trkpt>
   <trkpt lat="12.9162340" lon="99.6295300">
    <ele>125.3</ele>
    <time>2018-01-28T04:12:57Z</time>
   </trkpt>
   <trkpt lat="12.9161570" lon="99.6294960">
    <ele>125.4</ele>
    <time>2018-01-28T04:12:58Z</time>
   </trkpt>
   <trkpt lat="12.9160950" lon="99.6294670">
    <ele>125.4</ele>
    <time>2018-01-28T04:12:59Z</time>
   </trkpt>
   <trkpt lat="12.9160370" lon="99.6294370">
    <ele>125.5</ele>
    <time>2018-01-28T04:13:00Z</time>
   </trkpt>
   <trkpt lat="12.9159880" lon="99.6294210">
    <ele>125.5</ele>
    <time>2018-01-28T04:13:01Z</time>
   </trkpt>
   <trkpt lat="12.9159330" lon="99.6293860">
    <ele>125.6</ele>
    <time>2018-01-28T04:13:02Z</time>
   </trkpt>
   <trkpt lat="12.9158910" lon="99.6293550">
    <ele>125.6</ele>
    <time>2018-01-28T04:13:03Z</time>
   </trkpt>
   <trkpt lat="12.9158410" lon="99.6293260">
    <ele>125.6</ele>
    <time>2018-01-28T04:13:04Z</time>
   </trkpt>
   <trkpt lat="12.9157950" lon="99.6292960">
    <ele>125.7</ele>
    <time>2018-01-28T04:13:05Z</time>
   </trkpt>
   <trkpt lat="12.9157470" lon="99.6292610">
    <ele>125.7</ele>
    <time>2018-01-28T04:13:06Z</time>
   </trkpt>
   <trkpt lat="12.9156970" lon="99.6292240">
    <ele>125.7</ele>
    <time>2018-01-28T04:13:07Z</time>
   </trkpt>
   <trkpt lat="12.9156430" lon="99.6291930">
    <ele>125.8</ele>
    <time>2018-01-28T04:13:08Z</time>
   </trkpt>
   <trkpt lat="12.9155990" lon="99.6291630">
    <ele>125.8</ele>
    <time>2018-01-28T04:13:09Z</time>
   </trkpt>
   <trkpt lat="12.9155360" lon="99.6291350">
    <ele>125.8</ele>
    <time>2018-01-28T04:13:10Z</time>
   </trkpt>
   <trkpt lat="12.9154850" lon="99.6291040">
    <ele>125.9</ele>
    <time>2018-01-28T04:13:11Z</time>
   </trkpt>
   <trkpt lat="12.9154390" lon="99.6290680">
    <ele>125.9</ele>
    <time>2018-01-28T04:13:12Z</time>
   </trkpt>
   <trkpt lat="12.9153900" lon="99.6290360">
    <ele>126.0</ele>
    <time>2018-01-28T04:13:13Z</time>
   </trkpt>
   <trkpt lat="12.9153440" lon="99.6290070">
    <ele>126.0</ele>
    <time>2018-01-28T04:13:14Z</time>
   </trkpt>
   <trkpt lat="12.9153030" lon="99.6289730">
    <ele>126.0</ele>
    <time>2018-01-28T04:13:15Z</time>
   </trkpt>
   <trkpt lat="12.9152520" lon="99.6289410">
    <ele>126.1</ele>
    <time>2018-01-28T04:13:16Z</time>
   </trkpt>
   <trkpt lat="12.9152130" lon="99.6289180">
    <ele>126.1</ele>
    <time>2018-01-28T04:13:17Z</time>
   </trkpt>
   <trkpt lat="12.9151590" lon="99.6288930">
    <ele>126.1</ele>
    <time>2018-01-28T04:13:18Z</time>
   </trkpt>
   <trkpt lat="12.9151100" lon="99.6288630">
    <ele>126.2</ele>
    <time>2018-01-28T04:13:19Z</time>
   </trkpt>
   <trkpt lat="12.9150680" lon="99.6288300">
    <ele>126.2</ele>
    <time>2018-01-28T04:13:20Z</time>
   </trkpt>
   <trkpt lat="12.9150090" lon="99.6288020">
    <ele>126.2</ele>
    <time>2018-01-28T04:13:21Z</time>
   </trkpt>
   <trkpt lat="12.9149710" lon="99.6287620">
    <ele>126.3</ele>
    <time>2018-01-28T04:13:22Z</time>
   </trkpt>
   <trkpt lat="12.9149190" lon="99.6287340">
    <ele>126.3</ele>
    <time>2018-01-28T04:13:23Z</time>
   </trkpt>
   <trkpt lat="12.9148620" lon="99.6287140">
    <ele>126.4</ele>
    <time>2018-01-28T04:13:24Z</time>
   </trkpt>
   <trkpt lat="12.9148140" lon="99.6286730">
    <ele>126.4</ele>
    <time>2018-01-28T04:13:25Z</time>
   </trkpt>
   <trkpt lat="12.9147720" lon="99.6286470">
    <ele>126.4</ele>
    <time>2018-01-28T04:13:26Z</time>
   </trkpt>
   <trkpt lat="12.9147200" lon="99.6286230">
    <ele>126.5</ele>
    <time>2018-01-28T04:13:27Z</time>
   </trkpt>
   <trkpt lat="12.9146740" lon="99.6285930">
    <ele>126.5</ele>
    <time>2018-01-28T04:13:28Z</time>
   </trkpt>
   <trkpt lat="12.9146290" lon="99.6285670">
    <ele>126.5</ele>
    <time>2018-01-28T04:13:29Z</time>
   </trkpt>
   <trkpt lat="12.9145840" lon="99.6285330">
    <ele>126.6</ele>
    <time>2018-01-28T04:13:30Z</time>
   </trkpt>
   <trkpt lat="12.9145380" lon="99.6285100">
    <ele>126.6</ele>
    <time>2018-01-28T04:13:31Z</time>
   </trkpt>
   <trkpt lat="12.9144850" lon="99.6284850">
    <ele>126.6</ele>
    <time>2018-01-28T04:13:32Z</time>
   </trkpt>
   <trkpt lat="12.9144370" lon="99.6284500">
    <ele>126.7</ele>
    <time>2018-01-28T04:13:33Z</time>
   </trkpt>
   <trkpt lat="12.9143940" lon="99.6284130">
    <ele>126.7</ele>
    <time>2018-01-28T04:13:34Z</time>
   </trkpt>
   <trkpt lat="12.9143470" lon="99.6283850">
    <ele>126.7</ele>
    <time>2018-01-28T04:13:35Z</time>
   </trkpt>
   <trkpt lat="12.9142960" lon="99.6283560">
    <ele>126.8</ele>
    <time>2018-01-28T04:13:36Z</time>
   </trkpt>
   <trkpt lat="12.9142420" lon="99.6283310">
    <ele>126.8</ele>
    <time>2018-01-28T04:13:37Z</time>
   </trkpt>
   <trkpt lat="12.9141940" lon="99.6283010">
    <ele>126.9</ele>
    <time>2018-01-28T04:13:38Z</time>
   </trkpt>
   <trkpt lat="12.9141420" lon="99.6282710">
    <ele>126.9</ele>
    <time>2018-01-28T04:13:39Z</time>
   </trkpt>
   <trkpt lat="12.9141020" lon="99.6282340">
    <ele>126.9</ele>
    <time>2018-01-28T04:13:40Z</time>
   </trkpt>
   <trkpt lat="12.9140590" lon="99.6282150">
    <ele>127.0</ele>
    <time>2018-01-28T04:13:41Z</time>
   </trkpt>
   <trkpt lat="12.9140160" lon="99.6281940">
    <ele>127.0</ele>
    <time>2018-01-28T04:13:42Z</time>
   </trkpt>
   <trkpt lat="12.9139610" lon="99.6281790">
    <ele>128.7</ele>
    <time>2018-01-28T04:13:43Z</time>
   </trkpt>
   <trkpt lat="12.9139110" lon="99.6281690">
    <ele>128.2</ele>
    <time>2018-01-28T04:13:44Z</time>
   </trkpt>
   <trkpt lat="12.9138640" lon="99.6281650">
    <ele>127.6</ele>
    <time>2018-01-28T04:13:45Z</time>
   </trkpt>
   <trkpt lat="12.9138120" lon="99.6281660">
    <ele>127.0</ele>
    <time>2018-01-28T04:13:46Z</time>
   </trkpt>
   <trkpt lat="12.9137680" lon="99.6281790">
    <ele>126.4</ele>
    <time>2018-01-28T04:13:47Z</time>
   </trkpt>
   <trkpt lat="12.9137270" lon="99.6281720">
    <ele>125.7</ele>
    <time>2018-01-28T04:13:48Z</time>
   </trkpt>
   <trkpt lat="12.9136700" lon="99.6281710">
    <ele>125.5</ele>
    <time>2018-01-28T04:13:49Z</time>
   </trkpt>
   <trkpt lat="12.9136430" lon="99.6281750">
    <ele>124.4</ele>
    <time>2018-01-28T04:13:50Z</time>
   </trkpt>
   <trkpt lat="12.9136020" lon="99.6281810">
    <ele>123.5</ele>
    <time>2018-01-28T04:13:51Z</time>
   </trkpt>
   <trkpt lat="12.9135630" lon="99.6281900">
    <ele>120.9</ele>
    <time>2018-01-28T04:13:52Z</time>
   </trkpt>
   <trkpt lat="12.9135250" lon="99.6282040">
    <ele>119.8</ele>
    <time>2018-01-28T04:13:53Z</time>
   </trkpt>
   <trkpt lat="12.9134590" lon="99.6281960">
    <ele>118.5</ele>
    <time>2018-01-28T04:13:56Z</time>
   </trkpt>
   <trkpt lat="12.9133800" lon="99.6281640">
    <ele>118.4</ele>
    <time>2018-01-28T04:13:57Z</time>
   </trkpt>
   <trkpt lat="12.9133060" lon="99.6281410">
    <ele>118.7</ele>
    <time>2018-01-28T04:13:58Z</time>
   </trkpt>
   <trkpt lat="12.9132650" lon="99.6281250">
    <ele>117.5</ele>
    <time>2018-01-28T04:13:59Z</time>
   </trkpt>
   <trkpt lat="12.9132290" lon="99.6280980">
    <ele>118.2</ele>
    <time>2018-01-28T04:14:00Z</time>
   </trkpt>
   <trkpt lat="12.9131880" lon="99.6280710">
    <ele>117.3</ele>
    <time>2018-01-28T04:14:01Z</time>
   </trkpt>
   <trkpt lat="12.9131460" lon="99.6280630">
    <ele>116.4</ele>
    <time>2018-01-28T04:14:02Z</time>
   </trkpt>
   <trkpt lat="12.9131010" lon="99.6280360">
    <ele>117.1</ele>
    <time>2018-01-28T04:14:03Z</time>
   </trkpt>
   <trkpt lat="12.9130470" lon="99.6280210">
    <ele>115.4</ele>
    <time>2018-01-28T04:14:04Z</time>
   </trkpt>
   <trkpt lat="12.9129810" lon="99.6279850">
    <ele>115.4</ele>
    <time>2018-01-28T04:14:05Z</time>
   </trkpt>
   <trkpt lat="12.9129320" lon="99.6279780">
    <ele>113.5</ele>
    <time>2018-01-28T04:14:06Z</time>
   </trkpt>
   <trkpt lat="12.9128940" lon="99.6279570">
    <ele>112.2</ele>
    <time>2018-01-28T04:14:07Z</time>
   </trkpt>
   <trkpt lat="12.9128510" lon="99.6279420">
    <ele>109.8</ele>
    <time>2018-01-28T04:14:08Z</time>
   </trkpt>
   <trkpt lat="12.9128210" lon="99.6279400">
    <ele>107.3</ele>
    <time>2018-01-28T04:14:09Z</time>
   </trkpt>
   <trkpt lat="12.9127750" lon="99.6279190">
    <ele>105.8</ele>
    <time>2018-01-28T04:14:10Z</time>
   </trkpt>
   <trkpt lat="12.9127050" lon="99.6279320">
    <ele>100.9</ele>
    <time>2018-01-28T04:14:11Z</time>
   </trkpt>
   <trkpt lat="12.9126710" lon="99.6279090">
    <ele>100.8</ele>
    <time>2018-01-28T04:14:12Z</time>
   </trkpt>
   <trkpt lat="12.9126140" lon="99.6279160">
    <ele>100.6</ele>
    <time>2018-01-28T04:14:13Z</time>
   </trkpt>
   <trkpt lat="12.9125550" lon="99.6279370">
    <ele>100.6</ele>
    <time>2018-01-28T04:14:14Z</time>
   </trkpt>
   <trkpt lat="12.9124940" lon="99.6279530">
    <ele>100.5</ele>
    <time>2018-01-28T04:14:15Z</time>
   </trkpt>
   <trkpt lat="12.9124370" lon="99.6279780">
    <ele>100.5</ele>
    <time>2018-01-28T04:14:16Z</time>
   </trkpt>
   <trkpt lat="12.9123770" lon="99.6280210">
    <ele>100.5</ele>
    <time>2018-01-28T04:14:17Z</time>
   </trkpt>
   <trkpt lat="12.9123240" lon="99.6280510">
    <ele>100.4</ele>
    <time>2018-01-28T04:14:18Z</time>
   </trkpt>
   <trkpt lat="12.9122740" lon="99.6280670">
    <ele>100.3</ele>
    <time>2018-01-28T04:14:19Z</time>
   </trkpt>
   <trkpt lat="12.9122210" lon="99.6280930">
    <ele>100.3</ele>
    <time>2018-01-28T04:14:20Z</time>
   </trkpt>
   <trkpt lat="12.9121600" lon="99.6281150">
    <ele>100.2</ele>
    <time>2018-01-28T04:14:21Z</time>
   </trkpt>
   <trkpt lat="12.9121080" lon="99.6281400">
    <ele>100.2</ele>
    <time>2018-01-28T04:14:22Z</time>
   </trkpt>
   <trkpt lat="12.9120600" lon="99.6281450">
    <ele>100.2</ele>
    <time>2018-01-28T04:14:23Z</time>
   </trkpt>
   <trkpt lat="12.9120140" lon="99.6281590">
    <ele>100.2</ele>
    <time>2018-01-28T04:14:24Z</time>
   </trkpt>
   <trkpt lat="12.9119500" lon="99.6281720">
    <ele>100.2</ele>
    <time>2018-01-28T04:14:25Z</time>
   </trkpt>
   <trkpt lat="12.9118830" lon="99.6281900">
    <ele>100.2</ele>
    <time>2018-01-28T04:14:26Z</time>
   </trkpt>
   <trkpt lat="12.9118400" lon="99.6282130">
    <ele>100.2</ele>
    <time>2018-01-28T04:14:27Z</time>
   </trkpt>
   <trkpt lat="12.9117860" lon="99.6282360">
    <ele>100.3</ele>
    <time>2018-01-28T04:14:28Z</time>
   </trkpt>
   <trkpt lat="12.9117330" lon="99.6282560">
    <ele>100.3</ele>
    <time>2018-01-28T04:14:29Z</time>
   </trkpt>
   <trkpt lat="12.9116860" lon="99.6282720">
    <ele>100.4</ele>
    <time>2018-01-28T04:14:30Z</time>
   </trkpt>
   <trkpt lat="12.9116400" lon="99.6282960">
    <ele>100.3</ele>
    <time>2018-01-28T04:14:31Z</time>
   </trkpt>
   <trkpt lat="12.9115840" lon="99.6283090">
    <ele>100.3</ele>
    <time>2018-01-28T04:14:32Z</time>
   </trkpt>
   <trkpt lat="12.9115400" lon="99.6283270">
    <ele>100.2</ele>
    <time>2018-01-28T04:14:33Z</time>
   </trkpt>
   <trkpt lat="12.9114820" lon="99.6283560">
    <ele>100.2</ele>
    <time>2018-01-28T04:14:34Z</time>
   </trkpt>
   <trkpt lat="12.9114200" lon="99.6283800">
    <ele>100.3</ele>
    <time>2018-01-28T04:14:35Z</time>
   </trkpt>
   <trkpt lat="12.9113730" lon="99.6284030">
    <ele>100.3</ele>
    <time>2018-01-28T04:14:36Z</time>
   </trkpt>
   <trkpt lat="12.9113170" lon="99.6284220">
    <ele>100.3</ele>
    <time>2018-01-28T04:14:37Z</time>
   </trkpt>
   <trkpt lat="12.9112570" lon="99.6284490">
    <ele>100.3</ele>
    <time>2018-01-28T04:14:38Z</time>
   </trkpt>
   <trkpt lat="12.9112070" lon="99.6284680">
    <ele>100.3</ele>
    <time>2018-01-28T04:14:39Z</time>
   </trkpt>
   <trkpt lat="12.9111550" lon="99.6284860">
    <ele>100.2</ele>
    <time>2018-01-28T04:14:40Z</time>
   </trkpt>
   <trkpt lat="12.9110960" lon="99.6284980">
    <ele>100.2</ele>
    <time>2018-01-28T04:14:41Z</time>
   </trkpt>
   <trkpt lat="12.9110410" lon="99.6285130">
    <ele>100.3</ele>
    <time>2018-01-28T04:14:42Z</time>
   </trkpt>
   <trkpt lat="12.9109870" lon="99.6285370">
    <ele>100.3</ele>
    <time>2018-01-28T04:14:43Z</time>
   </trkpt>
   <trkpt lat="12.9109310" lon="99.6285520">
    <ele>100.4</ele>
    <time>2018-01-28T04:14:44Z</time>
   </trkpt>
   <trkpt lat="12.9108760" lon="99.6285740">
    <ele>100.5</ele>
    <time>2018-01-28T04:14:45Z</time>
   </trkpt>
   <trkpt lat="12.9108190" lon="99.6285920">
    <ele>100.5</ele>
    <time>2018-01-28T04:14:46Z</time>
   </trkpt>
   <trkpt lat="12.9107680" lon="99.6286040">
    <ele>100.5</ele>
    <time>2018-01-28T04:14:47Z</time>
   </trkpt>
   <trkpt lat="12.9107190" lon="99.6286210">
    <ele>100.5</ele>
    <time>2018-01-28T04:14:48Z</time>
   </trkpt>
   <trkpt lat="12.9106680" lon="99.6286420">
    <ele>100.5</ele>
    <time>2018-01-28T04:14:49Z</time>
   </trkpt>
   <trkpt lat="12.9106120" lon="99.6286590">
    <ele>100.5</ele>
    <time>2018-01-28T04:14:50Z</time>
   </trkpt>
   <trkpt lat="12.9105580" lon="99.6286750">
    <ele>100.6</ele>
    <time>2018-01-28T04:14:51Z</time>
   </trkpt>
   <trkpt lat="12.9105050" lon="99.6286950">
    <ele>100.6</ele>
    <time>2018-01-28T04:14:52Z</time>
   </trkpt>
   <trkpt lat="12.9104450" lon="99.6287240">
    <ele>100.6</ele>
    <time>2018-01-28T04:14:53Z</time>
   </trkpt>
   <trkpt lat="12.9103930" lon="99.6287440">
    <ele>100.6</ele>
    <time>2018-01-28T04:14:54Z</time>
   </trkpt>
   <trkpt lat="12.9103430" lon="99.6287610">
    <ele>100.6</ele>
    <time>2018-01-28T04:14:55Z</time>
   </trkpt>
   <trkpt lat="12.9102900" lon="99.6287840">
    <ele>100.5</ele>
    <time>2018-01-28T04:14:56Z</time>
   </trkpt>
   <trkpt lat="12.9102420" lon="99.6288120">
    <ele>100.6</ele>
    <time>2018-01-28T04:14:57Z</time>
   </trkpt>
   <trkpt lat="12.9101830" lon="99.6288280">
    <ele>100.7</ele>
    <time>2018-01-28T04:14:58Z</time>
   </trkpt>
   <trkpt lat="12.9101240" lon="99.6288460">
    <ele>100.8</ele>
    <time>2018-01-28T04:14:59Z</time>
   </trkpt>
   <trkpt lat="12.9100720" lon="99.6288630">
    <ele>100.9</ele>
    <time>2018-01-28T04:15:00Z</time>
   </trkpt>
   <trkpt lat="12.9100210" lon="99.6288820">
    <ele>100.9</ele>
    <time>2018-01-28T04:15:01Z</time>
   </trkpt>
   <trkpt lat="12.9099700" lon="99.6288960">
    <ele>100.9</ele>
    <time>2018-01-28T04:15:02Z</time>
   </trkpt>
   <trkpt lat="12.9099150" lon="99.6288980">
    <ele>100.9</ele>
    <time>2018-01-28T04:15:03Z</time>
   </trkpt>
   <trkpt lat="12.9098570" lon="99.6288820">
    <ele>100.9</ele>
    <time>2018-01-28T04:15:04Z</time>
   </trkpt>
   <trkpt lat="12.9098090" lon="99.6288470">
    <ele>100.8</ele>
    <time>2018-01-28T04:15:05Z</time>
   </trkpt>
   <trkpt lat="12.9097580" lon="99.6288070">
    <ele>100.8</ele>
    <time>2018-01-28T04:15:06Z</time>
   </trkpt>
   <trkpt lat="12.9097150" lon="99.6287670">
    <ele>100.8</ele>
    <time>2018-01-28T04:15:07Z</time>
   </trkpt>
   <trkpt lat="12.9096680" lon="99.6287330">
    <ele>100.9</ele>
    <time>2018-01-28T04:15:08Z</time>
   </trkpt>
   <trkpt lat="12.9096140" lon="99.6287000">
    <ele>100.9</ele>
    <time>2018-01-28T04:15:09Z</time>
   </trkpt>
   <trkpt lat="12.9095710" lon="99.6286680">
    <ele>100.9</ele>
    <time>2018-01-28T04:15:10Z</time>
   </trkpt>
   <trkpt lat="12.9095190" lon="99.6286540">
    <ele>100.8</ele>
    <time>2018-01-28T04:15:11Z</time>
   </trkpt>
   <trkpt lat="12.9094560" lon="99.6286530">
    <ele>100.5</ele>
    <time>2018-01-28T04:15:12Z</time>
   </trkpt>
   <trkpt lat="12.9094000" lon="99.6286680">
    <ele>100.3</ele>
    <time>2018-01-28T04:15:13Z</time>
   </trkpt>
   <trkpt lat="12.9093490" lon="99.6286900">
    <ele>100.0</ele>
    <time>2018-01-28T04:15:14Z</time>
   </trkpt>
   <trkpt lat="12.9092980" lon="99.6287230">
    <ele>99.6</ele>
    <time>2018-01-28T04:15:15Z</time>
   </trkpt>
   <trkpt lat="12.9092500" lon="99.6287640">
    <ele>99.2</ele>
    <time>2018-01-28T04:15:16Z</time>
   </trkpt>
   <trkpt lat="12.9091880" lon="99.6288320">
    <ele>98.6</ele>
    <time>2018-01-28T04:15:17Z</time>
   </trkpt>
   <trkpt lat="12.9091410" lon="99.6288730">
    <ele>98.0</ele>
    <time>2018-01-28T04:15:18Z</time>
   </trkpt>
   <trkpt lat="12.9090990" lon="99.6289530">
    <ele>97.2</ele>
    <time>2018-01-28T04:15:19Z</time>
   </trkpt>
   <trkpt lat="12.9090780" lon="99.6290360">
    <ele>96.3</ele>
    <time>2018-01-28T04:15:20Z</time>
   </trkpt>
   <trkpt lat="12.9090470" lon="99.6291270">
    <ele>95.2</ele>
    <time>2018-01-28T04:15:21Z</time>
   </trkpt>
   <trkpt lat="12.9090150" lon="99.6291990">
    <ele>94.3</ele>
    <time>2018-01-28T04:15:22Z</time>
   </trkpt>
   <trkpt lat="12.9089570" lon="99.6292720">
    <ele>93.5</ele>
    <time>2018-01-28T04:15:23Z</time>
   </trkpt>
   <trkpt lat="12.9088710" lon="99.6293090">
    <ele>93.0</ele>
    <time>2018-01-28T04:15:24Z</time>
   </trkpt>
   <trkpt lat="12.9087760" lon="99.6293240">
    <ele>92.7</ele>
    <time>2018-01-28T04:15:25Z</time>
   </trkpt>
   <trkpt lat="12.9086870" lon="99.6293480">
    <ele>92.4</ele>
    <time>2018-01-28T04:15:26Z</time>
   </trkpt>
   <trkpt lat="12.9086040" lon="99.6293610">
    <ele>92.3</ele>
    <time>2018-01-28T04:15:27Z</time>
   </trkpt>
   <trkpt lat="12.9085090" lon="99.6293660">
    <ele>92.4</ele>
    <time>2018-01-28T04:15:28Z</time>
   </trkpt>
   <trkpt lat="12.9084190" lon="99.6293740">
    <ele>92.6</ele>
    <time>2018-01-28T04:15:29Z</time>
   </trkpt>
   <trkpt lat="12.9083410" lon="99.6293840">
    <ele>92.8</ele>
    <time>2018-01-28T04:15:30Z</time>
   </trkpt>
   <trkpt lat="12.9082560" lon="99.6293970">
    <ele>93.0</ele>
    <time>2018-01-28T04:15:31Z</time>
   </trkpt>
   <trkpt lat="12.9081740" lon="99.6293970">
    <ele>93.0</ele>
    <time>2018-01-28T04:15:32Z</time>
   </trkpt>
   <trkpt lat="12.9080880" lon="99.6294020">
    <ele>93.1</ele>
    <time>2018-01-28T04:15:33Z</time>
   </trkpt>
   <trkpt lat="12.9080000" lon="99.6293780">
    <ele>93.6</ele>
    <time>2018-01-28T04:15:34Z</time>
   </trkpt>
   <trkpt lat="12.9079270" lon="99.6293490">
    <ele>94.5</ele>
    <time>2018-01-28T04:15:35Z</time>
   </trkpt>
   <trkpt lat="12.9078770" lon="99.6293030">
    <ele>95.7</ele>
    <time>2018-01-28T04:15:36Z</time>
   </trkpt>
   <trkpt lat="12.9078290" lon="99.6292750">
    <ele>96.9</ele>
    <time>2018-01-28T04:15:37Z</time>
   </trkpt>
   <trkpt lat="12.9077940" lon="99.6292560">
    <ele>97.8</ele>
    <time>2018-01-28T04:15:38Z</time>
   </trkpt>
   <trkpt lat="12.9077550" lon="99.6292550">
    <ele>98.5</ele>
    <time>2018-01-28T04:15:39Z</time>
   </trkpt>
   <trkpt lat="12.9077330" lon="99.6292740">
    <ele>99.0</ele>
    <time>2018-01-28T04:15:40Z</time>
   </trkpt>
   <trkpt lat="12.9077090" lon="99.6292880">
    <ele>99.3</ele>
    <time>2018-01-28T04:15:41Z</time>
   </trkpt>
   <trkpt lat="12.9076710" lon="99.6293000">
    <ele>99.7</ele>
    <time>2018-01-28T04:15:43Z</time>
   </trkpt>
   <trkpt lat="12.9076370" lon="99.6293150">
    <ele>100.0</ele>
    <time>2018-01-28T04:15:45Z</time>
   </trkpt>
   <trkpt lat="12.9076080" lon="99.6293310">
    <ele>100.3</ele>
    <time>2018-01-28T04:15:46Z</time>
   </trkpt>
   <trkpt lat="12.9075800" lon="99.6293520">
    <ele>100.5</ele>
    <time>2018-01-28T04:15:47Z</time>
   </trkpt>
   <trkpt lat="12.9075500" lon="99.6293720">
    <ele>100.6</ele>
    <time>2018-01-28T04:15:48Z</time>
   </trkpt>
   <trkpt lat="12.9075170" lon="99.6293940">
    <ele>100.7</ele>
    <time>2018-01-28T04:15:49Z</time>
   </trkpt>
   <trkpt lat="12.9074810" lon="99.6294170">
    <ele>100.7</ele>
    <time>2018-01-28T04:15:50Z</time>
   </trkpt>
   <trkpt lat="12.9074430" lon="99.6294420">
    <ele>100.6</ele>
    <time>2018-01-28T04:15:51Z</time>
   </trkpt>
   <trkpt lat="12.9074030" lon="99.6294670">
    <ele>100.6</ele>
    <time>2018-01-28T04:15:52Z</time>
   </trkpt>
   <trkpt lat="12.9073590" lon="99.6294930">
    <ele>100.5</ele>
    <time>2018-01-28T04:15:53Z</time>
   </trkpt>
   <trkpt lat="12.9073130" lon="99.6295190">
    <ele>100.4</ele>
    <time>2018-01-28T04:15:54Z</time>
   </trkpt>
   <trkpt lat="12.9072720" lon="99.6295470">
    <ele>100.4</ele>
    <time>2018-01-28T04:15:55Z</time>
   </trkpt>
   <trkpt lat="12.9072330" lon="99.6295720">
    <ele>100.3</ele>
    <time>2018-01-28T04:15:56Z</time>
   </trkpt>
   <trkpt lat="12.9072070" lon="99.6295880">
    <ele>100.3</ele>
    <time>2018-01-28T04:15:57Z</time>
   </trkpt>
   <trkpt lat="12.9071790" lon="99.6296040">
    <ele>100.3</ele>
    <time>2018-01-28T04:15:58Z</time>
   </trkpt>
   <trkpt lat="12.9071390" lon="99.6296250">
    <ele>100.3</ele>
    <time>2018-01-28T04:15:59Z</time>
   </trkpt>
   <trkpt lat="12.9070990" lon="99.6296500">
    <ele>100.3</ele>
    <time>2018-01-28T04:16:00Z</time>
   </trkpt>
   <trkpt lat="12.9070540" lon="99.6296790">
    <ele>100.3</ele>
    <time>2018-01-28T04:16:01Z</time>
   </trkpt>
   <trkpt lat="12.9069980" lon="99.6297200">
    <ele>100.3</ele>
    <time>2018-01-28T04:16:02Z</time>
   </trkpt>
   <trkpt lat="12.9069600" lon="99.6297430">
    <ele>100.4</ele>
    <time>2018-01-28T04:16:03Z</time>
   </trkpt>
   <trkpt lat="12.9069260" lon="99.6297680">
    <ele>100.4</ele>
    <time>2018-01-28T04:16:04Z</time>
   </trkpt>
   <trkpt lat="12.9068970" lon="99.6298020">
    <ele>100.5</ele>
    <time>2018-01-28T04:16:05Z</time>
   </trkpt>
   <trkpt lat="12.9068650" lon="99.6298360">
    <ele>100.6</ele>
    <time>2018-01-28T04:16:06Z</time>
   </trkpt>
   <trkpt lat="12.9068370" lon="99.6298650">
    <ele>100.7</ele>
    <time>2018-01-28T04:16:07Z</time>
   </trkpt>
   <trkpt lat="12.9068130" lon="99.6299090">
    <ele>100.9</ele>
    <time>2018-01-28T04:16:08Z</time>
   </trkpt>
   <trkpt lat="12.9067760" lon="99.6299320">
    <ele>101.1</ele>
    <time>2018-01-28T04:16:09Z</time>
   </trkpt>
   <trkpt lat="12.9067470" lon="99.6299600">
    <ele>101.3</ele>
    <time>2018-01-28T04:16:10Z</time>
   </trkpt>
   <trkpt lat="12.9067140" lon="99.6299930">
    <ele>101.6</ele>
    <time>2018-01-28T04:16:11Z</time>
   </trkpt>
   <trkpt lat="12.9066810" lon="99.6300130">
    <ele>101.9</ele>
    <time>2018-01-28T04:16:12Z</time>
   </trkpt>
   <trkpt lat="12.9066510" lon="99.6300430">
    <ele>102.1</ele>
    <time>2018-01-28T04:16:13Z</time>
   </trkpt>
   <trkpt lat="12.9066210" lon="99.6300680">
    <ele>102.2</ele>
    <time>2018-01-28T04:16:14Z</time>
   </trkpt>
   <trkpt lat="12.9065910" lon="99.6300900">
    <ele>102.4</ele>
    <time>2018-01-28T04:16:15Z</time>
   </trkpt>
   <trkpt lat="12.9065610" lon="99.6301110">
    <ele>102.4</ele>
    <time>2018-01-28T04:16:16Z</time>
   </trkpt>
   <trkpt lat="12.9065290" lon="99.6301330">
    <ele>102.5</ele>
    <time>2018-01-28T04:16:17Z</time>
   </trkpt>
   <trkpt lat="12.9065010" lon="99.6301610">
    <ele>102.5</ele>
    <time>2018-01-28T04:16:18Z</time>
   </trkpt>
   <trkpt lat="12.9064790" lon="99.6301970">
    <ele>102.5</ele>
    <time>2018-01-28T04:16:19Z</time>
   </trkpt>
   <trkpt lat="12.9064650" lon="99.6302380">
    <ele>102.5</ele>
    <time>2018-01-28T04:16:20Z</time>
   </trkpt>
   <trkpt lat="12.9064530" lon="99.6302770">
    <ele>102.5</ele>
    <time>2018-01-28T04:16:21Z</time>
   </trkpt>
   <trkpt lat="12.9064580" lon="99.6303210">
    <ele>102.5</ele>
    <time>2018-01-28T04:16:22Z</time>
   </trkpt>
   <trkpt lat="12.9064520" lon="99.6303560">
    <ele>102.4</ele>
    <time>2018-01-28T04:16:23Z</time>
   </trkpt>
   <trkpt lat="12.9064490" lon="99.6303840">
    <ele>102.4</ele>
    <time>2018-01-28T04:16:24Z</time>
   </trkpt>
   <trkpt lat="12.9064480" lon="99.6304120">
    <ele>102.3</ele>
    <time>2018-01-28T04:16:25Z</time>
   </trkpt>
   <trkpt lat="12.9064470" lon="99.6304500">
    <ele>102.3</ele>
    <time>2018-01-28T04:16:26Z</time>
   </trkpt>
   <trkpt lat="12.9064460" lon="99.6304860">
    <ele>102.2</ele>
    <time>2018-01-28T04:16:27Z</time>
   </trkpt>
   <trkpt lat="12.9064480" lon="99.6305180">
    <ele>102.2</ele>
    <time>2018-01-28T04:16:28Z</time>
   </trkpt>
   <trkpt lat="12.9064500" lon="99.6305560">
    <ele>102.2</ele>
    <time>2018-01-28T04:16:29Z</time>
   </trkpt>
   <trkpt lat="12.9064410" lon="99.6305950">
    <ele>102.2</ele>
    <time>2018-01-28T04:16:30Z</time>
   </trkpt>
   <trkpt lat="12.9064260" lon="99.6306280">
    <ele>102.2</ele>
    <time>2018-01-28T04:16:31Z</time>
   </trkpt>
   <trkpt lat="12.9064060" lon="99.6306560">
    <ele>102.2</ele>
    <time>2018-01-28T04:16:32Z</time>
   </trkpt>
   <trkpt lat="12.9063820" lon="99.6306840">
    <ele>102.2</ele>
    <time>2018-01-28T04:16:33Z</time>
   </trkpt>
   <trkpt lat="12.9063550" lon="99.6307130">
    <ele>102.3</ele>
    <time>2018-01-28T04:16:34Z</time>
   </trkpt>
   <trkpt lat="12.9063240" lon="99.6307350">
    <ele>102.3</ele>
    <time>2018-01-28T04:16:35Z</time>
   </trkpt>
   <trkpt lat="12.9062880" lon="99.6307810">
    <ele>102.3</ele>
    <time>2018-01-28T04:16:36Z</time>
   </trkpt>
   <trkpt lat="12.9062370" lon="99.6308210">
    <ele>102.3</ele>
    <time>2018-01-28T04:16:37Z</time>
   </trkpt>
   <trkpt lat="12.9061880" lon="99.6308660">
    <ele>102.3</ele>
    <time>2018-01-28T04:16:38Z</time>
   </trkpt>
   <trkpt lat="12.9061430" lon="99.6309190">
    <ele>102.2</ele>
    <time>2018-01-28T04:16:39Z</time>
   </trkpt>
   <trkpt lat="12.9061040" lon="99.6309750">
    <ele>102.0</ele>
    <time>2018-01-28T04:16:40Z</time>
   </trkpt>
   <trkpt lat="12.9060670" lon="99.6310250">
    <ele>101.9</ele>
    <time>2018-01-28T04:16:41Z</time>
   </trkpt>
   <trkpt lat="12.9060380" lon="99.6310870">
    <ele>101.6</ele>
    <time>2018-01-28T04:16:42Z</time>
   </trkpt>
   <trkpt lat="12.9060030" lon="99.6311550">
    <ele>101.3</ele>
    <time>2018-01-28T04:16:43Z</time>
   </trkpt>
   <trkpt lat="12.9059730" lon="99.6312200">
    <ele>101.0</ele>
    <time>2018-01-28T04:16:44Z</time>
   </trkpt>
   <trkpt lat="12.9059450" lon="99.6312680">
    <ele>100.8</ele>
    <time>2018-01-28T04:16:45Z</time>
   </trkpt>
   <trkpt lat="12.9059310" lon="99.6313160">
    <ele>100.6</ele>
    <time>2018-01-28T04:16:46Z</time>
   </trkpt>
   <trkpt lat="12.9059120" lon="99.6313580">
    <ele>100.4</ele>
    <time>2018-01-28T04:16:47Z</time>
   </trkpt>
   <trkpt lat="12.9058890" lon="99.6313900">
    <ele>100.3</ele>
    <time>2018-01-28T04:16:48Z</time>
   </trkpt>
   <trkpt lat="12.9058590" lon="99.6314150">
    <ele>100.1</ele>
    <time>2018-01-28T04:16:49Z</time>
   </trkpt>
   <trkpt lat="12.9058330" lon="99.6314340">
    <ele>100.0</ele>
    <time>2018-01-28T04:16:50Z</time>
   </trkpt>
   <trkpt lat="12.9057980" lon="99.6314660">
    <ele>99.7</ele>
    <time>2018-01-28T04:16:51Z</time>
   </trkpt>
   <trkpt lat="12.9057720" lon="99.6314860">
    <ele>99.5</ele>
    <time>2018-01-28T04:16:52Z</time>
   </trkpt>
   <trkpt lat="12.9057500" lon="99.6315020">
    <ele>99.3</ele>
    <time>2018-01-28T04:16:53Z</time>
   </trkpt>
   <trkpt lat="12.9057160" lon="99.6315160">
    <ele>99.0</ele>
    <time>2018-01-28T04:16:55Z</time>
   </trkpt>
   <trkpt lat="12.9057370" lon="99.6315150">
    <ele>99.2</ele>
    <time>2018-01-28T04:31:15Z</time>
   </trkpt>
   <trkpt lat="12.9057530" lon="99.6314900">
    <ele>99.4</ele>
    <time>2018-01-28T04:31:19Z</time>
   </trkpt>
   <trkpt lat="12.9057780" lon="99.6314650">
    <ele>99.6</ele>
    <time>2018-01-28T04:31:23Z</time>
   </trkpt>
   <trkpt lat="12.9057960" lon="99.6314420">
    <ele>99.8</ele>
    <time>2018-01-28T04:31:25Z</time>
   </trkpt>
   <trkpt lat="12.9058170" lon="99.6314130">
    <ele>100.0</ele>
    <time>2018-01-28T04:31:27Z</time>
   </trkpt>
   <trkpt lat="12.9058370" lon="99.6313830">
    <ele>100.1</ele>
    <time>2018-01-28T04:31:29Z</time>
   </trkpt>
   <trkpt lat="12.9058530" lon="99.6313580">
    <ele>100.2</ele>
    <time>2018-01-28T04:31:31Z</time>
   </trkpt>
   <trkpt lat="12.9058780" lon="99.6313190">
    <ele>100.4</ele>
    <time>2018-01-28T04:31:33Z</time>
   </trkpt>
   <trkpt lat="12.9058930" lon="99.6312950">
    <ele>100.5</ele>
    <time>2018-01-28T04:31:35Z</time>
   </trkpt>
   <trkpt lat="12.9059110" lon="99.6312610">
    <ele>100.7</ele>
    <time>2018-01-28T04:31:37Z</time>
   </trkpt>
   <trkpt lat="12.9059310" lon="99.6312190">
    <ele>100.9</ele>
    <time>2018-01-28T04:31:39Z</time>
   </trkpt>
   <trkpt lat="12.9059500" lon="99.6311770">
    <ele>101.1</ele>
    <time>2018-01-28T04:31:41Z</time>
   </trkpt>
   <trkpt lat="12.9059720" lon="99.6311320">
    <ele>101.3</ele>
    <time>2018-01-28T04:31:43Z</time>
   </trkpt>
   <trkpt lat="12.9059940" lon="99.6310850">
    <ele>101.5</ele>
    <time>2018-01-28T04:31:45Z</time>
   </trkpt>
   <trkpt lat="12.9060180" lon="99.6310370">
    <ele>101.7</ele>
    <time>2018-01-28T04:31:47Z</time>
   </trkpt>
   <trkpt lat="12.9060530" lon="99.6309980">
    <ele>101.9</ele>
    <time>2018-01-28T04:31:49Z</time>
   </trkpt>
   <trkpt lat="12.9060860" lon="99.6309540">
    <ele>102.0</ele>
    <time>2018-01-28T04:31:51Z</time>
   </trkpt>
   <trkpt lat="12.9061010" lon="99.6309300">
    <ele>102.1</ele>
    <time>2018-01-28T04:31:52Z</time>
   </trkpt>
   <trkpt lat="12.9061190" lon="99.6309060">
    <ele>102.1</ele>
    <time>2018-01-28T04:31:53Z</time>
   </trkpt>
   <trkpt lat="12.9061400" lon="99.6308840">
    <ele>102.2</ele>
    <time>2018-01-28T04:31:54Z</time>
   </trkpt>
   <trkpt lat="12.9061630" lon="99.6308630">
    <ele>102.2</ele>
    <time>2018-01-28T04:31:55Z</time>
   </trkpt>
   <trkpt lat="12.9061890" lon="99.6308440">
    <ele>102.3</ele>
    <time>2018-01-28T04:31:56Z</time>
   </trkpt>
   <trkpt lat="12.9062140" lon="99.6308230">
    <ele>102.3</ele>
    <time>2018-01-28T04:31:57Z</time>
   </trkpt>
   <trkpt lat="12.9062460" lon="99.6307960">
    <ele>102.3</ele>
    <time>2018-01-28T04:31:58Z</time>
   </trkpt>
   <trkpt lat="12.9062720" lon="99.6307730">
    <ele>102.3</ele>
    <time>2018-01-28T04:31:59Z</time>
   </trkpt>
   <trkpt lat="12.9063000" lon="99.6307500">
    <ele>102.3</ele>
    <time>2018-01-28T04:32:00Z</time>
   </trkpt>
   <trkpt lat="12.9063240" lon="99.6307270">
    <ele>102.3</ele>
    <time>2018-01-28T04:32:01Z</time>
   </trkpt>
   <trkpt lat="12.9063460" lon="99.6306990">
    <ele>102.3</ele>
    <time>2018-01-28T04:32:02Z</time>
   </trkpt>
   <trkpt lat="12.9063710" lon="99.6306660">
    <ele>102.2</ele>
    <time>2018-01-28T04:32:03Z</time>
   </trkpt>
   <trkpt lat="12.9063920" lon="99.6306320">
    <ele>102.2</ele>
    <time>2018-01-28T04:32:04Z</time>
   </trkpt>
   <trkpt lat="12.9064050" lon="99.6305940">
    <ele>102.2</ele>
    <time>2018-01-28T04:32:05Z</time>
   </trkpt>
   <trkpt lat="12.9064130" lon="99.6305520">
    <ele>102.2</ele>
    <time>2018-01-28T04:32:06Z</time>
   </trkpt>
   <trkpt lat="12.9064170" lon="99.6305090">
    <ele>102.2</ele>
    <time>2018-01-28T04:32:07Z</time>
   </trkpt>
   <trkpt lat="12.9064160" lon="99.6304660">
    <ele>102.2</ele>
    <time>2018-01-28T04:32:08Z</time>
   </trkpt>
   <trkpt lat="12.9064130" lon="99.6304260">
    <ele>102.2</ele>
    <time>2018-01-28T04:32:09Z</time>
   </trkpt>
   <trkpt lat="12.9064100" lon="99.6303860">
    <ele>102.3</ele>
    <time>2018-01-28T04:32:10Z</time>
   </trkpt>
   <trkpt lat="12.9064090" lon="99.6303470">
    <ele>102.4</ele>
    <time>2018-01-28T04:32:11Z</time>
   </trkpt>
   <trkpt lat="12.9064120" lon="99.6303060">
    <ele>102.4</ele>
    <time>2018-01-28T04:32:12Z</time>
   </trkpt>
   <trkpt lat="12.9064140" lon="99.6302630">
    <ele>102.5</ele>
    <time>2018-01-28T04:32:13Z</time>
   </trkpt>
   <trkpt lat="12.9064130" lon="99.6302220">
    <ele>102.5</ele>
    <time>2018-01-28T04:32:14Z</time>
   </trkpt>
   <trkpt lat="12.9064170" lon="99.6301830">
    <ele>102.5</ele>
    <time>2018-01-28T04:32:15Z</time>
   </trkpt>
   <trkpt lat="12.9064340" lon="99.6301480">
    <ele>102.5</ele>
    <time>2018-01-28T04:32:16Z</time>
   </trkpt>
   <trkpt lat="12.9064560" lon="99.6301110">
    <ele>102.5</ele>
    <time>2018-01-28T04:32:17Z</time>
   </trkpt>
   <trkpt lat="12.9064860" lon="99.6300770">
    <ele>102.5</ele>
    <time>2018-01-28T04:32:18Z</time>
   </trkpt>
   <trkpt lat="12.9065290" lon="99.6300500">
    <ele>102.4</ele>
    <time>2018-01-28T04:32:19Z</time>
   </trkpt>
   <trkpt lat="12.9065620" lon="99.6300230">
    <ele>102.3</ele>
    <time>2018-01-28T04:32:20Z</time>
   </trkpt>
   <trkpt lat="12.9065990" lon="99.6299950">
    <ele>102.1</ele>
    <time>2018-01-28T04:32:21Z</time>
   </trkpt>
   <trkpt lat="12.9066410" lon="99.6299650">
    <ele>101.8</ele>
    <time>2018-01-28T04:32:22Z</time>
   </trkpt>
   <trkpt lat="12.9066790" lon="99.6299220">
    <ele>101.4</ele>
    <time>2018-01-28T04:32:23Z</time>
   </trkpt>
   <trkpt lat="12.9067110" lon="99.6298760">
    <ele>101.1</ele>
    <time>2018-01-28T04:32:24Z</time>
   </trkpt>
   <trkpt lat="12.9067530" lon="99.6298380">
    <ele>100.8</ele>
    <time>2018-01-28T04:32:25Z</time>
   </trkpt>
   <trkpt lat="12.9067960" lon="99.6297940">
    <ele>100.6</ele>
    <time>2018-01-28T04:32:26Z</time>
   </trkpt>
   <trkpt lat="12.9068380" lon="99.6297620">
    <ele>100.5</ele>
    <time>2018-01-28T04:32:27Z</time>
   </trkpt>
   <trkpt lat="12.9068740" lon="99.6297300">
    <ele>100.4</ele>
    <time>2018-01-28T04:32:28Z</time>
   </trkpt>
   <trkpt lat="12.9069140" lon="99.6296990">
    <ele>100.4</ele>
    <time>2018-01-28T04:32:29Z</time>
   </trkpt>
   <trkpt lat="12.9069680" lon="99.6296680">
    <ele>100.3</ele>
    <time>2018-01-28T04:32:30Z</time>
   </trkpt>
   <trkpt lat="12.9070190" lon="99.6296420">
    <ele>100.3</ele>
    <time>2018-01-28T04:32:31Z</time>
   </trkpt>
   <trkpt lat="12.9070690" lon="99.6296160">
    <ele>100.3</ele>
    <time>2018-01-28T04:32:32Z</time>
   </trkpt>
   <trkpt lat="12.9071190" lon="99.6295910">
    <ele>100.3</ele>
    <time>2018-01-28T04:32:33Z</time>
   </trkpt>
   <trkpt lat="12.9071710" lon="99.6295620">
    <ele>100.3</ele>
    <time>2018-01-28T04:32:34Z</time>
   </trkpt>
   <trkpt lat="12.9072240" lon="99.6295370">
    <ele>100.4</ele>
    <time>2018-01-28T04:32:35Z</time>
   </trkpt>
   <trkpt lat="12.9072670" lon="99.6295160">
    <ele>100.4</ele>
    <time>2018-01-28T04:32:36Z</time>
   </trkpt>
   <trkpt lat="12.9073150" lon="99.6294910">
    <ele>100.5</ele>
    <time>2018-01-28T04:32:37Z</time>
   </trkpt>
   <trkpt lat="12.9073700" lon="99.6294570">
    <ele>100.6</ele>
    <time>2018-01-28T04:32:38Z</time>
   </trkpt>
   <trkpt lat="12.9074260" lon="99.6294310">
    <ele>100.7</ele>
    <time>2018-01-28T04:32:39Z</time>
   </trkpt>
   <trkpt lat="12.9074730" lon="99.6294020">
    <ele>100.7</ele>
    <time>2018-01-28T04:32:40Z</time>
   </trkpt>
   <trkpt lat="12.9075140" lon="99.6293810">
    <ele>100.6</ele>
    <time>2018-01-28T04:32:41Z</time>
   </trkpt>
   <trkpt lat="12.9075570" lon="99.6293510">
    <ele>100.5</ele>
    <time>2018-01-28T04:32:42Z</time>
   </trkpt>
   <trkpt lat="12.9076000" lon="99.6293280">
    <ele>100.2</ele>
    <time>2018-01-28T04:32:43Z</time>
   </trkpt>
   <trkpt lat="12.9076420" lon="99.6293030">
    <ele>99.8</ele>
    <time>2018-01-28T04:32:44Z</time>
   </trkpt>
   <trkpt lat="12.9076900" lon="99.6292840">
    <ele>99.3</ele>
    <time>2018-01-28T04:32:45Z</time>
   </trkpt>
   <trkpt lat="12.9077440" lon="99.6292450">
    <ele>98.3</ele>
    <time>2018-01-28T04:32:46Z</time>
   </trkpt>
   <trkpt lat="12.9078020" lon="99.6292320">
    <ele>97.1</ele>
    <time>2018-01-28T04:32:47Z</time>
   </trkpt>
   <trkpt lat="12.9078730" lon="99.6292610">
    <ele>95.4</ele>
    <time>2018-01-28T04:32:48Z</time>
   </trkpt>
   <trkpt lat="12.9079040" lon="99.6292920">
    <ele>94.6</ele>
    <time>2018-01-28T04:32:49Z</time>
   </trkpt>
   <trkpt lat="12.9079610" lon="99.6293370">
    <ele>93.7</ele>
    <time>2018-01-28T04:32:50Z</time>
   </trkpt>
   <trkpt lat="12.9080040" lon="99.6293730">
    <ele>93.3</ele>
    <time>2018-01-28T04:32:51Z</time>
   </trkpt>
   <trkpt lat="12.9080800" lon="99.6293860">
    <ele>93.1</ele>
    <time>2018-01-28T04:32:52Z</time>
   </trkpt>
   <trkpt lat="12.9081450" lon="99.6293860">
    <ele>93.0</ele>
    <time>2018-01-28T04:32:53Z</time>
   </trkpt>
   <trkpt lat="12.9082060" lon="99.6293770">
    <ele>93.0</ele>
    <time>2018-01-28T04:32:54Z</time>
   </trkpt>
   <trkpt lat="12.9082720" lon="99.6293680">
    <ele>92.9</ele>
    <time>2018-01-28T04:32:55Z</time>
   </trkpt>
   <trkpt lat="12.9083380" lon="99.6293720">
    <ele>92.7</ele>
    <time>2018-01-28T04:32:56Z</time>
   </trkpt>
   <trkpt lat="12.9084010" lon="99.6293550">
    <ele>92.5</ele>
    <time>2018-01-28T04:32:57Z</time>
   </trkpt>
   <trkpt lat="12.9084690" lon="99.6293520">
    <ele>92.4</ele>
    <time>2018-01-28T04:32:58Z</time>
   </trkpt>
   <trkpt lat="12.9085150" lon="99.6293340">
    <ele>92.3</ele>
    <time>2018-01-28T04:32:59Z</time>
   </trkpt>
   <trkpt lat="12.9085610" lon="99.6293220">
    <ele>92.3</ele>
    <time>2018-01-28T04:33:00Z</time>
   </trkpt>
   <trkpt lat="12.9086200" lon="99.6293140">
    <ele>92.4</ele>
    <time>2018-01-28T04:33:01Z</time>
   </trkpt>
   <trkpt lat="12.9086870" lon="99.6293140">
    <ele>92.5</ele>
    <time>2018-01-28T04:33:02Z</time>
   </trkpt>
   <trkpt lat="12.9087480" lon="99.6293150">
    <ele>92.7</ele>
    <time>2018-01-28T04:33:03Z</time>
   </trkpt>
   <trkpt lat="12.9088090" lon="99.6293120">
    <ele>92.9</ele>
    <time>2018-01-28T04:33:04Z</time>
   </trkpt>
   <trkpt lat="12.9088690" lon="99.6293000">
    <ele>93.2</ele>
    <time>2018-01-28T04:33:05Z</time>
   </trkpt>
   <trkpt lat="12.9089260" lon="99.6292800">
    <ele>93.5</ele>
    <time>2018-01-28T04:33:06Z</time>
   </trkpt>
   <trkpt lat="12.9089640" lon="99.6292360">
    <ele>93.9</ele>
    <time>2018-01-28T04:33:07Z</time>
   </trkpt>
   <trkpt lat="12.9089950" lon="99.6292040">
    <ele>94.3</ele>
    <time>2018-01-28T04:33:08Z</time>
   </trkpt>
   <trkpt lat="12.9090030" lon="99.6291650">
    <ele>94.8</ele>
    <time>2018-01-28T04:33:09Z</time>
   </trkpt>
   <trkpt lat="12.9090170" lon="99.6291310">
    <ele>95.2</ele>
    <time>2018-01-28T04:33:10Z</time>
   </trkpt>
   <trkpt lat="12.9090280" lon="99.6290980">
    <ele>95.7</ele>
    <time>2018-01-28T04:33:11Z</time>
   </trkpt>
   <trkpt lat="12.9090390" lon="99.6290660">
    <ele>96.0</ele>
    <time>2018-01-28T04:33:12Z</time>
   </trkpt>
   <trkpt lat="12.9090430" lon="99.6290300">
    <ele>96.5</ele>
    <time>2018-01-28T04:33:13Z</time>
   </trkpt>
   <trkpt lat="12.9090510" lon="99.6290000">
    <ele>96.8</ele>
    <time>2018-01-28T04:33:14Z</time>
   </trkpt>
   <trkpt lat="12.9090590" lon="99.6289640">
    <ele>97.2</ele>
    <time>2018-01-28T04:33:15Z</time>
   </trkpt>
   <trkpt lat="12.9090830" lon="99.6289100">
    <ele>97.7</ele>
    <time>2018-01-28T04:33:17Z</time>
   </trkpt>
   <trkpt lat="12.9091060" lon="99.6288820">
    <ele>98.0</ele>
    <time>2018-01-28T04:33:18Z</time>
   </trkpt>
   <trkpt lat="12.9091380" lon="99.6288460">
    <ele>98.4</ele>
    <time>2018-01-28T04:33:21Z</time>
   </trkpt>
   <trkpt lat="12.9091610" lon="99.6288200">
    <ele>98.7</ele>
    <time>2018-01-28T04:33:22Z</time>
   </trkpt>
   <trkpt lat="12.9091820" lon="99.6288000">
    <ele>98.9</ele>
    <time>2018-01-28T04:33:23Z</time>
   </trkpt>
   <trkpt lat="12.9092570" lon="99.6287390">
    <ele>99.6</ele>
    <time>2018-01-28T04:33:24Z</time>
   </trkpt>
   <trkpt lat="12.9092840" lon="99.6287250">
    <ele>99.8</ele>
    <time>2018-01-28T04:33:25Z</time>
   </trkpt>
   <trkpt lat="12.9093060" lon="99.6287060">
    <ele>99.9</ele>
    <time>2018-01-28T04:33:26Z</time>
   </trkpt>
   <trkpt lat="12.9093290" lon="99.6286910">
    <ele>100.1</ele>
    <time>2018-01-28T04:33:27Z</time>
   </trkpt>
   <trkpt lat="12.9093630" lon="99.6286810">
    <ele>100.3</ele>
    <time>2018-01-28T04:33:28Z</time>
   </trkpt>
   <trkpt lat="12.9093930" lon="99.6286680">
    <ele>100.4</ele>
    <time>2018-01-28T04:33:29Z</time>
   </trkpt>
   <trkpt lat="12.9094240" lon="99.6286630">
    <ele>100.6</ele>
    <time>2018-01-28T04:33:30Z</time>
   </trkpt>
   <trkpt lat="12.9094600" lon="99.6286580">
    <ele>100.7</ele>
    <time>2018-01-28T04:33:31Z</time>
   </trkpt>
   <trkpt lat="12.9094940" lon="99.6286550">
    <ele>100.8</ele>
    <time>2018-01-28T04:33:32Z</time>
   </trkpt>
   <trkpt lat="12.9095300" lon="99.6286570">
    <ele>100.9</ele>
    <time>2018-01-28T04:33:33Z</time>
   </trkpt>
   <trkpt lat="12.9095660" lon="99.6286690">
    <ele>100.9</ele>
    <time>2018-01-28T04:33:34Z</time>
   </trkpt>
   <trkpt lat="12.9096040" lon="99.6286820">
    <ele>100.9</ele>
    <time>2018-01-28T04:33:35Z</time>
   </trkpt>
   <trkpt lat="12.9096350" lon="99.6286920">
    <ele>100.9</ele>
    <time>2018-01-28T04:33:36Z</time>
   </trkpt>
   <trkpt lat="12.9096630" lon="99.6287060">
    <ele>100.8</ele>
    <time>2018-01-28T04:33:37Z</time>
   </trkpt>
   <trkpt lat="12.9096900" lon="99.6287230">
    <ele>100.8</ele>
    <time>2018-01-28T04:33:38Z</time>
   </trkpt>
   <trkpt lat="12.9097160" lon="99.6287410">
    <ele>100.8</ele>
    <time>2018-01-28T04:33:39Z</time>
   </trkpt>
   <trkpt lat="12.9097450" lon="99.6287700">
    <ele>100.8</ele>
    <time>2018-01-28T04:33:40Z</time>
   </trkpt>
   <trkpt lat="12.9097780" lon="99.6288160">
    <ele>100.8</ele>
    <time>2018-01-28T04:33:41Z</time>
   </trkpt>
   <trkpt lat="12.9098190" lon="99.6288440">
    <ele>100.9</ele>
    <time>2018-01-28T04:33:42Z</time>
   </trkpt>
   <trkpt lat="12.9098510" lon="99.6288590">
    <ele>100.9</ele>
    <time>2018-01-28T04:33:43Z</time>
   </trkpt>
   <trkpt lat="12.9098970" lon="99.6288650">
    <ele>100.9</ele>
    <time>2018-01-28T04:33:44Z</time>
   </trkpt>
   <trkpt lat="12.9099450" lon="99.6288680">
    <ele>100.9</ele>
    <time>2018-01-28T04:33:45Z</time>
   </trkpt>
   <trkpt lat="12.9099970" lon="99.6288590">
    <ele>100.9</ele>
    <time>2018-01-28T04:33:46Z</time>
   </trkpt>
   <trkpt lat="12.9100280" lon="99.6288500">
    <ele>100.9</ele>
    <time>2018-01-28T04:33:47Z</time>
   </trkpt>
   <trkpt lat="12.9100630" lon="99.6288340">
    <ele>100.9</ele>
    <time>2018-01-28T04:33:48Z</time>
   </trkpt>
   <trkpt lat="12.9101050" lon="99.6288150">
    <ele>100.8</ele>
    <time>2018-01-28T04:33:49Z</time>
   </trkpt>
   <trkpt lat="12.9101500" lon="99.6288090">
    <ele>100.7</ele>
    <time>2018-01-28T04:33:50Z</time>
   </trkpt>
   <trkpt lat="12.9101950" lon="99.6287890">
    <ele>100.6</ele>
    <time>2018-01-28T04:33:51Z</time>
   </trkpt>
   <trkpt lat="12.9102520" lon="99.6287670">
    <ele>100.5</ele>
    <time>2018-01-28T04:33:52Z</time>
   </trkpt>
   <trkpt lat="12.9102990" lon="99.6287480">
    <ele>100.5</ele>
    <time>2018-01-28T04:33:53Z</time>
   </trkpt>
   <trkpt lat="12.9103350" lon="99.6287330">
    <ele>100.6</ele>
    <time>2018-01-28T04:33:54Z</time>
   </trkpt>
   <trkpt lat="12.9103890" lon="99.6287170">
    <ele>100.6</ele>
    <time>2018-01-28T04:33:55Z</time>
   </trkpt>
   <trkpt lat="12.9104440" lon="99.6287000">
    <ele>100.6</ele>
    <time>2018-01-28T04:33:56Z</time>
   </trkpt>
   <trkpt lat="12.9104860" lon="99.6286720">
    <ele>100.6</ele>
    <time>2018-01-28T04:33:57Z</time>
   </trkpt>
   <trkpt lat="12.9105310" lon="99.6286660">
    <ele>100.6</ele>
    <time>2018-01-28T04:33:58Z</time>
   </trkpt>
   <trkpt lat="12.9105720" lon="99.6286420">
    <ele>100.5</ele>
    <time>2018-01-28T04:33:59Z</time>
   </trkpt>
   <trkpt lat="12.9106080" lon="99.6286220">
    <ele>100.5</ele>
    <time>2018-01-28T04:34:00Z</time>
   </trkpt>
   <trkpt lat="12.9106490" lon="99.6286070">
    <ele>100.5</ele>
    <time>2018-01-28T04:34:01Z</time>
   </trkpt>
   <trkpt lat="12.9106930" lon="99.6285880">
    <ele>100.5</ele>
    <time>2018-01-28T04:34:02Z</time>
   </trkpt>
   <trkpt lat="12.9107400" lon="99.6285640">
    <ele>100.5</ele>
    <time>2018-01-28T04:34:03Z</time>
   </trkpt>
   <trkpt lat="12.9107960" lon="99.6285370">
    <ele>100.5</ele>
    <time>2018-01-28T04:34:04Z</time>
   </trkpt>
   <trkpt lat="12.9108500" lon="99.6285230">
    <ele>100.5</ele>
    <time>2018-01-28T04:34:05Z</time>
   </trkpt>
   <trkpt lat="12.9109010" lon="99.6285070">
    <ele>100.4</ele>
    <time>2018-01-28T04:34:06Z</time>
   </trkpt>
   <trkpt lat="12.9109440" lon="99.6284860">
    <ele>100.3</ele>
    <time>2018-01-28T04:34:07Z</time>
   </trkpt>
   <trkpt lat="12.9109940" lon="99.6284760">
    <ele>100.3</ele>
    <time>2018-01-28T04:34:08Z</time>
   </trkpt>
   <trkpt lat="12.9110460" lon="99.6284570">
    <ele>100.2</ele>
    <time>2018-01-28T04:34:09Z</time>
   </trkpt>
   <trkpt lat="12.9110870" lon="99.6284330">
    <ele>100.2</ele>
    <time>2018-01-28T04:34:10Z</time>
   </trkpt>
   <trkpt lat="12.9111340" lon="99.6284140">
    <ele>100.2</ele>
    <time>2018-01-28T04:34:11Z</time>
   </trkpt>
   <trkpt lat="12.9111870" lon="99.6283950">
    <ele>100.3</ele>
    <time>2018-01-28T04:34:12Z</time>
   </trkpt>
   <trkpt lat="12.9112400" lon="99.6283660">
    <ele>100.3</ele>
    <time>2018-01-28T04:34:13Z</time>
   </trkpt>
   <trkpt lat="12.9112870" lon="99.6283460">
    <ele>100.3</ele>
    <time>2018-01-28T04:34:14Z</time>
   </trkpt>
   <trkpt lat="12.9113350" lon="99.6283310">
    <ele>100.3</ele>
    <time>2018-01-28T04:34:15Z</time>
   </trkpt>
   <trkpt lat="12.9113710" lon="99.6283000">
    <ele>100.3</ele>
    <time>2018-01-28T04:34:16Z</time>
   </trkpt>
   <trkpt lat="12.9114170" lon="99.6282790">
    <ele>100.2</ele>
    <time>2018-01-28T04:34:17Z</time>
   </trkpt>
   <trkpt lat="12.9114710" lon="99.6282640">
    <ele>100.2</ele>
    <time>2018-01-28T04:34:18Z</time>
   </trkpt>
   <trkpt lat="12.9115260" lon="99.6282430">
    <ele>100.3</ele>
    <time>2018-01-28T04:34:19Z</time>
   </trkpt>
   <trkpt lat="12.9115750" lon="99.6282210">
    <ele>100.3</ele>
    <time>2018-01-28T04:34:20Z</time>
   </trkpt>
   <trkpt lat="12.9116240" lon="99.6281940">
    <ele>100.4</ele>
    <time>2018-01-28T04:34:21Z</time>
   </trkpt>
   <trkpt lat="12.9116790" lon="99.6281900">
    <ele>100.3</ele>
    <time>2018-01-28T04:34:22Z</time>
   </trkpt>
   <trkpt lat="12.9117310" lon="99.6281710">
    <ele>100.3</ele>
    <time>2018-01-28T04:34:23Z</time>
   </trkpt>
   <trkpt lat="12.9117850" lon="99.6281500">
    <ele>100.2</ele>
    <time>2018-01-28T04:34:24Z</time>
   </trkpt>
   <trkpt lat="12.9118390" lon="99.6281320">
    <ele>100.2</ele>
    <time>2018-01-28T04:34:25Z</time>
   </trkpt>
   <trkpt lat="12.9119000" lon="99.6281130">
    <ele>100.2</ele>
    <time>2018-01-28T04:34:26Z</time>
   </trkpt>
   <trkpt lat="12.9119590" lon="99.6280930">
    <ele>100.2</ele>
    <time>2018-01-28T04:34:27Z</time>
   </trkpt>
   <trkpt lat="12.9120010" lon="99.6280750">
    <ele>100.2</ele>
    <time>2018-01-28T04:34:28Z</time>
   </trkpt>
   <trkpt lat="12.9120540" lon="99.6280470">
    <ele>100.2</ele>
    <time>2018-01-28T04:34:29Z</time>
   </trkpt>
   <trkpt lat="12.9120970" lon="99.6280310">
    <ele>100.2</ele>
    <time>2018-01-28T04:34:30Z</time>
   </trkpt>
   <trkpt lat="12.9121420" lon="99.6280170">
    <ele>100.2</ele>
    <time>2018-01-28T04:34:31Z</time>
   </trkpt>
   <trkpt lat="12.9121890" lon="99.6279980">
    <ele>100.3</ele>
    <time>2018-01-28T04:34:32Z</time>
   </trkpt>
   <trkpt lat="12.9122340" lon="99.6279780">
    <ele>100.3</ele>
    <time>2018-01-28T04:34:33Z</time>
   </trkpt>
   <trkpt lat="12.9122660" lon="99.6279580">
    <ele>100.4</ele>
    <time>2018-01-28T04:34:34Z</time>
   </trkpt>
   <trkpt lat="12.9123100" lon="99.6279340">
    <ele>100.4</ele>
    <time>2018-01-28T04:34:35Z</time>
   </trkpt>
   <trkpt lat="12.9123470" lon="99.6279080">
    <ele>100.5</ele>
    <time>2018-01-28T04:34:36Z</time>
   </trkpt>
   <trkpt lat="12.9123820" lon="99.6278820">
    <ele>100.5</ele>
    <time>2018-01-28T04:34:37Z</time>
   </trkpt>
   <trkpt lat="12.9124190" lon="99.6278690">
    <ele>100.5</ele>
    <time>2018-01-28T04:34:38Z</time>
   </trkpt>
   <trkpt lat="12.9124530" lon="99.6278580">
    <ele>100.5</ele>
    <time>2018-01-28T04:34:39Z</time>
   </trkpt>
   <trkpt lat="12.9124930" lon="99.6278510">
    <ele>100.5</ele>
    <time>2018-01-28T04:34:40Z</time>
   </trkpt>
   <trkpt lat="12.9125330" lon="99.6278450">
    <ele>100.6</ele>
    <time>2018-01-28T04:34:41Z</time>
   </trkpt>
   <trkpt lat="12.9125620" lon="99.6278400">
    <ele>100.6</ele>
    <time>2018-01-28T04:34:42Z</time>
   </trkpt>
   <trkpt lat="12.9125890" lon="99.6278380">
    <ele>100.7</ele>
    <time>2018-01-28T04:34:43Z</time>
   </trkpt>
   <trkpt lat="12.9126390" lon="99.6278540">
    <ele>100.8</ele>
    <time>2018-01-28T04:34:45Z</time>
   </trkpt>
   <trkpt lat="12.9126660" lon="99.6278620">
    <ele>100.9</ele>
    <time>2018-01-28T04:34:46Z</time>
   </trkpt>
   <trkpt lat="12.9127150" lon="99.6278760">
    <ele>101.1</ele>
    <time>2018-01-28T04:34:48Z</time>
   </trkpt>
   <trkpt lat="12.9127710" lon="99.6278960">
    <ele>104.3</ele>
    <time>2018-01-28T04:34:50Z</time>
   </trkpt>
   <trkpt lat="12.9128060" lon="99.6279050">
    <ele>106.6</ele>
    <time>2018-01-28T04:34:51Z</time>
   </trkpt>
   <trkpt lat="12.9128440" lon="99.6279150">
    <ele>109.0</ele>
    <time>2018-01-28T04:34:52Z</time>
   </trkpt>
   <trkpt lat="12.9128820" lon="99.6279240">
    <ele>109.9</ele>
    <time>2018-01-28T04:34:53Z</time>
   </trkpt>
   <trkpt lat="12.9129190" lon="99.6279350">
    <ele>111.1</ele>
    <time>2018-01-28T04:34:54Z</time>
   </trkpt>
   <trkpt lat="12.9129580" lon="99.6279460">
    <ele>113.4</ele>
    <time>2018-01-28T04:34:55Z</time>
   </trkpt>
   <trkpt lat="12.9129980" lon="99.6279560">
    <ele>115.2</ele>
    <time>2018-01-28T04:34:56Z</time>
   </trkpt>
   <trkpt lat="12.9130400" lon="99.6279620">
    <ele>116.5</ele>
    <time>2018-01-28T04:34:57Z</time>
   </trkpt>
   <trkpt lat="12.9130870" lon="99.6279730">
    <ele>116.4</ele>
    <time>2018-01-28T04:34:59Z</time>
   </trkpt>
   <trkpt lat="12.9131230" lon="99.6279880">
    <ele>117.7</ele>
    <time>2018-01-28T04:35:00Z</time>
   </trkpt>
   <trkpt lat="12.9131380" lon="99.6280160">
    <ele>117.1</ele>
    <time>2018-01-28T04:35:01Z</time>
   </trkpt>
   <trkpt lat="12.9132380" lon="99.6280600">
    <ele>115.9</ele>
    <time>2018-01-28T04:35:02Z</time>
   </trkpt>
   <trkpt lat="12.9132760" lon="99.6280770">
    <ele>116.7</ele>
    <time>2018-01-28T04:35:03Z</time>
   </trkpt>
   <trkpt lat="12.9133080" lon="99.6280920">
    <ele>117.5</ele>
    <time>2018-01-28T04:35:04Z</time>
   </trkpt>
   <trkpt lat="12.9133420" lon="99.6281070">
    <ele>117.0</ele>
    <time>2018-01-28T04:35:05Z</time>
   </trkpt>
   <trkpt lat="12.9133800" lon="99.6281160">
    <ele>118.0</ele>
    <time>2018-01-28T04:35:06Z</time>
   </trkpt>
   <trkpt lat="12.9134180" lon="99.6281180">
    <ele>119.0</ele>
    <time>2018-01-28T04:35:07Z</time>
   </trkpt>
   <trkpt lat="12.9134510" lon="99.6281190">
    <ele>120.0</ele>
    <time>2018-01-28T04:35:08Z</time>
   </trkpt>
   <trkpt lat="12.9134850" lon="99.6281210">
    <ele>121.0</ele>
    <time>2018-01-28T04:35:09Z</time>
   </trkpt>
   <trkpt lat="12.9135200" lon="99.6281190">
    <ele>122.1</ele>
    <time>2018-01-28T04:35:10Z</time>
   </trkpt>
   <trkpt lat="12.9135570" lon="99.6281110">
    <ele>123.2</ele>
    <time>2018-01-28T04:35:11Z</time>
   </trkpt>
   <trkpt lat="12.9135990" lon="99.6281040">
    <ele>124.2</ele>
    <time>2018-01-28T04:35:12Z</time>
   </trkpt>
   <trkpt lat="12.9136460" lon="99.6281000">
    <ele>126.6</ele>
    <time>2018-01-28T04:35:13Z</time>
   </trkpt>
   <trkpt lat="12.9136850" lon="99.6280940">
    <ele>127.2</ele>
    <time>2018-01-28T04:35:14Z</time>
   </trkpt>
   <trkpt lat="12.9137290" lon="99.6280870">
    <ele>127.8</ele>
    <time>2018-01-28T04:35:15Z</time>
   </trkpt>
   <trkpt lat="12.9138020" lon="99.6280810">
    <ele>128.4</ele>
    <time>2018-01-28T04:35:16Z</time>
   </trkpt>
   <trkpt lat="12.9138580" lon="99.6280880">
    <ele>128.5</ele>
    <time>2018-01-28T04:35:17Z</time>
   </trkpt>
   <trkpt lat="12.9139050" lon="99.6281030">
    <ele>127.1</ele>
    <time>2018-01-28T04:35:18Z</time>
   </trkpt>
   <trkpt lat="12.9139690" lon="99.6281110">
    <ele>127.5</ele>
    <time>2018-01-28T04:35:19Z</time>
   </trkpt>
   <trkpt lat="12.9140180" lon="99.6281270">
    <ele>127.0</ele>
    <time>2018-01-28T04:35:20Z</time>
   </trkpt>
   <trkpt lat="12.9140750" lon="99.6281510">
    <ele>127.0</ele>
    <time>2018-01-28T04:35:21Z</time>
   </trkpt>
   <trkpt lat="12.9141210" lon="99.6281790">
    <ele>126.9</ele>
    <time>2018-01-28T04:35:22Z</time>
   </trkpt>
   <trkpt lat="12.9141740" lon="99.6282040">
    <ele>126.9</ele>
    <time>2018-01-28T04:35:23Z</time>
   </trkpt>
   <trkpt lat="12.9142250" lon="99.6282430">
    <ele>126.8</ele>
    <time>2018-01-28T04:35:24Z</time>
   </trkpt>
   <trkpt lat="12.9142900" lon="99.6282770">
    <ele>126.8</ele>
    <time>2018-01-28T04:35:25Z</time>
   </trkpt>
   <trkpt lat="12.9143360" lon="99.6283140">
    <ele>126.8</ele>
    <time>2018-01-28T04:35:26Z</time>
   </trkpt>
   <trkpt lat="12.9143830" lon="99.6283500">
    <ele>126.7</ele>
    <time>2018-01-28T04:35:27Z</time>
   </trkpt>
   <trkpt lat="12.9144390" lon="99.6283810">
    <ele>126.7</ele>
    <time>2018-01-28T04:35:28Z</time>
   </trkpt>
   <trkpt lat="12.9144950" lon="99.6284190">
    <ele>126.6</ele>
    <time>2018-01-28T04:35:29Z</time>
   </trkpt>
   <trkpt lat="12.9145410" lon="99.6284530">
    <ele>126.6</ele>
    <time>2018-01-28T04:35:30Z</time>
   </trkpt>
   <trkpt lat="12.9145890" lon="99.6284800">
    <ele>126.6</ele>
    <time>2018-01-28T04:35:31Z</time>
   </trkpt>
   <trkpt lat="12.9146320" lon="99.6285040">
    <ele>126.5</ele>
    <time>2018-01-28T04:35:32Z</time>
   </trkpt>
   <trkpt lat="12.9146780" lon="99.6285360">
    <ele>126.5</ele>
    <time>2018-01-28T04:35:33Z</time>
   </trkpt>
   <trkpt lat="12.9147230" lon="99.6285610">
    <ele>126.5</ele>
    <time>2018-01-28T04:35:34Z</time>
   </trkpt>
   <trkpt lat="12.9147730" lon="99.6285780">
    <ele>126.4</ele>
    <time>2018-01-28T04:35:35Z</time>
   </trkpt>
   <trkpt lat="12.9148260" lon="99.6286150">
    <ele>126.4</ele>
    <time>2018-01-28T04:35:36Z</time>
   </trkpt>
   <trkpt lat="12.9148800" lon="99.6286370">
    <ele>126.4</ele>
    <time>2018-01-28T04:35:37Z</time>
   </trkpt>
   <trkpt lat="12.9149310" lon="99.6286710">
    <ele>126.3</ele>
    <time>2018-01-28T04:35:38Z</time>
   </trkpt>
   <trkpt lat="12.9149880" lon="99.6287020">
    <ele>126.3</ele>
    <time>2018-01-28T04:35:39Z</time>
   </trkpt>
   <trkpt lat="12.9150400" lon="99.6287360">
    <ele>126.2</ele>
    <time>2018-01-28T04:35:40Z</time>
   </trkpt>
   <trkpt lat="12.9150920" lon="99.6287600">
    <ele>126.2</ele>
    <time>2018-01-28T04:35:41Z</time>
   </trkpt>
   <trkpt lat="12.9151390" lon="99.6287900">
    <ele>126.2</ele>
    <time>2018-01-28T04:35:42Z</time>
   </trkpt>
   <trkpt lat="12.9152000" lon="99.6288240">
    <ele>126.1</ele>
    <time>2018-01-28T04:35:43Z</time>
   </trkpt>
   <trkpt lat="12.9152530" lon="99.6288610">
    <ele>126.1</ele>
    <time>2018-01-28T04:35:44Z</time>
   </trkpt>
   <trkpt lat="12.9153030" lon="99.6289000">
    <ele>126.0</ele>
    <time>2018-01-28T04:35:45Z</time>
   </trkpt>
   <trkpt lat="12.9153580" lon="99.6289340">
    <ele>126.0</ele>
    <time>2018-01-28T04:35:46Z</time>
   </trkpt>
   <trkpt lat="12.9154160" lon="99.6289690">
    <ele>126.0</ele>
    <time>2018-01-28T04:35:47Z</time>
   </trkpt>
   <trkpt lat="12.9154660" lon="99.6290050">
    <ele>125.9</ele>
    <time>2018-01-28T04:35:48Z</time>
   </trkpt>
   <trkpt lat="12.9155170" lon="99.6290440">
    <ele>125.9</ele>
    <time>2018-01-28T04:35:49Z</time>
   </trkpt>
   <trkpt lat="12.9155580" lon="99.6290650">
    <ele>125.8</ele>
    <time>2018-01-28T04:35:50Z</time>
   </trkpt>
   <trkpt lat="12.9156090" lon="99.6291000">
    <ele>125.8</ele>
    <time>2018-01-28T04:35:51Z</time>
   </trkpt>
   <trkpt lat="12.9156540" lon="99.6291260">
    <ele>125.8</ele>
    <time>2018-01-28T04:35:52Z</time>
   </trkpt>
   <trkpt lat="12.9157120" lon="99.6291590">
    <ele>125.7</ele>
    <time>2018-01-28T04:35:53Z</time>
   </trkpt>
   <trkpt lat="12.9157690" lon="99.6291900">
    <ele>125.7</ele>
    <time>2018-01-28T04:35:54Z</time>
   </trkpt>
   <trkpt lat="12.9158250" lon="99.6292240">
    <ele>125.7</ele>
    <time>2018-01-28T04:35:55Z</time>
   </trkpt>
   <trkpt lat="12.9158750" lon="99.6292610">
    <ele>125.6</ele>
    <time>2018-01-28T04:35:56Z</time>
   </trkpt>
   <trkpt lat="12.9159280" lon="99.6292920">
    <ele>125.6</ele>
    <time>2018-01-28T04:35:57Z</time>
   </trkpt>
   <trkpt lat="12.9159830" lon="99.6293110">
    <ele>125.5</ele>
    <time>2018-01-28T04:35:58Z</time>
   </trkpt>
   <trkpt lat="12.9160220" lon="99.6293330">
    <ele>125.5</ele>
    <time>2018-01-28T04:35:59Z</time>
   </trkpt>
   <trkpt lat="12.9160660" lon="99.6293630">
    <ele>125.5</ele>
    <time>2018-01-28T04:36:00Z</time>
   </trkpt>
   <trkpt lat="12.9161140" lon="99.6293920">
    <ele>125.4</ele>
    <time>2018-01-28T04:36:01Z</time>
   </trkpt>
   <trkpt lat="12.9161580" lon="99.6294070">
    <ele>125.4</ele>
    <time>2018-01-28T04:36:02Z</time>
   </trkpt>
   <trkpt lat="12.9162150" lon="99.6294400">
    <ele>125.4</ele>
    <time>2018-01-28T04:36:03Z</time>
   </trkpt>
   <trkpt lat="12.9162680" lon="99.6294760">
    <ele>125.3</ele>
    <time>2018-01-28T04:36:04Z</time>
   </trkpt>
   <trkpt lat="12.9163130" lon="99.6295030">
    <ele>125.3</ele>
    <time>2018-01-28T04:36:05Z</time>
   </trkpt>
   <trkpt lat="12.9163620" lon="99.6295350">
    <ele>125.3</ele>
    <time>2018-01-28T04:36:06Z</time>
   </trkpt>
   <trkpt lat="12.9164110" lon="99.6295720">
    <ele>125.2</ele>
    <time>2018-01-28T04:36:07Z</time>
   </trkpt>
   <trkpt lat="12.9164520" lon="99.6295940">
    <ele>125.2</ele>
    <time>2018-01-28T04:36:08Z</time>
   </trkpt>
   <trkpt lat="12.9165060" lon="99.6296360">
    <ele>125.1</ele>
    <time>2018-01-28T04:36:09Z</time>
   </trkpt>
   <trkpt lat="12.9165570" lon="99.6296720">
    <ele>125.1</ele>
    <time>2018-01-28T04:36:10Z</time>
   </trkpt>
   <trkpt lat="12.9166080" lon="99.6297150">
    <ele>125.1</ele>
    <time>2018-01-28T04:36:11Z</time>
   </trkpt>
   <trkpt lat="12.9166630" lon="99.6297530">
    <ele>125.0</ele>
    <time>2018-01-28T04:36:12Z</time>
   </trkpt>
   <trkpt lat="12.9167160" lon="99.6297820">
    <ele>125.0</ele>
    <time>2018-01-28T04:36:13Z</time>
   </trkpt>
   <trkpt lat="12.9167710" lon="99.6298220">
    <ele>124.9</ele>
    <time>2018-01-28T04:36:14Z</time>
   </trkpt>
   <trkpt lat="12.9168180" lon="99.6298550">
    <ele>124.9</ele>
    <time>2018-01-28T04:36:15Z</time>
   </trkpt>
   <trkpt lat="12.9168710" lon="99.6298730">
    <ele>124.9</ele>
    <time>2018-01-28T04:36:16Z</time>
   </trkpt>
   <trkpt lat="12.9169190" lon="99.6299040">
    <ele>124.8</ele>
    <time>2018-01-28T04:36:17Z</time>
   </trkpt>
   <trkpt lat="12.9169710" lon="99.6299350">
    <ele>124.8</ele>
    <time>2018-01-28T04:36:18Z</time>
   </trkpt>
   <trkpt lat="12.9170240" lon="99.6299680">
    <ele>124.7</ele>
    <time>2018-01-28T04:36:19Z</time>
   </trkpt>
   <trkpt lat="12.9170770" lon="99.6300080">
    <ele>124.7</ele>
    <time>2018-01-28T04:36:20Z</time>
   </trkpt>
   <trkpt lat="12.9171310" lon="99.6300490">
    <ele>124.7</ele>
    <time>2018-01-28T04:36:21Z</time>
   </trkpt>
   <trkpt lat="12.9171860" lon="99.6300800">
    <ele>124.6</ele>
    <time>2018-01-28T04:36:22Z</time>
   </trkpt>
   <trkpt lat="12.9172440" lon="99.6301110">
    <ele>124.6</ele>
    <time>2018-01-28T04:36:23Z</time>
   </trkpt>
   <trkpt lat="12.9172930" lon="99.6301340">
    <ele>124.5</ele>
    <time>2018-01-28T04:36:24Z</time>
   </trkpt>
   <trkpt lat="12.9173490" lon="99.6301720">
    <ele>124.4</ele>
    <time>2018-01-28T04:36:25Z</time>
   </trkpt>
   <trkpt lat="12.9173970" lon="99.6302010">
    <ele>124.3</ele>
    <time>2018-01-28T04:36:26Z</time>
   </trkpt>
   <trkpt lat="12.9174530" lon="99.6302350">
    <ele>124.2</ele>
    <time>2018-01-28T04:36:27Z</time>
   </trkpt>
   <trkpt lat="12.9175060" lon="99.6302710">
    <ele>124.0</ele>
    <time>2018-01-28T04:36:28Z</time>
   </trkpt>
   <trkpt lat="12.9175510" lon="99.6302980">
    <ele>123.8</ele>
    <time>2018-01-28T04:36:29Z</time>
   </trkpt>
   <trkpt lat="12.9176080" lon="99.6303280">
    <ele>123.6</ele>
    <time>2018-01-28T04:36:30Z</time>
   </trkpt>
   <trkpt lat="12.9176600" lon="99.6303650">
    <ele>123.3</ele>
    <time>2018-01-28T04:36:31Z</time>
   </trkpt>
   <trkpt lat="12.9177130" lon="99.6303930">
    <ele>123.0</ele>
    <time>2018-01-28T04:36:32Z</time>
   </trkpt>
   <trkpt lat="12.9177710" lon="99.6304070">
    <ele>122.7</ele>
    <time>2018-01-28T04:36:33Z</time>
   </trkpt>
   <trkpt lat="12.9178210" lon="99.6304420">
    <ele>122.5</ele>
    <time>2018-01-28T04:36:34Z</time>
   </trkpt>
   <trkpt lat="12.9178750" lon="99.6304750">
    <ele>122.3</ele>
    <time>2018-01-28T04:36:35Z</time>
   </trkpt>
   <trkpt lat="12.9179320" lon="99.6305160">
    <ele>122.2</ele>
    <time>2018-01-28T04:36:36Z</time>
   </trkpt>
   <trkpt lat="12.9179780" lon="99.6305450">
    <ele>122.1</ele>
    <time>2018-01-28T04:36:37Z</time>
   </trkpt>
   <trkpt lat="12.9180220" lon="99.6305780">
    <ele>122.0</ele>
    <time>2018-01-28T04:36:38Z</time>
   </trkpt>
   <trkpt lat="12.9180780" lon="99.6306110">
    <ele>122.0</ele>
    <time>2018-01-28T04:36:39Z</time>
   </trkpt>
   <trkpt lat="12.9181290" lon="99.6306410">
    <ele>121.9</ele>
    <time>2018-01-28T04:36:40Z</time>
   </trkpt>
   <trkpt lat="12.9181780" lon="99.6306780">
    <ele>121.9</ele>
    <time>2018-01-28T04:36:41Z</time>
   </trkpt>
   <trkpt lat="12.9182270" lon="99.6307160">
    <ele>121.8</ele>
    <time>2018-01-28T04:36:42Z</time>
   </trkpt>
   <trkpt lat="12.9182770" lon="99.6307360">
    <ele>121.8</ele>
    <time>2018-01-28T04:36:43Z</time>
   </trkpt>
   <trkpt lat="12.9183200" lon="99.6307680">
    <ele>121.7</ele>
    <time>2018-01-28T04:36:44Z</time>
   </trkpt>
   <trkpt lat="12.9183650" lon="99.6308000">
    <ele>121.7</ele>
    <time>2018-01-28T04:36:45Z</time>
   </trkpt>
   <trkpt lat="12.9184020" lon="99.6308190">
    <ele>121.7</ele>
    <time>2018-01-28T04:36:46Z</time>
   </trkpt>
   <trkpt lat="12.9184390" lon="99.6308430">
    <ele>121.6</ele>
    <time>2018-01-28T04:36:47Z</time>
   </trkpt>
   <trkpt lat="12.9184870" lon="99.6308680">
    <ele>121.6</ele>
    <time>2018-01-28T04:36:48Z</time>
   </trkpt>
   <trkpt lat="12.9185330" lon="99.6309020">
    <ele>121.6</ele>
    <time>2018-01-28T04:36:49Z</time>
   </trkpt>
   <trkpt lat="12.9185790" lon="99.6309330">
    <ele>121.5</ele>
    <time>2018-01-28T04:36:50Z</time>
   </trkpt>
   <trkpt lat="12.9186300" lon="99.6309680">
    <ele>121.5</ele>
    <time>2018-01-28T04:36:51Z</time>
   </trkpt>
   <trkpt lat="12.9186830" lon="99.6310000">
    <ele>121.4</ele>
    <time>2018-01-28T04:36:52Z</time>
   </trkpt>
   <trkpt lat="12.9187340" lon="99.6310330">
    <ele>121.4</ele>
    <time>2018-01-28T04:36:53Z</time>
   </trkpt>
   <trkpt lat="12.9187780" lon="99.6310570">
    <ele>121.4</ele>
    <time>2018-01-28T04:36:54Z</time>
   </trkpt>
   <trkpt lat="12.9188270" lon="99.6310940">
    <ele>121.3</ele>
    <time>2018-01-28T04:36:55Z</time>
   </trkpt>
   <trkpt lat="12.9188650" lon="99.6311260">
    <ele>121.3</ele>
    <time>2018-01-28T04:36:56Z</time>
   </trkpt>
   <trkpt lat="12.9189100" lon="99.6311440">
    <ele>121.2</ele>
    <time>2018-01-28T04:36:57Z</time>
   </trkpt>
   <trkpt lat="12.9189650" lon="99.6311790">
    <ele>121.2</ele>
    <time>2018-01-28T04:36:58Z</time>
   </trkpt>
   <trkpt lat="12.9190160" lon="99.6312060">
    <ele>121.1</ele>
    <time>2018-01-28T04:36:59Z</time>
   </trkpt>
   <trkpt lat="12.9190620" lon="99.6312230">
    <ele>121.1</ele>
    <time>2018-01-28T04:37:00Z</time>
   </trkpt>
   <trkpt lat="12.9191010" lon="99.6312480">
    <ele>121.1</ele>
    <time>2018-01-28T04:37:01Z</time>
   </trkpt>
   <trkpt lat="12.9191430" lon="99.6312810">
    <ele>121.0</ele>
    <time>2018-01-28T04:37:02Z</time>
   </trkpt>
   <trkpt lat="12.9191890" lon="99.6313090">
    <ele>121.0</ele>
    <time>2018-01-28T04:37:03Z</time>
   </trkpt>
   <trkpt lat="12.9192340" lon="99.6313310">
    <ele>120.9</ele>
    <time>2018-01-28T04:37:04Z</time>
   </trkpt>
   <trkpt lat="12.9192900" lon="99.6313580">
    <ele>120.9</ele>
    <time>2018-01-28T04:37:05Z</time>
   </trkpt>
   <trkpt lat="12.9193340" lon="99.6313880">
    <ele>120.8</ele>
    <time>2018-01-28T04:37:06Z</time>
   </trkpt>
   <trkpt lat="12.9193820" lon="99.6314070">
    <ele>120.8</ele>
    <time>2018-01-28T04:37:07Z</time>
   </trkpt>
   <trkpt lat="12.9194320" lon="99.6314450">
    <ele>120.7</ele>
    <time>2018-01-28T04:37:08Z</time>
   </trkpt>
   <trkpt lat="12.9194800" lon="99.6314810">
    <ele>120.7</ele>
    <time>2018-01-28T04:37:09Z</time>
   </trkpt>
   <trkpt lat="12.9195220" lon="99.6315120">
    <ele>120.6</ele>
    <time>2018-01-28T04:37:10Z</time>
   </trkpt>
   <trkpt lat="12.9195750" lon="99.6315410">
    <ele>120.6</ele>
    <time>2018-01-28T04:37:11Z</time>
   </trkpt>
   <trkpt lat="12.9196260" lon="99.6315720">
    <ele>120.5</ele>
    <time>2018-01-28T04:37:12Z</time>
   </trkpt>
   <trkpt lat="12.9196720" lon="99.6315920">
    <ele>120.5</ele>
    <time>2018-01-28T04:37:13Z</time>
   </trkpt>
   <trkpt lat="12.9197170" lon="99.6316240">
    <ele>120.4</ele>
    <time>2018-01-28T04:37:14Z</time>
   </trkpt>
   <trkpt lat="12.9197620" lon="99.6316600">
    <ele>120.4</ele>
    <time>2018-01-28T04:37:15Z</time>
   </trkpt>
   <trkpt lat="12.9198040" lon="99.6316980">
    <ele>120.3</ele>
    <time>2018-01-28T04:37:16Z</time>
   </trkpt>
   <trkpt lat="12.9198390" lon="99.6317430">
    <ele>120.2</ele>
    <time>2018-01-28T04:37:17Z</time>
   </trkpt>
   <trkpt lat="12.9198710" lon="99.6317880">
    <ele>120.1</ele>
    <time>2018-01-28T04:37:18Z</time>
   </trkpt>
   <trkpt lat="12.9199010" lon="99.6318350">
    <ele>120.1</ele>
    <time>2018-01-28T04:37:19Z</time>
   </trkpt>
   <trkpt lat="12.9199330" lon="99.6318860">
    <ele>119.9</ele>
    <time>2018-01-28T04:37:20Z</time>
   </trkpt>
   <trkpt lat="12.9199540" lon="99.6319430">
    <ele>119.6</ele>
    <time>2018-01-28T04:37:21Z</time>
   </trkpt>
   <trkpt lat="12.9199730" lon="99.6320010">
    <ele>119.1</ele>
    <time>2018-01-28T04:37:22Z</time>
   </trkpt>
   <trkpt lat="12.9199920" lon="99.6320710">
    <ele>118.3</ele>
    <time>2018-01-28T04:37:23Z</time>
   </trkpt>
   <trkpt lat="12.9199970" lon="99.6321380">
    <ele>117.6</ele>
    <time>2018-01-28T04:37:24Z</time>
   </trkpt>
   <trkpt lat="12.9200100" lon="99.6322120">
    <ele>117.0</ele>
    <time>2018-01-28T04:37:25Z</time>
   </trkpt>
   <trkpt lat="12.9200250" lon="99.6323050">
    <ele>116.0</ele>
    <time>2018-01-28T04:37:26Z</time>
   </trkpt>
   <trkpt lat="12.9200360" lon="99.6324040">
    <ele>114.7</ele>
    <time>2018-01-28T04:37:27Z</time>
   </trkpt>
   <trkpt lat="12.9200600" lon="99.6325090">
    <ele>113.2</ele>
    <time>2018-01-28T04:37:28Z</time>
   </trkpt>
   <trkpt lat="12.9200770" lon="99.6326120">
    <ele>111.4</ele>
    <time>2018-01-28T04:37:29Z</time>
   </trkpt>
   <trkpt lat="12.9200980" lon="99.6327190">
    <ele>109.8</ele>
    <time>2018-01-28T04:37:30Z</time>
   </trkpt>
   <trkpt lat="12.9201250" lon="99.6328240">
    <ele>108.3</ele>
    <time>2018-01-28T04:37:31Z</time>
   </trkpt>
   <trkpt lat="12.9201530" lon="99.6329250">
    <ele>106.7</ele>
    <time>2018-01-28T04:37:32Z</time>
   </trkpt>
   <trkpt lat="12.9201810" lon="99.6330310">
    <ele>104.6</ele>
    <time>2018-01-28T04:37:33Z</time>
   </trkpt>
   <trkpt lat="12.9201930" lon="99.6331380">
    <ele>102.5</ele>
    <time>2018-01-28T04:37:34Z</time>
   </trkpt>
   <trkpt lat="12.9202070" lon="99.6332520">
    <ele>100.1</ele>
    <time>2018-01-28T04:37:35Z</time>
   </trkpt>
   <trkpt lat="12.9202190" lon="99.6333700">
    <ele>98.2</ele>
    <time>2018-01-28T04:37:36Z</time>
   </trkpt>
   <trkpt lat="12.9202210" lon="99.6334860">
    <ele>96.4</ele>
    <time>2018-01-28T04:37:37Z</time>
   </trkpt>
   <trkpt lat="12.9202220" lon="99.6335950">
    <ele>94.7</ele>
    <time>2018-01-28T04:37:38Z</time>
   </trkpt>
   <trkpt lat="12.9202090" lon="99.6337030">
    <ele>93.2</ele>
    <time>2018-01-28T04:37:39Z</time>
   </trkpt>
   <trkpt lat="12.9201920" lon="99.6338160">
    <ele>91.6</ele>
    <time>2018-01-28T04:37:40Z</time>
   </trkpt>
   <trkpt lat="12.9201650" lon="99.6339200">
    <ele>90.1</ele>
    <time>2018-01-28T04:37:41Z</time>
   </trkpt>
   <trkpt lat="12.9201380" lon="99.6340170">
    <ele>89.1</ele>
    <time>2018-01-28T04:37:42Z</time>
   </trkpt>
   <trkpt lat="12.9200890" lon="99.6341110">
    <ele>87.8</ele>
    <time>2018-01-28T04:37:43Z</time>
   </trkpt>
   <trkpt lat="12.9200360" lon="99.6341850">
    <ele>85.5</ele>
    <time>2018-01-28T04:37:44Z</time>
   </trkpt>
   <trkpt lat="12.9199840" lon="99.6342510">
    <ele>81.8</ele>
    <time>2018-01-28T04:37:45Z</time>
   </trkpt>
   <trkpt lat="12.9199450" lon="99.6343140">
    <ele>78.6</ele>
    <time>2018-01-28T04:37:46Z</time>
   </trkpt>
   <trkpt lat="12.9199040" lon="99.6343560">
    <ele>76.0</ele>
    <time>2018-01-28T04:37:47Z</time>
   </trkpt>
   <trkpt lat="12.9198940" lon="99.6343880">
    <ele>74.5</ele>
    <time>2018-01-28T04:37:48Z</time>
   </trkpt>
   <trkpt lat="12.9198790" lon="99.6344160">
    <ele>73.1</ele>
    <time>2018-01-28T04:37:49Z</time>
   </trkpt>
   <trkpt lat="12.9198880" lon="99.6344530">
    <ele>71.5</ele>
    <time>2018-01-28T04:37:50Z</time>
   </trkpt>
   <trkpt lat="12.9199280" lon="99.6344880">
    <ele>69.1</ele>
    <time>2018-01-28T04:37:52Z</time>
   </trkpt>
   <trkpt lat="12.9199540" lon="99.6345110">
    <ele>69.6</ele>
    <time>2018-01-28T04:37:53Z</time>
   </trkpt>
   <trkpt lat="12.9199850" lon="99.6345410">
    <ele>69.4</ele>
    <time>2018-01-28T04:37:54Z</time>
   </trkpt>
   <trkpt lat="12.9200200" lon="99.6345800">
    <ele>70.0</ele>
    <time>2018-01-28T04:37:55Z</time>
   </trkpt>
   <trkpt lat="12.9200540" lon="99.6346260">
    <ele>69.8</ele>
    <time>2018-01-28T04:37:56Z</time>
   </trkpt>
   <trkpt lat="12.9200890" lon="99.6346940">
    <ele>69.8</ele>
    <time>2018-01-28T04:37:57Z</time>
   </trkpt>
   <trkpt lat="12.9201210" lon="99.6347450">
    <ele>69.7</ele>
    <time>2018-01-28T04:37:58Z</time>
   </trkpt>
   <trkpt lat="12.9201590" lon="99.6348110">
    <ele>69.0</ele>
    <time>2018-01-28T04:37:59Z</time>
   </trkpt>
   <trkpt lat="12.9201920" lon="99.6348590">
    <ele>69.2</ele>
    <time>2018-01-28T04:38:00Z</time>
   </trkpt>
   <trkpt lat="12.9202280" lon="99.6349330">
    <ele>68.8</ele>
    <time>2018-01-28T04:38:01Z</time>
   </trkpt>
   <trkpt lat="12.9202590" lon="99.6350020">
    <ele>68.6</ele>
    <time>2018-01-28T04:38:02Z</time>
   </trkpt>
   <trkpt lat="12.9202900" lon="99.6350690">
    <ele>67.5</ele>
    <time>2018-01-28T04:38:03Z</time>
   </trkpt>
   <trkpt lat="12.9203240" lon="99.6351330">
    <ele>67.2</ele>
    <time>2018-01-28T04:38:04Z</time>
   </trkpt>
   <trkpt lat="12.9203630" lon="99.6351970">
    <ele>67.1</ele>
    <time>2018-01-28T04:38:05Z</time>
   </trkpt>
   <trkpt lat="12.9203950" lon="99.6352630">
    <ele>67.3</ele>
    <time>2018-01-28T04:38:06Z</time>
   </trkpt>
   <trkpt lat="12.9204230" lon="99.6353350">
    <ele>67.5</ele>
    <time>2018-01-28T04:38:07Z</time>
   </trkpt>
   <trkpt lat="12.9204540" lon="99.6354050">
    <ele>67.1</ele>
    <time>2018-01-28T04:38:08Z</time>
   </trkpt>
   <trkpt lat="12.9204790" lon="99.6354710">
    <ele>67.3</ele>
    <time>2018-01-28T04:38:09Z</time>
   </trkpt>
   <trkpt lat="12.9204990" lon="99.6355330">
    <ele>68.0</ele>
    <time>2018-01-28T04:38:10Z</time>
   </trkpt>
   <trkpt lat="12.9205220" lon="99.6355990">
    <ele>67.9</ele>
    <time>2018-01-28T04:38:11Z</time>
   </trkpt>
   <trkpt lat="12.9205480" lon="99.6356640">
    <ele>68.7</ele>
    <time>2018-01-28T04:38:12Z</time>
   </trkpt>
   <trkpt lat="12.9205670" lon="99.6357230">
    <ele>68.8</ele>
    <time>2018-01-28T04:38:13Z</time>
   </trkpt>
   <trkpt lat="12.9205950" lon="99.6357820">
    <ele>69.1</ele>
    <time>2018-01-28T04:38:14Z</time>
   </trkpt>
   <trkpt lat="12.9206210" lon="99.6358300">
    <ele>68.9</ele>
    <time>2018-01-28T04:38:15Z</time>
   </trkpt>
   <trkpt lat="12.9206490" lon="99.6358890">
    <ele>68.7</ele>
    <time>2018-01-28T04:38:16Z</time>
   </trkpt>
   <trkpt lat="12.9206790" lon="99.6359400">
    <ele>68.8</ele>
    <time>2018-01-28T04:38:17Z</time>
   </trkpt>
   <trkpt lat="12.9207080" lon="99.6359930">
    <ele>69.0</ele>
    <time>2018-01-28T04:38:18Z</time>
   </trkpt>
   <trkpt lat="12.9207330" lon="99.6360470">
    <ele>68.3</ele>
    <time>2018-01-28T04:38:19Z</time>
   </trkpt>
   <trkpt lat="12.9207590" lon="99.6361010">
    <ele>68.2</ele>
    <time>2018-01-28T04:38:20Z</time>
   </trkpt>
   <trkpt lat="12.9207780" lon="99.6361600">
    <ele>68.1</ele>
    <time>2018-01-28T04:38:21Z</time>
   </trkpt>
   <trkpt lat="12.9208020" lon="99.6362150">
    <ele>67.8</ele>
    <time>2018-01-28T04:38:22Z</time>
   </trkpt>
   <trkpt lat="12.9208260" lon="99.6362800">
    <ele>67.6</ele>
    <time>2018-01-28T04:38:23Z</time>
   </trkpt>
   <trkpt lat="12.9208420" lon="99.6363350">
    <ele>67.7</ele>
    <time>2018-01-28T04:38:24Z</time>
   </trkpt>
   <trkpt lat="12.9208600" lon="99.6363930">
    <ele>67.6</ele>
    <time>2018-01-28T04:38:25Z</time>
   </trkpt>
   <trkpt lat="12.9208770" lon="99.6364510">
    <ele>67.9</ele>
    <time>2018-01-28T04:38:26Z</time>
   </trkpt>
   <trkpt lat="12.9208980" lon="99.6365080">
    <ele>67.9</ele>
    <time>2018-01-28T04:38:27Z</time>
   </trkpt>
   <trkpt lat="12.9209290" lon="99.6365560">
    <ele>68.3</ele>
    <time>2018-01-28T04:38:28Z</time>
   </trkpt>
   <trkpt lat="12.9209450" lon="99.6366130">
    <ele>68.4</ele>
    <time>2018-01-28T04:38:29Z</time>
   </trkpt>
   <trkpt lat="12.9209610" lon="99.6366730">
    <ele>68.4</ele>
    <time>2018-01-28T04:38:30Z</time>
   </trkpt>
   <trkpt lat="12.9209780" lon="99.6367250">
    <ele>68.4</ele>
    <time>2018-01-28T04:38:31Z</time>
   </trkpt>
   <trkpt lat="12.9209960" lon="99.6367670">
    <ele>68.4</ele>
    <time>2018-01-28T04:38:32Z</time>
   </trkpt>
   <trkpt lat="12.9210080" lon="99.6368080">
    <ele>68.6</ele>
    <time>2018-01-28T04:38:33Z</time>
   </trkpt>
   <trkpt lat="12.9210160" lon="99.6368570">
    <ele>69.0</ele>
    <time>2018-01-28T04:38:34Z</time>
   </trkpt>
   <trkpt lat="12.9210450" lon="99.6369070">
    <ele>69.5</ele>
    <time>2018-01-28T04:38:35Z</time>
   </trkpt>
   <trkpt lat="12.9210680" lon="99.6369580">
    <ele>69.7</ele>
    <time>2018-01-28T04:38:36Z</time>
   </trkpt>
   <trkpt lat="12.9210820" lon="99.6369970">
    <ele>70.6</ele>
    <time>2018-01-28T04:38:37Z</time>
   </trkpt>
   <trkpt lat="12.9211040" lon="99.6370390">
    <ele>71.3</ele>
    <time>2018-01-28T04:38:38Z</time>
   </trkpt>
   <trkpt lat="12.9211290" lon="99.6370900">
    <ele>72.3</ele>
    <time>2018-01-28T04:38:39Z</time>
   </trkpt>
   <trkpt lat="12.9211440" lon="99.6371390">
    <ele>73.1</ele>
    <time>2018-01-28T04:38:40Z</time>
   </trkpt>
   <trkpt lat="12.9211590" lon="99.6371880">
    <ele>73.3</ele>
    <time>2018-01-28T04:38:41Z</time>
   </trkpt>
   <trkpt lat="12.9211680" lon="99.6372310">
    <ele>73.5</ele>
    <time>2018-01-28T04:38:42Z</time>
   </trkpt>
   <trkpt lat="12.9211690" lon="99.6372730">
    <ele>73.5</ele>
    <time>2018-01-28T04:38:43Z</time>
   </trkpt>
   <trkpt lat="12.9211720" lon="99.6373090">
    <ele>73.6</ele>
    <time>2018-01-28T04:38:44Z</time>
   </trkpt>
   <trkpt lat="12.9211700" lon="99.6373410">
    <ele>73.4</ele>
    <time>2018-01-28T04:38:45Z</time>
   </trkpt>
   <trkpt lat="12.9211510" lon="99.6373700">
    <ele>73.2</ele>
    <time>2018-01-28T04:38:46Z</time>
   </trkpt>
   <trkpt lat="12.9211350" lon="99.6374030">
    <ele>73.0</ele>
    <time>2018-01-28T04:38:48Z</time>
   </trkpt>
   <trkpt lat="12.9211660" lon="99.6374200">
    <ele>72.9</ele>
    <time>2018-01-28T04:38:52Z</time>
   </trkpt>
   <trkpt lat="12.9211830" lon="99.6374610">
    <ele>72.6</ele>
    <time>2018-01-28T04:38:54Z</time>
   </trkpt>
   <trkpt lat="12.9211970" lon="99.6374910">
    <ele>72.6</ele>
    <time>2018-01-28T04:38:55Z</time>
   </trkpt>
   <trkpt lat="12.9212060" lon="99.6375280">
    <ele>72.5</ele>
    <time>2018-01-28T04:38:56Z</time>
   </trkpt>
   <trkpt lat="12.9212080" lon="99.6375690">
    <ele>72.6</ele>
    <time>2018-01-28T04:38:57Z</time>
   </trkpt>
   <trkpt lat="12.9212110" lon="99.6376110">
    <ele>72.5</ele>
    <time>2018-01-28T04:38:58Z</time>
   </trkpt>
   <trkpt lat="12.9212150" lon="99.6376540">
    <ele>72.4</ele>
    <time>2018-01-28T04:38:59Z</time>
   </trkpt>
   <trkpt lat="12.9212180" lon="99.6376960">
    <ele>72.2</ele>
    <time>2018-01-28T04:39:00Z</time>
   </trkpt>
   <trkpt lat="12.9212200" lon="99.6377370">
    <ele>72.0</ele>
    <time>2018-01-28T04:39:01Z</time>
   </trkpt>
   <trkpt lat="12.9212190" lon="99.6377790">
    <ele>71.7</ele>
    <time>2018-01-28T04:39:02Z</time>
   </trkpt>
   <trkpt lat="12.9212190" lon="99.6378240">
    <ele>71.5</ele>
    <time>2018-01-28T04:39:03Z</time>
   </trkpt>
   <trkpt lat="12.9212190" lon="99.6378660">
    <ele>71.2</ele>
    <time>2018-01-28T04:39:04Z</time>
   </trkpt>
   <trkpt lat="12.9212210" lon="99.6379060">
    <ele>71.0</ele>
    <time>2018-01-28T04:39:05Z</time>
   </trkpt>
   <trkpt lat="12.9212250" lon="99.6379360">
    <ele>70.7</ele>
    <time>2018-01-28T04:39:06Z</time>
   </trkpt>
   <trkpt lat="12.9212290" lon="99.6379830">
    <ele>70.5</ele>
    <time>2018-01-28T04:39:08Z</time>
   </trkpt>
   <trkpt lat="12.9212310" lon="99.6380320">
    <ele>70.4</ele>
    <time>2018-01-28T04:39:09Z</time>
   </trkpt>
   <trkpt lat="12.9212320" lon="99.6380700">
    <ele>70.4</ele>
    <time>2018-01-28T04:39:10Z</time>
   </trkpt>
   <trkpt lat="12.9212330" lon="99.6381070">
    <ele>70.4</ele>
    <time>2018-01-28T04:39:11Z</time>
   </trkpt>
   <trkpt lat="12.9212340" lon="99.6381450">
    <ele>70.4</ele>
    <time>2018-01-28T04:39:12Z</time>
   </trkpt>
   <trkpt lat="12.9212350" lon="99.6381850">
    <ele>70.4</ele>
    <time>2018-01-28T04:39:13Z</time>
   </trkpt>
   <trkpt lat="12.9212370" lon="99.6382270">
    <ele>70.6</ele>
    <time>2018-01-28T04:39:14Z</time>
   </trkpt>
   <trkpt lat="12.9212390" lon="99.6382700">
    <ele>70.8</ele>
    <time>2018-01-28T04:39:15Z</time>
   </trkpt>
   <trkpt lat="12.9212400" lon="99.6383160">
    <ele>71.3</ele>
    <time>2018-01-28T04:39:16Z</time>
   </trkpt>
   <trkpt lat="12.9212380" lon="99.6383650">
    <ele>71.6</ele>
    <time>2018-01-28T04:39:17Z</time>
   </trkpt>
   <trkpt lat="12.9212350" lon="99.6384110">
    <ele>71.8</ele>
    <time>2018-01-28T04:39:18Z</time>
   </trkpt>
   <trkpt lat="12.9212360" lon="99.6384610">
    <ele>72.1</ele>
    <time>2018-01-28T04:39:19Z</time>
   </trkpt>
   <trkpt lat="12.9212390" lon="99.6385110">
    <ele>72.3</ele>
    <time>2018-01-28T04:39:20Z</time>
   </trkpt>
   <trkpt lat="12.9212430" lon="99.6385560">
    <ele>72.4</ele>
    <time>2018-01-28T04:39:21Z</time>
   </trkpt>
   <trkpt lat="12.9212470" lon="99.6386010">
    <ele>72.4</ele>
    <time>2018-01-28T04:39:22Z</time>
   </trkpt>
   <trkpt lat="12.9212490" lon="99.6386440">
    <ele>72.4</ele>
    <time>2018-01-28T04:39:23Z</time>
   </trkpt>
   <trkpt lat="12.9212510" lon="99.6386880">
    <ele>72.4</ele>
    <time>2018-01-28T04:39:24Z</time>
   </trkpt>
   <trkpt lat="12.9212530" lon="99.6387300">
    <ele>72.3</ele>
    <time>2018-01-28T04:39:25Z</time>
   </trkpt>
   <trkpt lat="12.9212550" lon="99.6387740">
    <ele>72.0</ele>
    <time>2018-01-28T04:39:26Z</time>
   </trkpt>
   <trkpt lat="12.9212530" lon="99.6388160">
    <ele>71.8</ele>
    <time>2018-01-28T04:39:27Z</time>
   </trkpt>
   <trkpt lat="12.9212500" lon="99.6388560">
    <ele>71.5</ele>
    <time>2018-01-28T04:39:28Z</time>
   </trkpt>
   <trkpt lat="12.9212470" lon="99.6388910">
    <ele>71.4</ele>
    <time>2018-01-28T04:39:29Z</time>
   </trkpt>
   <trkpt lat="12.9212450" lon="99.6389250">
    <ele>71.4</ele>
    <time>2018-01-28T04:39:30Z</time>
   </trkpt>
   <trkpt lat="12.9212430" lon="99.6389620">
    <ele>71.4</ele>
    <time>2018-01-28T04:39:31Z</time>
   </trkpt>
   <trkpt lat="12.9212400" lon="99.6389980">
    <ele>71.4</ele>
    <time>2018-01-28T04:39:32Z</time>
   </trkpt>
   <trkpt lat="12.9212350" lon="99.6390340">
    <ele>71.4</ele>
    <time>2018-01-28T04:39:33Z</time>
   </trkpt>
   <trkpt lat="12.9212300" lon="99.6390700">
    <ele>71.5</ele>
    <time>2018-01-28T04:39:34Z</time>
   </trkpt>
   <trkpt lat="12.9212280" lon="99.6391040">
    <ele>71.6</ele>
    <time>2018-01-28T04:39:35Z</time>
   </trkpt>
   <trkpt lat="12.9212290" lon="99.6391400">
    <ele>71.8</ele>
    <time>2018-01-28T04:39:36Z</time>
   </trkpt>
   <trkpt lat="12.9212300" lon="99.6391790">
    <ele>71.9</ele>
    <time>2018-01-28T04:39:37Z</time>
   </trkpt>
   <trkpt lat="12.9212300" lon="99.6392170">
    <ele>72.0</ele>
    <time>2018-01-28T04:39:38Z</time>
   </trkpt>
   <trkpt lat="12.9212280" lon="99.6392500">
    <ele>72.0</ele>
    <time>2018-01-28T04:39:39Z</time>
   </trkpt>
   <trkpt lat="12.9212240" lon="99.6392810">
    <ele>72.0</ele>
    <time>2018-01-28T04:39:40Z</time>
   </trkpt>
   <trkpt lat="12.9212170" lon="99.6393080">
    <ele>72.0</ele>
    <time>2018-01-28T04:39:41Z</time>
   </trkpt>
   <trkpt lat="12.9212050" lon="99.6393510">
    <ele>72.2</ele>
    <time>2018-01-28T04:39:43Z</time>
   </trkpt>
   <trkpt lat="12.9212070" lon="99.6393900">
    <ele>72.3</ele>
    <time>2018-01-28T04:39:45Z</time>
   </trkpt>
   <trkpt lat="12.9212300" lon="99.6394190">
    <ele>72.0</ele>
    <time>2018-01-28T04:39:47Z</time>
   </trkpt>
   <trkpt lat="12.9212450" lon="99.6394430">
    <ele>72.1</ele>
    <time>2018-01-28T04:39:49Z</time>
   </trkpt>
   <trkpt lat="12.9212500" lon="99.6394960">
    <ele>72.2</ele>
    <time>2018-01-28T04:39:51Z</time>
   </trkpt>
   <trkpt lat="12.9212470" lon="99.6395250">
    <ele>72.4</ele>
    <time>2018-01-28T04:39:52Z</time>
   </trkpt>
   <trkpt lat="12.9212430" lon="99.6395520">
    <ele>72.4</ele>
    <time>2018-01-28T04:39:53Z</time>
   </trkpt>
   <trkpt lat="12.9212360" lon="99.6395800">
    <ele>72.7</ele>
    <time>2018-01-28T04:39:54Z</time>
   </trkpt>
   <trkpt lat="12.9212330" lon="99.6396320">
    <ele>73.2</ele>
    <time>2018-01-28T04:39:56Z</time>
   </trkpt>
   <trkpt lat="12.9212330" lon="99.6396620">
    <ele>73.7</ele>
    <time>2018-01-28T04:39:57Z</time>
   </trkpt>
   <trkpt lat="12.9212260" lon="99.6397130">
    <ele>74.2</ele>
    <time>2018-01-28T04:39:59Z</time>
   </trkpt>
   <trkpt lat="12.9212220" lon="99.6397540">
    <ele>74.7</ele>
    <time>2018-01-28T04:40:01Z</time>
   </trkpt>
   <trkpt lat="12.9212150" lon="99.6397930">
    <ele>75.2</ele>
    <time>2018-01-28T04:40:03Z</time>
   </trkpt>
   <trkpt lat="12.9212090" lon="99.6398330">
    <ele>75.7</ele>
    <time>2018-01-28T04:40:05Z</time>
   </trkpt>
   <trkpt lat="12.9212030" lon="99.6398710">
    <ele>76.2</ele>
    <time>2018-01-28T04:40:07Z</time>
   </trkpt>
   <trkpt lat="12.9212030" lon="99.6399110">
    <ele>76.5</ele>
    <time>2018-01-28T04:40:09Z</time>
   </trkpt>
   <trkpt lat="12.9212000" lon="99.6399430">
    <ele>76.5</ele>
    <time>2018-01-28T04:40:11Z</time>
   </trkpt>
   <trkpt lat="12.9212020" lon="99.6399770">
    <ele>76.8</ele>
    <time>2018-01-28T04:40:13Z</time>
   </trkpt>
   <trkpt lat="12.9211960" lon="99.6400070">
    <ele>77.0</ele>
    <time>2018-01-28T04:40:15Z</time>
   </trkpt>
   <trkpt lat="12.9211900" lon="99.6400420">
    <ele>77.3</ele>
    <time>2018-01-28T04:40:17Z</time>
   </trkpt>
   <trkpt lat="12.9211920" lon="99.6400780">
    <ele>77.4</ele>
    <time>2018-01-28T04:40:20Z</time>
   </trkpt>
   <trkpt lat="12.9211840" lon="99.6401060">
    <ele>77.4</ele>
    <time>2018-01-28T04:40:22Z</time>
   </trkpt>
   <trkpt lat="12.9211720" lon="99.6401420">
    <ele>77.5</ele>
    <time>2018-01-28T04:40:24Z</time>
   </trkpt>
   <trkpt lat="12.9211620" lon="99.6401780">
    <ele>77.4</ele>
    <time>2018-01-28T04:40:27Z</time>
   </trkpt>
   <trkpt lat="12.9211570" lon="99.6402190">
    <ele>77.4</ele>
    <time>2018-01-28T04:40:30Z</time>
   </trkpt>
   <trkpt lat="12.9211540" lon="99.6402490">
    <ele>77.4</ele>
    <time>2018-01-28T04:40:32Z</time>
   </trkpt>
   <trkpt lat="12.9211460" lon="99.6402880">
    <ele>77.4</ele>
    <time>2018-01-28T04:40:34Z</time>
   </trkpt>
   <trkpt lat="12.9211340" lon="99.6403290">
    <ele>77.4</ele>
    <time>2018-01-28T04:40:36Z</time>
   </trkpt>
   <trkpt lat="12.9211270" lon="99.6403720">
    <ele>77.3</ele>
    <time>2018-01-28T04:40:38Z</time>
   </trkpt>
   <trkpt lat="12.9211200" lon="99.6404170">
    <ele>77.1</ele>
    <time>2018-01-28T04:40:40Z</time>
   </trkpt>
   <trkpt lat="12.9211140" lon="99.6404640">
    <ele>77.6</ele>
    <time>2018-01-28T04:40:42Z</time>
   </trkpt>
   <trkpt lat="12.9211070" lon="99.6405100">
    <ele>77.9</ele>
    <time>2018-01-28T04:40:44Z</time>
   </trkpt>
   <trkpt lat="12.9211010" lon="99.6405540">
    <ele>78.2</ele>
    <time>2018-01-28T04:40:46Z</time>
   </trkpt>
   <trkpt lat="12.9210670" lon="99.6407890">
    <ele>81.4</ele>
    <time>2018-01-28T04:41:00Z</time>
   </trkpt>
   <trkpt lat="12.9210560" lon="99.6408160">
    <ele>82.2</ele>
    <time>2018-01-28T04:41:02Z</time>
   </trkpt>
   <trkpt lat="12.9210490" lon="99.6408520">
    <ele>82.9</ele>
    <time>2018-01-28T04:41:04Z</time>
   </trkpt>
   <trkpt lat="12.9210460" lon="99.6408900">
    <ele>83.7</ele>
    <time>2018-01-28T04:41:06Z</time>
   </trkpt>
   <trkpt lat="12.9210420" lon="99.6409470">
    <ele>84.4</ele>
    <time>2018-01-28T04:41:08Z</time>
   </trkpt>
   <trkpt lat="12.9210380" lon="99.6409810">
    <ele>84.2</ele>
    <time>2018-01-28T04:41:09Z</time>
   </trkpt>
   <trkpt lat="12.9210320" lon="99.6410160">
    <ele>84.2</ele>
    <time>2018-01-28T04:41:10Z</time>
   </trkpt>
   <trkpt lat="12.9210260" lon="99.6410510">
    <ele>84.9</ele>
    <time>2018-01-28T04:41:11Z</time>
   </trkpt>
   <trkpt lat="12.9210200" lon="99.6410870">
    <ele>85.7</ele>
    <time>2018-01-28T04:41:12Z</time>
   </trkpt>
   <trkpt lat="12.9210150" lon="99.6411190">
    <ele>86.4</ele>
    <time>2018-01-28T04:41:13Z</time>
   </trkpt>
   <trkpt lat="12.9210070" lon="99.6411580">
    <ele>87.1</ele>
    <time>2018-01-28T04:41:14Z</time>
   </trkpt>
   <trkpt lat="12.9210010" lon="99.6411910">
    <ele>87.8</ele>
    <time>2018-01-28T04:41:15Z</time>
   </trkpt>
   <trkpt lat="12.9209980" lon="99.6412200">
    <ele>87.0</ele>
    <time>2018-01-28T04:41:16Z</time>
   </trkpt>
   <trkpt lat="12.9209900" lon="99.6412520">
    <ele>87.8</ele>
    <time>2018-01-28T04:41:17Z</time>
   </trkpt>
   <trkpt lat="12.9209850" lon="99.6412850">
    <ele>88.4</ele>
    <time>2018-01-28T04:41:18Z</time>
   </trkpt>
   <trkpt lat="12.9209850" lon="99.6413130">
    <ele>88.4</ele>
    <time>2018-01-28T04:41:19Z</time>
   </trkpt>
   <trkpt lat="12.9209740" lon="99.6413390">
    <ele>88.9</ele>
    <time>2018-01-28T04:41:20Z</time>
   </trkpt>
   <trkpt lat="12.9209730" lon="99.6413810">
    <ele>89.3</ele>
    <time>2018-01-28T04:41:22Z</time>
   </trkpt>
   <trkpt lat="12.9209690" lon="99.6414120">
    <ele>89.8</ele>
    <time>2018-01-28T04:41:23Z</time>
   </trkpt>
   <trkpt lat="12.9209520" lon="99.6414680">
    <ele>89.0</ele>
    <time>2018-01-28T04:41:25Z</time>
   </trkpt>
   <trkpt lat="12.9209430" lon="99.6414990">
    <ele>88.8</ele>
    <time>2018-01-28T04:41:26Z</time>
   </trkpt>
   <trkpt lat="12.9209350" lon="99.6415300">
    <ele>88.8</ele>
    <time>2018-01-28T04:41:27Z</time>
   </trkpt>
   <trkpt lat="12.9209290" lon="99.6415590">
    <ele>88.7</ele>
    <time>2018-01-28T04:41:28Z</time>
   </trkpt>
   <trkpt lat="12.9209240" lon="99.6415910">
    <ele>88.5</ele>
    <time>2018-01-28T04:41:29Z</time>
   </trkpt>
   <trkpt lat="12.9209180" lon="99.6416220">
    <ele>88.1</ele>
    <time>2018-01-28T04:41:30Z</time>
   </trkpt>
   <trkpt lat="12.9209140" lon="99.6416520">
    <ele>87.3</ele>
    <time>2018-01-28T04:41:31Z</time>
   </trkpt>
   <trkpt lat="12.9209050" lon="99.6417030">
    <ele>86.6</ele>
    <time>2018-01-28T04:41:33Z</time>
   </trkpt>
   <trkpt lat="12.9208960" lon="99.6417320">
    <ele>85.8</ele>
    <time>2018-01-28T04:41:34Z</time>
   </trkpt>
   <trkpt lat="12.9208840" lon="99.6417650">
    <ele>85.1</ele>
    <time>2018-01-28T04:41:35Z</time>
   </trkpt>
   <trkpt lat="12.9208630" lon="99.6418030">
    <ele>83.7</ele>
    <time>2018-01-28T04:41:36Z</time>
   </trkpt>
   <trkpt lat="12.9208110" lon="99.6418490">
    <ele>82.5</ele>
    <time>2018-01-28T04:41:37Z</time>
   </trkpt>
   <trkpt lat="12.9207710" lon="99.6418910">
    <ele>81.4</ele>
    <time>2018-01-28T04:41:38Z</time>
   </trkpt>
   <trkpt lat="12.9207370" lon="99.6419300">
    <ele>80.5</ele>
    <time>2018-01-28T04:41:39Z</time>
   </trkpt>
   <trkpt lat="12.9206920" lon="99.6419680">
    <ele>79.9</ele>
    <time>2018-01-28T04:41:40Z</time>
   </trkpt>
   <trkpt lat="12.9206500" lon="99.6420200">
    <ele>80.1</ele>
    <time>2018-01-28T04:41:41Z</time>
   </trkpt>
   <trkpt lat="12.9206060" lon="99.6420720">
    <ele>80.4</ele>
    <time>2018-01-28T04:41:42Z</time>
   </trkpt>
   <trkpt lat="12.9205590" lon="99.6421270">
    <ele>80.6</ele>
    <time>2018-01-28T04:41:43Z</time>
   </trkpt>
   <trkpt lat="12.9205170" lon="99.6421820">
    <ele>80.9</ele>
    <time>2018-01-28T04:41:44Z</time>
   </trkpt>
   <trkpt lat="12.9204710" lon="99.6422210">
    <ele>81.0</ele>
    <time>2018-01-28T04:41:45Z</time>
   </trkpt>
   <trkpt lat="12.9204300" lon="99.6422700">
    <ele>81.0</ele>
    <time>2018-01-28T04:41:46Z</time>
   </trkpt>
   <trkpt lat="12.9203900" lon="99.6423290">
    <ele>80.8</ele>
    <time>2018-01-28T04:41:47Z</time>
   </trkpt>
   <trkpt lat="12.9203450" lon="99.6423830">
    <ele>80.5</ele>
    <time>2018-01-28T04:41:48Z</time>
   </trkpt>
   <trkpt lat="12.9202980" lon="99.6424360">
    <ele>80.4</ele>
    <time>2018-01-28T04:41:49Z</time>
   </trkpt>
   <trkpt lat="12.9202530" lon="99.6424950">
    <ele>80.5</ele>
    <time>2018-01-28T04:41:50Z</time>
   </trkpt>
   <trkpt lat="12.9202140" lon="99.6425480">
    <ele>80.7</ele>
    <time>2018-01-28T04:41:51Z</time>
   </trkpt>
   <trkpt lat="12.9201720" lon="99.6426090">
    <ele>81.2</ele>
    <time>2018-01-28T04:41:52Z</time>
   </trkpt>
   <trkpt lat="12.9201230" lon="99.6426570">
    <ele>81.5</ele>
    <time>2018-01-28T04:41:53Z</time>
   </trkpt>
   <trkpt lat="12.9200910" lon="99.6427080">
    <ele>81.6</ele>
    <time>2018-01-28T04:41:54Z</time>
   </trkpt>
   <trkpt lat="12.9200730" lon="99.6427660">
    <ele>81.7</ele>
    <time>2018-01-28T04:41:55Z</time>
   </trkpt>
   <trkpt lat="12.9200710" lon="99.6428310">
    <ele>81.9</ele>
    <time>2018-01-28T04:41:56Z</time>
   </trkpt>
   <trkpt lat="12.9200770" lon="99.6428920">
    <ele>82.0</ele>
    <time>2018-01-28T04:41:57Z</time>
   </trkpt>
   <trkpt lat="12.9200820" lon="99.6429580">
    <ele>82.7</ele>
    <time>2018-01-28T04:41:58Z</time>
   </trkpt>
   <trkpt lat="12.9200780" lon="99.6430190">
    <ele>82.9</ele>
    <time>2018-01-28T04:41:59Z</time>
   </trkpt>
   <trkpt lat="12.9200760" lon="99.6430690">
    <ele>82.9</ele>
    <time>2018-01-28T04:42:00Z</time>
   </trkpt>
   <trkpt lat="12.9200790" lon="99.6431180">
    <ele>83.9</ele>
    <time>2018-01-28T04:42:01Z</time>
   </trkpt>
   <trkpt lat="12.9200800" lon="99.6431520">
    <ele>84.4</ele>
    <time>2018-01-28T04:42:02Z</time>
   </trkpt>
   <trkpt lat="12.9200880" lon="99.6431850">
    <ele>85.1</ele>
    <time>2018-01-28T04:42:03Z</time>
   </trkpt>
   <trkpt lat="12.9200780" lon="99.6432300">
    <ele>85.9</ele>
    <time>2018-01-28T04:42:05Z</time>
   </trkpt>
   <trkpt lat="12.9200650" lon="99.6432610">
    <ele>86.4</ele>
    <time>2018-01-28T04:42:07Z</time>
   </trkpt>
   <trkpt lat="12.9200540" lon="99.6432900">
    <ele>86.4</ele>
    <time>2018-01-28T04:42:09Z</time>
   </trkpt>
   <trkpt lat="12.9200370" lon="99.6433140">
    <ele>87.3</ele>
    <time>2018-01-28T04:42:11Z</time>
   </trkpt>
   <trkpt lat="12.9200080" lon="99.6433460">
    <ele>88.0</ele>
    <time>2018-01-28T04:42:13Z</time>
   </trkpt>
   <trkpt lat="12.9199730" lon="99.6433780">
    <ele>87.7</ele>
    <time>2018-01-28T04:42:15Z</time>
   </trkpt>
   <trkpt lat="12.9199310" lon="99.6434060">
    <ele>88.3</ele>
    <time>2018-01-28T04:42:17Z</time>
   </trkpt>
   <trkpt lat="12.9199080" lon="99.6434220">
    <ele>88.9</ele>
    <time>2018-01-28T04:42:18Z</time>
   </trkpt>
   <trkpt lat="12.9198770" lon="99.6434510">
    <ele>88.9</ele>
    <time>2018-01-28T04:42:20Z</time>
   </trkpt>
   <trkpt lat="12.9198510" lon="99.6434780">
    <ele>89.3</ele>
    <time>2018-01-28T04:42:22Z</time>
   </trkpt>
   <trkpt lat="12.9198210" lon="99.6435000">
    <ele>88.6</ele>
    <time>2018-01-28T04:42:25Z</time>
   </trkpt>
   <trkpt lat="12.9197910" lon="99.6435290">
    <ele>89.5</ele>
    <time>2018-01-28T04:42:28Z</time>
   </trkpt>
   <trkpt lat="12.9197510" lon="99.6435480">
    <ele>88.8</ele>
    <time>2018-01-28T04:42:30Z</time>
   </trkpt>
   <trkpt lat="12.9197160" lon="99.6435600">
    <ele>88.9</ele>
    <time>2018-01-28T04:42:31Z</time>
   </trkpt>
   <trkpt lat="12.9196850" lon="99.6435750">
    <ele>88.0</ele>
    <time>2018-01-28T04:42:32Z</time>
   </trkpt>
   <trkpt lat="12.9196470" lon="99.6436040">
    <ele>87.9</ele>
    <time>2018-01-28T04:42:33Z</time>
   </trkpt>
   <trkpt lat="12.9196000" lon="99.6436420">
    <ele>87.4</ele>
    <time>2018-01-28T04:42:34Z</time>
   </trkpt>
   <trkpt lat="12.9195530" lon="99.6436800">
    <ele>86.8</ele>
    <time>2018-01-28T04:42:35Z</time>
   </trkpt>
   <trkpt lat="12.9195050" lon="99.6437200">
    <ele>85.6</ele>
    <time>2018-01-28T04:42:36Z</time>
   </trkpt>
   <trkpt lat="12.9194590" lon="99.6437600">
    <ele>85.2</ele>
    <time>2018-01-28T04:42:37Z</time>
   </trkpt>
   <trkpt lat="12.9194170" lon="99.6437940">
    <ele>85.0</ele>
    <time>2018-01-28T04:42:38Z</time>
   </trkpt>
   <trkpt lat="12.9193690" lon="99.6438290">
    <ele>84.8</ele>
    <time>2018-01-28T04:42:39Z</time>
   </trkpt>
   <trkpt lat="12.9193190" lon="99.6438720">
    <ele>83.4</ele>
    <time>2018-01-28T04:42:40Z</time>
   </trkpt>
   <trkpt lat="12.9192660" lon="99.6439480">
    <ele>83.9</ele>
    <time>2018-01-28T04:42:41Z</time>
   </trkpt>
   <trkpt lat="12.9192360" lon="99.6439900">
    <ele>83.9</ele>
    <time>2018-01-28T04:42:42Z</time>
   </trkpt>
   <trkpt lat="12.9192020" lon="99.6440430">
    <ele>84.4</ele>
    <time>2018-01-28T04:42:43Z</time>
   </trkpt>
   <trkpt lat="12.9191730" lon="99.6440960">
    <ele>84.1</ele>
    <time>2018-01-28T04:42:44Z</time>
   </trkpt>
   <trkpt lat="12.9191490" lon="99.6441460">
    <ele>83.9</ele>
    <time>2018-01-28T04:42:45Z</time>
   </trkpt>
   <trkpt lat="12.9191250" lon="99.6442010">
    <ele>84.2</ele>
    <time>2018-01-28T04:42:46Z</time>
   </trkpt>
   <trkpt lat="12.9191110" lon="99.6442550">
    <ele>83.5</ele>
    <time>2018-01-28T04:42:47Z</time>
   </trkpt>
   <trkpt lat="12.9190920" lon="99.6443030">
    <ele>83.2</ele>
    <time>2018-01-28T04:42:48Z</time>
   </trkpt>
   <trkpt lat="12.9190700" lon="99.6443580">
    <ele>82.5</ele>
    <time>2018-01-28T04:42:49Z</time>
   </trkpt>
   <trkpt lat="12.9190530" lon="99.6444080">
    <ele>82.3</ele>
    <time>2018-01-28T04:42:50Z</time>
   </trkpt>
   <trkpt lat="12.9190460" lon="99.6444560">
    <ele>82.0</ele>
    <time>2018-01-28T04:42:51Z</time>
   </trkpt>
   <trkpt lat="12.9190410" lon="99.6445100">
    <ele>81.8</ele>
    <time>2018-01-28T04:42:52Z</time>
   </trkpt>
   <trkpt lat="12.9190430" lon="99.6445650">
    <ele>81.8</ele>
    <time>2018-01-28T04:42:53Z</time>
   </trkpt>
   <trkpt lat="12.9190340" lon="99.6446000">
    <ele>81.9</ele>
    <time>2018-01-28T04:42:54Z</time>
   </trkpt>
   <trkpt lat="12.9190310" lon="99.6446580">
    <ele>81.4</ele>
    <time>2018-01-28T04:42:55Z</time>
   </trkpt>
   <trkpt lat="12.9190340" lon="99.6447220">
    <ele>82.3</ele>
    <time>2018-01-28T04:42:56Z</time>
   </trkpt>
   <trkpt lat="12.9190380" lon="99.6447690">
    <ele>82.5</ele>
    <time>2018-01-28T04:42:57Z</time>
   </trkpt>
   <trkpt lat="12.9190420" lon="99.6448160">
    <ele>82.6</ele>
    <time>2018-01-28T04:42:58Z</time>
   </trkpt>
   <trkpt lat="12.9190470" lon="99.6448630">
    <ele>82.7</ele>
    <time>2018-01-28T04:42:59Z</time>
   </trkpt>
   <trkpt lat="12.9190550" lon="99.6449000">
    <ele>82.8</ele>
    <time>2018-01-28T04:43:00Z</time>
   </trkpt>
   <trkpt lat="12.9190630" lon="99.6449300">
    <ele>82.8</ele>
    <time>2018-01-28T04:43:01Z</time>
   </trkpt>
   <trkpt lat="12.9190770" lon="99.6449650">
    <ele>83.1</ele>
    <time>2018-01-28T04:43:02Z</time>
   </trkpt>
   <trkpt lat="12.9190950" lon="99.6449960">
    <ele>83.1</ele>
    <time>2018-01-28T04:43:03Z</time>
   </trkpt>
   <trkpt lat="12.9191120" lon="99.6450290">
    <ele>83.1</ele>
    <time>2018-01-28T04:43:04Z</time>
   </trkpt>
   <trkpt lat="12.9191240" lon="99.6450590">
    <ele>83.3</ele>
    <time>2018-01-28T04:43:05Z</time>
   </trkpt>
   <trkpt lat="12.9191470" lon="99.6451000">
    <ele>83.1</ele>
    <time>2018-01-28T04:43:06Z</time>
   </trkpt>
   <trkpt lat="12.9191650" lon="99.6451360">
    <ele>83.4</ele>
    <time>2018-01-28T04:43:07Z</time>
   </trkpt>
   <trkpt lat="12.9191850" lon="99.6451840">
    <ele>82.7</ele>
    <time>2018-01-28T04:43:08Z</time>
   </trkpt>
   <trkpt lat="12.9192020" lon="99.6452380">
    <ele>82.4</ele>
    <time>2018-01-28T04:43:09Z</time>
   </trkpt>
   <trkpt lat="12.9192180" lon="99.6452940">
    <ele>82.4</ele>
    <time>2018-01-28T04:43:10Z</time>
   </trkpt>
   <trkpt lat="12.9192150" lon="99.6453350">
    <ele>82.4</ele>
    <time>2018-01-28T04:43:11Z</time>
   </trkpt>
   <trkpt lat="12.9192160" lon="99.6453830">
    <ele>82.4</ele>
    <time>2018-01-28T04:43:12Z</time>
   </trkpt>
   <trkpt lat="12.9191990" lon="99.6454360">
    <ele>82.4</ele>
    <time>2018-01-28T04:43:13Z</time>
   </trkpt>
   <trkpt lat="12.9191890" lon="99.6454910">
    <ele>82.4</ele>
    <time>2018-01-28T04:43:14Z</time>
   </trkpt>
   <trkpt lat="12.9191630" lon="99.6455540">
    <ele>82.4</ele>
    <time>2018-01-28T04:43:15Z</time>
   </trkpt>
   <trkpt lat="12.9191370" lon="99.6456190">
    <ele>82.4</ele>
    <time>2018-01-28T04:43:16Z</time>
   </trkpt>
   <trkpt lat="12.9191150" lon="99.6456880">
    <ele>82.3</ele>
    <time>2018-01-28T04:43:17Z</time>
   </trkpt>
   <trkpt lat="12.9190990" lon="99.6457540">
    <ele>82.3</ele>
    <time>2018-01-28T04:43:18Z</time>
   </trkpt>
   <trkpt lat="12.9190750" lon="99.6458250">
    <ele>81.8</ele>
    <time>2018-01-28T04:43:19Z</time>
   </trkpt>
   <trkpt lat="12.9190550" lon="99.6458890">
    <ele>81.6</ele>
    <time>2018-01-28T04:43:20Z</time>
   </trkpt>
   <trkpt lat="12.9190200" lon="99.6459470">
    <ele>81.3</ele>
    <time>2018-01-28T04:43:21Z</time>
   </trkpt>
   <trkpt lat="12.9189660" lon="99.6459890">
    <ele>80.8</ele>
    <time>2018-01-28T04:43:22Z</time>
   </trkpt>
   <trkpt lat="12.9189090" lon="99.6460220">
    <ele>79.9</ele>
    <time>2018-01-28T04:43:23Z</time>
   </trkpt>
   <trkpt lat="12.9188440" lon="99.6460400">
    <ele>79.5</ele>
    <time>2018-01-28T04:43:24Z</time>
   </trkpt>
   <trkpt lat="12.9187790" lon="99.6460600">
    <ele>79.4</ele>
    <time>2018-01-28T04:43:25Z</time>
   </trkpt>
   <trkpt lat="12.9187130" lon="99.6460810">
    <ele>79.4</ele>
    <time>2018-01-28T04:43:26Z</time>
   </trkpt>
   <trkpt lat="12.9186430" lon="99.6461040">
    <ele>78.6</ele>
    <time>2018-01-28T04:43:27Z</time>
   </trkpt>
   <trkpt lat="12.9185820" lon="99.6461290">
    <ele>77.8</ele>
    <time>2018-01-28T04:43:28Z</time>
   </trkpt>
   <trkpt lat="12.9185220" lon="99.6461530">
    <ele>77.0</ele>
    <time>2018-01-28T04:43:29Z</time>
   </trkpt>
   <trkpt lat="12.9184700" lon="99.6461680">
    <ele>76.5</ele>
    <time>2018-01-28T04:43:30Z</time>
   </trkpt>
   <trkpt lat="12.9184280" lon="99.6461830">
    <ele>76.3</ele>
    <time>2018-01-28T04:43:31Z</time>
   </trkpt>
   <trkpt lat="12.9183810" lon="99.6461990">
    <ele>76.0</ele>
    <time>2018-01-28T04:43:32Z</time>
   </trkpt>
   <trkpt lat="12.9183280" lon="99.6462160">
    <ele>75.5</ele>
    <time>2018-01-28T04:43:33Z</time>
   </trkpt>
   <trkpt lat="12.9182960" lon="99.6462340">
    <ele>75.5</ele>
    <time>2018-01-28T04:43:34Z</time>
   </trkpt>
   <trkpt lat="12.9182540" lon="99.6462570">
    <ele>75.3</ele>
    <time>2018-01-28T04:43:35Z</time>
   </trkpt>
   <trkpt lat="12.9182160" lon="99.6462790">
    <ele>75.3</ele>
    <time>2018-01-28T04:43:36Z</time>
   </trkpt>
   <trkpt lat="12.9181680" lon="99.6463090">
    <ele>75.0</ele>
    <time>2018-01-28T04:43:37Z</time>
   </trkpt>
   <trkpt lat="12.9181220" lon="99.6463420">
    <ele>74.7</ele>
    <time>2018-01-28T04:43:38Z</time>
   </trkpt>
   <trkpt lat="12.9180840" lon="99.6463800">
    <ele>74.7</ele>
    <time>2018-01-28T04:43:39Z</time>
   </trkpt>
   <trkpt lat="12.9180430" lon="99.6464230">
    <ele>74.5</ele>
    <time>2018-01-28T04:43:40Z</time>
   </trkpt>
   <trkpt lat="12.9179990" lon="99.6464710">
    <ele>74.8</ele>
    <time>2018-01-28T04:43:41Z</time>
   </trkpt>
   <trkpt lat="12.9179660" lon="99.6465210">
    <ele>75.1</ele>
    <time>2018-01-28T04:43:42Z</time>
   </trkpt>
   <trkpt lat="12.9179370" lon="99.6465710">
    <ele>75.4</ele>
    <time>2018-01-28T04:43:43Z</time>
   </trkpt>
   <trkpt lat="12.9179080" lon="99.6466270">
    <ele>75.5</ele>
    <time>2018-01-28T04:43:44Z</time>
   </trkpt>
   <trkpt lat="12.9178830" lon="99.6466840">
    <ele>75.6</ele>
    <time>2018-01-28T04:43:45Z</time>
   </trkpt>
   <trkpt lat="12.9178600" lon="99.6467500">
    <ele>75.5</ele>
    <time>2018-01-28T04:43:46Z</time>
   </trkpt>
   <trkpt lat="12.9178390" lon="99.6468120">
    <ele>75.5</ele>
    <time>2018-01-28T04:43:47Z</time>
   </trkpt>
   <trkpt lat="12.9178120" lon="99.6468770">
    <ele>75.4</ele>
    <time>2018-01-28T04:43:48Z</time>
   </trkpt>
   <trkpt lat="12.9177840" lon="99.6469460">
    <ele>75.6</ele>
    <time>2018-01-28T04:43:49Z</time>
   </trkpt>
   <trkpt lat="12.9177370" lon="99.6470040">
    <ele>75.6</ele>
    <time>2018-01-28T04:43:50Z</time>
   </trkpt>
   <trkpt lat="12.9176780" lon="99.6470420">
    <ele>75.4</ele>
    <time>2018-01-28T04:43:51Z</time>
   </trkpt>
   <trkpt lat="12.9176170" lon="99.6470810">
    <ele>75.4</ele>
    <time>2018-01-28T04:43:52Z</time>
   </trkpt>
   <trkpt lat="12.9175550" lon="99.6471200">
    <ele>75.4</ele>
    <time>2018-01-28T04:43:53Z</time>
   </trkpt>
   <trkpt lat="12.9174910" lon="99.6471530">
    <ele>75.4</ele>
    <time>2018-01-28T04:43:54Z</time>
   </trkpt>
   <trkpt lat="12.9174280" lon="99.6471780">
    <ele>75.6</ele>
    <time>2018-01-28T04:43:55Z</time>
   </trkpt>
   <trkpt lat="12.9173660" lon="99.6472080">
    <ele>75.6</ele>
    <time>2018-01-28T04:43:56Z</time>
   </trkpt>
   <trkpt lat="12.9173120" lon="99.6472350">
    <ele>75.6</ele>
    <time>2018-01-28T04:43:57Z</time>
   </trkpt>
   <trkpt lat="12.9172560" lon="99.6472600">
    <ele>75.1</ele>
    <time>2018-01-28T04:43:58Z</time>
   </trkpt>
   <trkpt lat="12.9172060" lon="99.6472930">
    <ele>74.4</ele>
    <time>2018-01-28T04:43:59Z</time>
   </trkpt>
   <trkpt lat="12.9171560" lon="99.6473280">
    <ele>74.0</ele>
    <time>2018-01-28T04:44:00Z</time>
   </trkpt>
   <trkpt lat="12.9171150" lon="99.6473690">
    <ele>74.0</ele>
    <time>2018-01-28T04:44:01Z</time>
   </trkpt>
   <trkpt lat="12.9170630" lon="99.6474030">
    <ele>74.2</ele>
    <time>2018-01-28T04:44:02Z</time>
   </trkpt>
   <trkpt lat="12.9170170" lon="99.6474430">
    <ele>74.3</ele>
    <time>2018-01-28T04:44:03Z</time>
   </trkpt>
   <trkpt lat="12.9169680" lon="99.6474770">
    <ele>74.4</ele>
    <time>2018-01-28T04:44:04Z</time>
   </trkpt>
   <trkpt lat="12.9169260" lon="99.6475250">
    <ele>74.4</ele>
    <time>2018-01-28T04:44:05Z</time>
   </trkpt>
   <trkpt lat="12.9168810" lon="99.6475720">
    <ele>74.4</ele>
    <time>2018-01-28T04:44:06Z</time>
   </trkpt>
   <trkpt lat="12.9168490" lon="99.6476150">
    <ele>74.4</ele>
    <time>2018-01-28T04:44:07Z</time>
   </trkpt>
   <trkpt lat="12.9168030" lon="99.6476680">
    <ele>74.6</ele>
    <time>2018-01-28T04:44:08Z</time>
   </trkpt>
   <trkpt lat="12.9167520" lon="99.6477100">
    <ele>74.8</ele>
    <time>2018-01-28T04:44:09Z</time>
   </trkpt>
   <trkpt lat="12.9167090" lon="99.6477570">
    <ele>74.8</ele>
    <time>2018-01-28T04:44:10Z</time>
   </trkpt>
   <trkpt lat="12.9166590" lon="99.6478060">
    <ele>75.1</ele>
    <time>2018-01-28T04:44:11Z</time>
   </trkpt>
   <trkpt lat="12.9166170" lon="99.6478480">
    <ele>75.5</ele>
    <time>2018-01-28T04:44:12Z</time>
   </trkpt>
   <trkpt lat="12.9165730" lon="99.6478940">
    <ele>76.0</ele>
    <time>2018-01-28T04:44:13Z</time>
   </trkpt>
   <trkpt lat="12.9165290" lon="99.6479360">
    <ele>76.5</ele>
    <time>2018-01-28T04:44:14Z</time>
   </trkpt>
   <trkpt lat="12.9164790" lon="99.6479750">
    <ele>77.4</ele>
    <time>2018-01-28T04:44:15Z</time>
   </trkpt>
   <trkpt lat="12.9164260" lon="99.6480280">
    <ele>77.4</ele>
    <time>2018-01-28T04:44:16Z</time>
   </trkpt>
   <trkpt lat="12.9163750" lon="99.6480750">
    <ele>77.4</ele>
    <time>2018-01-28T04:44:17Z</time>
   </trkpt>
   <trkpt lat="12.9163290" lon="99.6481290">
    <ele>77.4</ele>
    <time>2018-01-28T04:44:18Z</time>
   </trkpt>
   <trkpt lat="12.9162830" lon="99.6481750">
    <ele>77.2</ele>
    <time>2018-01-28T04:44:19Z</time>
   </trkpt>
   <trkpt lat="12.9162330" lon="99.6482200">
    <ele>77.0</ele>
    <time>2018-01-28T04:44:20Z</time>
   </trkpt>
   <trkpt lat="12.9161830" lon="99.6482620">
    <ele>76.7</ele>
    <time>2018-01-28T04:44:21Z</time>
   </trkpt>
   <trkpt lat="12.9161360" lon="99.6483050">
    <ele>76.5</ele>
    <time>2018-01-28T04:44:22Z</time>
   </trkpt>
   <trkpt lat="12.9161000" lon="99.6483570">
    <ele>76.0</ele>
    <time>2018-01-28T04:44:23Z</time>
   </trkpt>
   <trkpt lat="12.9160650" lon="99.6484130">
    <ele>75.7</ele>
    <time>2018-01-28T04:44:24Z</time>
   </trkpt>
   <trkpt lat="12.9160260" lon="99.6484630">
    <ele>75.5</ele>
    <time>2018-01-28T04:44:25Z</time>
   </trkpt>
   <trkpt lat="12.9159770" lon="99.6485150">
    <ele>75.4</ele>
    <time>2018-01-28T04:44:26Z</time>
   </trkpt>
   <trkpt lat="12.9159430" lon="99.6485570">
    <ele>75.1</ele>
    <time>2018-01-28T04:44:27Z</time>
   </trkpt>
   <trkpt lat="12.9158960" lon="99.6485980">
    <ele>75.1</ele>
    <time>2018-01-28T04:44:28Z</time>
   </trkpt>
   <trkpt lat="12.9158530" lon="99.6486240">
    <ele>75.4</ele>
    <time>2018-01-28T04:44:29Z</time>
   </trkpt>
   <trkpt lat="12.9158000" lon="99.6486580">
    <ele>74.8</ele>
    <time>2018-01-28T04:44:30Z</time>
   </trkpt>
   <trkpt lat="12.9157500" lon="99.6487030">
    <ele>73.8</ele>
    <time>2018-01-28T04:44:31Z</time>
   </trkpt>
   <trkpt lat="12.9156990" lon="99.6487420">
    <ele>73.5</ele>
    <time>2018-01-28T04:44:32Z</time>
   </trkpt>
   <trkpt lat="12.9156430" lon="99.6487720">
    <ele>72.6</ele>
    <time>2018-01-28T04:44:33Z</time>
   </trkpt>
   <trkpt lat="12.9155940" lon="99.6488040">
    <ele>72.1</ele>
    <time>2018-01-28T04:44:34Z</time>
   </trkpt>
   <trkpt lat="12.9155430" lon="99.6488440">
    <ele>71.9</ele>
    <time>2018-01-28T04:44:35Z</time>
   </trkpt>
   <trkpt lat="12.9154970" lon="99.6488920">
    <ele>71.9</ele>
    <time>2018-01-28T04:44:36Z</time>
   </trkpt>
   <trkpt lat="12.9154630" lon="99.6489540">
    <ele>71.9</ele>
    <time>2018-01-28T04:44:37Z</time>
   </trkpt>
   <trkpt lat="12.9154480" lon="99.6490180">
    <ele>71.4</ele>
    <time>2018-01-28T04:44:38Z</time>
   </trkpt>
   <trkpt lat="12.9154150" lon="99.6490710">
    <ele>71.6</ele>
    <time>2018-01-28T04:44:39Z</time>
   </trkpt>
   <trkpt lat="12.9153910" lon="99.6491400">
    <ele>71.7</ele>
    <time>2018-01-28T04:44:40Z</time>
   </trkpt>
   <trkpt lat="12.9153870" lon="99.6492020">
    <ele>71.4</ele>
    <time>2018-01-28T04:44:41Z</time>
   </trkpt>
   <trkpt lat="12.9153680" lon="99.6492670">
    <ele>70.4</ele>
    <time>2018-01-28T04:44:42Z</time>
   </trkpt>
   <trkpt lat="12.9153380" lon="99.6493520">
    <ele>69.7</ele>
    <time>2018-01-28T04:44:43Z</time>
   </trkpt>
   <trkpt lat="12.9153010" lon="99.6494110">
    <ele>69.6</ele>
    <time>2018-01-28T04:44:44Z</time>
   </trkpt>
   <trkpt lat="12.9152780" lon="99.6494630">
    <ele>68.9</ele>
    <time>2018-01-28T04:44:45Z</time>
   </trkpt>
   <trkpt lat="12.9152420" lon="99.6495150">
    <ele>68.9</ele>
    <time>2018-01-28T04:44:46Z</time>
   </trkpt>
   <trkpt lat="12.9152000" lon="99.6495620">
    <ele>67.7</ele>
    <time>2018-01-28T04:44:47Z</time>
   </trkpt>
   <trkpt lat="12.9151770" lon="99.6496170">
    <ele>67.5</ele>
    <time>2018-01-28T04:44:48Z</time>
   </trkpt>
   <trkpt lat="12.9151410" lon="99.6496640">
    <ele>67.1</ele>
    <time>2018-01-28T04:44:49Z</time>
   </trkpt>
   <trkpt lat="12.9151170" lon="99.6497120">
    <ele>66.1</ele>
    <time>2018-01-28T04:44:50Z</time>
   </trkpt>
   <trkpt lat="12.9150840" lon="99.6497720">
    <ele>65.6</ele>
    <time>2018-01-28T04:44:51Z</time>
   </trkpt>
   <trkpt lat="12.9150580" lon="99.6498210">
    <ele>64.1</ele>
    <time>2018-01-28T04:44:52Z</time>
   </trkpt>
   <trkpt lat="12.9150250" lon="99.6498760">
    <ele>63.4</ele>
    <time>2018-01-28T04:44:53Z</time>
   </trkpt>
   <trkpt lat="12.9149890" lon="99.6499290">
    <ele>63.1</ele>
    <time>2018-01-28T04:44:54Z</time>
   </trkpt>
   <trkpt lat="12.9149430" lon="99.6499720">
    <ele>62.7</ele>
    <time>2018-01-28T04:44:55Z</time>
   </trkpt>
   <trkpt lat="12.9149000" lon="99.6500200">
    <ele>62.5</ele>
    <time>2018-01-28T04:44:56Z</time>
   </trkpt>
   <trkpt lat="12.9148530" lon="99.6500640">
    <ele>62.5</ele>
    <time>2018-01-28T04:44:57Z</time>
   </trkpt>
   <trkpt lat="12.9148020" lon="99.6501040">
    <ele>62.9</ele>
    <time>2018-01-28T04:44:58Z</time>
   </trkpt>
   <trkpt lat="12.9147560" lon="99.6501400">
    <ele>62.9</ele>
    <time>2018-01-28T04:44:59Z</time>
   </trkpt>
   <trkpt lat="12.9147130" lon="99.6501840">
    <ele>62.9</ele>
    <time>2018-01-28T04:45:00Z</time>
   </trkpt>
   <trkpt lat="12.9146630" lon="99.6502240">
    <ele>63.1</ele>
    <time>2018-01-28T04:45:01Z</time>
   </trkpt>
   <trkpt lat="12.9146270" lon="99.6502750">
    <ele>63.4</ele>
    <time>2018-01-28T04:45:02Z</time>
   </trkpt>
   <trkpt lat="12.9145940" lon="99.6503140">
    <ele>63.9</ele>
    <time>2018-01-28T04:45:03Z</time>
   </trkpt>
   <trkpt lat="12.9145570" lon="99.6503590">
    <ele>63.7</ele>
    <time>2018-01-28T04:45:04Z</time>
   </trkpt>
   <trkpt lat="12.9145220" lon="99.6504090">
    <ele>64.2</ele>
    <time>2018-01-28T04:45:05Z</time>
   </trkpt>
   <trkpt lat="12.9144870" lon="99.6504590">
    <ele>64.7</ele>
    <time>2018-01-28T04:45:06Z</time>
   </trkpt>
   <trkpt lat="12.9144470" lon="99.6504960">
    <ele>65.2</ele>
    <time>2018-01-28T04:45:07Z</time>
   </trkpt>
   <trkpt lat="12.9144030" lon="99.6505310">
    <ele>65.7</ele>
    <time>2018-01-28T04:45:08Z</time>
   </trkpt>
   <trkpt lat="12.9143620" lon="99.6505720">
    <ele>66.2</ele>
    <time>2018-01-28T04:45:09Z</time>
   </trkpt>
   <trkpt lat="12.9143170" lon="99.6506020">
    <ele>66.7</ele>
    <time>2018-01-28T04:45:10Z</time>
   </trkpt>
   <trkpt lat="12.9142650" lon="99.6506400">
    <ele>67.1</ele>
    <time>2018-01-28T04:45:11Z</time>
   </trkpt>
   <trkpt lat="12.9142180" lon="99.6506730">
    <ele>68.4</ele>
    <time>2018-01-28T04:45:12Z</time>
   </trkpt>
   <trkpt lat="12.9141750" lon="99.6507110">
    <ele>69.1</ele>
    <time>2018-01-28T04:45:13Z</time>
   </trkpt>
   <trkpt lat="12.9141390" lon="99.6507440">
    <ele>68.9</ele>
    <time>2018-01-28T04:45:14Z</time>
   </trkpt>
   <trkpt lat="12.9141000" lon="99.6507790">
    <ele>69.1</ele>
    <time>2018-01-28T04:45:15Z</time>
   </trkpt>
   <trkpt lat="12.9140710" lon="99.6508210">
    <ele>69.0</ele>
    <time>2018-01-28T04:45:16Z</time>
   </trkpt>
   <trkpt lat="12.9140330" lon="99.6508640">
    <ele>69.1</ele>
    <time>2018-01-28T04:45:17Z</time>
   </trkpt>
   <trkpt lat="12.9140020" lon="99.6508930">
    <ele>69.3</ele>
    <time>2018-01-28T04:45:18Z</time>
   </trkpt>
   <trkpt lat="12.9139770" lon="99.6509220">
    <ele>69.3</ele>
    <time>2018-01-28T04:45:19Z</time>
   </trkpt>
   <trkpt lat="12.9139640" lon="99.6509650">
    <ele>69.4</ele>
    <time>2018-01-28T04:45:20Z</time>
   </trkpt>
   <trkpt lat="12.9139620" lon="99.6510140">
    <ele>69.5</ele>
    <time>2018-01-28T04:45:21Z</time>
   </trkpt>
   <trkpt lat="12.9139760" lon="99.6510660">
    <ele>69.4</ele>
    <time>2018-01-28T04:45:22Z</time>
   </trkpt>
   <trkpt lat="12.9139730" lon="99.6511240">
    <ele>69.6</ele>
    <time>2018-01-28T04:45:23Z</time>
   </trkpt>
   <trkpt lat="12.9139720" lon="99.6511860">
    <ele>69.8</ele>
    <time>2018-01-28T04:45:24Z</time>
   </trkpt>
   <trkpt lat="12.9139610" lon="99.6512430">
    <ele>70.3</ele>
    <time>2018-01-28T04:45:25Z</time>
   </trkpt>
   <trkpt lat="12.9139650" lon="99.6513080">
    <ele>69.8</ele>
    <time>2018-01-28T04:45:26Z</time>
   </trkpt>
   <trkpt lat="12.9139630" lon="99.6513710">
    <ele>68.8</ele>
    <time>2018-01-28T04:45:27Z</time>
   </trkpt>
   <trkpt lat="12.9139550" lon="99.6514330">
    <ele>68.3</ele>
    <time>2018-01-28T04:45:28Z</time>
   </trkpt>
   <trkpt lat="12.9139600" lon="99.6515000">
    <ele>67.2</ele>
    <time>2018-01-28T04:45:29Z</time>
   </trkpt>
   <trkpt lat="12.9139500" lon="99.6515670">
    <ele>66.7</ele>
    <time>2018-01-28T04:45:30Z</time>
   </trkpt>
   <trkpt lat="12.9139470" lon="99.6516320">
    <ele>65.7</ele>
    <time>2018-01-28T04:45:31Z</time>
   </trkpt>
   <trkpt lat="12.9139420" lon="99.6517030">
    <ele>65.2</ele>
    <time>2018-01-28T04:45:32Z</time>
   </trkpt>
   <trkpt lat="12.9139370" lon="99.6517710">
    <ele>64.3</ele>
    <time>2018-01-28T04:45:33Z</time>
   </trkpt>
   <trkpt lat="12.9139440" lon="99.6518450">
    <ele>63.8</ele>
    <time>2018-01-28T04:45:34Z</time>
   </trkpt>
   <trkpt lat="12.9139320" lon="99.6519030">
    <ele>63.5</ele>
    <time>2018-01-28T04:45:35Z</time>
   </trkpt>
   <trkpt lat="12.9139430" lon="99.6519730">
    <ele>63.7</ele>
    <time>2018-01-28T04:45:36Z</time>
   </trkpt>
   <trkpt lat="12.9139510" lon="99.6520540">
    <ele>64.2</ele>
    <time>2018-01-28T04:45:37Z</time>
   </trkpt>
   <trkpt lat="12.9139560" lon="99.6521270">
    <ele>64.3</ele>
    <time>2018-01-28T04:45:38Z</time>
   </trkpt>
   <trkpt lat="12.9139550" lon="99.6522160">
    <ele>64.3</ele>
    <time>2018-01-28T04:45:39Z</time>
   </trkpt>
   <trkpt lat="12.9139420" lon="99.6522970">
    <ele>64.3</ele>
    <time>2018-01-28T04:45:40Z</time>
   </trkpt>
   <trkpt lat="12.9139360" lon="99.6523720">
    <ele>63.9</ele>
    <time>2018-01-28T04:45:41Z</time>
   </trkpt>
   <trkpt lat="12.9139340" lon="99.6524520">
    <ele>63.5</ele>
    <time>2018-01-28T04:45:42Z</time>
   </trkpt>
   <trkpt lat="12.9139260" lon="99.6525320">
    <ele>63.5</ele>
    <time>2018-01-28T04:45:43Z</time>
   </trkpt>
   <trkpt lat="12.9139170" lon="99.6526120">
    <ele>63.3</ele>
    <time>2018-01-28T04:45:44Z</time>
   </trkpt>
   <trkpt lat="12.9139130" lon="99.6526880">
    <ele>63.0</ele>
    <time>2018-01-28T04:45:45Z</time>
   </trkpt>
   <trkpt lat="12.9139070" lon="99.6527680">
    <ele>62.5</ele>
    <time>2018-01-28T04:45:46Z</time>
   </trkpt>
   <trkpt lat="12.9139290" lon="99.6528400">
    <ele>62.0</ele>
    <time>2018-01-28T04:45:47Z</time>
   </trkpt>
   <trkpt lat="12.9139610" lon="99.6529040">
    <ele>61.7</ele>
    <time>2018-01-28T04:45:48Z</time>
   </trkpt>
   <trkpt lat="12.9140120" lon="99.6529670">
    <ele>61.4</ele>
    <time>2018-01-28T04:45:49Z</time>
   </trkpt>
   <trkpt lat="12.9140650" lon="99.6530170">
    <ele>61.9</ele>
    <time>2018-01-28T04:45:50Z</time>
   </trkpt>
   <trkpt lat="12.9141150" lon="99.6530670">
    <ele>62.2</ele>
    <time>2018-01-28T04:45:51Z</time>
   </trkpt>
   <trkpt lat="12.9141530" lon="99.6531100">
    <ele>62.5</ele>
    <time>2018-01-28T04:45:52Z</time>
   </trkpt>
   <trkpt lat="12.9141850" lon="99.6531460">
    <ele>62.8</ele>
    <time>2018-01-28T04:45:53Z</time>
   </trkpt>
   <trkpt lat="12.9142190" lon="99.6531910">
    <ele>62.8</ele>
    <time>2018-01-28T04:45:54Z</time>
   </trkpt>
   <trkpt lat="12.9142390" lon="99.6532170">
    <ele>63.0</ele>
    <time>2018-01-28T04:45:55Z</time>
   </trkpt>
   <trkpt lat="12.9142540" lon="99.6532540">
    <ele>63.0</ele>
    <time>2018-01-28T04:45:56Z</time>
   </trkpt>
   <trkpt lat="12.9142690" lon="99.6532920">
    <ele>63.3</ele>
    <time>2018-01-28T04:45:57Z</time>
   </trkpt>
   <trkpt lat="12.9142690" lon="99.6533440">
    <ele>63.3</ele>
    <time>2018-01-28T04:45:58Z</time>
   </trkpt>
   <trkpt lat="12.9142550" lon="99.6534030">
    <ele>63.0</ele>
    <time>2018-01-28T04:45:59Z</time>
   </trkpt>
   <trkpt lat="12.9142390" lon="99.6534690">
    <ele>63.1</ele>
    <time>2018-01-28T04:46:03Z</time>
   </trkpt>
   <trkpt lat="12.9142340" lon="99.6535070">
    <ele>63.1</ele>
    <time>2018-01-28T04:46:04Z</time>
   </trkpt>
   <trkpt lat="12.9141630" lon="99.6537530">
    <ele>63.9</ele>
    <time>2018-01-28T04:46:06Z</time>
   </trkpt>
   <trkpt lat="12.9141440" lon="99.6538030">
    <ele>64.1</ele>
    <time>2018-01-28T04:46:07Z</time>
   </trkpt>
   <trkpt lat="12.9141310" lon="99.6538490">
    <ele>64.3</ele>
    <time>2018-01-28T04:46:08Z</time>
   </trkpt>
   <trkpt lat="12.9141180" lon="99.6538870">
    <ele>64.3</ele>
    <time>2018-01-28T04:46:09Z</time>
   </trkpt>
   <trkpt lat="12.9141010" lon="99.6539310">
    <ele>64.3</ele>
    <time>2018-01-28T04:46:10Z</time>
   </trkpt>
   <trkpt lat="12.9140860" lon="99.6539720">
    <ele>64.3</ele>
    <time>2018-01-28T04:46:11Z</time>
   </trkpt>
   <trkpt lat="12.9140730" lon="99.6540060">
    <ele>64.4</ele>
    <time>2018-01-28T04:46:12Z</time>
   </trkpt>
   <trkpt lat="12.9140500" lon="99.6540500">
    <ele>64.2</ele>
    <time>2018-01-28T04:46:13Z</time>
   </trkpt>
   <trkpt lat="12.9140320" lon="99.6540930">
    <ele>64.0</ele>
    <time>2018-01-28T04:46:14Z</time>
   </trkpt>
   <trkpt lat="12.9140100" lon="99.6541360">
    <ele>63.7</ele>
    <time>2018-01-28T04:46:15Z</time>
   </trkpt>
   <trkpt lat="12.9139760" lon="99.6541840">
    <ele>63.6</ele>
    <time>2018-01-28T04:46:18Z</time>
   </trkpt>
   <trkpt lat="12.9139460" lon="99.6542140">
    <ele>63.7</ele>
    <time>2018-01-28T04:46:19Z</time>
   </trkpt>
   <trkpt lat="12.9138010" lon="99.6543460">
    <ele>64.3</ele>
    <time>2018-01-28T04:46:22Z</time>
   </trkpt>
   <trkpt lat="12.9137900" lon="99.6543920">
    <ele>64.6</ele>
    <time>2018-01-28T04:46:23Z</time>
   </trkpt>
   <trkpt lat="12.9137800" lon="99.6544470">
    <ele>64.8</ele>
    <time>2018-01-28T04:46:24Z</time>
   </trkpt>
   <trkpt lat="12.9137710" lon="99.6544990">
    <ele>65.1</ele>
    <time>2018-01-28T04:46:25Z</time>
   </trkpt>
   <trkpt lat="12.9137740" lon="99.6545520">
    <ele>64.9</ele>
    <time>2018-01-28T04:46:26Z</time>
   </trkpt>
   <trkpt lat="12.9137710" lon="99.6545970">
    <ele>64.6</ele>
    <time>2018-01-28T04:46:27Z</time>
   </trkpt>
   <trkpt lat="12.9137720" lon="99.6546450">
    <ele>64.4</ele>
    <time>2018-01-28T04:46:28Z</time>
   </trkpt>
   <trkpt lat="12.9137630" lon="99.6546970">
    <ele>64.3</ele>
    <time>2018-01-28T04:46:29Z</time>
   </trkpt>
   <trkpt lat="12.9137570" lon="99.6547490">
    <ele>64.0</ele>
    <time>2018-01-28T04:46:30Z</time>
   </trkpt>
   <trkpt lat="12.9137440" lon="99.6547940">
    <ele>64.0</ele>
    <time>2018-01-28T04:46:31Z</time>
   </trkpt>
   <trkpt lat="12.9137370" lon="99.6548400">
    <ele>64.0</ele>
    <time>2018-01-28T04:46:32Z</time>
   </trkpt>
   <trkpt lat="12.9137390" lon="99.6548920">
    <ele>64.0</ele>
    <time>2018-01-28T04:46:33Z</time>
   </trkpt>
   <trkpt lat="12.9137300" lon="99.6549390">
    <ele>64.0</ele>
    <time>2018-01-28T04:46:34Z</time>
   </trkpt>
   <trkpt lat="12.9137240" lon="99.6549860">
    <ele>64.0</ele>
    <time>2018-01-28T04:46:35Z</time>
   </trkpt>
   <trkpt lat="12.9137230" lon="99.6550330">
    <ele>64.1</ele>
    <time>2018-01-28T04:46:36Z</time>
   </trkpt>
   <trkpt lat="12.9137240" lon="99.6550940">
    <ele>64.3</ele>
    <time>2018-01-28T04:46:39Z</time>
   </trkpt>
   <trkpt lat="12.9137250" lon="99.6551450">
    <ele>64.8</ele>
    <time>2018-01-28T04:46:40Z</time>
   </trkpt>
   <trkpt lat="12.9137240" lon="99.6553590">
    <ele>66.1</ele>
    <time>2018-01-28T04:46:43Z</time>
   </trkpt>
   <trkpt lat="12.9137190" lon="99.6554090">
    <ele>66.0</ele>
    <time>2018-01-28T04:46:44Z</time>
   </trkpt>
   <trkpt lat="12.9137040" lon="99.6554520">
    <ele>66.2</ele>
    <time>2018-01-28T04:46:45Z</time>
   </trkpt>
   <trkpt lat="12.9137030" lon="99.6554950">
    <ele>66.4</ele>
    <time>2018-01-28T04:46:46Z</time>
   </trkpt>
   <trkpt lat="12.9136980" lon="99.6555440">
    <ele>66.6</ele>
    <time>2018-01-28T04:46:47Z</time>
   </trkpt>
   <trkpt lat="12.9136880" lon="99.6555870">
    <ele>66.8</ele>
    <time>2018-01-28T04:46:48Z</time>
   </trkpt>
   <trkpt lat="12.9136790" lon="99.6556320">
    <ele>67.1</ele>
    <time>2018-01-28T04:46:49Z</time>
   </trkpt>
   <trkpt lat="12.9136800" lon="99.6556700">
    <ele>67.3</ele>
    <time>2018-01-28T04:46:50Z</time>
   </trkpt>
   <trkpt lat="12.9136800" lon="99.6557200">
    <ele>67.5</ele>
    <time>2018-01-28T04:46:51Z</time>
   </trkpt>
   <trkpt lat="12.9136790" lon="99.6557750">
    <ele>67.5</ele>
    <time>2018-01-28T04:46:52Z</time>
   </trkpt>
   <trkpt lat="12.9136710" lon="99.6558310">
    <ele>66.8</ele>
    <time>2018-01-28T04:46:53Z</time>
   </trkpt>
   <trkpt lat="12.9136790" lon="99.6558800">
    <ele>67.4</ele>
    <time>2018-01-28T04:46:54Z</time>
   </trkpt>
   <trkpt lat="12.9136670" lon="99.6559220">
    <ele>66.1</ele>
    <time>2018-01-28T04:46:55Z</time>
   </trkpt>
   <trkpt lat="12.9136680" lon="99.6559750">
    <ele>65.6</ele>
    <time>2018-01-28T04:46:56Z</time>
   </trkpt>
   <trkpt lat="12.9136660" lon="99.6560220">
    <ele>65.1</ele>
    <time>2018-01-28T04:46:57Z</time>
   </trkpt>
   <trkpt lat="12.9136670" lon="99.6560700">
    <ele>64.7</ele>
    <time>2018-01-28T04:46:58Z</time>
   </trkpt>
   <trkpt lat="12.9136810" lon="99.6561020">
    <ele>65.1</ele>
    <time>2018-01-28T04:47:00Z</time>
   </trkpt>
   <trkpt lat="12.9137010" lon="99.6561350">
    <ele>64.7</ele>
    <time>2018-01-28T04:47:01Z</time>
   </trkpt>
   <trkpt lat="12.9137290" lon="99.6561830">
    <ele>64.9</ele>
    <time>2018-01-28T04:47:02Z</time>
   </trkpt>
   <trkpt lat="12.9138160" lon="99.6563960">
    <ele>63.6</ele>
    <time>2018-01-28T04:47:05Z</time>
   </trkpt>
   <trkpt lat="12.9138420" lon="99.6564490">
    <ele>63.1</ele>
    <time>2018-01-28T04:47:06Z</time>
   </trkpt>
   <trkpt lat="12.9138710" lon="99.6565000">
    <ele>63.2</ele>
    <time>2018-01-28T04:47:07Z</time>
   </trkpt>
   <trkpt lat="12.9138970" lon="99.6565510">
    <ele>63.1</ele>
    <time>2018-01-28T04:47:08Z</time>
   </trkpt>
   <trkpt lat="12.9139190" lon="99.6566020">
    <ele>61.8</ele>
    <time>2018-01-28T04:47:09Z</time>
   </trkpt>
   <trkpt lat="12.9139440" lon="99.6566480">
    <ele>61.5</ele>
    <time>2018-01-28T04:47:10Z</time>
   </trkpt>
   <trkpt lat="12.9139730" lon="99.6566950">
    <ele>61.5</ele>
    <time>2018-01-28T04:47:11Z</time>
   </trkpt>
   <trkpt lat="12.9139920" lon="99.6567340">
    <ele>60.7</ele>
    <time>2018-01-28T04:47:12Z</time>
   </trkpt>
   <trkpt lat="12.9140180" lon="99.6567850">
    <ele>60.9</ele>
    <time>2018-01-28T04:47:13Z</time>
   </trkpt>
   <trkpt lat="12.9140400" lon="99.6568310">
    <ele>60.0</ele>
    <time>2018-01-28T04:47:14Z</time>
   </trkpt>
   <trkpt lat="12.9140610" lon="99.6568710">
    <ele>60.0</ele>
    <time>2018-01-28T04:47:15Z</time>
   </trkpt>
   <trkpt lat="12.9140820" lon="99.6569150">
    <ele>59.1</ele>
    <time>2018-01-28T04:47:16Z</time>
   </trkpt>
   <trkpt lat="12.9141020" lon="99.6569580">
    <ele>59.1</ele>
    <time>2018-01-28T04:47:17Z</time>
   </trkpt>
   <trkpt lat="12.9141300" lon="99.6570030">
    <ele>57.8</ele>
    <time>2018-01-28T04:47:18Z</time>
   </trkpt>
   <trkpt lat="12.9141510" lon="99.6570440">
    <ele>57.9</ele>
    <time>2018-01-28T04:47:19Z</time>
   </trkpt>
   <trkpt lat="12.9141750" lon="99.6570980">
    <ele>57.2</ele>
    <time>2018-01-28T04:47:20Z</time>
   </trkpt>
   <trkpt lat="12.9141970" lon="99.6571450">
    <ele>56.9</ele>
    <time>2018-01-28T04:47:21Z</time>
   </trkpt>
   <trkpt lat="12.9142140" lon="99.6571970">
    <ele>55.7</ele>
    <time>2018-01-28T04:47:22Z</time>
   </trkpt>
   <trkpt lat="12.9142210" lon="99.6572560">
    <ele>55.4</ele>
    <time>2018-01-28T04:47:23Z</time>
   </trkpt>
   <trkpt lat="12.9142280" lon="99.6573090">
    <ele>55.5</ele>
    <time>2018-01-28T04:47:24Z</time>
   </trkpt>
   <trkpt lat="12.9142270" lon="99.6573550">
    <ele>55.6</ele>
    <time>2018-01-28T04:47:25Z</time>
   </trkpt>
   <trkpt lat="12.9142230" lon="99.6573960">
    <ele>55.9</ele>
    <time>2018-01-28T04:47:26Z</time>
   </trkpt>
   <trkpt lat="12.9142370" lon="99.6574450">
    <ele>56.3</ele>
    <time>2018-01-28T04:47:27Z</time>
   </trkpt>
   <trkpt lat="12.9142400" lon="99.6575030">
    <ele>57.4</ele>
    <time>2018-01-28T04:47:28Z</time>
   </trkpt>
   <trkpt lat="12.9142450" lon="99.6575520">
    <ele>57.9</ele>
    <time>2018-01-28T04:47:29Z</time>
   </trkpt>
   <trkpt lat="12.9142500" lon="99.6575830">
    <ele>57.9</ele>
    <time>2018-01-28T04:47:30Z</time>
   </trkpt>
   <trkpt lat="12.9142560" lon="99.6576170">
    <ele>58.4</ele>
    <time>2018-01-28T04:47:31Z</time>
   </trkpt>
   <trkpt lat="12.9142590" lon="99.6576600">
    <ele>58.7</ele>
    <time>2018-01-28T04:47:32Z</time>
   </trkpt>
   <trkpt lat="12.9142580" lon="99.6577150">
    <ele>59.4</ele>
    <time>2018-01-28T04:47:34Z</time>
   </trkpt>
   <trkpt lat="12.9142590" lon="99.6577570">
    <ele>59.9</ele>
    <time>2018-01-28T04:47:35Z</time>
   </trkpt>
   <trkpt lat="12.9142600" lon="99.6578010">
    <ele>60.6</ele>
    <time>2018-01-28T04:47:36Z</time>
   </trkpt>
   <trkpt lat="12.9142690" lon="99.6578390">
    <ele>61.0</ele>
    <time>2018-01-28T04:47:37Z</time>
   </trkpt>
   <trkpt lat="12.9142630" lon="99.6579240">
    <ele>61.9</ele>
    <time>2018-01-28T04:47:38Z</time>
   </trkpt>
   <trkpt lat="12.9142650" lon="99.6579760">
    <ele>63.2</ele>
    <time>2018-01-28T04:47:39Z</time>
   </trkpt>
   <trkpt lat="12.9142630" lon="99.6580280">
    <ele>63.5</ele>
    <time>2018-01-28T04:47:40Z</time>
   </trkpt>
   <trkpt lat="12.9142630" lon="99.6580770">
    <ele>64.0</ele>
    <time>2018-01-28T04:47:41Z</time>
   </trkpt>
   <trkpt lat="12.9142590" lon="99.6581200">
    <ele>64.4</ele>
    <time>2018-01-28T04:47:42Z</time>
   </trkpt>
   <trkpt lat="12.9142560" lon="99.6581670">
    <ele>64.7</ele>
    <time>2018-01-28T04:47:43Z</time>
   </trkpt>
   <trkpt lat="12.9142490" lon="99.6582090">
    <ele>65.0</ele>
    <time>2018-01-28T04:47:44Z</time>
   </trkpt>
   <trkpt lat="12.9142470" lon="99.6582560">
    <ele>65.1</ele>
    <time>2018-01-28T04:47:45Z</time>
   </trkpt>
   <trkpt lat="12.9142350" lon="99.6582920">
    <ele>65.2</ele>
    <time>2018-01-28T04:47:46Z</time>
   </trkpt>
   <trkpt lat="12.9142350" lon="99.6583450">
    <ele>65.1</ele>
    <time>2018-01-28T04:47:47Z</time>
   </trkpt>
   <trkpt lat="12.9142280" lon="99.6583930">
    <ele>64.9</ele>
    <time>2018-01-28T04:47:48Z</time>
   </trkpt>
   <trkpt lat="12.9142220" lon="99.6584460">
    <ele>64.3</ele>
    <time>2018-01-28T04:47:49Z</time>
   </trkpt>
   <trkpt lat="12.9142100" lon="99.6584900">
    <ele>64.1</ele>
    <time>2018-01-28T04:47:50Z</time>
   </trkpt>
   <trkpt lat="12.9142010" lon="99.6585350">
    <ele>63.8</ele>
    <time>2018-01-28T04:47:51Z</time>
   </trkpt>
   <trkpt lat="12.9141900" lon="99.6585790">
    <ele>63.5</ele>
    <time>2018-01-28T04:47:52Z</time>
   </trkpt>
   <trkpt lat="12.9141820" lon="99.6586290">
    <ele>63.3</ele>
    <time>2018-01-28T04:47:54Z</time>
   </trkpt>
   <trkpt lat="12.9141730" lon="99.6586790">
    <ele>63.0</ele>
    <time>2018-01-28T04:47:55Z</time>
   </trkpt>
   <trkpt lat="12.9141660" lon="99.6587190">
    <ele>62.7</ele>
    <time>2018-01-28T04:47:56Z</time>
   </trkpt>
   <trkpt lat="12.9141600" lon="99.6587560">
    <ele>62.5</ele>
    <time>2018-01-28T04:47:57Z</time>
   </trkpt>
   <trkpt lat="12.9141550" lon="99.6587910">
    <ele>62.3</ele>
    <time>2018-01-28T04:47:58Z</time>
   </trkpt>
   <trkpt lat="12.9141500" lon="99.6588330">
    <ele>62.2</ele>
    <time>2018-01-28T04:47:59Z</time>
   </trkpt>
   <trkpt lat="12.9141440" lon="99.6588750">
    <ele>62.3</ele>
    <time>2018-01-28T04:48:00Z</time>
   </trkpt>
   <trkpt lat="12.9141380" lon="99.6589180">
    <ele>62.3</ele>
    <time>2018-01-28T04:48:01Z</time>
   </trkpt>
   <trkpt lat="12.9141300" lon="99.6589640">
    <ele>62.5</ele>
    <time>2018-01-28T04:48:02Z</time>
   </trkpt>
   <trkpt lat="12.9141240" lon="99.6590260">
    <ele>62.8</ele>
    <time>2018-01-28T04:48:03Z</time>
   </trkpt>
   <trkpt lat="12.9141060" lon="99.6591360">
    <ele>63.1</ele>
    <time>2018-01-28T04:48:04Z</time>
   </trkpt>
   <trkpt lat="12.9141020" lon="99.6591840">
    <ele>62.8</ele>
    <time>2018-01-28T04:48:05Z</time>
   </trkpt>
   <trkpt lat="12.9140980" lon="99.6592360">
    <ele>62.5</ele>
    <time>2018-01-28T04:48:06Z</time>
   </trkpt>
   <trkpt lat="12.9140930" lon="99.6592860">
    <ele>61.7</ele>
    <time>2018-01-28T04:48:07Z</time>
   </trkpt>
   <trkpt lat="12.9140830" lon="99.6593320">
    <ele>61.5</ele>
    <time>2018-01-28T04:48:08Z</time>
   </trkpt>
   <trkpt lat="12.9140760" lon="99.6593760">
    <ele>61.6</ele>
    <time>2018-01-28T04:48:09Z</time>
   </trkpt>
   <trkpt lat="12.9140660" lon="99.6594320">
    <ele>61.8</ele>
    <time>2018-01-28T04:48:10Z</time>
   </trkpt>
   <trkpt lat="12.9140710" lon="99.6594820">
    <ele>61.9</ele>
    <time>2018-01-28T04:48:11Z</time>
   </trkpt>
   <trkpt lat="12.9140750" lon="99.6595230">
    <ele>62.1</ele>
    <time>2018-01-28T04:48:12Z</time>
   </trkpt>
   <trkpt lat="12.9140960" lon="99.6595650">
    <ele>62.2</ele>
    <time>2018-01-28T04:48:13Z</time>
   </trkpt>
   <trkpt lat="12.9141070" lon="99.6596070">
    <ele>62.7</ele>
    <time>2018-01-28T04:48:14Z</time>
   </trkpt>
   <trkpt lat="12.9141140" lon="99.6596360">
    <ele>62.8</ele>
    <time>2018-01-28T04:48:17Z</time>
   </trkpt>
   <trkpt lat="12.9141290" lon="99.6596740">
    <ele>63.1</ele>
    <time>2018-01-28T04:48:18Z</time>
   </trkpt>
   <trkpt lat="12.9141480" lon="99.6597190">
    <ele>63.8</ele>
    <time>2018-01-28T04:48:19Z</time>
   </trkpt>
   <trkpt lat="12.9141640" lon="99.6597550">
    <ele>64.2</ele>
    <time>2018-01-28T04:48:20Z</time>
   </trkpt>
   <trkpt lat="12.9141780" lon="99.6597900">
    <ele>64.5</ele>
    <time>2018-01-28T04:48:21Z</time>
   </trkpt>
   <trkpt lat="12.9141910" lon="99.6598230">
    <ele>65.0</ele>
    <time>2018-01-28T04:48:22Z</time>
   </trkpt>
   <trkpt lat="12.9142020" lon="99.6598590">
    <ele>65.2</ele>
    <time>2018-01-28T04:48:23Z</time>
   </trkpt>
   <trkpt lat="12.9142140" lon="99.6598980">
    <ele>65.3</ele>
    <time>2018-01-28T04:48:24Z</time>
   </trkpt>
   <trkpt lat="12.9142270" lon="99.6599410">
    <ele>65.4</ele>
    <time>2018-01-28T04:48:25Z</time>
   </trkpt>
   <trkpt lat="12.9142390" lon="99.6599800">
    <ele>65.3</ele>
    <time>2018-01-28T04:48:26Z</time>
   </trkpt>
   <trkpt lat="12.9142500" lon="99.6600080">
    <ele>65.1</ele>
    <time>2018-01-28T04:48:27Z</time>
   </trkpt>
   <trkpt lat="12.9142850" lon="99.6600360">
    <ele>64.8</ele>
    <time>2018-01-28T04:48:29Z</time>
   </trkpt>
   <trkpt lat="12.9143290" lon="99.6600030">
    <ele>65.2</ele>
    <time>2018-01-28T04:48:31Z</time>
   </trkpt>
   <trkpt lat="12.9143490" lon="99.6599740">
    <ele>65.6</ele>
    <time>2018-01-28T04:48:32Z</time>
   </trkpt>
   <trkpt lat="12.9143690" lon="99.6599440">
    <ele>65.7</ele>
    <time>2018-01-28T04:48:33Z</time>
   </trkpt>
   <trkpt lat="12.9143890" lon="99.6599140">
    <ele>66.3</ele>
    <time>2018-01-28T04:48:34Z</time>
   </trkpt>
   <trkpt lat="12.9144090" lon="99.6598810">
    <ele>66.8</ele>
    <time>2018-01-28T04:48:35Z</time>
   </trkpt>
   <trkpt lat="12.9144280" lon="99.6598490">
    <ele>67.3</ele>
    <time>2018-01-28T04:48:36Z</time>
   </trkpt>
   <trkpt lat="12.9144450" lon="99.6598180">
    <ele>67.7</ele>
    <time>2018-01-28T04:48:37Z</time>
   </trkpt>
   <trkpt lat="12.9144660" lon="99.6597840">
    <ele>68.0</ele>
    <time>2018-01-28T04:48:38Z</time>
   </trkpt>
   <trkpt lat="12.9144940" lon="99.6597510">
    <ele>68.5</ele>
    <time>2018-01-28T04:48:39Z</time>
   </trkpt>
   <trkpt lat="12.9145290" lon="99.6597270">
    <ele>69.0</ele>
    <time>2018-01-28T04:48:40Z</time>
   </trkpt>
   <trkpt lat="12.9145700" lon="99.6597160">
    <ele>69.5</ele>
    <time>2018-01-28T04:48:41Z</time>
   </trkpt>
   <trkpt lat="12.9146110" lon="99.6597470">
    <ele>69.8</ele>
    <time>2018-01-28T04:48:42Z</time>
   </trkpt>
   <trkpt lat="12.9146680" lon="99.6597420">
    <ele>70.2</ele>
    <time>2018-01-28T04:48:43Z</time>
   </trkpt>
   <trkpt lat="12.9147080" lon="99.6597560">
    <ele>70.6</ele>
    <time>2018-01-28T04:48:44Z</time>
   </trkpt>
   <trkpt lat="12.9147440" lon="99.6597660">
    <ele>70.9</ele>
    <time>2018-01-28T04:48:45Z</time>
   </trkpt>
   <trkpt lat="12.9147730" lon="99.6597730">
    <ele>70.9</ele>
    <time>2018-01-28T04:48:46Z</time>
   </trkpt>
   <trkpt lat="12.9148020" lon="99.6597800">
    <ele>71.0</ele>
    <time>2018-01-28T04:48:47Z</time>
   </trkpt>
   <trkpt lat="12.9148280" lon="99.6597920">
    <ele>71.3</ele>
    <time>2018-01-28T04:48:48Z</time>
   </trkpt>
   <trkpt lat="12.9148640" lon="99.6598230">
    <ele>71.5</ele>
    <time>2018-01-28T04:48:50Z</time>
   </trkpt>
   <trkpt lat="12.9149040" lon="99.6598590">
    <ele>71.9</ele>
    <time>2018-01-28T04:48:52Z</time>
   </trkpt>
   <trkpt lat="12.9149250" lon="99.6598800">
    <ele>72.0</ele>
    <time>2018-01-28T04:48:53Z</time>
   </trkpt>
   <trkpt lat="12.9149470" lon="99.6599020">
    <ele>72.4</ele>
    <time>2018-01-28T04:48:54Z</time>
   </trkpt>
   <trkpt lat="12.9149690" lon="99.6599240">
    <ele>72.5</ele>
    <time>2018-01-28T04:48:55Z</time>
   </trkpt>
   <trkpt lat="12.9149940" lon="99.6599500">
    <ele>72.9</ele>
    <time>2018-01-28T04:48:56Z</time>
   </trkpt>
   <trkpt lat="12.9150230" lon="99.6599760">
    <ele>73.4</ele>
    <time>2018-01-28T04:48:57Z</time>
   </trkpt>
   <trkpt lat="12.9150560" lon="99.6600050">
    <ele>73.5</ele>
    <time>2018-01-28T04:48:58Z</time>
   </trkpt>
   <trkpt lat="12.9150940" lon="99.6600380">
    <ele>73.9</ele>
    <time>2018-01-28T04:48:59Z</time>
   </trkpt>
   <trkpt lat="12.9151340" lon="99.6600690">
    <ele>74.3</ele>
    <time>2018-01-28T04:49:00Z</time>
   </trkpt>
   <trkpt lat="12.9151720" lon="99.6600940">
    <ele>74.5</ele>
    <time>2018-01-28T04:49:01Z</time>
   </trkpt>
   <trkpt lat="12.9152090" lon="99.6601120">
    <ele>74.8</ele>
    <time>2018-01-28T04:49:02Z</time>
   </trkpt>
   <trkpt lat="12.9152420" lon="99.6601240">
    <ele>75.2</ele>
    <time>2018-01-28T04:49:03Z</time>
   </trkpt>
   <trkpt lat="12.9152700" lon="99.6601300">
    <ele>75.5</ele>
    <time>2018-01-28T04:49:04Z</time>
   </trkpt>
   <trkpt lat="12.9152980" lon="99.6601310">
    <ele>75.6</ele>
    <time>2018-01-28T04:49:05Z</time>
   </trkpt>
   <trkpt lat="12.9153270" lon="99.6601250">
    <ele>75.8</ele>
    <time>2018-01-28T04:49:06Z</time>
   </trkpt>
   <trkpt lat="12.9153570" lon="99.6601130">
    <ele>75.6</ele>
    <time>2018-01-28T04:49:07Z</time>
   </trkpt>
   <trkpt lat="12.9153880" lon="99.6600990">
    <ele>75.7</ele>
    <time>2018-01-28T04:49:08Z</time>
   </trkpt>
   <trkpt lat="12.9154160" lon="99.6600880">
    <ele>75.9</ele>
    <time>2018-01-28T04:49:09Z</time>
   </trkpt>
   <trkpt lat="12.9154670" lon="99.6600780">
    <ele>76.0</ele>
    <time>2018-01-28T04:49:11Z</time>
   </trkpt>
   <trkpt lat="12.9154950" lon="99.6600770">
    <ele>76.2</ele>
    <time>2018-01-28T04:49:12Z</time>
   </trkpt>
   <trkpt lat="12.9155220" lon="99.6600760">
    <ele>76.5</ele>
    <time>2018-01-28T04:49:13Z</time>
   </trkpt>
   <trkpt lat="12.9155710" lon="99.6600770">
    <ele>76.8</ele>
    <time>2018-01-28T04:49:15Z</time>
   </trkpt>
   <trkpt lat="12.9156170" lon="99.6600840">
    <ele>77.1</ele>
    <time>2018-01-28T04:49:17Z</time>
   </trkpt>
   <trkpt lat="12.9156680" lon="99.6600910">
    <ele>77.3</ele>
    <time>2018-01-28T04:49:19Z</time>
   </trkpt>
   <trkpt lat="12.9157200" lon="99.6600930">
    <ele>77.4</ele>
    <time>2018-01-28T04:49:21Z</time>
   </trkpt>
   <trkpt lat="12.9157660" lon="99.6601010">
    <ele>77.6</ele>
    <time>2018-01-28T04:49:23Z</time>
   </trkpt>
   <trkpt lat="12.9158040" lon="99.6601200">
    <ele>78.0</ele>
    <time>2018-01-28T04:49:25Z</time>
   </trkpt>
   <trkpt lat="12.9158520" lon="99.6601390">
    <ele>78.0</ele>
    <time>2018-01-28T04:49:27Z</time>
   </trkpt>
   <trkpt lat="12.9158770" lon="99.6601490">
    <ele>78.1</ele>
    <time>2018-01-28T04:49:28Z</time>
   </trkpt>
   <trkpt lat="12.9159070" lon="99.6601610">
    <ele>78.4</ele>
    <time>2018-01-28T04:49:29Z</time>
   </trkpt>
   <trkpt lat="12.9159340" lon="99.6601750">
    <ele>78.5</ele>
    <time>2018-01-28T04:49:30Z</time>
   </trkpt>
   <trkpt lat="12.9159670" lon="99.6601930">
    <ele>78.6</ele>
    <time>2018-01-28T04:49:31Z</time>
   </trkpt>
   <trkpt lat="12.9160010" lon="99.6602180">
    <ele>79.0</ele>
    <time>2018-01-28T04:49:32Z</time>
   </trkpt>
   <trkpt lat="12.9160290" lon="99.6602550">
    <ele>79.4</ele>
    <time>2018-01-28T04:49:33Z</time>
   </trkpt>
   <trkpt lat="12.9160250" lon="99.6603020">
    <ele>79.8</ele>
    <time>2018-01-28T04:49:34Z</time>
   </trkpt>
   <trkpt lat="12.9160610" lon="99.6603650">
    <ele>80.2</ele>
    <time>2018-01-28T04:49:35Z</time>
   </trkpt>
   <trkpt lat="12.9160850" lon="99.6604040">
    <ele>80.6</ele>
    <time>2018-01-28T04:49:36Z</time>
   </trkpt>
   <trkpt lat="12.9161040" lon="99.6604450">
    <ele>81.0</ele>
    <time>2018-01-28T04:49:37Z</time>
   </trkpt>
   <trkpt lat="12.9161200" lon="99.6604850">
    <ele>81.2</ele>
    <time>2018-01-28T04:49:38Z</time>
   </trkpt>
   <trkpt lat="12.9161390" lon="99.6605210">
    <ele>81.5</ele>
    <time>2018-01-28T04:49:39Z</time>
   </trkpt>
   <trkpt lat="12.9161600" lon="99.6605520">
    <ele>81.7</ele>
    <time>2018-01-28T04:49:40Z</time>
   </trkpt>
   <trkpt lat="12.9161820" lon="99.6605840">
    <ele>81.8</ele>
    <time>2018-01-28T04:49:41Z</time>
   </trkpt>
   <trkpt lat="12.9162090" lon="99.6606160">
    <ele>81.9</ele>
    <time>2018-01-28T04:49:43Z</time>
   </trkpt>
   <trkpt lat="12.9162430" lon="99.6606450">
    <ele>81.9</ele>
    <time>2018-01-28T04:49:45Z</time>
   </trkpt>
   <trkpt lat="12.9163320" lon="99.6607090">
    <ele>81.9</ele>
    <time>2018-01-28T04:49:47Z</time>
   </trkpt>
   <trkpt lat="12.9163460" lon="99.6607390">
    <ele>82.1</ele>
    <time>2018-01-28T04:49:48Z</time>
   </trkpt>
   <trkpt lat="12.9163470" lon="99.6607730">
    <ele>82.2</ele>
    <time>2018-01-28T04:49:49Z</time>
   </trkpt>
   <trkpt lat="12.9163330" lon="99.6608020">
    <ele>82.3</ele>
    <time>2018-01-28T04:49:50Z</time>
   </trkpt>
   <trkpt lat="12.9163060" lon="99.6608220">
    <ele>82.2</ele>
    <time>2018-01-28T04:49:51Z</time>
   </trkpt>
   <trkpt lat="12.9162780" lon="99.6608410">
    <ele>82.3</ele>
    <time>2018-01-28T04:49:52Z</time>
   </trkpt>
   <trkpt lat="12.9162480" lon="99.6608580">
    <ele>82.0</ele>
    <time>2018-01-28T04:49:54Z</time>
   </trkpt>
   <trkpt lat="12.9162000" lon="99.6608820">
    <ele>81.8</ele>
    <time>2018-01-28T04:49:56Z</time>
   </trkpt>
   <trkpt lat="12.9161230" lon="99.6609620">
    <ele>81.0</ele>
    <time>2018-01-28T04:49:58Z</time>
   </trkpt>
   <trkpt lat="12.9161010" lon="99.6610020">
    <ele>80.9</ele>
    <time>2018-01-28T04:50:00Z</time>
   </trkpt>
   <trkpt lat="12.9160770" lon="99.6610420">
    <ele>80.9</ele>
    <time>2018-01-28T04:50:02Z</time>
   </trkpt>
   <trkpt lat="12.9160670" lon="99.6610860">
    <ele>80.9</ele>
    <time>2018-01-28T04:50:04Z</time>
   </trkpt>
   <trkpt lat="12.9160820" lon="99.6611250">
    <ele>81.1</ele>
    <time>2018-01-28T04:50:06Z</time>
   </trkpt>
   <trkpt lat="12.9161070" lon="99.6611570">
    <ele>81.2</ele>
    <time>2018-01-28T04:50:08Z</time>
   </trkpt>
   <trkpt lat="12.9161270" lon="99.6611760">
    <ele>81.3</ele>
    <time>2018-01-28T04:50:09Z</time>
   </trkpt>
   <trkpt lat="12.9161480" lon="99.6611950">
    <ele>81.6</ele>
    <time>2018-01-28T04:50:10Z</time>
   </trkpt>
   <trkpt lat="12.9161890" lon="99.6612320">
    <ele>81.9</ele>
    <time>2018-01-28T04:50:12Z</time>
   </trkpt>
   <trkpt lat="12.9162460" lon="99.6612800">
    <ele>82.3</ele>
    <time>2018-01-28T04:50:14Z</time>
   </trkpt>
   <trkpt lat="12.9162710" lon="99.6612960">
    <ele>82.4</ele>
    <time>2018-01-28T04:50:15Z</time>
   </trkpt>
   <trkpt lat="12.9162950" lon="99.6613100">
    <ele>82.6</ele>
    <time>2018-01-28T04:50:16Z</time>
   </trkpt>
   <trkpt lat="12.9163220" lon="99.6613260">
    <ele>82.9</ele>
    <time>2018-01-28T04:50:17Z</time>
   </trkpt>
   <trkpt lat="12.9163460" lon="99.6613400">
    <ele>82.9</ele>
    <time>2018-01-28T04:50:18Z</time>
   </trkpt>
   <trkpt lat="12.9163700" lon="99.6613520">
    <ele>83.1</ele>
    <time>2018-01-28T04:50:19Z</time>
   </trkpt>
   <trkpt lat="12.9164050" lon="99.6613710">
    <ele>83.4</ele>
    <time>2018-01-28T04:50:21Z</time>
   </trkpt>
   <trkpt lat="12.9164480" lon="99.6613930">
    <ele>83.7</ele>
    <time>2018-01-28T04:50:23Z</time>
   </trkpt>
   <trkpt lat="12.9164900" lon="99.6614130">
    <ele>84.0</ele>
    <time>2018-01-28T04:50:25Z</time>
   </trkpt>
   <trkpt lat="12.9165190" lon="99.6614230">
    <ele>84.0</ele>
    <time>2018-01-28T04:50:26Z</time>
   </trkpt>
   <trkpt lat="12.9165480" lon="99.6614290">
    <ele>84.4</ele>
    <time>2018-01-28T04:50:27Z</time>
   </trkpt>
   <trkpt lat="12.9165790" lon="99.6614340">
    <ele>84.6</ele>
    <time>2018-01-28T04:50:28Z</time>
   </trkpt>
   <trkpt lat="12.9166140" lon="99.6614340">
    <ele>84.8</ele>
    <time>2018-01-28T04:50:29Z</time>
   </trkpt>
   <trkpt lat="12.9166470" lon="99.6614300">
    <ele>84.8</ele>
    <time>2018-01-28T04:50:30Z</time>
   </trkpt>
   <trkpt lat="12.9166780" lon="99.6614250">
    <ele>84.9</ele>
    <time>2018-01-28T04:50:31Z</time>
   </trkpt>
   <trkpt lat="12.9167100" lon="99.6614200">
    <ele>84.9</ele>
    <time>2018-01-28T04:50:32Z</time>
   </trkpt>
   <trkpt lat="12.9167410" lon="99.6614160">
    <ele>84.7</ele>
    <time>2018-01-28T04:50:33Z</time>
   </trkpt>
   <trkpt lat="12.9167680" lon="99.6614110">
    <ele>84.7</ele>
    <time>2018-01-28T04:50:34Z</time>
   </trkpt>
   <trkpt lat="12.9168200" lon="99.6614040">
    <ele>84.3</ele>
    <time>2018-01-28T04:50:36Z</time>
   </trkpt>
   <trkpt lat="12.9168480" lon="99.6614070">
    <ele>84.3</ele>
    <time>2018-01-28T04:50:37Z</time>
   </trkpt>
   <trkpt lat="12.9168750" lon="99.6614160">
    <ele>84.1</ele>
    <time>2018-01-28T04:50:38Z</time>
   </trkpt>
   <trkpt lat="12.9169220" lon="99.6614420">
    <ele>83.9</ele>
    <time>2018-01-28T04:50:40Z</time>
   </trkpt>
   <trkpt lat="12.9169470" lon="99.6614540">
    <ele>83.4</ele>
    <time>2018-01-28T04:50:41Z</time>
   </trkpt>
   <trkpt lat="12.9169830" lon="99.6614670">
    <ele>83.1</ele>
    <time>2018-01-28T04:50:43Z</time>
   </trkpt>
   <trkpt lat="12.9170320" lon="99.6614690">
    <ele>82.8</ele>
    <time>2018-01-28T04:50:45Z</time>
   </trkpt>
   <trkpt lat="12.9170820" lon="99.6614670">
    <ele>82.5</ele>
    <time>2018-01-28T04:50:47Z</time>
   </trkpt>
   <trkpt lat="12.9171120" lon="99.6614680">
    <ele>82.2</ele>
    <time>2018-01-28T04:50:48Z</time>
   </trkpt>
   <trkpt lat="12.9171400" lon="99.6614690">
    <ele>82.2</ele>
    <time>2018-01-28T04:50:49Z</time>
   </trkpt>
   <trkpt lat="12.9171960" lon="99.6614630">
    <ele>81.9</ele>
    <time>2018-01-28T04:50:51Z</time>
   </trkpt>
   <trkpt lat="12.9172310" lon="99.6614520">
    <ele>81.9</ele>
    <time>2018-01-28T04:50:52Z</time>
   </trkpt>
   <trkpt lat="12.9172590" lon="99.6614400">
    <ele>82.2</ele>
    <time>2018-01-28T04:50:53Z</time>
   </trkpt>
   <trkpt lat="12.9173140" lon="99.6614150">
    <ele>82.3</ele>
    <time>2018-01-28T04:50:55Z</time>
   </trkpt>
   <trkpt lat="12.9173490" lon="99.6614020">
    <ele>82.6</ele>
    <time>2018-01-28T04:50:56Z</time>
   </trkpt>
   <trkpt lat="12.9173800" lon="99.6613910">
    <ele>82.6</ele>
    <time>2018-01-28T04:50:57Z</time>
   </trkpt>
   <trkpt lat="12.9174120" lon="99.6613840">
    <ele>82.6</ele>
    <time>2018-01-28T04:50:58Z</time>
   </trkpt>
   <trkpt lat="12.9174440" lon="99.6613830">
    <ele>82.7</ele>
    <time>2018-01-28T04:50:59Z</time>
   </trkpt>
   <trkpt lat="12.9174750" lon="99.6613860">
    <ele>82.7</ele>
    <time>2018-01-28T04:51:00Z</time>
   </trkpt>
   <trkpt lat="12.9175050" lon="99.6613900">
    <ele>82.8</ele>
    <time>2018-01-28T04:51:01Z</time>
   </trkpt>
   <trkpt lat="12.9175320" lon="99.6613970">
    <ele>83.1</ele>
    <time>2018-01-28T04:51:02Z</time>
   </trkpt>
   <trkpt lat="12.9175580" lon="99.6614060">
    <ele>83.1</ele>
    <time>2018-01-28T04:51:03Z</time>
   </trkpt>
   <trkpt lat="12.9176030" lon="99.6614300">
    <ele>83.5</ele>
    <time>2018-01-28T04:51:05Z</time>
   </trkpt>
   <trkpt lat="12.9176480" lon="99.6614550">
    <ele>84.1</ele>
    <time>2018-01-28T04:51:07Z</time>
   </trkpt>
   <trkpt lat="12.9176920" lon="99.6614710">
    <ele>84.5</ele>
    <time>2018-01-28T04:51:09Z</time>
   </trkpt>
   <trkpt lat="12.9177240" lon="99.6614950">
    <ele>85.0</ele>
    <time>2018-01-28T04:51:11Z</time>
   </trkpt>
   <trkpt lat="12.9177410" lon="99.6615350">
    <ele>85.6</ele>
    <time>2018-01-28T04:51:13Z</time>
   </trkpt>
   <trkpt lat="12.9177450" lon="99.6615640">
    <ele>85.6</ele>
    <time>2018-01-28T04:51:14Z</time>
   </trkpt>
   <trkpt lat="12.9177690" lon="99.6616050">
    <ele>86.0</ele>
    <time>2018-01-28T04:51:16Z</time>
   </trkpt>
   <trkpt lat="12.9178200" lon="99.6616130">
    <ele>86.7</ele>
    <time>2018-01-28T04:51:18Z</time>
   </trkpt>
   <trkpt lat="12.9178470" lon="99.6616100">
    <ele>86.7</ele>
    <time>2018-01-28T04:51:19Z</time>
   </trkpt>
   <trkpt lat="12.9178940" lon="99.6616150">
    <ele>87.2</ele>
    <time>2018-01-28T04:51:21Z</time>
   </trkpt>
   <trkpt lat="12.9179360" lon="99.6616360">
    <ele>88.3</ele>
    <time>2018-01-28T04:51:23Z</time>
   </trkpt>
   <trkpt lat="12.9179770" lon="99.6616620">
    <ele>89.3</ele>
    <time>2018-01-28T04:51:25Z</time>
   </trkpt>
   <trkpt lat="12.9180120" lon="99.6617020">
    <ele>89.7</ele>
    <time>2018-01-28T04:51:27Z</time>
   </trkpt>
   <trkpt lat="12.9180410" lon="99.6617470">
    <ele>90.5</ele>
    <time>2018-01-28T04:51:29Z</time>
   </trkpt>
   <trkpt lat="12.9180720" lon="99.6617870">
    <ele>90.7</ele>
    <time>2018-01-28T04:51:31Z</time>
   </trkpt>
   <trkpt lat="12.9181000" lon="99.6618410">
    <ele>90.6</ele>
    <time>2018-01-28T04:51:33Z</time>
   </trkpt>
   <trkpt lat="12.9181130" lon="99.6618760">
    <ele>90.6</ele>
    <time>2018-01-28T04:51:34Z</time>
   </trkpt>
   <trkpt lat="12.9181260" lon="99.6619110">
    <ele>90.6</ele>
    <time>2018-01-28T04:51:35Z</time>
   </trkpt>
   <trkpt lat="12.9181400" lon="99.6619440">
    <ele>90.4</ele>
    <time>2018-01-28T04:51:36Z</time>
   </trkpt>
   <trkpt lat="12.9181560" lon="99.6619810">
    <ele>90.2</ele>
    <time>2018-01-28T04:51:37Z</time>
   </trkpt>
   <trkpt lat="12.9181750" lon="99.6620150">
    <ele>89.9</ele>
    <time>2018-01-28T04:51:38Z</time>
   </trkpt>
   <trkpt lat="12.9181900" lon="99.6620500">
    <ele>89.6</ele>
    <time>2018-01-28T04:51:39Z</time>
   </trkpt>
   <trkpt lat="12.9182020" lon="99.6620890">
    <ele>89.5</ele>
    <time>2018-01-28T04:51:40Z</time>
   </trkpt>
   <trkpt lat="12.9182220" lon="99.6621250">
    <ele>89.2</ele>
    <time>2018-01-28T04:51:41Z</time>
   </trkpt>
   <trkpt lat="12.9182280" lon="99.6621670">
    <ele>88.9</ele>
    <time>2018-01-28T04:51:42Z</time>
   </trkpt>
   <trkpt lat="12.9182350" lon="99.6622020">
    <ele>88.6</ele>
    <time>2018-01-28T04:51:43Z</time>
   </trkpt>
   <trkpt lat="12.9182440" lon="99.6622390">
    <ele>88.1</ele>
    <time>2018-01-28T04:51:44Z</time>
   </trkpt>
   <trkpt lat="12.9182640" lon="99.6622720">
    <ele>87.8</ele>
    <time>2018-01-28T04:51:45Z</time>
   </trkpt>
   <trkpt lat="12.9182860" lon="99.6623030">
    <ele>87.6</ele>
    <time>2018-01-28T04:51:46Z</time>
   </trkpt>
   <trkpt lat="12.9182990" lon="99.6623370">
    <ele>87.3</ele>
    <time>2018-01-28T04:51:47Z</time>
   </trkpt>
   <trkpt lat="12.9183070" lon="99.6623780">
    <ele>87.1</ele>
    <time>2018-01-28T04:51:48Z</time>
   </trkpt>
   <trkpt lat="12.9183030" lon="99.6624190">
    <ele>87.0</ele>
    <time>2018-01-28T04:51:49Z</time>
   </trkpt>
   <trkpt lat="12.9182780" lon="99.6624530">
    <ele>87.2</ele>
    <time>2018-01-28T04:51:50Z</time>
   </trkpt>
   <trkpt lat="12.9182440" lon="99.6624800">
    <ele>87.2</ele>
    <time>2018-01-28T04:51:51Z</time>
   </trkpt>
   <trkpt lat="12.9182100" lon="99.6625050">
    <ele>87.5</ele>
    <time>2018-01-28T04:51:52Z</time>
   </trkpt>
   <trkpt lat="12.9181740" lon="99.6625260">
    <ele>87.7</ele>
    <time>2018-01-28T04:51:53Z</time>
   </trkpt>
   <trkpt lat="12.9181380" lon="99.6625500">
    <ele>87.7</ele>
    <time>2018-01-28T04:51:54Z</time>
   </trkpt>
   <trkpt lat="12.9181010" lon="99.6625800">
    <ele>87.5</ele>
    <time>2018-01-28T04:51:55Z</time>
   </trkpt>
   <trkpt lat="12.9180620" lon="99.6626100">
    <ele>87.3</ele>
    <time>2018-01-28T04:51:56Z</time>
   </trkpt>
   <trkpt lat="12.9180160" lon="99.6626400">
    <ele>86.9</ele>
    <time>2018-01-28T04:51:57Z</time>
   </trkpt>
   <trkpt lat="12.9179770" lon="99.6626760">
    <ele>86.5</ele>
    <time>2018-01-28T04:51:58Z</time>
   </trkpt>
   <trkpt lat="12.9179270" lon="99.6627100">
    <ele>85.9</ele>
    <time>2018-01-28T04:51:59Z</time>
   </trkpt>
   <trkpt lat="12.9178670" lon="99.6627570">
    <ele>85.2</ele>
    <time>2018-01-28T04:52:00Z</time>
   </trkpt>
   <trkpt lat="12.9178260" lon="99.6628000">
    <ele>84.8</ele>
    <time>2018-01-28T04:52:01Z</time>
   </trkpt>
   <trkpt lat="12.9177770" lon="99.6628280">
    <ele>84.3</ele>
    <time>2018-01-28T04:52:02Z</time>
   </trkpt>
   <trkpt lat="12.9177360" lon="99.6628460">
    <ele>84.3</ele>
    <time>2018-01-28T04:52:03Z</time>
   </trkpt>
   <trkpt lat="12.9177020" lon="99.6628700">
    <ele>84.0</ele>
    <time>2018-01-28T04:52:04Z</time>
   </trkpt>
   <trkpt lat="12.9176520" lon="99.6628790">
    <ele>83.8</ele>
    <time>2018-01-28T04:52:05Z</time>
   </trkpt>
   <trkpt lat="12.9176020" lon="99.6628720">
    <ele>83.8</ele>
    <time>2018-01-28T04:52:06Z</time>
   </trkpt>
   <trkpt lat="12.9175580" lon="99.6628600">
    <ele>83.9</ele>
    <time>2018-01-28T04:52:07Z</time>
   </trkpt>
   <trkpt lat="12.9175100" lon="99.6628490">
    <ele>83.8</ele>
    <time>2018-01-28T04:52:08Z</time>
   </trkpt>
   <trkpt lat="12.9174580" lon="99.6628430">
    <ele>83.7</ele>
    <time>2018-01-28T04:52:09Z</time>
   </trkpt>
   <trkpt lat="12.9173980" lon="99.6628480">
    <ele>83.3</ele>
    <time>2018-01-28T04:52:10Z</time>
   </trkpt>
   <trkpt lat="12.9173390" lon="99.6628310">
    <ele>83.0</ele>
    <time>2018-01-28T04:52:11Z</time>
   </trkpt>
   <trkpt lat="12.9172800" lon="99.6628420">
    <ele>82.6</ele>
    <time>2018-01-28T04:52:12Z</time>
   </trkpt>
   <trkpt lat="12.9172270" lon="99.6628500">
    <ele>82.0</ele>
    <time>2018-01-28T04:52:13Z</time>
   </trkpt>
   <trkpt lat="12.9171750" lon="99.6628560">
    <ele>81.7</ele>
    <time>2018-01-28T04:52:14Z</time>
   </trkpt>
   <trkpt lat="12.9171230" lon="99.6628680">
    <ele>81.6</ele>
    <time>2018-01-28T04:52:15Z</time>
   </trkpt>
   <trkpt lat="12.9170690" lon="99.6628870">
    <ele>81.3</ele>
    <time>2018-01-28T04:52:16Z</time>
   </trkpt>
   <trkpt lat="12.9170210" lon="99.6629020">
    <ele>80.9</ele>
    <time>2018-01-28T04:52:17Z</time>
   </trkpt>
   <trkpt lat="12.9169690" lon="99.6629200">
    <ele>80.6</ele>
    <time>2018-01-28T04:52:18Z</time>
   </trkpt>
   <trkpt lat="12.9169110" lon="99.6629280">
    <ele>80.6</ele>
    <time>2018-01-28T04:52:19Z</time>
   </trkpt>
   <trkpt lat="12.9168560" lon="99.6629370">
    <ele>80.7</ele>
    <time>2018-01-28T04:52:20Z</time>
   </trkpt>
   <trkpt lat="12.9168050" lon="99.6629480">
    <ele>80.8</ele>
    <time>2018-01-28T04:52:21Z</time>
   </trkpt>
   <trkpt lat="12.9167510" lon="99.6629590">
    <ele>81.1</ele>
    <time>2018-01-28T04:52:22Z</time>
   </trkpt>
   <trkpt lat="12.9166970" lon="99.6629730">
    <ele>81.5</ele>
    <time>2018-01-28T04:52:23Z</time>
   </trkpt>
   <trkpt lat="12.9166440" lon="99.6629850">
    <ele>82.0</ele>
    <time>2018-01-28T04:52:24Z</time>
   </trkpt>
   <trkpt lat="12.9165790" lon="99.6629930">
    <ele>82.1</ele>
    <time>2018-01-28T04:52:25Z</time>
   </trkpt>
   <trkpt lat="12.9165240" lon="99.6630160">
    <ele>82.1</ele>
    <time>2018-01-28T04:52:26Z</time>
   </trkpt>
   <trkpt lat="12.9164730" lon="99.6630310">
    <ele>81.7</ele>
    <time>2018-01-28T04:52:27Z</time>
   </trkpt>
   <trkpt lat="12.9164160" lon="99.6630420">
    <ele>81.1</ele>
    <time>2018-01-28T04:52:28Z</time>
   </trkpt>
   <trkpt lat="12.9163580" lon="99.6630540">
    <ele>80.6</ele>
    <time>2018-01-28T04:52:29Z</time>
   </trkpt>
   <trkpt lat="12.9163050" lon="99.6630640">
    <ele>79.7</ele>
    <time>2018-01-28T04:52:30Z</time>
   </trkpt>
   <trkpt lat="12.9162490" lon="99.6630820">
    <ele>79.1</ele>
    <time>2018-01-28T04:52:31Z</time>
   </trkpt>
   <trkpt lat="12.9161930" lon="99.6630880">
    <ele>78.8</ele>
    <time>2018-01-28T04:52:32Z</time>
   </trkpt>
   <trkpt lat="12.9161290" lon="99.6630970">
    <ele>78.3</ele>
    <time>2018-01-28T04:52:33Z</time>
   </trkpt>
   <trkpt lat="12.9160670" lon="99.6631070">
    <ele>78.0</ele>
    <time>2018-01-28T04:52:34Z</time>
   </trkpt>
   <trkpt lat="12.9160060" lon="99.6631190">
    <ele>77.5</ele>
    <time>2018-01-28T04:52:35Z</time>
   </trkpt>
   <trkpt lat="12.9159480" lon="99.6631320">
    <ele>76.6</ele>
    <time>2018-01-28T04:52:36Z</time>
   </trkpt>
   <trkpt lat="12.9159050" lon="99.6631410">
    <ele>76.6</ele>
    <time>2018-01-28T04:52:37Z</time>
   </trkpt>
   <trkpt lat="12.9158720" lon="99.6631450">
    <ele>76.5</ele>
    <time>2018-01-28T04:52:38Z</time>
   </trkpt>
   <trkpt lat="12.9158240" lon="99.6631690">
    <ele>75.3</ele>
    <time>2018-01-28T04:52:40Z</time>
   </trkpt>
   <trkpt lat="12.9158000" lon="99.6631920">
    <ele>75.1</ele>
    <time>2018-01-28T04:52:42Z</time>
   </trkpt>
   <trkpt lat="12.9158040" lon="99.6632330">
    <ele>74.2</ele>
    <time>2018-01-28T04:52:43Z</time>
   </trkpt>
   <trkpt lat="12.9158070" lon="99.6632750">
    <ele>73.4</ele>
    <time>2018-01-28T04:52:44Z</time>
   </trkpt>
   <trkpt lat="12.9158050" lon="99.6633230">
    <ele>72.8</ele>
    <time>2018-01-28T04:52:45Z</time>
   </trkpt>
   <trkpt lat="12.9158160" lon="99.6633650">
    <ele>72.4</ele>
    <time>2018-01-28T04:52:46Z</time>
   </trkpt>
   <trkpt lat="12.9158210" lon="99.6634090">
    <ele>72.1</ele>
    <time>2018-01-28T04:52:47Z</time>
   </trkpt>
   <trkpt lat="12.9158260" lon="99.6634510">
    <ele>71.7</ele>
    <time>2018-01-28T04:52:48Z</time>
   </trkpt>
   <trkpt lat="12.9158340" lon="99.6635040">
    <ele>71.3</ele>
    <time>2018-01-28T04:52:49Z</time>
   </trkpt>
   <trkpt lat="12.9158400" lon="99.6635610">
    <ele>70.8</ele>
    <time>2018-01-28T04:52:50Z</time>
   </trkpt>
   <trkpt lat="12.9158510" lon="99.6636270">
    <ele>70.9</ele>
    <time>2018-01-28T04:52:51Z</time>
   </trkpt>
   <trkpt lat="12.9158610" lon="99.6636900">
    <ele>71.9</ele>
    <time>2018-01-28T04:52:52Z</time>
   </trkpt>
   <trkpt lat="12.9158700" lon="99.6637390">
    <ele>72.6</ele>
    <time>2018-01-28T04:52:53Z</time>
   </trkpt>
   <trkpt lat="12.9158750" lon="99.6637810">
    <ele>73.3</ele>
    <time>2018-01-28T04:52:54Z</time>
   </trkpt>
   <trkpt lat="12.9158810" lon="99.6638260">
    <ele>74.0</ele>
    <time>2018-01-28T04:52:55Z</time>
   </trkpt>
   <trkpt lat="12.9158900" lon="99.6638800">
    <ele>74.6</ele>
    <time>2018-01-28T04:52:56Z</time>
   </trkpt>
   <trkpt lat="12.9158970" lon="99.6639250">
    <ele>75.3</ele>
    <time>2018-01-28T04:52:57Z</time>
   </trkpt>
   <trkpt lat="12.9158960" lon="99.6639660">
    <ele>75.6</ele>
    <time>2018-01-28T04:52:58Z</time>
   </trkpt>
   <trkpt lat="12.9158980" lon="99.6640020">
    <ele>75.6</ele>
    <time>2018-01-28T04:52:59Z</time>
   </trkpt>
   <trkpt lat="12.9159040" lon="99.6640580">
    <ele>75.5</ele>
    <time>2018-01-28T04:53:00Z</time>
   </trkpt>
   <trkpt lat="12.9158890" lon="99.6641250">
    <ele>75.1</ele>
    <time>2018-01-28T04:53:01Z</time>
   </trkpt>
   <trkpt lat="12.9158790" lon="99.6641970">
    <ele>75.4</ele>
    <time>2018-01-28T04:53:02Z</time>
   </trkpt>
   <trkpt lat="12.9158770" lon="99.6642820">
    <ele>75.8</ele>
    <time>2018-01-28T04:53:03Z</time>
   </trkpt>
   <trkpt lat="12.9158860" lon="99.6643490">
    <ele>76.0</ele>
    <time>2018-01-28T04:53:04Z</time>
   </trkpt>
   <trkpt lat="12.9159000" lon="99.6643880">
    <ele>75.7</ele>
    <time>2018-01-28T04:53:05Z</time>
   </trkpt>
   <trkpt lat="12.9159470" lon="99.6644300">
    <ele>75.3</ele>
    <time>2018-01-28T04:53:07Z</time>
   </trkpt>
   <trkpt lat="12.9159710" lon="99.6644580">
    <ele>75.2</ele>
    <time>2018-01-28T04:53:08Z</time>
   </trkpt>
   <trkpt lat="12.9159950" lon="99.6644800">
    <ele>75.0</ele>
    <time>2018-01-28T04:53:09Z</time>
   </trkpt>
   <trkpt lat="12.9160280" lon="99.6644930">
    <ele>75.0</ele>
    <time>2018-01-28T04:53:10Z</time>
   </trkpt>
   <trkpt lat="12.9160640" lon="99.6645120">
    <ele>75.1</ele>
    <time>2018-01-28T04:53:12Z</time>
   </trkpt>
   <trkpt lat="12.9160930" lon="99.6645290">
    <ele>75.1</ele>
    <time>2018-01-28T04:53:14Z</time>
   </trkpt>
   <trkpt lat="12.9161280" lon="99.6645390">
    <ele>75.3</ele>
    <time>2018-01-28T04:53:16Z</time>
   </trkpt>
   <trkpt lat="12.9161560" lon="99.6645400">
    <ele>75.4</ele>
    <time>2018-01-28T04:53:17Z</time>
   </trkpt>
   <trkpt lat="12.9161830" lon="99.6645400">
    <ele>75.6</ele>
    <time>2018-01-28T04:53:18Z</time>
   </trkpt>
   <trkpt lat="12.9162110" lon="99.6645410">
    <ele>75.8</ele>
    <time>2018-01-28T04:53:19Z</time>
   </trkpt>
   <trkpt lat="12.9162620" lon="99.6645420">
    <ele>76.3</ele>
    <time>2018-01-28T04:53:21Z</time>
   </trkpt>
   <trkpt lat="12.9162900" lon="99.6645410">
    <ele>76.5</ele>
    <time>2018-01-28T04:53:22Z</time>
   </trkpt>
   <trkpt lat="12.9163190" lon="99.6645420">
    <ele>76.9</ele>
    <time>2018-01-28T04:53:23Z</time>
   </trkpt>
   <trkpt lat="12.9163490" lon="99.6645440">
    <ele>77.2</ele>
    <time>2018-01-28T04:53:24Z</time>
   </trkpt>
   <trkpt lat="12.9163790" lon="99.6645460">
    <ele>77.5</ele>
    <time>2018-01-28T04:53:25Z</time>
   </trkpt>
   <trkpt lat="12.9164100" lon="99.6645470">
    <ele>77.9</ele>
    <time>2018-01-28T04:53:26Z</time>
   </trkpt>
   <trkpt lat="12.9164410" lon="99.6645470">
    <ele>78.2</ele>
    <time>2018-01-28T04:53:27Z</time>
   </trkpt>
   <trkpt lat="12.9164730" lon="99.6645460">
    <ele>78.5</ele>
    <time>2018-01-28T04:53:28Z</time>
   </trkpt>
   <trkpt lat="12.9165040" lon="99.6645460">
    <ele>78.7</ele>
    <time>2018-01-28T04:53:29Z</time>
   </trkpt>
   <trkpt lat="12.9165360" lon="99.6645470">
    <ele>78.9</ele>
    <time>2018-01-28T04:53:30Z</time>
   </trkpt>
   <trkpt lat="12.9165690" lon="99.6645480">
    <ele>79.0</ele>
    <time>2018-01-28T04:53:31Z</time>
   </trkpt>
   <trkpt lat="12.9166020" lon="99.6645480">
    <ele>79.1</ele>
    <time>2018-01-28T04:53:32Z</time>
   </trkpt>
   <trkpt lat="12.9166320" lon="99.6645470">
    <ele>79.2</ele>
    <time>2018-01-28T04:53:33Z</time>
   </trkpt>
   <trkpt lat="12.9166620" lon="99.6645460">
    <ele>79.3</ele>
    <time>2018-01-28T04:53:34Z</time>
   </trkpt>
   <trkpt lat="12.9166940" lon="99.6645470">
    <ele>79.3</ele>
    <time>2018-01-28T04:53:35Z</time>
   </trkpt>
   <trkpt lat="12.9167240" lon="99.6645480">
    <ele>79.3</ele>
    <time>2018-01-28T04:53:36Z</time>
   </trkpt>
   <trkpt lat="12.9167550" lon="99.6645490">
    <ele>79.3</ele>
    <time>2018-01-28T04:53:37Z</time>
   </trkpt>
   <trkpt lat="12.9167870" lon="99.6645480">
    <ele>79.2</ele>
    <time>2018-01-28T04:53:38Z</time>
   </trkpt>
   <trkpt lat="12.9168180" lon="99.6645460">
    <ele>79.2</ele>
    <time>2018-01-28T04:53:39Z</time>
   </trkpt>
   <trkpt lat="12.9168480" lon="99.6645430">
    <ele>79.1</ele>
    <time>2018-01-28T04:53:40Z</time>
   </trkpt>
   <trkpt lat="12.9168780" lon="99.6645400">
    <ele>79.1</ele>
    <time>2018-01-28T04:53:41Z</time>
   </trkpt>
   <trkpt lat="12.9169160" lon="99.6645380">
    <ele>79.1</ele>
    <time>2018-01-28T04:53:42Z</time>
   </trkpt>
   <trkpt lat="12.9169500" lon="99.6645380">
    <ele>79.2</ele>
    <time>2018-01-28T04:53:43Z</time>
   </trkpt>
   <trkpt lat="12.9169840" lon="99.6645400">
    <ele>79.4</ele>
    <time>2018-01-28T04:53:44Z</time>
   </trkpt>
   <trkpt lat="12.9170170" lon="99.6645420">
    <ele>79.5</ele>
    <time>2018-01-28T04:53:45Z</time>
   </trkpt>
   <trkpt lat="12.9170450" lon="99.6645410">
    <ele>79.7</ele>
    <time>2018-01-28T04:53:46Z</time>
   </trkpt>
   <trkpt lat="12.9170760" lon="99.6645400">
    <ele>79.9</ele>
    <time>2018-01-28T04:53:47Z</time>
   </trkpt>
   <trkpt lat="12.9171090" lon="99.6645410">
    <ele>80.1</ele>
    <time>2018-01-28T04:53:48Z</time>
   </trkpt>
   <trkpt lat="12.9171400" lon="99.6645430">
    <ele>80.3</ele>
    <time>2018-01-28T04:53:49Z</time>
   </trkpt>
   <trkpt lat="12.9171820" lon="99.6645430">
    <ele>80.5</ele>
    <time>2018-01-28T04:53:50Z</time>
   </trkpt>
   <trkpt lat="12.9172170" lon="99.6645430">
    <ele>80.6</ele>
    <time>2018-01-28T04:53:51Z</time>
   </trkpt>
   <trkpt lat="12.9172540" lon="99.6645440">
    <ele>80.8</ele>
    <time>2018-01-28T04:53:53Z</time>
   </trkpt>
   <trkpt lat="12.9172850" lon="99.6645440">
    <ele>80.9</ele>
    <time>2018-01-28T04:53:54Z</time>
   </trkpt>
   <trkpt lat="12.9173130" lon="99.6645450">
    <ele>81.1</ele>
    <time>2018-01-28T04:53:55Z</time>
   </trkpt>
   <trkpt lat="12.9173650" lon="99.6645460">
    <ele>81.6</ele>
    <time>2018-01-28T04:53:57Z</time>
   </trkpt>
   <trkpt lat="12.9173930" lon="99.6645480">
    <ele>81.9</ele>
    <time>2018-01-28T04:53:58Z</time>
   </trkpt>
   <trkpt lat="12.9174200" lon="99.6645500">
    <ele>82.3</ele>
    <time>2018-01-28T04:53:59Z</time>
   </trkpt>
   <trkpt lat="12.9174480" lon="99.6645520">
    <ele>82.7</ele>
    <time>2018-01-28T04:54:00Z</time>
   </trkpt>
   <trkpt lat="12.9174800" lon="99.6645530">
    <ele>83.3</ele>
    <time>2018-01-28T04:54:01Z</time>
   </trkpt>
   <trkpt lat="12.9175160" lon="99.6645540">
    <ele>83.5</ele>
    <time>2018-01-28T04:54:02Z</time>
   </trkpt>
   <trkpt lat="12.9175510" lon="99.6645550">
    <ele>83.5</ele>
    <time>2018-01-28T04:54:03Z</time>
   </trkpt>
   <trkpt lat="12.9175880" lon="99.6645570">
    <ele>83.6</ele>
    <time>2018-01-28T04:54:04Z</time>
   </trkpt>
   <trkpt lat="12.9176260" lon="99.6645610">
    <ele>83.6</ele>
    <time>2018-01-28T04:54:05Z</time>
   </trkpt>
   <trkpt lat="12.9176620" lon="99.6645630">
    <ele>83.5</ele>
    <time>2018-01-28T04:54:06Z</time>
   </trkpt>
   <trkpt lat="12.9176990" lon="99.6645660">
    <ele>83.6</ele>
    <time>2018-01-28T04:54:07Z</time>
   </trkpt>
   <trkpt lat="12.9177360" lon="99.6645670">
    <ele>83.7</ele>
    <time>2018-01-28T04:54:08Z</time>
   </trkpt>
   <trkpt lat="12.9177710" lon="99.6645670">
    <ele>83.9</ele>
    <time>2018-01-28T04:54:09Z</time>
   </trkpt>
   <trkpt lat="12.9178070" lon="99.6645680">
    <ele>84.2</ele>
    <time>2018-01-28T04:54:10Z</time>
   </trkpt>
   <trkpt lat="12.9178400" lon="99.6645690">
    <ele>84.5</ele>
    <time>2018-01-28T04:54:11Z</time>
   </trkpt>
   <trkpt lat="12.9178720" lon="99.6645680">
    <ele>84.8</ele>
    <time>2018-01-28T04:54:12Z</time>
   </trkpt>
   <trkpt lat="12.9179070" lon="99.6645680">
    <ele>85.2</ele>
    <time>2018-01-28T04:54:13Z</time>
   </trkpt>
   <trkpt lat="12.9179410" lon="99.6645670">
    <ele>85.7</ele>
    <time>2018-01-28T04:54:14Z</time>
   </trkpt>
   <trkpt lat="12.9179760" lon="99.6645660">
    <ele>86.0</ele>
    <time>2018-01-28T04:54:15Z</time>
   </trkpt>
   <trkpt lat="12.9180080" lon="99.6645650">
    <ele>86.3</ele>
    <time>2018-01-28T04:54:16Z</time>
   </trkpt>
   <trkpt lat="12.9180400" lon="99.6645650">
    <ele>86.6</ele>
    <time>2018-01-28T04:54:17Z</time>
   </trkpt>
   <trkpt lat="12.9180720" lon="99.6645650">
    <ele>86.7</ele>
    <time>2018-01-28T04:54:18Z</time>
   </trkpt>
   <trkpt lat="12.9181040" lon="99.6645650">
    <ele>86.7</ele>
    <time>2018-01-28T04:54:19Z</time>
   </trkpt>
   <trkpt lat="12.9181360" lon="99.6645660">
    <ele>86.7</ele>
    <time>2018-01-28T04:54:20Z</time>
   </trkpt>
   <trkpt lat="12.9181710" lon="99.6645670">
    <ele>86.7</ele>
    <time>2018-01-28T04:54:21Z</time>
   </trkpt>
   <trkpt lat="12.9182040" lon="99.6645680">
    <ele>86.7</ele>
    <time>2018-01-28T04:54:22Z</time>
   </trkpt>
   <trkpt lat="12.9182380" lon="99.6645680">
    <ele>86.7</ele>
    <time>2018-01-28T04:54:23Z</time>
   </trkpt>
   <trkpt lat="12.9182680" lon="99.6645670">
    <ele>86.7</ele>
    <time>2018-01-28T04:54:24Z</time>
   </trkpt>
   <trkpt lat="12.9182980" lon="99.6645660">
    <ele>86.7</ele>
    <time>2018-01-28T04:54:25Z</time>
   </trkpt>
   <trkpt lat="12.9183310" lon="99.6645660">
    <ele>86.7</ele>
    <time>2018-01-28T04:54:26Z</time>
   </trkpt>
   <trkpt lat="12.9183630" lon="99.6645650">
    <ele>86.7</ele>
    <time>2018-01-28T04:54:27Z</time>
   </trkpt>
   <trkpt lat="12.9183950" lon="99.6645650">
    <ele>86.7</ele>
    <time>2018-01-28T04:54:28Z</time>
   </trkpt>
   <trkpt lat="12.9184280" lon="99.6645650">
    <ele>86.6</ele>
    <time>2018-01-28T04:54:29Z</time>
   </trkpt>
   <trkpt lat="12.9184620" lon="99.6645650">
    <ele>86.6</ele>
    <time>2018-01-28T04:54:30Z</time>
   </trkpt>
   <trkpt lat="12.9184960" lon="99.6645650">
    <ele>86.5</ele>
    <time>2018-01-28T04:54:31Z</time>
   </trkpt>
   <trkpt lat="12.9185300" lon="99.6645650">
    <ele>86.5</ele>
    <time>2018-01-28T04:54:32Z</time>
   </trkpt>
   <trkpt lat="12.9185630" lon="99.6645660">
    <ele>86.5</ele>
    <time>2018-01-28T04:54:33Z</time>
   </trkpt>
   <trkpt lat="12.9185990" lon="99.6645660">
    <ele>86.6</ele>
    <time>2018-01-28T04:54:34Z</time>
   </trkpt>
   <trkpt lat="12.9186350" lon="99.6645650">
    <ele>86.7</ele>
    <time>2018-01-28T04:54:35Z</time>
   </trkpt>
   <trkpt lat="12.9186710" lon="99.6645630">
    <ele>86.9</ele>
    <time>2018-01-28T04:54:36Z</time>
   </trkpt>
   <trkpt lat="12.9187010" lon="99.6645610">
    <ele>87.0</ele>
    <time>2018-01-28T04:54:37Z</time>
   </trkpt>
   <trkpt lat="12.9187340" lon="99.6645580">
    <ele>87.2</ele>
    <time>2018-01-28T04:54:38Z</time>
   </trkpt>
   <trkpt lat="12.9187680" lon="99.6645570">
    <ele>87.4</ele>
    <time>2018-01-28T04:54:39Z</time>
   </trkpt>
   <trkpt lat="12.9188000" lon="99.6645560">
    <ele>87.5</ele>
    <time>2018-01-28T04:54:40Z</time>
   </trkpt>
   <trkpt lat="12.9188350" lon="99.6645550">
    <ele>87.6</ele>
    <time>2018-01-28T04:54:41Z</time>
   </trkpt>
   <trkpt lat="12.9188650" lon="99.6645550">
    <ele>87.6</ele>
    <time>2018-01-28T04:54:42Z</time>
   </trkpt>
   <trkpt lat="12.9188930" lon="99.6645550">
    <ele>87.7</ele>
    <time>2018-01-28T04:54:43Z</time>
   </trkpt>
   <trkpt lat="12.9189220" lon="99.6645530">
    <ele>87.6</ele>
    <time>2018-01-28T04:54:44Z</time>
   </trkpt>
   <trkpt lat="12.9189680" lon="99.6645510">
    <ele>87.6</ele>
    <time>2018-01-28T04:54:46Z</time>
   </trkpt>
   <trkpt lat="12.9190010" lon="99.6645470">
    <ele>87.6</ele>
    <time>2018-01-28T04:54:47Z</time>
   </trkpt>
   <trkpt lat="12.9190320" lon="99.6645420">
    <ele>87.6</ele>
    <time>2018-01-28T04:54:48Z</time>
   </trkpt>
   <trkpt lat="12.9190590" lon="99.6645420">
    <ele>87.6</ele>
    <time>2018-01-28T04:54:49Z</time>
   </trkpt>
   <trkpt lat="12.9190910" lon="99.6645400">
    <ele>87.6</ele>
    <time>2018-01-28T04:54:50Z</time>
   </trkpt>
   <trkpt lat="12.9191370" lon="99.6645270">
    <ele>87.6</ele>
    <time>2018-01-28T04:54:52Z</time>
   </trkpt>
   <trkpt lat="12.9191850" lon="99.6645160">
    <ele>87.6</ele>
    <time>2018-01-28T04:54:54Z</time>
   </trkpt>
   <trkpt lat="12.9192260" lon="99.6645160">
    <ele>87.7</ele>
    <time>2018-01-28T04:54:56Z</time>
   </trkpt>
   <trkpt lat="12.9192580" lon="99.6645280">
    <ele>87.8</ele>
    <time>2018-01-28T04:54:58Z</time>
   </trkpt>
   <trkpt lat="12.9192880" lon="99.6645430">
    <ele>87.9</ele>
    <time>2018-01-28T04:55:04Z</time>
   </trkpt>
   <trkpt lat="12.9193190" lon="99.6645550">
    <ele>88.1</ele>
    <time>2018-01-28T04:55:06Z</time>
   </trkpt>
   <trkpt lat="12.9193500" lon="99.6646100">
    <ele>88.5</ele>
    <time>2018-01-28T04:55:08Z</time>
   </trkpt>
   <trkpt lat="12.9193590" lon="99.6646560">
    <ele>88.4</ele>
    <time>2018-01-28T04:55:09Z</time>
   </trkpt>
   <trkpt lat="12.9193650" lon="99.6646970">
    <ele>88.2</ele>
    <time>2018-01-28T04:55:10Z</time>
   </trkpt>
   <trkpt lat="12.9193700" lon="99.6647430">
    <ele>88.2</ele>
    <time>2018-01-28T04:55:11Z</time>
   </trkpt>
   <trkpt lat="12.9194280" lon="99.6650370">
    <ele>88.7</ele>
    <time>2018-01-28T04:55:15Z</time>
   </trkpt>
   <trkpt lat="12.9194400" lon="99.6650930">
    <ele>88.9</ele>
    <time>2018-01-28T04:55:16Z</time>
   </trkpt>
   <trkpt lat="12.9194510" lon="99.6651400">
    <ele>89.5</ele>
    <time>2018-01-28T04:55:17Z</time>
   </trkpt>
   <trkpt lat="12.9194580" lon="99.6651980">
    <ele>89.7</ele>
    <time>2018-01-28T04:55:18Z</time>
   </trkpt>
   <trkpt lat="12.9194540" lon="99.6652480">
    <ele>90.0</ele>
    <time>2018-01-28T04:55:19Z</time>
   </trkpt>
   <trkpt lat="12.9194440" lon="99.6652990">
    <ele>90.5</ele>
    <time>2018-01-28T04:55:20Z</time>
   </trkpt>
   <trkpt lat="12.9194450" lon="99.6653520">
    <ele>91.1</ele>
    <time>2018-01-28T04:55:21Z</time>
   </trkpt>
   <trkpt lat="12.9194470" lon="99.6653960">
    <ele>91.3</ele>
    <time>2018-01-28T04:55:22Z</time>
   </trkpt>
   <trkpt lat="12.9194520" lon="99.6654390">
    <ele>91.3</ele>
    <time>2018-01-28T04:55:23Z</time>
   </trkpt>
   <trkpt lat="12.9194500" lon="99.6654800">
    <ele>91.9</ele>
    <time>2018-01-28T04:55:24Z</time>
   </trkpt>
   <trkpt lat="12.9194550" lon="99.6655210">
    <ele>91.7</ele>
    <time>2018-01-28T04:55:25Z</time>
   </trkpt>
   <trkpt lat="12.9194610" lon="99.6655590">
    <ele>92.2</ele>
    <time>2018-01-28T04:55:26Z</time>
   </trkpt>
   <trkpt lat="12.9194680" lon="99.6655860">
    <ele>92.7</ele>
    <time>2018-01-28T04:55:27Z</time>
   </trkpt>
   <trkpt lat="12.9194770" lon="99.6656360">
    <ele>93.2</ele>
    <time>2018-01-28T04:55:29Z</time>
   </trkpt>
   <trkpt lat="12.9194800" lon="99.6656660">
    <ele>93.6</ele>
    <time>2018-01-28T04:55:30Z</time>
   </trkpt>
   <trkpt lat="12.9194780" lon="99.6657810">
    <ele>94.3</ele>
    <time>2018-01-28T04:55:32Z</time>
   </trkpt>
   <trkpt lat="12.9194780" lon="99.6658170">
    <ele>94.3</ele>
    <time>2018-01-28T04:55:33Z</time>
   </trkpt>
   <trkpt lat="12.9194760" lon="99.6658500">
    <ele>94.6</ele>
    <time>2018-01-28T04:55:34Z</time>
   </trkpt>
   <trkpt lat="12.9194790" lon="99.6658780">
    <ele>94.9</ele>
    <time>2018-01-28T04:55:35Z</time>
   </trkpt>
   <trkpt lat="12.9194810" lon="99.6659060">
    <ele>94.9</ele>
    <time>2018-01-28T04:55:36Z</time>
   </trkpt>
   <trkpt lat="12.9194910" lon="99.6659340">
    <ele>95.1</ele>
    <time>2018-01-28T04:55:37Z</time>
   </trkpt>
   <trkpt lat="12.9194970" lon="99.6659650">
    <ele>95.4</ele>
    <time>2018-01-28T04:55:38Z</time>
   </trkpt>
   <trkpt lat="12.9195000" lon="99.6659990">
    <ele>95.7</ele>
    <time>2018-01-28T04:55:41Z</time>
   </trkpt>
   <trkpt lat="12.9195090" lon="99.6660450">
    <ele>95.9</ele>
    <time>2018-01-28T04:55:43Z</time>
   </trkpt>
   <trkpt lat="12.9195170" lon="99.6660940">
    <ele>96.2</ele>
    <time>2018-01-28T04:55:45Z</time>
   </trkpt>
   <trkpt lat="12.9195270" lon="99.6661340">
    <ele>96.4</ele>
    <time>2018-01-28T04:55:47Z</time>
   </trkpt>
   <trkpt lat="12.9195470" lon="99.6661780">
    <ele>96.6</ele>
    <time>2018-01-28T04:55:50Z</time>
   </trkpt>
   <trkpt lat="12.9195600" lon="99.6662110">
    <ele>96.6</ele>
    <time>2018-01-28T04:55:52Z</time>
   </trkpt>
   <trkpt lat="12.9195670" lon="99.6662520">
    <ele>96.7</ele>
    <time>2018-01-28T04:55:54Z</time>
   </trkpt>
   <trkpt lat="12.9195720" lon="99.6662940">
    <ele>96.7</ele>
    <time>2018-01-28T04:55:56Z</time>
   </trkpt>
   <trkpt lat="12.9195740" lon="99.6663370">
    <ele>96.7</ele>
    <time>2018-01-28T04:55:58Z</time>
   </trkpt>
   <trkpt lat="12.9195680" lon="99.6663750">
    <ele>96.7</ele>
    <time>2018-01-28T04:56:00Z</time>
   </trkpt>
   <trkpt lat="12.9195640" lon="99.6664200">
    <ele>96.6</ele>
    <time>2018-01-28T04:56:02Z</time>
   </trkpt>
   <trkpt lat="12.9195800" lon="99.6664560">
    <ele>96.3</ele>
    <time>2018-01-28T04:56:05Z</time>
   </trkpt>
   <trkpt lat="12.9196100" lon="99.6664700">
    <ele>96.2</ele>
    <time>2018-01-28T04:56:07Z</time>
   </trkpt>
   <trkpt lat="12.9196290" lon="99.6665160">
    <ele>95.7</ele>
    <time>2018-01-28T04:56:09Z</time>
   </trkpt>
   <trkpt lat="12.9196320" lon="99.6665720">
    <ele>95.5</ele>
    <time>2018-01-28T04:56:11Z</time>
   </trkpt>
   <trkpt lat="12.9196300" lon="99.6666100">
    <ele>95.2</ele>
    <time>2018-01-28T04:56:12Z</time>
   </trkpt>
   <trkpt lat="12.9196270" lon="99.6666450">
    <ele>95.0</ele>
    <time>2018-01-28T04:56:13Z</time>
   </trkpt>
   <trkpt lat="12.9196270" lon="99.6666780">
    <ele>95.0</ele>
    <time>2018-01-28T04:56:14Z</time>
   </trkpt>
   <trkpt lat="12.9196250" lon="99.6667290">
    <ele>94.8</ele>
    <time>2018-01-28T04:56:15Z</time>
   </trkpt>
   <trkpt lat="12.9196230" lon="99.6667660">
    <ele>94.8</ele>
    <time>2018-01-28T04:56:16Z</time>
   </trkpt>
   <trkpt lat="12.9196280" lon="99.6667970">
    <ele>94.8</ele>
    <time>2018-01-28T04:56:17Z</time>
   </trkpt>
   <trkpt lat="12.9196190" lon="99.6668260">
    <ele>94.8</ele>
    <time>2018-01-28T04:56:18Z</time>
   </trkpt>
   <trkpt lat="12.9196430" lon="99.6668700">
    <ele>94.8</ele>
    <time>2018-01-28T04:56:20Z</time>
   </trkpt>
   <trkpt lat="12.9196770" lon="99.6668790">
    <ele>95.0</ele>
    <time>2018-01-28T04:56:22Z</time>
   </trkpt>
   <trkpt lat="12.9197110" lon="99.6668840">
    <ele>95.3</ele>
    <time>2018-01-28T04:56:24Z</time>
   </trkpt>
   <trkpt lat="12.9197500" lon="99.6669000">
    <ele>95.6</ele>
    <time>2018-01-28T04:56:26Z</time>
   </trkpt>
   <trkpt lat="12.9197860" lon="99.6669220">
    <ele>95.8</ele>
    <time>2018-01-28T04:56:28Z</time>
   </trkpt>
   <trkpt lat="12.9198350" lon="99.6669440">
    <ele>96.2</ele>
    <time>2018-01-28T04:56:30Z</time>
   </trkpt>
   <trkpt lat="12.9198820" lon="99.6669710">
    <ele>96.6</ele>
    <time>2018-01-28T04:56:32Z</time>
   </trkpt>
   <trkpt lat="12.9199240" lon="99.6669980">
    <ele>97.1</ele>
    <time>2018-01-28T04:56:34Z</time>
   </trkpt>
   <trkpt lat="12.9199640" lon="99.6670230">
    <ele>97.6</ele>
    <time>2018-01-28T04:56:36Z</time>
   </trkpt>
   <trkpt lat="12.9200020" lon="99.6670440">
    <ele>98.1</ele>
    <time>2018-01-28T04:56:38Z</time>
   </trkpt>
   <trkpt lat="12.9200390" lon="99.6670610">
    <ele>98.4</ele>
    <time>2018-01-28T04:56:40Z</time>
   </trkpt>
   <trkpt lat="12.9200570" lon="99.6670930">
    <ele>98.5</ele>
    <time>2018-01-28T04:56:42Z</time>
   </trkpt>
   <trkpt lat="12.9200660" lon="99.6671250">
    <ele>98.6</ele>
    <time>2018-01-28T04:56:44Z</time>
   </trkpt>
   <trkpt lat="12.9200820" lon="99.6671480">
    <ele>99.0</ele>
    <time>2018-01-28T04:56:46Z</time>
   </trkpt>
   <trkpt lat="12.9200980" lon="99.6671720">
    <ele>99.2</ele>
    <time>2018-01-28T04:56:48Z</time>
   </trkpt>
   <trkpt lat="12.9201220" lon="99.6671950">
    <ele>99.7</ele>
    <time>2018-01-28T04:56:50Z</time>
   </trkpt>
   <trkpt lat="12.9201460" lon="99.6672160">
    <ele>99.9</ele>
    <time>2018-01-28T04:56:52Z</time>
   </trkpt>
   <trkpt lat="12.9201780" lon="99.6672360">
    <ele>100.2</ele>
    <time>2018-01-28T04:56:54Z</time>
   </trkpt>
   <trkpt lat="12.9202060" lon="99.6672570">
    <ele>100.6</ele>
    <time>2018-01-28T04:56:56Z</time>
   </trkpt>
   <trkpt lat="12.9202360" lon="99.6672780">
    <ele>100.6</ele>
    <time>2018-01-28T04:56:58Z</time>
   </trkpt>
   <trkpt lat="12.9202720" lon="99.6673050">
    <ele>101.1</ele>
    <time>2018-01-28T04:57:00Z</time>
   </trkpt>
   <trkpt lat="12.9203080" lon="99.6673320">
    <ele>101.7</ele>
    <time>2018-01-28T04:57:02Z</time>
   </trkpt>
   <trkpt lat="12.9203440" lon="99.6673640">
    <ele>101.9</ele>
    <time>2018-01-28T04:57:04Z</time>
   </trkpt>
   <trkpt lat="12.9203740" lon="99.6674080">
    <ele>102.1</ele>
    <time>2018-01-28T04:57:06Z</time>
   </trkpt>
   <trkpt lat="12.9203830" lon="99.6674600">
    <ele>101.8</ele>
    <time>2018-01-28T04:57:08Z</time>
   </trkpt>
   <trkpt lat="12.9203770" lon="99.6675120">
    <ele>101.6</ele>
    <time>2018-01-28T04:57:10Z</time>
   </trkpt>
   <trkpt lat="12.9203690" lon="99.6675400">
    <ele>101.3</ele>
    <time>2018-01-28T04:57:11Z</time>
   </trkpt>
   <trkpt lat="12.9203480" lon="99.6675900">
    <ele>101.4</ele>
    <time>2018-01-28T04:57:13Z</time>
   </trkpt>
   <trkpt lat="12.9203290" lon="99.6676410">
    <ele>101.4</ele>
    <time>2018-01-28T04:57:15Z</time>
   </trkpt>
   <trkpt lat="12.9203220" lon="99.6676690">
    <ele>101.1</ele>
    <time>2018-01-28T04:57:16Z</time>
   </trkpt>
   <trkpt lat="12.9203090" lon="99.6677220">
    <ele>101.1</ele>
    <time>2018-01-28T04:57:18Z</time>
   </trkpt>
   <trkpt lat="12.9203030" lon="99.6677500">
    <ele>101.1</ele>
    <time>2018-01-28T04:57:19Z</time>
   </trkpt>
   <trkpt lat="12.9202960" lon="99.6677780">
    <ele>101.1</ele>
    <time>2018-01-28T04:57:20Z</time>
   </trkpt>
   <trkpt lat="12.9202860" lon="99.6678090">
    <ele>101.0</ele>
    <time>2018-01-28T04:57:21Z</time>
   </trkpt>
   <trkpt lat="12.9202750" lon="99.6678380">
    <ele>101.1</ele>
    <time>2018-01-28T04:57:22Z</time>
   </trkpt>
   <trkpt lat="12.9202680" lon="99.6678670">
    <ele>101.2</ele>
    <time>2018-01-28T04:57:23Z</time>
   </trkpt>
   <trkpt lat="12.9202620" lon="99.6678970">
    <ele>101.3</ele>
    <time>2018-01-28T04:57:24Z</time>
   </trkpt>
   <trkpt lat="12.9202530" lon="99.6679250">
    <ele>101.3</ele>
    <time>2018-01-28T04:57:25Z</time>
   </trkpt>
   <trkpt lat="12.9202440" lon="99.6679530">
    <ele>101.8</ele>
    <time>2018-01-28T04:57:26Z</time>
   </trkpt>
   <trkpt lat="12.9202370" lon="99.6679860">
    <ele>102.6</ele>
    <time>2018-01-28T04:57:27Z</time>
   </trkpt>
   <trkpt lat="12.9202400" lon="99.6680140">
    <ele>103.2</ele>
    <time>2018-01-28T04:57:28Z</time>
   </trkpt>
   <trkpt lat="12.9202840" lon="99.6680430">
    <ele>103.2</ele>
    <time>2018-01-28T04:57:30Z</time>
   </trkpt>
   <trkpt lat="12.9203130" lon="99.6680480">
    <ele>103.2</ele>
    <time>2018-01-28T04:57:31Z</time>
   </trkpt>
   <trkpt lat="12.9203390" lon="99.6680550">
    <ele>103.7</ele>
    <time>2018-01-28T04:57:32Z</time>
   </trkpt>
   <trkpt lat="12.9203880" lon="99.6680690">
    <ele>103.7</ele>
    <time>2018-01-28T04:57:34Z</time>
   </trkpt>
   <trkpt lat="12.9204320" lon="99.6680810">
    <ele>103.7</ele>
    <time>2018-01-28T04:57:36Z</time>
   </trkpt>
   <trkpt lat="12.9204750" lon="99.6680850">
    <ele>103.7</ele>
    <time>2018-01-28T04:57:38Z</time>
   </trkpt>
   <trkpt lat="12.9205180" lon="99.6680930">
    <ele>103.7</ele>
    <time>2018-01-28T04:57:40Z</time>
   </trkpt>
   <trkpt lat="12.9205530" lon="99.6681110">
    <ele>104.4</ele>
    <time>2018-01-28T04:57:42Z</time>
   </trkpt>
   <trkpt lat="12.9205900" lon="99.6681260">
    <ele>104.6</ele>
    <time>2018-01-28T04:57:44Z</time>
   </trkpt>
   <trkpt lat="12.9206240" lon="99.6681340">
    <ele>104.9</ele>
    <time>2018-01-28T04:57:46Z</time>
   </trkpt>
   <trkpt lat="12.9206550" lon="99.6681440">
    <ele>105.5</ele>
    <time>2018-01-28T04:57:48Z</time>
   </trkpt>
   <trkpt lat="12.9206850" lon="99.6681560">
    <ele>106.0</ele>
    <time>2018-01-28T04:57:50Z</time>
   </trkpt>
   <trkpt lat="12.9207220" lon="99.6681670">
    <ele>106.6</ele>
    <time>2018-01-28T04:57:52Z</time>
   </trkpt>
   <trkpt lat="12.9207580" lon="99.6681770">
    <ele>107.3</ele>
    <time>2018-01-28T04:57:54Z</time>
   </trkpt>
   <trkpt lat="12.9207930" lon="99.6681840">
    <ele>108.2</ele>
    <time>2018-01-28T04:57:56Z</time>
   </trkpt>
   <trkpt lat="12.9208250" lon="99.6681950">
    <ele>108.2</ele>
    <time>2018-01-28T04:57:58Z</time>
   </trkpt>
   <trkpt lat="12.9208620" lon="99.6682040">
    <ele>108.8</ele>
    <time>2018-01-28T04:58:00Z</time>
   </trkpt>
   <trkpt lat="12.9209030" lon="99.6682140">
    <ele>109.4</ele>
    <time>2018-01-28T04:58:02Z</time>
   </trkpt>
   <trkpt lat="12.9209410" lon="99.6682250">
    <ele>110.0</ele>
    <time>2018-01-28T04:58:04Z</time>
   </trkpt>
   <trkpt lat="12.9209750" lon="99.6682310">
    <ele>110.2</ele>
    <time>2018-01-28T04:58:06Z</time>
   </trkpt>
   <trkpt lat="12.9210030" lon="99.6682350">
    <ele>110.6</ele>
    <time>2018-01-28T04:58:08Z</time>
   </trkpt>
   <trkpt lat="12.9210310" lon="99.6682520">
    <ele>110.6</ele>
    <time>2018-01-28T04:58:10Z</time>
   </trkpt>
   <trkpt lat="12.9210630" lon="99.6682680">
    <ele>111.0</ele>
    <time>2018-01-28T04:58:12Z</time>
   </trkpt>
   <trkpt lat="12.9210960" lon="99.6682740">
    <ele>111.4</ele>
    <time>2018-01-28T04:58:15Z</time>
   </trkpt>
   <trkpt lat="12.9211120" lon="99.6683060">
    <ele>111.4</ele>
    <time>2018-01-28T04:58:17Z</time>
   </trkpt>
   <trkpt lat="12.9210900" lon="99.6683500">
    <ele>111.5</ele>
    <time>2018-01-28T04:58:19Z</time>
   </trkpt>
   <trkpt lat="12.9210550" lon="99.6683810">
    <ele>110.8</ele>
    <time>2018-01-28T04:58:21Z</time>
   </trkpt>
   <trkpt lat="12.9210290" lon="99.6684220">
    <ele>110.0</ele>
    <time>2018-01-28T04:58:23Z</time>
   </trkpt>
   <trkpt lat="12.9210240" lon="99.6684500">
    <ele>110.2</ele>
    <time>2018-01-28T04:58:24Z</time>
   </trkpt>
   <trkpt lat="12.9210170" lon="99.6684780">
    <ele>110.2</ele>
    <time>2018-01-28T04:58:25Z</time>
   </trkpt>
   <trkpt lat="12.9209990" lon="99.6685230">
    <ele>110.5</ele>
    <time>2018-01-28T04:58:27Z</time>
   </trkpt>
   <trkpt lat="12.9209830" lon="99.6685500">
    <ele>110.5</ele>
    <time>2018-01-28T04:58:28Z</time>
   </trkpt>
   <trkpt lat="12.9209670" lon="99.6685790">
    <ele>110.7</ele>
    <time>2018-01-28T04:58:29Z</time>
   </trkpt>
   <trkpt lat="12.9209540" lon="99.6686110">
    <ele>110.5</ele>
    <time>2018-01-28T04:58:30Z</time>
   </trkpt>
   <trkpt lat="12.9209450" lon="99.6686460">
    <ele>110.6</ele>
    <time>2018-01-28T04:58:31Z</time>
   </trkpt>
   <trkpt lat="12.9209350" lon="99.6686810">
    <ele>110.8</ele>
    <time>2018-01-28T04:58:32Z</time>
   </trkpt>
   <trkpt lat="12.9209160" lon="99.6687160">
    <ele>111.1</ele>
    <time>2018-01-28T04:58:33Z</time>
   </trkpt>
   <trkpt lat="12.9208910" lon="99.6687460">
    <ele>111.3</ele>
    <time>2018-01-28T04:58:34Z</time>
   </trkpt>
   <trkpt lat="12.9208660" lon="99.6687700">
    <ele>111.0</ele>
    <time>2018-01-28T04:58:35Z</time>
   </trkpt>
   <trkpt lat="12.9208370" lon="99.6687960">
    <ele>111.4</ele>
    <time>2018-01-28T04:58:36Z</time>
   </trkpt>
   <trkpt lat="12.9208070" lon="99.6688280">
    <ele>111.3</ele>
    <time>2018-01-28T04:58:37Z</time>
   </trkpt>
   <trkpt lat="12.9207830" lon="99.6688590">
    <ele>111.1</ele>
    <time>2018-01-28T04:58:38Z</time>
   </trkpt>
   <trkpt lat="12.9207650" lon="99.6688890">
    <ele>111.3</ele>
    <time>2018-01-28T04:58:39Z</time>
   </trkpt>
   <trkpt lat="12.9207560" lon="99.6689190">
    <ele>111.4</ele>
    <time>2018-01-28T04:58:40Z</time>
   </trkpt>
   <trkpt lat="12.9207530" lon="99.6689540">
    <ele>111.4</ele>
    <time>2018-01-28T04:58:41Z</time>
   </trkpt>
   <trkpt lat="12.9207530" lon="99.6689930">
    <ele>111.5</ele>
    <time>2018-01-28T04:58:42Z</time>
   </trkpt>
   <trkpt lat="12.9207530" lon="99.6690290">
    <ele>111.7</ele>
    <time>2018-01-28T04:58:43Z</time>
   </trkpt>
   <trkpt lat="12.9207530" lon="99.6690620">
    <ele>111.9</ele>
    <time>2018-01-28T04:58:44Z</time>
   </trkpt>
   <trkpt lat="12.9207520" lon="99.6690950">
    <ele>112.2</ele>
    <time>2018-01-28T04:58:45Z</time>
   </trkpt>
   <trkpt lat="12.9207500" lon="99.6691480">
    <ele>112.7</ele>
    <time>2018-01-28T04:58:47Z</time>
   </trkpt>
   <trkpt lat="12.9207360" lon="99.6692090">
    <ele>112.5</ele>
    <time>2018-01-28T04:58:48Z</time>
   </trkpt>
   <trkpt lat="12.9207320" lon="99.6692600">
    <ele>113.5</ele>
    <time>2018-01-28T04:58:50Z</time>
   </trkpt>
   <trkpt lat="12.9207480" lon="99.6693090">
    <ele>114.8</ele>
    <time>2018-01-28T04:58:52Z</time>
   </trkpt>
   <trkpt lat="12.9207430" lon="99.6693390">
    <ele>114.1</ele>
    <time>2018-01-28T04:58:53Z</time>
   </trkpt>
   <trkpt lat="12.9207370" lon="99.6693790">
    <ele>114.6</ele>
    <time>2018-01-28T04:58:55Z</time>
   </trkpt>
   <trkpt lat="12.9207310" lon="99.6694250">
    <ele>115.1</ele>
    <time>2018-01-28T04:58:57Z</time>
   </trkpt>
   <trkpt lat="12.9207300" lon="99.6694540">
    <ele>115.5</ele>
    <time>2018-01-28T04:58:58Z</time>
   </trkpt>
   <trkpt lat="12.9207310" lon="99.6694850">
    <ele>115.9</ele>
    <time>2018-01-28T04:58:59Z</time>
   </trkpt>
   <trkpt lat="12.9207290" lon="99.6695170">
    <ele>116.1</ele>
    <time>2018-01-28T04:59:00Z</time>
   </trkpt>
   <trkpt lat="12.9207250" lon="99.6695500">
    <ele>116.1</ele>
    <time>2018-01-28T04:59:01Z</time>
   </trkpt>
   <trkpt lat="12.9207190" lon="99.6695830">
    <ele>116.3</ele>
    <time>2018-01-28T04:59:02Z</time>
   </trkpt>
   <trkpt lat="12.9207070" lon="99.6696350">
    <ele>116.5</ele>
    <time>2018-01-28T04:59:03Z</time>
   </trkpt>
   <trkpt lat="12.9207000" lon="99.6696720">
    <ele>115.9</ele>
    <time>2018-01-28T04:59:04Z</time>
   </trkpt>
   <trkpt lat="12.9207010" lon="99.6697010">
    <ele>116.1</ele>
    <time>2018-01-28T04:59:05Z</time>
   </trkpt>
   <trkpt lat="12.9207000" lon="99.6697300">
    <ele>116.3</ele>
    <time>2018-01-28T04:59:06Z</time>
   </trkpt>
   <trkpt lat="12.9206980" lon="99.6697620">
    <ele>116.3</ele>
    <time>2018-01-28T04:59:07Z</time>
   </trkpt>
   <trkpt lat="12.9206960" lon="99.6697940">
    <ele>116.4</ele>
    <time>2018-01-28T04:59:08Z</time>
   </trkpt>
   <trkpt lat="12.9206810" lon="99.6698310">
    <ele>116.4</ele>
    <time>2018-01-28T04:59:09Z</time>
   </trkpt>
   <trkpt lat="12.9206700" lon="99.6698630">
    <ele>116.5</ele>
    <time>2018-01-28T04:59:10Z</time>
   </trkpt>
   <trkpt lat="12.9206510" lon="99.6698840">
    <ele>115.8</ele>
    <time>2018-01-28T04:59:11Z</time>
   </trkpt>
   <trkpt lat="12.9206170" lon="99.6699170">
    <ele>115.2</ele>
    <time>2018-01-28T04:59:13Z</time>
   </trkpt>
   <trkpt lat="12.9205880" lon="99.6699420">
    <ele>115.2</ele>
    <time>2018-01-28T04:59:14Z</time>
   </trkpt>
   <trkpt lat="12.9205100" lon="99.6699950">
    <ele>114.1</ele>
    <time>2018-01-28T04:59:16Z</time>
   </trkpt>
   <trkpt lat="12.9204640" lon="99.6700100">
    <ele>113.8</ele>
    <time>2018-01-28T04:59:18Z</time>
   </trkpt>
   <trkpt lat="12.9204360" lon="99.6700130">
    <ele>113.7</ele>
    <time>2018-01-28T04:59:19Z</time>
   </trkpt>
   <trkpt lat="12.9204020" lon="99.6700180">
    <ele>113.7</ele>
    <time>2018-01-28T04:59:20Z</time>
   </trkpt>
   <trkpt lat="12.9203680" lon="99.6700190">
    <ele>113.6</ele>
    <time>2018-01-28T04:59:21Z</time>
   </trkpt>
   <trkpt lat="12.9203310" lon="99.6700230">
    <ele>113.6</ele>
    <time>2018-01-28T04:59:22Z</time>
   </trkpt>
   <trkpt lat="12.9202940" lon="99.6700230">
    <ele>113.6</ele>
    <time>2018-01-28T04:59:23Z</time>
   </trkpt>
   <trkpt lat="12.9202620" lon="99.6700230">
    <ele>113.3</ele>
    <time>2018-01-28T04:59:24Z</time>
   </trkpt>
   <trkpt lat="12.9202280" lon="99.6700220">
    <ele>113.1</ele>
    <time>2018-01-28T04:59:25Z</time>
   </trkpt>
   <trkpt lat="12.9201920" lon="99.6700210">
    <ele>112.8</ele>
    <time>2018-01-28T04:59:26Z</time>
   </trkpt>
   <trkpt lat="12.9201550" lon="99.6700160">
    <ele>112.5</ele>
    <time>2018-01-28T04:59:27Z</time>
   </trkpt>
   <trkpt lat="12.9201190" lon="99.6700100">
    <ele>112.3</ele>
    <time>2018-01-28T04:59:28Z</time>
   </trkpt>
   <trkpt lat="12.9200410" lon="99.6700080">
    <ele>112.1</ele>
    <time>2018-01-28T04:59:29Z</time>
   </trkpt>
   <trkpt lat="12.9199890" lon="99.6700050">
    <ele>111.6</ele>
    <time>2018-01-28T04:59:30Z</time>
   </trkpt>
   <trkpt lat="12.9199390" lon="99.6700050">
    <ele>111.3</ele>
    <time>2018-01-28T04:59:31Z</time>
   </trkpt>
   <trkpt lat="12.9198910" lon="99.6700080">
    <ele>111.0</ele>
    <time>2018-01-28T04:59:32Z</time>
   </trkpt>
   <trkpt lat="12.9198460" lon="99.6700060">
    <ele>110.8</ele>
    <time>2018-01-28T04:59:33Z</time>
   </trkpt>
   <trkpt lat="12.9198030" lon="99.6699900">
    <ele>110.5</ele>
    <time>2018-01-28T04:59:34Z</time>
   </trkpt>
   <trkpt lat="12.9197690" lon="99.6699770">
    <ele>110.1</ele>
    <time>2018-01-28T04:59:35Z</time>
   </trkpt>
   <trkpt lat="12.9197340" lon="99.6699380">
    <ele>109.7</ele>
    <time>2018-01-28T04:59:36Z</time>
   </trkpt>
   <trkpt lat="12.9196960" lon="99.6699130">
    <ele>109.4</ele>
    <time>2018-01-28T04:59:37Z</time>
   </trkpt>
   <trkpt lat="12.9196570" lon="99.6699080">
    <ele>109.1</ele>
    <time>2018-01-28T04:59:38Z</time>
   </trkpt>
   <trkpt lat="12.9196200" lon="99.6699080">
    <ele>109.2</ele>
    <time>2018-01-28T04:59:41Z</time>
   </trkpt>
   <trkpt lat="12.9195690" lon="99.6698940">
    <ele>108.3</ele>
    <time>2018-01-28T04:59:43Z</time>
   </trkpt>
   <trkpt lat="12.9195100" lon="99.6698760">
    <ele>108.1</ele>
    <time>2018-01-28T04:59:44Z</time>
   </trkpt>
   <trkpt lat="12.9194790" lon="99.6698660">
    <ele>107.9</ele>
    <time>2018-01-28T04:59:45Z</time>
   </trkpt>
   <trkpt lat="12.9194300" lon="99.6698650">
    <ele>107.8</ele>
    <time>2018-01-28T04:59:46Z</time>
   </trkpt>
   <trkpt lat="12.9190010" lon="99.6697820">
    <ele>107.4</ele>
    <time>2018-01-28T04:59:48Z</time>
   </trkpt>
   <trkpt lat="12.9189320" lon="99.6697400">
    <ele>107.7</ele>
    <time>2018-01-28T04:59:49Z</time>
   </trkpt>
   <trkpt lat="12.9188640" lon="99.6697150">
    <ele>107.7</ele>
    <time>2018-01-28T04:59:50Z</time>
   </trkpt>
   <trkpt lat="12.9188000" lon="99.6696810">
    <ele>107.1</ele>
    <time>2018-01-28T04:59:51Z</time>
   </trkpt>
   <trkpt lat="12.9187520" lon="99.6696340">
    <ele>106.3</ele>
    <time>2018-01-28T04:59:52Z</time>
   </trkpt>
   <trkpt lat="12.9186890" lon="99.6695730">
    <ele>105.4</ele>
    <time>2018-01-28T04:59:53Z</time>
   </trkpt>
   <trkpt lat="12.9186290" lon="99.6695360">
    <ele>104.8</ele>
    <time>2018-01-28T04:59:54Z</time>
   </trkpt>
   <trkpt lat="12.9185690" lon="99.6694940">
    <ele>104.2</ele>
    <time>2018-01-28T04:59:55Z</time>
   </trkpt>
   <trkpt lat="12.9185020" lon="99.6694680">
    <ele>103.7</ele>
    <time>2018-01-28T04:59:56Z</time>
   </trkpt>
   <trkpt lat="12.9184390" lon="99.6694270">
    <ele>103.1</ele>
    <time>2018-01-28T04:59:57Z</time>
   </trkpt>
   <trkpt lat="12.9183780" lon="99.6693870">
    <ele>102.9</ele>
    <time>2018-01-28T04:59:58Z</time>
   </trkpt>
   <trkpt lat="12.9183100" lon="99.6693510">
    <ele>102.0</ele>
    <time>2018-01-28T04:59:59Z</time>
   </trkpt>
   <trkpt lat="12.9182520" lon="99.6693160">
    <ele>101.4</ele>
    <time>2018-01-28T05:00:00Z</time>
   </trkpt>
   <trkpt lat="12.9181890" lon="99.6692760">
    <ele>100.6</ele>
    <time>2018-01-28T05:00:01Z</time>
   </trkpt>
   <trkpt lat="12.9181160" lon="99.6692500">
    <ele>100.3</ele>
    <time>2018-01-28T05:00:02Z</time>
   </trkpt>
   <trkpt lat="12.9180440" lon="99.6692350">
    <ele>99.7</ele>
    <time>2018-01-28T05:00:03Z</time>
   </trkpt>
   <trkpt lat="12.9179510" lon="99.6692000">
    <ele>99.2</ele>
    <time>2018-01-28T05:00:04Z</time>
   </trkpt>
   <trkpt lat="12.9178710" lon="99.6691890">
    <ele>99.2</ele>
    <time>2018-01-28T05:00:05Z</time>
   </trkpt>
   <trkpt lat="12.9177910" lon="99.6691780">
    <ele>99.3</ele>
    <time>2018-01-28T05:00:06Z</time>
   </trkpt>
   <trkpt lat="12.9177060" lon="99.6691670">
    <ele>99.0</ele>
    <time>2018-01-28T05:00:07Z</time>
   </trkpt>
   <trkpt lat="12.9176340" lon="99.6691590">
    <ele>99.1</ele>
    <time>2018-01-28T05:00:08Z</time>
   </trkpt>
   <trkpt lat="12.9175620" lon="99.6691480">
    <ele>99.1</ele>
    <time>2018-01-28T05:00:09Z</time>
   </trkpt>
   <trkpt lat="12.9174890" lon="99.6691380">
    <ele>99.1</ele>
    <time>2018-01-28T05:00:10Z</time>
   </trkpt>
   <trkpt lat="12.9174180" lon="99.6691400">
    <ele>98.9</ele>
    <time>2018-01-28T05:00:11Z</time>
   </trkpt>
   <trkpt lat="12.9173410" lon="99.6691520">
    <ele>98.5</ele>
    <time>2018-01-28T05:00:12Z</time>
   </trkpt>
   <trkpt lat="12.9172550" lon="99.6691430">
    <ele>98.4</ele>
    <time>2018-01-28T05:00:13Z</time>
   </trkpt>
   <trkpt lat="12.9171770" lon="99.6691440">
    <ele>98.2</ele>
    <time>2018-01-28T05:00:14Z</time>
   </trkpt>
   <trkpt lat="12.9170970" lon="99.6691560">
    <ele>97.8</ele>
    <time>2018-01-28T05:00:15Z</time>
   </trkpt>
   <trkpt lat="12.9170050" lon="99.6691590">
    <ele>97.3</ele>
    <time>2018-01-28T05:00:16Z</time>
   </trkpt>
   <trkpt lat="12.9169280" lon="99.6691510">
    <ele>96.7</ele>
    <time>2018-01-28T05:00:17Z</time>
   </trkpt>
   <trkpt lat="12.9168520" lon="99.6691490">
    <ele>96.1</ele>
    <time>2018-01-28T05:00:18Z</time>
   </trkpt>
   <trkpt lat="12.9167720" lon="99.6691420">
    <ele>95.6</ele>
    <time>2018-01-28T05:00:19Z</time>
   </trkpt>
   <trkpt lat="12.9167020" lon="99.6691470">
    <ele>95.4</ele>
    <time>2018-01-28T05:00:20Z</time>
   </trkpt>
   <trkpt lat="12.9166250" lon="99.6691430">
    <ele>95.0</ele>
    <time>2018-01-28T05:00:21Z</time>
   </trkpt>
   <trkpt lat="12.9165510" lon="99.6691390">
    <ele>94.6</ele>
    <time>2018-01-28T05:00:22Z</time>
   </trkpt>
   <trkpt lat="12.9164760" lon="99.6691320">
    <ele>94.1</ele>
    <time>2018-01-28T05:00:23Z</time>
   </trkpt>
   <trkpt lat="12.9163970" lon="99.6691380">
    <ele>93.8</ele>
    <time>2018-01-28T05:00:24Z</time>
   </trkpt>
   <trkpt lat="12.9163200" lon="99.6691280">
    <ele>93.3</ele>
    <time>2018-01-28T05:00:25Z</time>
   </trkpt>
   <trkpt lat="12.9162260" lon="99.6691160">
    <ele>92.9</ele>
    <time>2018-01-28T05:00:26Z</time>
   </trkpt>
   <trkpt lat="12.9161450" lon="99.6691160">
    <ele>92.8</ele>
    <time>2018-01-28T05:00:27Z</time>
   </trkpt>
   <trkpt lat="12.9160560" lon="99.6691180">
    <ele>92.4</ele>
    <time>2018-01-28T05:00:28Z</time>
   </trkpt>
   <trkpt lat="12.9159680" lon="99.6691170">
    <ele>91.9</ele>
    <time>2018-01-28T05:00:29Z</time>
   </trkpt>
   <trkpt lat="12.9158780" lon="99.6691120">
    <ele>91.4</ele>
    <time>2018-01-28T05:00:30Z</time>
   </trkpt>
   <trkpt lat="12.9157920" lon="99.6691150">
    <ele>90.9</ele>
    <time>2018-01-28T05:00:31Z</time>
   </trkpt>
   <trkpt lat="12.9156990" lon="99.6691210">
    <ele>90.5</ele>
    <time>2018-01-28T05:00:32Z</time>
   </trkpt>
   <trkpt lat="12.9156060" lon="99.6691270">
    <ele>89.9</ele>
    <time>2018-01-28T05:00:33Z</time>
   </trkpt>
   <trkpt lat="12.9154950" lon="99.6691310">
    <ele>89.2</ele>
    <time>2018-01-28T05:00:34Z</time>
   </trkpt>
   <trkpt lat="12.9153930" lon="99.6691370">
    <ele>89.3</ele>
    <time>2018-01-28T05:00:35Z</time>
   </trkpt>
   <trkpt lat="12.9152960" lon="99.6691330">
    <ele>89.4</ele>
    <time>2018-01-28T05:00:36Z</time>
   </trkpt>
   <trkpt lat="12.9152050" lon="99.6691450">
    <ele>88.8</ele>
    <time>2018-01-28T05:00:37Z</time>
   </trkpt>
   <trkpt lat="12.9151110" lon="99.6691550">
    <ele>88.2</ele>
    <time>2018-01-28T05:00:38Z</time>
   </trkpt>
   <trkpt lat="12.9150150" lon="99.6691610">
    <ele>87.9</ele>
    <time>2018-01-28T05:00:39Z</time>
   </trkpt>
   <trkpt lat="12.9149170" lon="99.6691720">
    <ele>87.9</ele>
    <time>2018-01-28T05:00:40Z</time>
   </trkpt>
   <trkpt lat="12.9148190" lon="99.6691740">
    <ele>88.1</ele>
    <time>2018-01-28T05:00:41Z</time>
   </trkpt>
   <trkpt lat="12.9147190" lon="99.6691680">
    <ele>88.2</ele>
    <time>2018-01-28T05:00:42Z</time>
   </trkpt>
   <trkpt lat="12.9146260" lon="99.6691650">
    <ele>88.0</ele>
    <time>2018-01-28T05:00:43Z</time>
   </trkpt>
   <trkpt lat="12.9145360" lon="99.6691620">
    <ele>87.5</ele>
    <time>2018-01-28T05:00:44Z</time>
   </trkpt>
   <trkpt lat="12.9144470" lon="99.6691650">
    <ele>87.0</ele>
    <time>2018-01-28T05:00:45Z</time>
   </trkpt>
   <trkpt lat="12.9143560" lon="99.6691650">
    <ele>86.7</ele>
    <time>2018-01-28T05:00:46Z</time>
   </trkpt>
   <trkpt lat="12.9142760" lon="99.6691610">
    <ele>86.6</ele>
    <time>2018-01-28T05:00:47Z</time>
   </trkpt>
   <trkpt lat="12.9141830" lon="99.6691480">
    <ele>86.5</ele>
    <time>2018-01-28T05:00:48Z</time>
   </trkpt>
   <trkpt lat="12.9140930" lon="99.6691400">
    <ele>85.6</ele>
    <time>2018-01-28T05:00:49Z</time>
   </trkpt>
   <trkpt lat="12.9140110" lon="99.6691330">
    <ele>84.7</ele>
    <time>2018-01-28T05:00:50Z</time>
   </trkpt>
   <trkpt lat="12.9139310" lon="99.6691320">
    <ele>84.4</ele>
    <time>2018-01-28T05:00:51Z</time>
   </trkpt>
   <trkpt lat="12.9138440" lon="99.6691450">
    <ele>83.8</ele>
    <time>2018-01-28T05:00:52Z</time>
   </trkpt>
   <trkpt lat="12.9137570" lon="99.6691480">
    <ele>83.1</ele>
    <time>2018-01-28T05:00:53Z</time>
   </trkpt>
   <trkpt lat="12.9136640" lon="99.6691550">
    <ele>82.2</ele>
    <time>2018-01-28T05:00:54Z</time>
   </trkpt>
   <trkpt lat="12.9135830" lon="99.6691530">
    <ele>81.8</ele>
    <time>2018-01-28T05:00:55Z</time>
   </trkpt>
   <trkpt lat="12.9135030" lon="99.6691480">
    <ele>81.9</ele>
    <time>2018-01-28T05:00:56Z</time>
   </trkpt>
   <trkpt lat="12.9134210" lon="99.6691410">
    <ele>82.4</ele>
    <time>2018-01-28T05:00:57Z</time>
   </trkpt>
   <trkpt lat="12.9133320" lon="99.6691380">
    <ele>83.0</ele>
    <time>2018-01-28T05:00:58Z</time>
   </trkpt>
   <trkpt lat="12.9132490" lon="99.6691370">
    <ele>83.5</ele>
    <time>2018-01-28T05:00:59Z</time>
   </trkpt>
   <trkpt lat="12.9131680" lon="99.6691330">
    <ele>84.0</ele>
    <time>2018-01-28T05:01:00Z</time>
   </trkpt>
   <trkpt lat="12.9130840" lon="99.6691350">
    <ele>84.2</ele>
    <time>2018-01-28T05:01:01Z</time>
   </trkpt>
   <trkpt lat="12.9129990" lon="99.6691230">
    <ele>84.2</ele>
    <time>2018-01-28T05:01:02Z</time>
   </trkpt>
   <trkpt lat="12.9129100" lon="99.6691170">
    <ele>83.9</ele>
    <time>2018-01-28T05:01:03Z</time>
   </trkpt>
   <trkpt lat="12.9128200" lon="99.6691310">
    <ele>83.4</ele>
    <time>2018-01-28T05:01:04Z</time>
   </trkpt>
   <trkpt lat="12.9127440" lon="99.6691410">
    <ele>83.0</ele>
    <time>2018-01-28T05:01:05Z</time>
   </trkpt>
   <trkpt lat="12.9126760" lon="99.6691490">
    <ele>82.9</ele>
    <time>2018-01-28T05:01:06Z</time>
   </trkpt>
   <trkpt lat="12.9126290" lon="99.6691730">
    <ele>83.0</ele>
    <time>2018-01-28T05:01:07Z</time>
   </trkpt>
   <trkpt lat="12.9125650" lon="99.6691900">
    <ele>82.9</ele>
    <time>2018-01-28T05:01:08Z</time>
   </trkpt>
   <trkpt lat="12.9124930" lon="99.6691840">
    <ele>82.4</ele>
    <time>2018-01-28T05:01:09Z</time>
   </trkpt>
   <trkpt lat="12.9124310" lon="99.6691700">
    <ele>82.2</ele>
    <time>2018-01-28T05:01:10Z</time>
   </trkpt>
   <trkpt lat="12.9123570" lon="99.6691600">
    <ele>81.7</ele>
    <time>2018-01-28T05:01:11Z</time>
   </trkpt>
   <trkpt lat="12.9122840" lon="99.6691540">
    <ele>81.3</ele>
    <time>2018-01-28T05:01:12Z</time>
   </trkpt>
   <trkpt lat="12.9122020" lon="99.6691430">
    <ele>81.3</ele>
    <time>2018-01-28T05:01:13Z</time>
   </trkpt>
   <trkpt lat="12.9121420" lon="99.6691440">
    <ele>81.3</ele>
    <time>2018-01-28T05:01:14Z</time>
   </trkpt>
   <trkpt lat="12.9121040" lon="99.6691680">
    <ele>81.4</ele>
    <time>2018-01-28T05:01:15Z</time>
   </trkpt>
   <trkpt lat="12.9120530" lon="99.6691670">
    <ele>81.4</ele>
    <time>2018-01-28T05:01:16Z</time>
   </trkpt>
   <trkpt lat="12.9119990" lon="99.6691660">
    <ele>81.4</ele>
    <time>2018-01-28T05:01:17Z</time>
   </trkpt>
   <trkpt lat="12.9119510" lon="99.6691790">
    <ele>81.3</ele>
    <time>2018-01-28T05:01:18Z</time>
   </trkpt>
   <trkpt lat="12.9118990" lon="99.6691920">
    <ele>81.3</ele>
    <time>2018-01-28T05:01:19Z</time>
   </trkpt>
   <trkpt lat="12.9118460" lon="99.6692020">
    <ele>81.3</ele>
    <time>2018-01-28T05:01:20Z</time>
   </trkpt>
   <trkpt lat="12.9117870" lon="99.6692050">
    <ele>81.1</ele>
    <time>2018-01-28T05:01:21Z</time>
   </trkpt>
   <trkpt lat="12.9117260" lon="99.6692150">
    <ele>81.1</ele>
    <time>2018-01-28T05:01:22Z</time>
   </trkpt>
   <trkpt lat="12.9116640" lon="99.6692160">
    <ele>80.5</ele>
    <time>2018-01-28T05:01:23Z</time>
   </trkpt>
   <trkpt lat="12.9116160" lon="99.6692280">
    <ele>80.3</ele>
    <time>2018-01-28T05:01:24Z</time>
   </trkpt>
   <trkpt lat="12.9115710" lon="99.6692450">
    <ele>80.2</ele>
    <time>2018-01-28T05:01:25Z</time>
   </trkpt>
   <trkpt lat="12.9115260" lon="99.6692630">
    <ele>80.4</ele>
    <time>2018-01-28T05:01:26Z</time>
   </trkpt>
   <trkpt lat="12.9114900" lon="99.6692770">
    <ele>80.5</ele>
    <time>2018-01-28T05:01:28Z</time>
   </trkpt>
   <trkpt lat="12.9114700" lon="99.6693080">
    <ele>80.6</ele>
    <time>2018-01-28T05:01:30Z</time>
   </trkpt>
   <trkpt lat="12.9114600" lon="99.6693560">
    <ele>80.8</ele>
    <time>2018-01-28T05:01:33Z</time>
   </trkpt>
   <trkpt lat="12.9114740" lon="99.6694030">
    <ele>80.9</ele>
    <time>2018-01-28T05:01:35Z</time>
   </trkpt>
   <trkpt lat="12.9114970" lon="99.6694470">
    <ele>81.1</ele>
    <time>2018-01-28T05:01:37Z</time>
   </trkpt>
   <trkpt lat="12.9115180" lon="99.6694860">
    <ele>81.2</ele>
    <time>2018-01-28T05:01:39Z</time>
   </trkpt>
   <trkpt lat="12.9115320" lon="99.6695140">
    <ele>81.3</ele>
    <time>2018-01-28T05:01:40Z</time>
   </trkpt>
   <trkpt lat="12.9115460" lon="99.6695440">
    <ele>81.4</ele>
    <time>2018-01-28T05:01:41Z</time>
   </trkpt>
   <trkpt lat="12.9115560" lon="99.6695770">
    <ele>81.5</ele>
    <time>2018-01-28T05:01:42Z</time>
   </trkpt>
   <trkpt lat="12.9115650" lon="99.6696120">
    <ele>81.7</ele>
    <time>2018-01-28T05:01:43Z</time>
   </trkpt>
   <trkpt lat="12.9115720" lon="99.6696460">
    <ele>81.8</ele>
    <time>2018-01-28T05:01:44Z</time>
   </trkpt>
   <trkpt lat="12.9115790" lon="99.6696780">
    <ele>81.9</ele>
    <time>2018-01-28T05:01:45Z</time>
   </trkpt>
   <trkpt lat="12.9115850" lon="99.6697100">
    <ele>82.1</ele>
    <time>2018-01-28T05:01:46Z</time>
   </trkpt>
   <trkpt lat="12.9115900" lon="99.6697410">
    <ele>82.2</ele>
    <time>2018-01-28T05:01:47Z</time>
   </trkpt>
   <trkpt lat="12.9115950" lon="99.6697720">
    <ele>82.4</ele>
    <time>2018-01-28T05:01:48Z</time>
   </trkpt>
   <trkpt lat="12.9116000" lon="99.6698060">
    <ele>82.5</ele>
    <time>2018-01-28T05:01:49Z</time>
   </trkpt>
   <trkpt lat="12.9116050" lon="99.6698430">
    <ele>82.7</ele>
    <time>2018-01-28T05:01:50Z</time>
   </trkpt>
   <trkpt lat="12.9116090" lon="99.6698830">
    <ele>82.9</ele>
    <time>2018-01-28T05:01:51Z</time>
   </trkpt>
   <trkpt lat="12.9116110" lon="99.6699210">
    <ele>83.2</ele>
    <time>2018-01-28T05:01:52Z</time>
   </trkpt>
   <trkpt lat="12.9116130" lon="99.6699620">
    <ele>83.4</ele>
    <time>2018-01-28T05:01:53Z</time>
   </trkpt>
   <trkpt lat="12.9116130" lon="99.6700040">
    <ele>83.6</ele>
    <time>2018-01-28T05:01:54Z</time>
   </trkpt>
   <trkpt lat="12.9116110" lon="99.6700460">
    <ele>83.8</ele>
    <time>2018-01-28T05:01:55Z</time>
   </trkpt>
   <trkpt lat="12.9116090" lon="99.6700880">
    <ele>84.1</ele>
    <time>2018-01-28T05:01:56Z</time>
   </trkpt>
   <trkpt lat="12.9116070" lon="99.6701290">
    <ele>84.3</ele>
    <time>2018-01-28T05:01:57Z</time>
   </trkpt>
   <trkpt lat="12.9116040" lon="99.6701710">
    <ele>84.5</ele>
    <time>2018-01-28T05:01:58Z</time>
   </trkpt>
   <trkpt lat="12.9116000" lon="99.6702130">
    <ele>84.7</ele>
    <time>2018-01-28T05:01:59Z</time>
   </trkpt>
   <trkpt lat="12.9115940" lon="99.6702530">
    <ele>84.9</ele>
    <time>2018-01-28T05:02:00Z</time>
   </trkpt>
   <trkpt lat="12.9115890" lon="99.6702920">
    <ele>85.1</ele>
    <time>2018-01-28T05:02:01Z</time>
   </trkpt>
   <trkpt lat="12.9115830" lon="99.6703270">
    <ele>85.3</ele>
    <time>2018-01-28T05:02:02Z</time>
   </trkpt>
   <trkpt lat="12.9115740" lon="99.6703630">
    <ele>85.4</ele>
    <time>2018-01-28T05:02:03Z</time>
   </trkpt>
   <trkpt lat="12.9115630" lon="99.6704010">
    <ele>85.6</ele>
    <time>2018-01-28T05:02:04Z</time>
   </trkpt>
   <trkpt lat="12.9115520" lon="99.6704380">
    <ele>85.7</ele>
    <time>2018-01-28T05:02:05Z</time>
   </trkpt>
   <trkpt lat="12.9115420" lon="99.6704740">
    <ele>85.8</ele>
    <time>2018-01-28T05:02:06Z</time>
   </trkpt>
   <trkpt lat="12.9115320" lon="99.6705090">
    <ele>85.9</ele>
    <time>2018-01-28T05:02:07Z</time>
   </trkpt>
   <trkpt lat="12.9115210" lon="99.6705440">
    <ele>86.0</ele>
    <time>2018-01-28T05:02:08Z</time>
   </trkpt>
   <trkpt lat="12.9115110" lon="99.6705770">
    <ele>86.1</ele>
    <time>2018-01-28T05:02:09Z</time>
   </trkpt>
   <trkpt lat="12.9114990" lon="99.6706120">
    <ele>86.2</ele>
    <time>2018-01-28T05:02:10Z</time>
   </trkpt>
   <trkpt lat="12.9114890" lon="99.6706450">
    <ele>86.2</ele>
    <time>2018-01-28T05:02:11Z</time>
   </trkpt>
   <trkpt lat="12.9114790" lon="99.6706770">
    <ele>86.3</ele>
    <time>2018-01-28T05:02:12Z</time>
   </trkpt>
   <trkpt lat="12.9114680" lon="99.6707090">
    <ele>86.3</ele>
    <time>2018-01-28T05:02:13Z</time>
   </trkpt>
   <trkpt lat="12.9114590" lon="99.6707410">
    <ele>86.4</ele>
    <time>2018-01-28T05:02:14Z</time>
   </trkpt>
   <trkpt lat="12.9114490" lon="99.6707740">
    <ele>86.4</ele>
    <time>2018-01-28T05:02:15Z</time>
   </trkpt>
   <trkpt lat="12.9114390" lon="99.6708070">
    <ele>86.5</ele>
    <time>2018-01-28T05:02:16Z</time>
   </trkpt>
   <trkpt lat="12.9114250" lon="99.6708370">
    <ele>86.5</ele>
    <time>2018-01-28T05:02:17Z</time>
   </trkpt>
   <trkpt lat="12.9114150" lon="99.6708680">
    <ele>86.5</ele>
    <time>2018-01-28T05:02:18Z</time>
   </trkpt>
   <trkpt lat="12.9114020" lon="99.6708990">
    <ele>86.5</ele>
    <time>2018-01-28T05:02:19Z</time>
   </trkpt>
   <trkpt lat="12.9113900" lon="99.6709300">
    <ele>86.6</ele>
    <time>2018-01-28T05:02:20Z</time>
   </trkpt>
   <trkpt lat="12.9113810" lon="99.6709610">
    <ele>86.6</ele>
    <time>2018-01-28T05:02:21Z</time>
   </trkpt>
   <trkpt lat="12.9113680" lon="99.6709950">
    <ele>86.6</ele>
    <time>2018-01-28T05:02:22Z</time>
   </trkpt>
   <trkpt lat="12.9113530" lon="99.6710230">
    <ele>86.6</ele>
    <time>2018-01-28T05:02:23Z</time>
   </trkpt>
   <trkpt lat="12.9113360" lon="99.6710540">
    <ele>86.7</ele>
    <time>2018-01-28T05:02:24Z</time>
   </trkpt>
   <trkpt lat="12.9113240" lon="99.6710830">
    <ele>86.7</ele>
    <time>2018-01-28T05:02:25Z</time>
   </trkpt>
   <trkpt lat="12.9113100" lon="99.6711160">
    <ele>86.7</ele>
    <time>2018-01-28T05:02:26Z</time>
   </trkpt>
   <trkpt lat="12.9112960" lon="99.6711460">
    <ele>86.7</ele>
    <time>2018-01-28T05:02:27Z</time>
   </trkpt>
   <trkpt lat="12.9112810" lon="99.6711740">
    <ele>86.8</ele>
    <time>2018-01-28T05:02:28Z</time>
   </trkpt>
   <trkpt lat="12.9112660" lon="99.6712040">
    <ele>86.8</ele>
    <time>2018-01-28T05:02:29Z</time>
   </trkpt>
   <trkpt lat="12.9112500" lon="99.6712340">
    <ele>86.9</ele>
    <time>2018-01-28T05:02:30Z</time>
   </trkpt>
   <trkpt lat="12.9112360" lon="99.6712620">
    <ele>86.9</ele>
    <time>2018-01-28T05:02:31Z</time>
   </trkpt>
   <trkpt lat="12.9112210" lon="99.6712900">
    <ele>87.0</ele>
    <time>2018-01-28T05:02:32Z</time>
   </trkpt>
   <trkpt lat="12.9112060" lon="99.6713190">
    <ele>87.0</ele>
    <time>2018-01-28T05:02:33Z</time>
   </trkpt>
   <trkpt lat="12.9111900" lon="99.6713420">
    <ele>87.1</ele>
    <time>2018-01-28T05:02:34Z</time>
   </trkpt>
   <trkpt lat="12.9111730" lon="99.6713660">
    <ele>87.2</ele>
    <time>2018-01-28T05:02:35Z</time>
   </trkpt>
   <trkpt lat="12.9111550" lon="99.6713900">
    <ele>87.2</ele>
    <time>2018-01-28T05:02:36Z</time>
   </trkpt>
   <trkpt lat="12.9111320" lon="99.6714180">
    <ele>87.3</ele>
    <time>2018-01-28T05:02:37Z</time>
   </trkpt>
   <trkpt lat="12.9111090" lon="99.6714450">
    <ele>87.4</ele>
    <time>2018-01-28T05:02:38Z</time>
   </trkpt>
   <trkpt lat="12.9110880" lon="99.6714690">
    <ele>87.5</ele>
    <time>2018-01-28T05:02:39Z</time>
   </trkpt>
   <trkpt lat="12.9110670" lon="99.6714940">
    <ele>87.6</ele>
    <time>2018-01-28T05:02:40Z</time>
   </trkpt>
   <trkpt lat="12.9110440" lon="99.6715210">
    <ele>87.7</ele>
    <time>2018-01-28T05:02:41Z</time>
   </trkpt>
   <trkpt lat="12.9110210" lon="99.6715480">
    <ele>87.8</ele>
    <time>2018-01-28T05:02:42Z</time>
   </trkpt>
   <trkpt lat="12.9109960" lon="99.6715750">
    <ele>87.9</ele>
    <time>2018-01-28T05:02:43Z</time>
   </trkpt>
   <trkpt lat="12.9109700" lon="99.6716030">
    <ele>88.1</ele>
    <time>2018-01-28T05:02:44Z</time>
   </trkpt>
   <trkpt lat="12.9109440" lon="99.6716310">
    <ele>88.2</ele>
    <time>2018-01-28T05:02:45Z</time>
   </trkpt>
   <trkpt lat="12.9109080" lon="99.6716730">
    <ele>88.3</ele>
    <time>2018-01-28T05:02:48Z</time>
   </trkpt>
   <trkpt lat="12.9108800" lon="99.6717030">
    <ele>88.5</ele>
    <time>2018-01-28T05:02:49Z</time>
   </trkpt>
   <trkpt lat="12.9108600" lon="99.6717250">
    <ele>88.5</ele>
    <time>2018-01-28T05:02:50Z</time>
   </trkpt>
   <trkpt lat="12.9108380" lon="99.6717470">
    <ele>88.6</ele>
    <time>2018-01-28T05:02:51Z</time>
   </trkpt>
   <trkpt lat="12.9108180" lon="99.6717670">
    <ele>88.7</ele>
    <time>2018-01-28T05:02:52Z</time>
   </trkpt>
   <trkpt lat="12.9107740" lon="99.6718050">
    <ele>88.8</ele>
    <time>2018-01-28T05:02:54Z</time>
   </trkpt>
   <trkpt lat="12.9107480" lon="99.6718270">
    <ele>88.9</ele>
    <time>2018-01-28T05:02:55Z</time>
   </trkpt>
   <trkpt lat="12.9107190" lon="99.6718500">
    <ele>89.0</ele>
    <time>2018-01-28T05:02:56Z</time>
   </trkpt>
   <trkpt lat="12.9106870" lon="99.6718750">
    <ele>89.0</ele>
    <time>2018-01-28T05:02:57Z</time>
   </trkpt>
   <trkpt lat="12.9106540" lon="99.6718990">
    <ele>89.1</ele>
    <time>2018-01-28T05:02:58Z</time>
   </trkpt>
   <trkpt lat="12.9106180" lon="99.6719230">
    <ele>89.1</ele>
    <time>2018-01-28T05:02:59Z</time>
   </trkpt>
   <trkpt lat="12.9105780" lon="99.6719480">
    <ele>89.1</ele>
    <time>2018-01-28T05:03:00Z</time>
   </trkpt>
   <trkpt lat="12.9105360" lon="99.6719740">
    <ele>89.1</ele>
    <time>2018-01-28T05:03:01Z</time>
   </trkpt>
   <trkpt lat="12.9104950" lon="99.6719990">
    <ele>89.2</ele>
    <time>2018-01-28T05:03:02Z</time>
   </trkpt>
   <trkpt lat="12.9104540" lon="99.6720240">
    <ele>89.2</ele>
    <time>2018-01-28T05:03:03Z</time>
   </trkpt>
   <trkpt lat="12.9104120" lon="99.6720490">
    <ele>89.1</ele>
    <time>2018-01-28T05:03:04Z</time>
   </trkpt>
   <trkpt lat="12.9103720" lon="99.6720730">
    <ele>89.1</ele>
    <time>2018-01-28T05:03:05Z</time>
   </trkpt>
   <trkpt lat="12.9103310" lon="99.6720970">
    <ele>89.1</ele>
    <time>2018-01-28T05:03:06Z</time>
   </trkpt>
   <trkpt lat="12.9102920" lon="99.6721200">
    <ele>89.0</ele>
    <time>2018-01-28T05:03:07Z</time>
   </trkpt>
   <trkpt lat="12.9102540" lon="99.6721440">
    <ele>89.0</ele>
    <time>2018-01-28T05:03:08Z</time>
   </trkpt>
   <trkpt lat="12.9102140" lon="99.6721700">
    <ele>88.9</ele>
    <time>2018-01-28T05:03:09Z</time>
   </trkpt>
   <trkpt lat="12.9101740" lon="99.6721950">
    <ele>88.8</ele>
    <time>2018-01-28T05:03:10Z</time>
   </trkpt>
   <trkpt lat="12.9101370" lon="99.6722180">
    <ele>88.7</ele>
    <time>2018-01-28T05:03:11Z</time>
   </trkpt>
   <trkpt lat="12.9101000" lon="99.6722420">
    <ele>88.6</ele>
    <time>2018-01-28T05:03:12Z</time>
   </trkpt>
   <trkpt lat="12.9100630" lon="99.6722670">
    <ele>88.4</ele>
    <time>2018-01-28T05:03:13Z</time>
   </trkpt>
   <trkpt lat="12.9100280" lon="99.6722900">
    <ele>88.3</ele>
    <time>2018-01-28T05:03:14Z</time>
   </trkpt>
   <trkpt lat="12.9100020" lon="99.6723130">
    <ele>88.2</ele>
    <time>2018-01-28T05:03:15Z</time>
   </trkpt>
   <trkpt lat="12.9099690" lon="99.6723370">
    <ele>88.0</ele>
    <time>2018-01-28T05:03:16Z</time>
   </trkpt>
   <trkpt lat="12.9099380" lon="99.6723680">
    <ele>87.9</ele>
    <time>2018-01-28T05:03:17Z</time>
   </trkpt>
   <trkpt lat="12.9099030" lon="99.6724020">
    <ele>87.7</ele>
    <time>2018-01-28T05:03:18Z</time>
   </trkpt>
   <trkpt lat="12.9098670" lon="99.6724370">
    <ele>87.5</ele>
    <time>2018-01-28T05:03:19Z</time>
   </trkpt>
   <trkpt lat="12.9098270" lon="99.6724790">
    <ele>87.3</ele>
    <time>2018-01-28T05:03:20Z</time>
   </trkpt>
   <trkpt lat="12.9097900" lon="99.6725250">
    <ele>87.2</ele>
    <time>2018-01-28T05:03:21Z</time>
   </trkpt>
   <trkpt lat="12.9097570" lon="99.6725710">
    <ele>87.0</ele>
    <time>2018-01-28T05:03:22Z</time>
   </trkpt>
   <trkpt lat="12.9097240" lon="99.6726210">
    <ele>87.1</ele>
    <time>2018-01-28T05:03:23Z</time>
   </trkpt>
   <trkpt lat="12.9096910" lon="99.6726690">
    <ele>87.3</ele>
    <time>2018-01-28T05:03:24Z</time>
   </trkpt>
   <trkpt lat="12.9096620" lon="99.6727250">
    <ele>87.4</ele>
    <time>2018-01-28T05:03:25Z</time>
   </trkpt>
   <trkpt lat="12.9096310" lon="99.6727790">
    <ele>87.5</ele>
    <time>2018-01-28T05:03:26Z</time>
   </trkpt>
   <trkpt lat="12.9096050" lon="99.6728410">
    <ele>87.6</ele>
    <time>2018-01-28T05:03:27Z</time>
   </trkpt>
   <trkpt lat="12.9095730" lon="99.6728970">
    <ele>87.7</ele>
    <time>2018-01-28T05:03:28Z</time>
   </trkpt>
   <trkpt lat="12.9095440" lon="99.6729570">
    <ele>87.8</ele>
    <time>2018-01-28T05:03:29Z</time>
   </trkpt>
   <trkpt lat="12.9095160" lon="99.6730160">
    <ele>87.9</ele>
    <time>2018-01-28T05:03:30Z</time>
   </trkpt>
   <trkpt lat="12.9094960" lon="99.6730810">
    <ele>88.0</ele>
    <time>2018-01-28T05:03:31Z</time>
   </trkpt>
   <trkpt lat="12.9094740" lon="99.6731410">
    <ele>88.1</ele>
    <time>2018-01-28T05:03:32Z</time>
   </trkpt>
   <trkpt lat="12.9094500" lon="99.6732010">
    <ele>88.1</ele>
    <time>2018-01-28T05:03:33Z</time>
   </trkpt>
   <trkpt lat="12.9094260" lon="99.6732640">
    <ele>88.2</ele>
    <time>2018-01-28T05:03:34Z</time>
   </trkpt>
   <trkpt lat="12.9094020" lon="99.6733240">
    <ele>88.2</ele>
    <time>2018-01-28T05:03:35Z</time>
   </trkpt>
   <trkpt lat="12.9093760" lon="99.6733820">
    <ele>88.2</ele>
    <time>2018-01-28T05:03:36Z</time>
   </trkpt>
   <trkpt lat="12.9093490" lon="99.6734390">
    <ele>88.2</ele>
    <time>2018-01-28T05:03:37Z</time>
   </trkpt>
   <trkpt lat="12.9093330" lon="99.6734830">
    <ele>88.2</ele>
    <time>2018-01-28T05:03:38Z</time>
   </trkpt>
   <trkpt lat="12.9093130" lon="99.6735380">
    <ele>88.2</ele>
    <time>2018-01-28T05:03:39Z</time>
   </trkpt>
   <trkpt lat="12.9093010" lon="99.6735950">
    <ele>88.3</ele>
    <time>2018-01-28T05:03:40Z</time>
   </trkpt>
   <trkpt lat="12.9092800" lon="99.6736540">
    <ele>88.3</ele>
    <time>2018-01-28T05:03:41Z</time>
   </trkpt>
   <trkpt lat="12.9092640" lon="99.6737100">
    <ele>88.4</ele>
    <time>2018-01-28T05:03:42Z</time>
   </trkpt>
   <trkpt lat="12.9092470" lon="99.6737650">
    <ele>88.5</ele>
    <time>2018-01-28T05:03:43Z</time>
   </trkpt>
   <trkpt lat="12.9092240" lon="99.6738180">
    <ele>88.6</ele>
    <time>2018-01-28T05:03:44Z</time>
   </trkpt>
   <trkpt lat="12.9092050" lon="99.6738710">
    <ele>88.6</ele>
    <time>2018-01-28T05:03:45Z</time>
   </trkpt>
   <trkpt lat="12.9091930" lon="99.6739200">
    <ele>88.7</ele>
    <time>2018-01-28T05:03:46Z</time>
   </trkpt>
   <trkpt lat="12.9091730" lon="99.6739830">
    <ele>88.8</ele>
    <time>2018-01-28T05:03:47Z</time>
   </trkpt>
   <trkpt lat="12.9091560" lon="99.6740340">
    <ele>88.8</ele>
    <time>2018-01-28T05:03:48Z</time>
   </trkpt>
   <trkpt lat="12.9091450" lon="99.6740820">
    <ele>88.9</ele>
    <time>2018-01-28T05:03:49Z</time>
   </trkpt>
   <trkpt lat="12.9091240" lon="99.6741340">
    <ele>88.9</ele>
    <time>2018-01-28T05:03:50Z</time>
   </trkpt>
   <trkpt lat="12.9091070" lon="99.6741860">
    <ele>88.9</ele>
    <time>2018-01-28T05:03:51Z</time>
   </trkpt>
   <trkpt lat="12.9090940" lon="99.6742370">
    <ele>88.9</ele>
    <time>2018-01-28T05:03:52Z</time>
   </trkpt>
   <trkpt lat="12.9090850" lon="99.6743020">
    <ele>88.9</ele>
    <time>2018-01-28T05:03:53Z</time>
   </trkpt>
   <trkpt lat="12.9090710" lon="99.6743470">
    <ele>89.0</ele>
    <time>2018-01-28T05:03:54Z</time>
   </trkpt>
   <trkpt lat="12.9090530" lon="99.6743950">
    <ele>89.0</ele>
    <time>2018-01-28T05:03:55Z</time>
   </trkpt>
   <trkpt lat="12.9090410" lon="99.6744400">
    <ele>89.0</ele>
    <time>2018-01-28T05:03:56Z</time>
   </trkpt>
   <trkpt lat="12.9090310" lon="99.6744880">
    <ele>89.0</ele>
    <time>2018-01-28T05:03:57Z</time>
   </trkpt>
   <trkpt lat="12.9090300" lon="99.6745260">
    <ele>89.0</ele>
    <time>2018-01-28T05:03:58Z</time>
   </trkpt>
   <trkpt lat="12.9090160" lon="99.6745690">
    <ele>89.1</ele>
    <time>2018-01-28T05:03:59Z</time>
   </trkpt>
   <trkpt lat="12.9090030" lon="99.6746330">
    <ele>89.2</ele>
    <time>2018-01-28T05:04:02Z</time>
   </trkpt>
   <trkpt lat="12.9089960" lon="99.6746570">
    <ele>89.2</ele>
    <time>2018-01-28T05:04:03Z</time>
   </trkpt>
   <trkpt lat="12.9089850" lon="99.6746950">
    <ele>89.3</ele>
    <time>2018-01-28T05:04:04Z</time>
   </trkpt>
   <trkpt lat="12.9089740" lon="99.6747340">
    <ele>89.4</ele>
    <time>2018-01-28T05:04:05Z</time>
   </trkpt>
   <trkpt lat="12.9089630" lon="99.6747690">
    <ele>89.5</ele>
    <time>2018-01-28T05:04:06Z</time>
   </trkpt>
   <trkpt lat="12.9089520" lon="99.6748050">
    <ele>89.5</ele>
    <time>2018-01-28T05:04:07Z</time>
   </trkpt>
   <trkpt lat="12.9089420" lon="99.6748410">
    <ele>89.6</ele>
    <time>2018-01-28T05:04:08Z</time>
   </trkpt>
   <trkpt lat="12.9089330" lon="99.6748780">
    <ele>89.7</ele>
    <time>2018-01-28T05:04:09Z</time>
   </trkpt>
   <trkpt lat="12.9089250" lon="99.6749130">
    <ele>89.8</ele>
    <time>2018-01-28T05:04:10Z</time>
   </trkpt>
   <trkpt lat="12.9089180" lon="99.6749530">
    <ele>89.9</ele>
    <time>2018-01-28T05:04:11Z</time>
   </trkpt>
   <trkpt lat="12.9089090" lon="99.6750010">
    <ele>90.1</ele>
    <time>2018-01-28T05:04:12Z</time>
   </trkpt>
   <trkpt lat="12.9088970" lon="99.6750540">
    <ele>90.2</ele>
    <time>2018-01-28T05:04:13Z</time>
   </trkpt>
   <trkpt lat="12.9088820" lon="99.6751060">
    <ele>90.4</ele>
    <time>2018-01-28T05:04:14Z</time>
   </trkpt>
   <trkpt lat="12.9088660" lon="99.6751580">
    <ele>90.6</ele>
    <time>2018-01-28T05:04:15Z</time>
   </trkpt>
   <trkpt lat="12.9088480" lon="99.6752130">
    <ele>90.8</ele>
    <time>2018-01-28T05:04:16Z</time>
   </trkpt>
   <trkpt lat="12.9088300" lon="99.6752690">
    <ele>91.0</ele>
    <time>2018-01-28T05:04:17Z</time>
   </trkpt>
   <trkpt lat="12.9088120" lon="99.6753240">
    <ele>91.2</ele>
    <time>2018-01-28T05:04:18Z</time>
   </trkpt>
   <trkpt lat="12.9087940" lon="99.6753800">
    <ele>91.5</ele>
    <time>2018-01-28T05:04:19Z</time>
   </trkpt>
   <trkpt lat="12.9087750" lon="99.6754410">
    <ele>91.7</ele>
    <time>2018-01-28T05:04:20Z</time>
   </trkpt>
   <trkpt lat="12.9087560" lon="99.6754970">
    <ele>91.9</ele>
    <time>2018-01-28T05:04:21Z</time>
   </trkpt>
   <trkpt lat="12.9087340" lon="99.6755520">
    <ele>92.1</ele>
    <time>2018-01-28T05:04:22Z</time>
   </trkpt>
   <trkpt lat="12.9087140" lon="99.6756040">
    <ele>92.3</ele>
    <time>2018-01-28T05:04:23Z</time>
   </trkpt>
   <trkpt lat="12.9086930" lon="99.6756590">
    <ele>92.5</ele>
    <time>2018-01-28T05:04:24Z</time>
   </trkpt>
   <trkpt lat="12.9086750" lon="99.6757090">
    <ele>92.7</ele>
    <time>2018-01-28T05:04:25Z</time>
   </trkpt>
   <trkpt lat="12.9086570" lon="99.6757560">
    <ele>92.9</ele>
    <time>2018-01-28T05:04:26Z</time>
   </trkpt>
   <trkpt lat="12.9086390" lon="99.6758020">
    <ele>93.1</ele>
    <time>2018-01-28T05:04:27Z</time>
   </trkpt>
   <trkpt lat="12.9086220" lon="99.6758500">
    <ele>93.3</ele>
    <time>2018-01-28T05:04:28Z</time>
   </trkpt>
   <trkpt lat="12.9086080" lon="99.6758920">
    <ele>93.4</ele>
    <time>2018-01-28T05:04:29Z</time>
   </trkpt>
   <trkpt lat="12.9085940" lon="99.6759330">
    <ele>93.6</ele>
    <time>2018-01-28T05:04:30Z</time>
   </trkpt>
   <trkpt lat="12.9085800" lon="99.6759730">
    <ele>93.7</ele>
    <time>2018-01-28T05:04:31Z</time>
   </trkpt>
   <trkpt lat="12.9085690" lon="99.6760090">
    <ele>93.9</ele>
    <time>2018-01-28T05:04:32Z</time>
   </trkpt>
   <trkpt lat="12.9085580" lon="99.6760420">
    <ele>94.0</ele>
    <time>2018-01-28T05:04:33Z</time>
   </trkpt>
   <trkpt lat="12.9085460" lon="99.6760760">
    <ele>94.1</ele>
    <time>2018-01-28T05:04:34Z</time>
   </trkpt>
   <trkpt lat="12.9085360" lon="99.6761090">
    <ele>94.2</ele>
    <time>2018-01-28T05:04:35Z</time>
   </trkpt>
   <trkpt lat="12.9085240" lon="99.6761410">
    <ele>94.3</ele>
    <time>2018-01-28T05:04:36Z</time>
   </trkpt>
   <trkpt lat="12.9085130" lon="99.6761750">
    <ele>94.5</ele>
    <time>2018-01-28T05:04:37Z</time>
   </trkpt>
   <trkpt lat="12.9085000" lon="99.6762100">
    <ele>94.6</ele>
    <time>2018-01-28T05:04:38Z</time>
   </trkpt>
   <trkpt lat="12.9084880" lon="99.6762460">
    <ele>94.7</ele>
    <time>2018-01-28T05:04:39Z</time>
   </trkpt>
   <trkpt lat="12.9084700" lon="99.6762830">
    <ele>94.8</ele>
    <time>2018-01-28T05:04:40Z</time>
   </trkpt>
   <trkpt lat="12.9084420" lon="99.6763420">
    <ele>95.0</ele>
    <time>2018-01-28T05:04:42Z</time>
   </trkpt>
   <trkpt lat="12.9084340" lon="99.6763770">
    <ele>95.1</ele>
    <time>2018-01-28T05:04:43Z</time>
   </trkpt>
   <trkpt lat="12.9084230" lon="99.6764120">
    <ele>95.2</ele>
    <time>2018-01-28T05:04:44Z</time>
   </trkpt>
   <trkpt lat="12.9084190" lon="99.6764430">
    <ele>95.3</ele>
    <time>2018-01-28T05:04:45Z</time>
   </trkpt>
   <trkpt lat="12.9084100" lon="99.6764740">
    <ele>95.4</ele>
    <time>2018-01-28T05:04:46Z</time>
   </trkpt>
   <trkpt lat="12.9083940" lon="99.6765060">
    <ele>95.5</ele>
    <time>2018-01-28T05:04:47Z</time>
   </trkpt>
   <trkpt lat="12.9083800" lon="99.6765390">
    <ele>95.6</ele>
    <time>2018-01-28T05:04:48Z</time>
   </trkpt>
   <trkpt lat="12.9083650" lon="99.6765720">
    <ele>95.6</ele>
    <time>2018-01-28T05:04:49Z</time>
   </trkpt>
   <trkpt lat="12.9083550" lon="99.6766050">
    <ele>95.7</ele>
    <time>2018-01-28T05:04:50Z</time>
   </trkpt>
   <trkpt lat="12.9083410" lon="99.6766390">
    <ele>95.8</ele>
    <time>2018-01-28T05:04:51Z</time>
   </trkpt>
   <trkpt lat="12.9083280" lon="99.6766690">
    <ele>95.9</ele>
    <time>2018-01-28T05:04:52Z</time>
   </trkpt>
   <trkpt lat="12.9083160" lon="99.6766990">
    <ele>95.9</ele>
    <time>2018-01-28T05:04:53Z</time>
   </trkpt>
   <trkpt lat="12.9083050" lon="99.6767290">
    <ele>96.0</ele>
    <time>2018-01-28T05:04:54Z</time>
   </trkpt>
   <trkpt lat="12.9082930" lon="99.6767570">
    <ele>96.1</ele>
    <time>2018-01-28T05:04:55Z</time>
   </trkpt>
   <trkpt lat="12.9082820" lon="99.6767860">
    <ele>96.1</ele>
    <time>2018-01-28T05:04:56Z</time>
   </trkpt>
   <trkpt lat="12.9082700" lon="99.6768150">
    <ele>96.2</ele>
    <time>2018-01-28T05:04:57Z</time>
   </trkpt>
   <trkpt lat="12.9082600" lon="99.6768420">
    <ele>96.2</ele>
    <time>2018-01-28T05:04:58Z</time>
   </trkpt>
   <trkpt lat="12.9082500" lon="99.6768730">
    <ele>96.3</ele>
    <time>2018-01-28T05:04:59Z</time>
   </trkpt>
   <trkpt lat="12.9082390" lon="99.6769040">
    <ele>96.3</ele>
    <time>2018-01-28T05:05:00Z</time>
   </trkpt>
   <trkpt lat="12.9082260" lon="99.6769350">
    <ele>96.4</ele>
    <time>2018-01-28T05:05:01Z</time>
   </trkpt>
   <trkpt lat="12.9082160" lon="99.6769660">
    <ele>96.4</ele>
    <time>2018-01-28T05:05:02Z</time>
   </trkpt>
   <trkpt lat="12.9082050" lon="99.6769960">
    <ele>96.4</ele>
    <time>2018-01-28T05:05:03Z</time>
   </trkpt>
   <trkpt lat="12.9081950" lon="99.6770270">
    <ele>96.5</ele>
    <time>2018-01-28T05:05:04Z</time>
   </trkpt>
   <trkpt lat="12.9081850" lon="99.6770560">
    <ele>96.5</ele>
    <time>2018-01-28T05:05:05Z</time>
   </trkpt>
   <trkpt lat="12.9081750" lon="99.6770850">
    <ele>96.5</ele>
    <time>2018-01-28T05:05:06Z</time>
   </trkpt>
   <trkpt lat="12.9081660" lon="99.6771140">
    <ele>96.5</ele>
    <time>2018-01-28T05:05:07Z</time>
   </trkpt>
   <trkpt lat="12.9081570" lon="99.6771440">
    <ele>96.5</ele>
    <time>2018-01-28T05:05:08Z</time>
   </trkpt>
   <trkpt lat="12.9081480" lon="99.6771750">
    <ele>96.5</ele>
    <time>2018-01-28T05:05:09Z</time>
   </trkpt>
   <trkpt lat="12.9081380" lon="99.6772060">
    <ele>96.5</ele>
    <time>2018-01-28T05:05:10Z</time>
   </trkpt>
   <trkpt lat="12.9081260" lon="99.6772360">
    <ele>96.4</ele>
    <time>2018-01-28T05:05:11Z</time>
   </trkpt>
   <trkpt lat="12.9081160" lon="99.6772670">
    <ele>96.4</ele>
    <time>2018-01-28T05:05:12Z</time>
   </trkpt>
   <trkpt lat="12.9081060" lon="99.6772990">
    <ele>96.4</ele>
    <time>2018-01-28T05:05:13Z</time>
   </trkpt>
   <trkpt lat="12.9080960" lon="99.6773320">
    <ele>96.4</ele>
    <time>2018-01-28T05:05:14Z</time>
   </trkpt>
   <trkpt lat="12.9080890" lon="99.6773640">
    <ele>96.4</ele>
    <time>2018-01-28T05:05:15Z</time>
   </trkpt>
   <trkpt lat="12.9080820" lon="99.6773960">
    <ele>96.3</ele>
    <time>2018-01-28T05:05:16Z</time>
   </trkpt>
   <trkpt lat="12.9080770" lon="99.6774250">
    <ele>96.3</ele>
    <time>2018-01-28T05:05:17Z</time>
   </trkpt>
   <trkpt lat="12.9080710" lon="99.6774820">
    <ele>96.3</ele>
    <time>2018-01-28T05:05:21Z</time>
   </trkpt>
   <trkpt lat="12.9080640" lon="99.6775170">
    <ele>96.3</ele>
    <time>2018-01-28T05:05:22Z</time>
   </trkpt>
   <trkpt lat="12.9080570" lon="99.6775460">
    <ele>96.3</ele>
    <time>2018-01-28T05:05:23Z</time>
   </trkpt>
   <trkpt lat="12.9080280" lon="99.6776370">
    <ele>96.3</ele>
    <time>2018-01-28T05:05:24Z</time>
   </trkpt>
   <trkpt lat="12.9080230" lon="99.6776670">
    <ele>96.4</ele>
    <time>2018-01-28T05:05:25Z</time>
   </trkpt>
   <trkpt lat="12.9080210" lon="99.6777030">
    <ele>96.4</ele>
    <time>2018-01-28T05:05:26Z</time>
   </trkpt>
   <trkpt lat="12.9080200" lon="99.6777390">
    <ele>96.4</ele>
    <time>2018-01-28T05:05:27Z</time>
   </trkpt>
   <trkpt lat="12.9080190" lon="99.6777690">
    <ele>96.5</ele>
    <time>2018-01-28T05:05:28Z</time>
   </trkpt>
   <trkpt lat="12.9080160" lon="99.6778050">
    <ele>96.5</ele>
    <time>2018-01-28T05:05:29Z</time>
   </trkpt>
   <trkpt lat="12.9080120" lon="99.6778400">
    <ele>96.6</ele>
    <time>2018-01-28T05:05:30Z</time>
   </trkpt>
   <trkpt lat="12.9080080" lon="99.6779100">
    <ele>96.7</ele>
    <time>2018-01-28T05:05:32Z</time>
   </trkpt>
   <trkpt lat="12.9080130" lon="99.6779430">
    <ele>96.8</ele>
    <time>2018-01-28T05:05:33Z</time>
   </trkpt>
   <trkpt lat="12.9080090" lon="99.6779740">
    <ele>96.9</ele>
    <time>2018-01-28T05:05:34Z</time>
   </trkpt>
   <trkpt lat="12.9080100" lon="99.6780070">
    <ele>97.0</ele>
    <time>2018-01-28T05:05:35Z</time>
   </trkpt>
   <trkpt lat="12.9080090" lon="99.6780400">
    <ele>97.1</ele>
    <time>2018-01-28T05:05:36Z</time>
   </trkpt>
   <trkpt lat="12.9080050" lon="99.6780730">
    <ele>97.1</ele>
    <time>2018-01-28T05:05:37Z</time>
   </trkpt>
   <trkpt lat="12.9080010" lon="99.6781070">
    <ele>97.2</ele>
    <time>2018-01-28T05:05:38Z</time>
   </trkpt>
   <trkpt lat="12.9079960" lon="99.6781400">
    <ele>97.3</ele>
    <time>2018-01-28T05:05:39Z</time>
   </trkpt>
   <trkpt lat="12.9079920" lon="99.6781740">
    <ele>97.4</ele>
    <time>2018-01-28T05:05:40Z</time>
   </trkpt>
   <trkpt lat="12.9079870" lon="99.6782090">
    <ele>97.5</ele>
    <time>2018-01-28T05:05:41Z</time>
   </trkpt>
   <trkpt lat="12.9079820" lon="99.6782410">
    <ele>97.6</ele>
    <time>2018-01-28T05:05:42Z</time>
   </trkpt>
   <trkpt lat="12.9079780" lon="99.6782760">
    <ele>97.7</ele>
    <time>2018-01-28T05:05:43Z</time>
   </trkpt>
   <trkpt lat="12.9079750" lon="99.6783070">
    <ele>97.7</ele>
    <time>2018-01-28T05:05:44Z</time>
   </trkpt>
   <trkpt lat="12.9079720" lon="99.6783360">
    <ele>97.8</ele>
    <time>2018-01-28T05:05:45Z</time>
   </trkpt>
   <trkpt lat="12.9079690" lon="99.6783650">
    <ele>97.9</ele>
    <time>2018-01-28T05:05:46Z</time>
   </trkpt>
   <trkpt lat="12.9079660" lon="99.6783960">
    <ele>98.0</ele>
    <time>2018-01-28T05:05:47Z</time>
   </trkpt>
   <trkpt lat="12.9079630" lon="99.6784300">
    <ele>98.0</ele>
    <time>2018-01-28T05:05:48Z</time>
   </trkpt>
   <trkpt lat="12.9079590" lon="99.6784630">
    <ele>98.1</ele>
    <time>2018-01-28T05:05:49Z</time>
   </trkpt>
   <trkpt lat="12.9079560" lon="99.6784970">
    <ele>98.2</ele>
    <time>2018-01-28T05:05:50Z</time>
   </trkpt>
   <trkpt lat="12.9079530" lon="99.6785300">
    <ele>98.3</ele>
    <time>2018-01-28T05:05:51Z</time>
   </trkpt>
   <trkpt lat="12.9079530" lon="99.6785630">
    <ele>98.4</ele>
    <time>2018-01-28T05:05:52Z</time>
   </trkpt>
   <trkpt lat="12.9079520" lon="99.6785950">
    <ele>98.5</ele>
    <time>2018-01-28T05:05:53Z</time>
   </trkpt>
   <trkpt lat="12.9079500" lon="99.6786280">
    <ele>98.6</ele>
    <time>2018-01-28T05:05:54Z</time>
   </trkpt>
   <trkpt lat="12.9079490" lon="99.6786630">
    <ele>98.6</ele>
    <time>2018-01-28T05:05:55Z</time>
   </trkpt>
   <trkpt lat="12.9079450" lon="99.6786990">
    <ele>98.7</ele>
    <time>2018-01-28T05:05:56Z</time>
   </trkpt>
   <trkpt lat="12.9079410" lon="99.6787370">
    <ele>98.8</ele>
    <time>2018-01-28T05:05:57Z</time>
   </trkpt>
   <trkpt lat="12.9079370" lon="99.6787740">
    <ele>98.9</ele>
    <time>2018-01-28T05:05:58Z</time>
   </trkpt>
   <trkpt lat="12.9079320" lon="99.6788090">
    <ele>99.0</ele>
    <time>2018-01-28T05:06:00Z</time>
   </trkpt>
   <trkpt lat="12.9079290" lon="99.6788730">
    <ele>99.1</ele>
    <time>2018-01-28T05:06:02Z</time>
   </trkpt>
   <trkpt lat="12.9079310" lon="99.6789120">
    <ele>99.2</ele>
    <time>2018-01-28T05:06:03Z</time>
   </trkpt>
   <trkpt lat="12.9079290" lon="99.6789980">
    <ele>99.4</ele>
    <time>2018-01-28T05:06:04Z</time>
   </trkpt>
   <trkpt lat="12.9079310" lon="99.6790300">
    <ele>99.4</ele>
    <time>2018-01-28T05:06:05Z</time>
   </trkpt>
   <trkpt lat="12.9079360" lon="99.6790640">
    <ele>99.5</ele>
    <time>2018-01-28T05:06:06Z</time>
   </trkpt>
   <trkpt lat="12.9079380" lon="99.6791020">
    <ele>99.6</ele>
    <time>2018-01-28T05:06:07Z</time>
   </trkpt>
   <trkpt lat="12.9079440" lon="99.6791370">
    <ele>99.7</ele>
    <time>2018-01-28T05:06:08Z</time>
   </trkpt>
   <trkpt lat="12.9079490" lon="99.6791730">
    <ele>99.8</ele>
    <time>2018-01-28T05:06:09Z</time>
   </trkpt>
   <trkpt lat="12.9079540" lon="99.6792090">
    <ele>99.9</ele>
    <time>2018-01-28T05:06:10Z</time>
   </trkpt>
   <trkpt lat="12.9079640" lon="99.6792390">
    <ele>100.0</ele>
    <time>2018-01-28T05:06:11Z</time>
   </trkpt>
   <trkpt lat="12.9079750" lon="99.6792780">
    <ele>100.1</ele>
    <time>2018-01-28T05:06:12Z</time>
   </trkpt>
   <trkpt lat="12.9079780" lon="99.6793080">
    <ele>100.2</ele>
    <time>2018-01-28T05:06:13Z</time>
   </trkpt>
   <trkpt lat="12.9079890" lon="99.6793430">
    <ele>100.3</ele>
    <time>2018-01-28T05:06:14Z</time>
   </trkpt>
   <trkpt lat="12.9079990" lon="99.6793770">
    <ele>100.4</ele>
    <time>2018-01-28T05:06:15Z</time>
   </trkpt>
   <trkpt lat="12.9080100" lon="99.6794060">
    <ele>100.4</ele>
    <time>2018-01-28T05:06:16Z</time>
   </trkpt>
   <trkpt lat="12.9080280" lon="99.6794540">
    <ele>100.6</ele>
    <time>2018-01-28T05:06:18Z</time>
   </trkpt>
   <trkpt lat="12.9080380" lon="99.6794820">
    <ele>100.7</ele>
    <time>2018-01-28T05:06:19Z</time>
   </trkpt>
   <trkpt lat="12.9080470" lon="99.6795100">
    <ele>100.7</ele>
    <time>2018-01-28T05:06:20Z</time>
   </trkpt>
   <trkpt lat="12.9080560" lon="99.6795370">
    <ele>100.8</ele>
    <time>2018-01-28T05:06:21Z</time>
   </trkpt>
   <trkpt lat="12.9080750" lon="99.6796060">
    <ele>101.2</ele>
    <time>2018-01-28T05:06:22Z</time>
   </trkpt>
   <trkpt lat="12.9080850" lon="99.6796380">
    <ele>101.5</ele>
    <time>2018-01-28T05:06:23Z</time>
   </trkpt>
   <trkpt lat="12.9080990" lon="99.6796690">
    <ele>101.9</ele>
    <time>2018-01-28T05:06:24Z</time>
   </trkpt>
   <trkpt lat="12.9081110" lon="99.6797010">
    <ele>102.2</ele>
    <time>2018-01-28T05:06:25Z</time>
   </trkpt>
   <trkpt lat="12.9081230" lon="99.6797330">
    <ele>102.6</ele>
    <time>2018-01-28T05:06:26Z</time>
   </trkpt>
   <trkpt lat="12.9081360" lon="99.6797600">
    <ele>102.9</ele>
    <time>2018-01-28T05:06:27Z</time>
   </trkpt>
   <trkpt lat="12.9081450" lon="99.6797870">
    <ele>103.1</ele>
    <time>2018-01-28T05:06:28Z</time>
   </trkpt>
   <trkpt lat="12.9081600" lon="99.6798170">
    <ele>103.4</ele>
    <time>2018-01-28T05:06:29Z</time>
   </trkpt>
   <trkpt lat="12.9081730" lon="99.6798410">
    <ele>103.7</ele>
    <time>2018-01-28T05:06:30Z</time>
   </trkpt>
   <trkpt lat="12.9081880" lon="99.6798720">
    <ele>104.0</ele>
    <time>2018-01-28T05:06:31Z</time>
   </trkpt>
   <trkpt lat="12.9081920" lon="99.6799030">
    <ele>104.3</ele>
    <time>2018-01-28T05:06:32Z</time>
   </trkpt>
   <trkpt lat="12.9082000" lon="99.6799300">
    <ele>104.5</ele>
    <time>2018-01-28T05:06:33Z</time>
   </trkpt>
   <trkpt lat="12.9082120" lon="99.6799560">
    <ele>104.8</ele>
    <time>2018-01-28T05:06:34Z</time>
   </trkpt>
   <trkpt lat="12.9082340" lon="99.6800090">
    <ele>105.3</ele>
    <time>2018-01-28T05:06:36Z</time>
   </trkpt>
   <trkpt lat="12.9082530" lon="99.6800520">
    <ele>105.7</ele>
    <time>2018-01-28T05:06:38Z</time>
   </trkpt>
   <trkpt lat="12.9082740" lon="99.6800960">
    <ele>106.0</ele>
    <time>2018-01-28T05:06:40Z</time>
   </trkpt>
   <trkpt lat="12.9083070" lon="99.6801700">
    <ele>106.6</ele>
    <time>2018-01-28T05:06:42Z</time>
   </trkpt>
   <trkpt lat="12.9083210" lon="99.6801960">
    <ele>106.8</ele>
    <time>2018-01-28T05:06:43Z</time>
   </trkpt>
   <trkpt lat="12.9083430" lon="99.6802450">
    <ele>107.2</ele>
    <time>2018-01-28T05:06:45Z</time>
   </trkpt>
   <trkpt lat="12.9083680" lon="99.6802960">
    <ele>107.6</ele>
    <time>2018-01-28T05:06:47Z</time>
   </trkpt>
   <trkpt lat="12.9083840" lon="99.6803270">
    <ele>107.8</ele>
    <time>2018-01-28T05:06:48Z</time>
   </trkpt>
   <trkpt lat="12.9084020" lon="99.6803550">
    <ele>108.0</ele>
    <time>2018-01-28T05:06:49Z</time>
   </trkpt>
   <trkpt lat="12.9084110" lon="99.6803830">
    <ele>108.2</ele>
    <time>2018-01-28T05:06:50Z</time>
   </trkpt>
   <trkpt lat="12.9084260" lon="99.6804130">
    <ele>108.4</ele>
    <time>2018-01-28T05:06:51Z</time>
   </trkpt>
   <trkpt lat="12.9084420" lon="99.6804390">
    <ele>108.6</ele>
    <time>2018-01-28T05:06:52Z</time>
   </trkpt>
   <trkpt lat="12.9084580" lon="99.6804630">
    <ele>108.8</ele>
    <time>2018-01-28T05:06:53Z</time>
   </trkpt>
   <trkpt lat="12.9084730" lon="99.6804880">
    <ele>108.9</ele>
    <time>2018-01-28T05:06:54Z</time>
   </trkpt>
   <trkpt lat="12.9085000" lon="99.6805270">
    <ele>109.2</ele>
    <time>2018-01-28T05:06:55Z</time>
   </trkpt>
   <trkpt lat="12.9085240" lon="99.6805610">
    <ele>109.5</ele>
    <time>2018-01-28T05:06:56Z</time>
   </trkpt>
   <trkpt lat="12.9085460" lon="99.6806000">
    <ele>109.8</ele>
    <time>2018-01-28T05:06:58Z</time>
   </trkpt>
   <trkpt lat="12.9085640" lon="99.6806790">
    <ele>110.3</ele>
    <time>2018-01-28T05:07:00Z</time>
   </trkpt>
   <trkpt lat="12.9085800" lon="99.6807080">
    <ele>110.5</ele>
    <time>2018-01-28T05:07:01Z</time>
   </trkpt>
   <trkpt lat="12.9085940" lon="99.6807370">
    <ele>110.7</ele>
    <time>2018-01-28T05:07:02Z</time>
   </trkpt>
   <trkpt lat="12.9086120" lon="99.6807710">
    <ele>110.9</ele>
    <time>2018-01-28T05:07:03Z</time>
   </trkpt>
   <trkpt lat="12.9086300" lon="99.6808000">
    <ele>111.2</ele>
    <time>2018-01-28T05:07:04Z</time>
   </trkpt>
   <trkpt lat="12.9086420" lon="99.6808250">
    <ele>111.3</ele>
    <time>2018-01-28T05:07:05Z</time>
   </trkpt>
   <trkpt lat="12.9086530" lon="99.6808600">
    <ele>111.6</ele>
    <time>2018-01-28T05:07:06Z</time>
   </trkpt>
   <trkpt lat="12.9086790" lon="99.6808820">
    <ele>111.8</ele>
    <time>2018-01-28T05:07:07Z</time>
   </trkpt>
   <trkpt lat="12.9086920" lon="99.6809210">
    <ele>112.0</ele>
    <time>2018-01-28T05:07:08Z</time>
   </trkpt>
   <trkpt lat="12.9087080" lon="99.6809520">
    <ele>112.3</ele>
    <time>2018-01-28T05:07:09Z</time>
   </trkpt>
   <trkpt lat="12.9087260" lon="99.6809790">
    <ele>112.5</ele>
    <time>2018-01-28T05:07:10Z</time>
   </trkpt>
   <trkpt lat="12.9087430" lon="99.6810090">
    <ele>112.7</ele>
    <time>2018-01-28T05:07:11Z</time>
   </trkpt>
   <trkpt lat="12.9087560" lon="99.6810410">
    <ele>112.9</ele>
    <time>2018-01-28T05:07:12Z</time>
   </trkpt>
   <trkpt lat="12.9087700" lon="99.6810700">
    <ele>113.2</ele>
    <time>2018-01-28T05:07:13Z</time>
   </trkpt>
   <trkpt lat="12.9087880" lon="99.6811160">
    <ele>113.5</ele>
    <time>2018-01-28T05:07:15Z</time>
   </trkpt>
   <trkpt lat="12.9088020" lon="99.6811510">
    <ele>113.8</ele>
    <time>2018-01-28T05:07:16Z</time>
   </trkpt>
   <trkpt lat="12.9088140" lon="99.6811810">
    <ele>114.0</ele>
    <time>2018-01-28T05:07:17Z</time>
   </trkpt>
   <trkpt lat="12.9088260" lon="99.6812080">
    <ele>114.0</ele>
    <time>2018-01-28T05:07:18Z</time>
   </trkpt>
   <trkpt lat="12.9088440" lon="99.6812500">
    <ele>114.0</ele>
    <time>2018-01-28T05:07:20Z</time>
   </trkpt>
   <trkpt lat="12.9088380" lon="99.6812920">
    <ele>114.0</ele>
    <time>2018-01-28T05:07:46Z</time>
   </trkpt>
   <trkpt lat="12.9088180" lon="99.6813300">
    <ele>113.9</ele>
    <time>2018-01-28T05:07:48Z</time>
   </trkpt>
   <trkpt lat="12.9088000" lon="99.6813580">
    <ele>113.9</ele>
    <time>2018-01-28T05:07:49Z</time>
   </trkpt>
   <trkpt lat="12.9087790" lon="99.6813940">
    <ele>113.9</ele>
    <time>2018-01-28T05:07:50Z</time>
   </trkpt>
   <trkpt lat="12.9087530" lon="99.6814350">
    <ele>113.9</ele>
    <time>2018-01-28T05:07:51Z</time>
   </trkpt>
   <trkpt lat="12.9087240" lon="99.6814680">
    <ele>113.9</ele>
    <time>2018-01-28T05:07:52Z</time>
   </trkpt>
   <trkpt lat="12.9086920" lon="99.6814900">
    <ele>113.9</ele>
    <time>2018-01-28T05:07:53Z</time>
   </trkpt>
   <trkpt lat="12.9086890" lon="99.6814550">
    <ele>113.8</ele>
    <time>2018-01-28T05:07:54Z</time>
   </trkpt>
   <trkpt lat="12.9085970" lon="99.6815290">
    <ele>113.8</ele>
    <time>2018-01-28T05:07:55Z</time>
   </trkpt>
   <trkpt lat="12.9085580" lon="99.6815520">
    <ele>113.8</ele>
    <time>2018-01-28T05:07:56Z</time>
   </trkpt>
   <trkpt lat="12.9085210" lon="99.6815740">
    <ele>113.7</ele>
    <time>2018-01-28T05:07:57Z</time>
   </trkpt>
   <trkpt lat="12.9084810" lon="99.6815890">
    <ele>113.7</ele>
    <time>2018-01-28T05:07:58Z</time>
   </trkpt>
   <trkpt lat="12.9084440" lon="99.6816080">
    <ele>113.7</ele>
    <time>2018-01-28T05:07:59Z</time>
   </trkpt>
   <trkpt lat="12.9084010" lon="99.6816120">
    <ele>113.7</ele>
    <time>2018-01-28T05:08:00Z</time>
   </trkpt>
   <trkpt lat="12.9083590" lon="99.6816320">
    <ele>113.7</ele>
    <time>2018-01-28T05:08:01Z</time>
   </trkpt>
   <trkpt lat="12.9083180" lon="99.6816500">
    <ele>113.6</ele>
    <time>2018-01-28T05:08:02Z</time>
   </trkpt>
   <trkpt lat="12.9082830" lon="99.6816730">
    <ele>113.6</ele>
    <time>2018-01-28T05:08:03Z</time>
   </trkpt>
   <trkpt lat="12.9082480" lon="99.6816970">
    <ele>113.6</ele>
    <time>2018-01-28T05:08:04Z</time>
   </trkpt>
   <trkpt lat="12.9082090" lon="99.6817260">
    <ele>113.5</ele>
    <time>2018-01-28T05:08:05Z</time>
   </trkpt>
   <trkpt lat="12.9081660" lon="99.6817590">
    <ele>113.5</ele>
    <time>2018-01-28T05:08:06Z</time>
   </trkpt>
   <trkpt lat="12.9081240" lon="99.6817900">
    <ele>113.4</ele>
    <time>2018-01-28T05:08:07Z</time>
   </trkpt>
   <trkpt lat="12.9080780" lon="99.6818300">
    <ele>113.4</ele>
    <time>2018-01-28T05:08:08Z</time>
   </trkpt>
   <trkpt lat="12.9080350" lon="99.6818740">
    <ele>113.3</ele>
    <time>2018-01-28T05:08:09Z</time>
   </trkpt>
   <trkpt lat="12.9079920" lon="99.6819240">
    <ele>113.3</ele>
    <time>2018-01-28T05:08:10Z</time>
   </trkpt>
   <trkpt lat="12.9079500" lon="99.6819760">
    <ele>113.2</ele>
    <time>2018-01-28T05:08:11Z</time>
   </trkpt>
   <trkpt lat="12.9079120" lon="99.6820300">
    <ele>113.2</ele>
    <time>2018-01-28T05:08:12Z</time>
   </trkpt>
   <trkpt lat="12.9078790" lon="99.6820940">
    <ele>113.1</ele>
    <time>2018-01-28T05:08:13Z</time>
   </trkpt>
   <trkpt lat="12.9078450" lon="99.6821570">
    <ele>113.0</ele>
    <time>2018-01-28T05:08:14Z</time>
   </trkpt>
   <trkpt lat="12.9078210" lon="99.6822280">
    <ele>112.9</ele>
    <time>2018-01-28T05:08:15Z</time>
   </trkpt>
   <trkpt lat="12.9077960" lon="99.6822960">
    <ele>112.9</ele>
    <time>2018-01-28T05:08:16Z</time>
   </trkpt>
   <trkpt lat="12.9077810" lon="99.6823760">
    <ele>112.8</ele>
    <time>2018-01-28T05:08:17Z</time>
   </trkpt>
   <trkpt lat="12.9077520" lon="99.6824630">
    <ele>112.6</ele>
    <time>2018-01-28T05:08:18Z</time>
   </trkpt>
   <trkpt lat="12.9077280" lon="99.6825470">
    <ele>112.5</ele>
    <time>2018-01-28T05:08:19Z</time>
   </trkpt>
   <trkpt lat="12.9077000" lon="99.6826330">
    <ele>112.3</ele>
    <time>2018-01-28T05:08:20Z</time>
   </trkpt>
   <trkpt lat="12.9076730" lon="99.6827200">
    <ele>111.9</ele>
    <time>2018-01-28T05:08:21Z</time>
   </trkpt>
   <trkpt lat="12.9076270" lon="99.6828140">
    <ele>111.7</ele>
    <time>2018-01-28T05:08:22Z</time>
   </trkpt>
   <trkpt lat="12.9075860" lon="99.6829080">
    <ele>111.4</ele>
    <time>2018-01-28T05:08:23Z</time>
   </trkpt>
   <trkpt lat="12.9075410" lon="99.6829990">
    <ele>111.1</ele>
    <time>2018-01-28T05:08:24Z</time>
   </trkpt>
   <trkpt lat="12.9074820" lon="99.6830820">
    <ele>110.8</ele>
    <time>2018-01-28T05:08:25Z</time>
   </trkpt>
   <trkpt lat="12.9074240" lon="99.6831620">
    <ele>110.3</ele>
    <time>2018-01-28T05:08:26Z</time>
   </trkpt>
   <trkpt lat="12.9073520" lon="99.6832410">
    <ele>109.8</ele>
    <time>2018-01-28T05:08:27Z</time>
   </trkpt>
   <trkpt lat="12.9072900" lon="99.6833060">
    <ele>109.3</ele>
    <time>2018-01-28T05:08:28Z</time>
   </trkpt>
   <trkpt lat="12.9072300" lon="99.6833650">
    <ele>108.8</ele>
    <time>2018-01-28T05:08:29Z</time>
   </trkpt>
   <trkpt lat="12.9071590" lon="99.6834280">
    <ele>108.3</ele>
    <time>2018-01-28T05:08:30Z</time>
   </trkpt>
   <trkpt lat="12.9070900" lon="99.6834890">
    <ele>108.0</ele>
    <time>2018-01-28T05:08:31Z</time>
   </trkpt>
   <trkpt lat="12.9070260" lon="99.6835380">
    <ele>107.7</ele>
    <time>2018-01-28T05:08:32Z</time>
   </trkpt>
   <trkpt lat="12.9069540" lon="99.6835840">
    <ele>107.4</ele>
    <time>2018-01-28T05:08:33Z</time>
   </trkpt>
   <trkpt lat="12.9068860" lon="99.6836190">
    <ele>107.1</ele>
    <time>2018-01-28T05:08:34Z</time>
   </trkpt>
   <trkpt lat="12.9068270" lon="99.6836580">
    <ele>106.9</ele>
    <time>2018-01-28T05:08:35Z</time>
   </trkpt>
   <trkpt lat="12.9067460" lon="99.6836890">
    <ele>106.6</ele>
    <time>2018-01-28T05:08:36Z</time>
   </trkpt>
   <trkpt lat="12.9066690" lon="99.6837190">
    <ele>106.3</ele>
    <time>2018-01-28T05:08:37Z</time>
   </trkpt>
   <trkpt lat="12.9066030" lon="99.6837410">
    <ele>106.1</ele>
    <time>2018-01-28T05:08:38Z</time>
   </trkpt>
   <trkpt lat="12.9065280" lon="99.6837680">
    <ele>105.8</ele>
    <time>2018-01-28T05:08:39Z</time>
   </trkpt>
   <trkpt lat="12.9064600" lon="99.6837860">
    <ele>105.6</ele>
    <time>2018-01-28T05:08:40Z</time>
   </trkpt>
   <trkpt lat="12.9063890" lon="99.6837970">
    <ele>105.4</ele>
    <time>2018-01-28T05:08:41Z</time>
   </trkpt>
   <trkpt lat="12.9063250" lon="99.6838040">
    <ele>105.2</ele>
    <time>2018-01-28T05:08:42Z</time>
   </trkpt>
   <trkpt lat="12.9062540" lon="99.6838070">
    <ele>104.8</ele>
    <time>2018-01-28T05:08:43Z</time>
   </trkpt>
   <trkpt lat="12.9061850" lon="99.6838070">
    <ele>104.6</ele>
    <time>2018-01-28T05:08:44Z</time>
   </trkpt>
   <trkpt lat="12.9061190" lon="99.6838030">
    <ele>104.4</ele>
    <time>2018-01-28T05:08:45Z</time>
   </trkpt>
   <trkpt lat="12.9060520" lon="99.6838010">
    <ele>104.2</ele>
    <time>2018-01-28T05:08:46Z</time>
   </trkpt>
   <trkpt lat="12.9059860" lon="99.6837950">
    <ele>104.1</ele>
    <time>2018-01-28T05:08:47Z</time>
   </trkpt>
   <trkpt lat="12.9059230" lon="99.6837810">
    <ele>103.9</ele>
    <time>2018-01-28T05:08:48Z</time>
   </trkpt>
   <trkpt lat="12.9058620" lon="99.6837700">
    <ele>103.7</ele>
    <time>2018-01-28T05:08:49Z</time>
   </trkpt>
   <trkpt lat="12.9057970" lon="99.6837550">
    <ele>103.4</ele>
    <time>2018-01-28T05:08:50Z</time>
   </trkpt>
   <trkpt lat="12.9057320" lon="99.6837320">
    <ele>103.2</ele>
    <time>2018-01-28T05:08:51Z</time>
   </trkpt>
   <trkpt lat="12.9056680" lon="99.6837110">
    <ele>103.0</ele>
    <time>2018-01-28T05:08:52Z</time>
   </trkpt>
   <trkpt lat="12.9056040" lon="99.6836860">
    <ele>102.8</ele>
    <time>2018-01-28T05:08:53Z</time>
   </trkpt>
   <trkpt lat="12.9055410" lon="99.6836590">
    <ele>102.6</ele>
    <time>2018-01-28T05:08:54Z</time>
   </trkpt>
   <trkpt lat="12.9054810" lon="99.6836340">
    <ele>102.5</ele>
    <time>2018-01-28T05:08:55Z</time>
   </trkpt>
   <trkpt lat="12.9054210" lon="99.6836040">
    <ele>102.4</ele>
    <time>2018-01-28T05:08:56Z</time>
   </trkpt>
   <trkpt lat="12.9053610" lon="99.6835730">
    <ele>102.3</ele>
    <time>2018-01-28T05:08:57Z</time>
   </trkpt>
   <trkpt lat="12.9053050" lon="99.6835400">
    <ele>102.3</ele>
    <time>2018-01-28T05:08:58Z</time>
   </trkpt>
   <trkpt lat="12.9052440" lon="99.6835060">
    <ele>102.2</ele>
    <time>2018-01-28T05:08:59Z</time>
   </trkpt>
   <trkpt lat="12.9051960" lon="99.6834680">
    <ele>102.1</ele>
    <time>2018-01-28T05:09:00Z</time>
   </trkpt>
   <trkpt lat="12.9051550" lon="99.6834360">
    <ele>102.0</ele>
    <time>2018-01-28T05:09:01Z</time>
   </trkpt>
   <trkpt lat="12.9051030" lon="99.6834100">
    <ele>102.0</ele>
    <time>2018-01-28T05:09:02Z</time>
   </trkpt>
   <trkpt lat="12.9050500" lon="99.6833880">
    <ele>101.9</ele>
    <time>2018-01-28T05:09:03Z</time>
   </trkpt>
   <trkpt lat="12.9050010" lon="99.6833720">
    <ele>101.8</ele>
    <time>2018-01-28T05:09:04Z</time>
   </trkpt>
   <trkpt lat="12.9049500" lon="99.6833340">
    <ele>101.7</ele>
    <time>2018-01-28T05:09:05Z</time>
   </trkpt>
   <trkpt lat="12.9049000" lon="99.6833000">
    <ele>101.6</ele>
    <time>2018-01-28T05:09:06Z</time>
   </trkpt>
   <trkpt lat="12.9048510" lon="99.6832660">
    <ele>101.5</ele>
    <time>2018-01-28T05:09:07Z</time>
   </trkpt>
   <trkpt lat="12.9048040" lon="99.6832410">
    <ele>101.4</ele>
    <time>2018-01-28T05:09:08Z</time>
   </trkpt>
   <trkpt lat="12.9047500" lon="99.6832130">
    <ele>101.4</ele>
    <time>2018-01-28T05:09:09Z</time>
   </trkpt>
   <trkpt lat="12.9046940" lon="99.6831880">
    <ele>101.3</ele>
    <time>2018-01-28T05:09:10Z</time>
   </trkpt>
   <trkpt lat="12.9046410" lon="99.6831770">
    <ele>101.3</ele>
    <time>2018-01-28T05:09:11Z</time>
   </trkpt>
   <trkpt lat="12.9045890" lon="99.6831640">
    <ele>101.2</ele>
    <time>2018-01-28T05:09:12Z</time>
   </trkpt>
   <trkpt lat="12.9045340" lon="99.6831440">
    <ele>101.1</ele>
    <time>2018-01-28T05:09:13Z</time>
   </trkpt>
   <trkpt lat="12.9044840" lon="99.6831260">
    <ele>101.1</ele>
    <time>2018-01-28T05:09:14Z</time>
   </trkpt>
   <trkpt lat="12.9044280" lon="99.6831120">
    <ele>101.0</ele>
    <time>2018-01-28T05:09:15Z</time>
   </trkpt>
   <trkpt lat="12.9043730" lon="99.6830940">
    <ele>101.0</ele>
    <time>2018-01-28T05:09:16Z</time>
   </trkpt>
   <trkpt lat="12.9043210" lon="99.6830850">
    <ele>100.9</ele>
    <time>2018-01-28T05:09:17Z</time>
   </trkpt>
   <trkpt lat="12.9042690" lon="99.6830770">
    <ele>100.8</ele>
    <time>2018-01-28T05:09:18Z</time>
   </trkpt>
   <trkpt lat="12.9042070" lon="99.6830670">
    <ele>100.8</ele>
    <time>2018-01-28T05:09:19Z</time>
   </trkpt>
   <trkpt lat="12.9041520" lon="99.6830720">
    <ele>100.7</ele>
    <time>2018-01-28T05:09:20Z</time>
   </trkpt>
   <trkpt lat="12.9040890" lon="99.6830810">
    <ele>100.7</ele>
    <time>2018-01-28T05:09:21Z</time>
   </trkpt>
   <trkpt lat="12.9040330" lon="99.6830840">
    <ele>100.6</ele>
    <time>2018-01-28T05:09:22Z</time>
   </trkpt>
   <trkpt lat="12.9039730" lon="99.6830820">
    <ele>100.6</ele>
    <time>2018-01-28T05:09:23Z</time>
   </trkpt>
   <trkpt lat="12.9039120" lon="99.6830870">
    <ele>100.5</ele>
    <time>2018-01-28T05:09:24Z</time>
   </trkpt>
   <trkpt lat="12.9038410" lon="99.6830860">
    <ele>100.5</ele>
    <time>2018-01-28T05:09:25Z</time>
   </trkpt>
   <trkpt lat="12.9037830" lon="99.6830870">
    <ele>100.4</ele>
    <time>2018-01-28T05:09:26Z</time>
   </trkpt>
   <trkpt lat="12.9037200" lon="99.6830920">
    <ele>100.4</ele>
    <time>2018-01-28T05:09:27Z</time>
   </trkpt>
   <trkpt lat="12.9036660" lon="99.6831020">
    <ele>100.4</ele>
    <time>2018-01-28T05:09:28Z</time>
   </trkpt>
   <trkpt lat="12.9036030" lon="99.6831090">
    <ele>100.3</ele>
    <time>2018-01-28T05:09:29Z</time>
   </trkpt>
   <trkpt lat="12.9035390" lon="99.6831140">
    <ele>100.3</ele>
    <time>2018-01-28T05:09:30Z</time>
   </trkpt>
   <trkpt lat="12.9034810" lon="99.6831100">
    <ele>100.3</ele>
    <time>2018-01-28T05:09:31Z</time>
   </trkpt>
   <trkpt lat="12.9034180" lon="99.6831110">
    <ele>100.2</ele>
    <time>2018-01-28T05:09:32Z</time>
   </trkpt>
   <trkpt lat="12.9033580" lon="99.6831170">
    <ele>100.2</ele>
    <time>2018-01-28T05:09:33Z</time>
   </trkpt>
   <trkpt lat="12.9032930" lon="99.6831300">
    <ele>100.2</ele>
    <time>2018-01-28T05:09:34Z</time>
   </trkpt>
   <trkpt lat="12.9032300" lon="99.6831350">
    <ele>100.1</ele>
    <time>2018-01-28T05:09:35Z</time>
   </trkpt>
   <trkpt lat="12.9031670" lon="99.6831360">
    <ele>100.1</ele>
    <time>2018-01-28T05:09:36Z</time>
   </trkpt>
   <trkpt lat="12.9031040" lon="99.6831360">
    <ele>100.1</ele>
    <time>2018-01-28T05:09:37Z</time>
   </trkpt>
   <trkpt lat="12.9030400" lon="99.6831330">
    <ele>100.0</ele>
    <time>2018-01-28T05:09:38Z</time>
   </trkpt>
   <trkpt lat="12.9029820" lon="99.6831360">
    <ele>100.0</ele>
    <time>2018-01-28T05:09:39Z</time>
   </trkpt>
   <trkpt lat="12.9029240" lon="99.6831410">
    <ele>100.0</ele>
    <time>2018-01-28T05:09:40Z</time>
   </trkpt>
   <trkpt lat="12.9028650" lon="99.6831460">
    <ele>99.9</ele>
    <time>2018-01-28T05:09:41Z</time>
   </trkpt>
   <trkpt lat="12.9027970" lon="99.6831580">
    <ele>99.9</ele>
    <time>2018-01-28T05:09:42Z</time>
   </trkpt>
   <trkpt lat="12.9027420" lon="99.6831600">
    <ele>99.9</ele>
    <time>2018-01-28T05:09:43Z</time>
   </trkpt>
   <trkpt lat="12.9026830" lon="99.6831670">
    <ele>99.8</ele>
    <time>2018-01-28T05:09:44Z</time>
   </trkpt>
   <trkpt lat="12.9026160" lon="99.6831710">
    <ele>99.8</ele>
    <time>2018-01-28T05:09:45Z</time>
   </trkpt>
   <trkpt lat="12.9025630" lon="99.6831800">
    <ele>99.7</ele>
    <time>2018-01-28T05:09:46Z</time>
   </trkpt>
   <trkpt lat="12.9025110" lon="99.6831850">
    <ele>99.7</ele>
    <time>2018-01-28T05:09:47Z</time>
   </trkpt>
   <trkpt lat="12.9024510" lon="99.6831890">
    <ele>99.7</ele>
    <time>2018-01-28T05:09:48Z</time>
   </trkpt>
   <trkpt lat="12.9023980" lon="99.6831840">
    <ele>99.6</ele>
    <time>2018-01-28T05:09:49Z</time>
   </trkpt>
   <trkpt lat="12.9023400" lon="99.6831890">
    <ele>99.6</ele>
    <time>2018-01-28T05:09:50Z</time>
   </trkpt>
   <trkpt lat="12.9022850" lon="99.6831940">
    <ele>99.5</ele>
    <time>2018-01-28T05:09:51Z</time>
   </trkpt>
   <trkpt lat="12.9022170" lon="99.6832030">
    <ele>99.5</ele>
    <time>2018-01-28T05:09:52Z</time>
   </trkpt>
   <trkpt lat="12.9021550" lon="99.6832290">
    <ele>99.4</ele>
    <time>2018-01-28T05:09:53Z</time>
   </trkpt>
   <trkpt lat="12.9021020" lon="99.6832300">
    <ele>99.4</ele>
    <time>2018-01-28T05:09:54Z</time>
   </trkpt>
   <trkpt lat="12.9020420" lon="99.6832400">
    <ele>99.3</ele>
    <time>2018-01-28T05:09:55Z</time>
   </trkpt>
   <trkpt lat="12.9019830" lon="99.6832540">
    <ele>99.3</ele>
    <time>2018-01-28T05:09:56Z</time>
   </trkpt>
   <trkpt lat="12.9019260" lon="99.6832720">
    <ele>99.2</ele>
    <time>2018-01-28T05:09:57Z</time>
   </trkpt>
   <trkpt lat="12.9018730" lon="99.6832780">
    <ele>99.1</ele>
    <time>2018-01-28T05:09:58Z</time>
   </trkpt>
   <trkpt lat="12.9018230" lon="99.6832970">
    <ele>99.1</ele>
    <time>2018-01-28T05:09:59Z</time>
   </trkpt>
   <trkpt lat="12.9017600" lon="99.6833090">
    <ele>99.0</ele>
    <time>2018-01-28T05:10:00Z</time>
   </trkpt>
   <trkpt lat="12.9017060" lon="99.6833170">
    <ele>99.0</ele>
    <time>2018-01-28T05:10:01Z</time>
   </trkpt>
   <trkpt lat="12.9016420" lon="99.6833320">
    <ele>98.9</ele>
    <time>2018-01-28T05:10:02Z</time>
   </trkpt>
   <trkpt lat="12.9015810" lon="99.6833500">
    <ele>98.7</ele>
    <time>2018-01-28T05:10:03Z</time>
   </trkpt>
   <trkpt lat="12.9015180" lon="99.6833740">
    <ele>98.6</ele>
    <time>2018-01-28T05:10:04Z</time>
   </trkpt>
   <trkpt lat="12.9014570" lon="99.6833950">
    <ele>98.4</ele>
    <time>2018-01-28T05:10:05Z</time>
   </trkpt>
   <trkpt lat="12.9014040" lon="99.6834180">
    <ele>98.2</ele>
    <time>2018-01-28T05:10:06Z</time>
   </trkpt>
   <trkpt lat="12.9013460" lon="99.6834450">
    <ele>98.1</ele>
    <time>2018-01-28T05:10:07Z</time>
   </trkpt>
   <trkpt lat="12.9012810" lon="99.6834620">
    <ele>98.0</ele>
    <time>2018-01-28T05:10:08Z</time>
   </trkpt>
   <trkpt lat="12.9012260" lon="99.6834760">
    <ele>98.0</ele>
    <time>2018-01-28T05:10:09Z</time>
   </trkpt>
   <trkpt lat="12.9011840" lon="99.6834870">
    <ele>98.0</ele>
    <time>2018-01-28T05:10:10Z</time>
   </trkpt>
   <trkpt lat="12.9011380" lon="99.6834710">
    <ele>98.0</ele>
    <time>2018-01-28T05:10:11Z</time>
   </trkpt>
   <trkpt lat="12.9010710" lon="99.6834360">
    <ele>98.1</ele>
    <time>2018-01-28T05:10:12Z</time>
   </trkpt>
   <trkpt lat="12.9010490" lon="99.6833910">
    <ele>98.4</ele>
    <time>2018-01-28T05:10:13Z</time>
   </trkpt>
   <trkpt lat="12.9010360" lon="99.6833450">
    <ele>98.7</ele>
    <time>2018-01-28T05:10:14Z</time>
   </trkpt>
   <trkpt lat="12.9010150" lon="99.6832940">
    <ele>99.1</ele>
    <time>2018-01-28T05:10:15Z</time>
   </trkpt>
   <trkpt lat="12.9010000" lon="99.6832400">
    <ele>99.4</ele>
    <time>2018-01-28T05:10:16Z</time>
   </trkpt>
   <trkpt lat="12.9010000" lon="99.6831820">
    <ele>99.8</ele>
    <time>2018-01-28T05:10:17Z</time>
   </trkpt>
   <trkpt lat="12.9009850" lon="99.6831230">
    <ele>100.3</ele>
    <time>2018-01-28T05:10:18Z</time>
   </trkpt>
   <trkpt lat="12.9009650" lon="99.6830720">
    <ele>100.9</ele>
    <time>2018-01-28T05:10:19Z</time>
   </trkpt>
   <trkpt lat="12.9009440" lon="99.6830150">
    <ele>101.4</ele>
    <time>2018-01-28T05:10:20Z</time>
   </trkpt>
   <trkpt lat="12.9009190" lon="99.6829800">
    <ele>101.8</ele>
    <time>2018-01-28T05:10:21Z</time>
   </trkpt>
   <trkpt lat="12.9008920" lon="99.6829250">
    <ele>102.2</ele>
    <time>2018-01-28T05:10:22Z</time>
   </trkpt>
   <trkpt lat="12.9008720" lon="99.6828810">
    <ele>102.4</ele>
    <time>2018-01-28T05:10:23Z</time>
   </trkpt>
   <trkpt lat="12.9008500" lon="99.6828370">
    <ele>102.7</ele>
    <time>2018-01-28T05:10:24Z</time>
   </trkpt>
   <trkpt lat="12.9008350" lon="99.6827920">
    <ele>102.9</ele>
    <time>2018-01-28T05:10:25Z</time>
   </trkpt>
   <trkpt lat="12.9008190" lon="99.6827420">
    <ele>103.0</ele>
    <time>2018-01-28T05:10:26Z</time>
   </trkpt>
   <trkpt lat="12.9007970" lon="99.6826870">
    <ele>103.2</ele>
    <time>2018-01-28T05:10:27Z</time>
   </trkpt>
   <trkpt lat="12.9007700" lon="99.6826380">
    <ele>103.4</ele>
    <time>2018-01-28T05:10:28Z</time>
   </trkpt>
   <trkpt lat="12.9007450" lon="99.6826080">
    <ele>103.5</ele>
    <time>2018-01-28T05:10:29Z</time>
   </trkpt>
   <trkpt lat="12.9007200" lon="99.6825580">
    <ele>103.6</ele>
    <time>2018-01-28T05:10:30Z</time>
   </trkpt>
   <trkpt lat="12.9006910" lon="99.6825180">
    <ele>103.8</ele>
    <time>2018-01-28T05:10:31Z</time>
   </trkpt>
   <trkpt lat="12.9006620" lon="99.6824690">
    <ele>103.9</ele>
    <time>2018-01-28T05:10:32Z</time>
   </trkpt>
   <trkpt lat="12.9006340" lon="99.6824250">
    <ele>104.0</ele>
    <time>2018-01-28T05:10:33Z</time>
   </trkpt>
   <trkpt lat="12.9006010" lon="99.6823870">
    <ele>104.1</ele>
    <time>2018-01-28T05:10:34Z</time>
   </trkpt>
   <trkpt lat="12.9005720" lon="99.6823460">
    <ele>104.1</ele>
    <time>2018-01-28T05:10:35Z</time>
   </trkpt>
   <trkpt lat="12.9005410" lon="99.6823100">
    <ele>104.2</ele>
    <time>2018-01-28T05:10:36Z</time>
   </trkpt>
   <trkpt lat="12.9005040" lon="99.6822750">
    <ele>104.3</ele>
    <time>2018-01-28T05:10:37Z</time>
   </trkpt>
   <trkpt lat="12.9004830" lon="99.6822400">
    <ele>104.3</ele>
    <time>2018-01-28T05:10:38Z</time>
   </trkpt>
   <trkpt lat="12.9004520" lon="99.6822140">
    <ele>104.4</ele>
    <time>2018-01-28T05:10:39Z</time>
   </trkpt>
   <trkpt lat="12.9004210" lon="99.6821770">
    <ele>104.5</ele>
    <time>2018-01-28T05:10:40Z</time>
   </trkpt>
   <trkpt lat="12.9003960" lon="99.6821350">
    <ele>104.5</ele>
    <time>2018-01-28T05:10:41Z</time>
   </trkpt>
   <trkpt lat="12.9003660" lon="99.6821010">
    <ele>104.6</ele>
    <time>2018-01-28T05:10:42Z</time>
   </trkpt>
   <trkpt lat="12.9003390" lon="99.6820640">
    <ele>104.7</ele>
    <time>2018-01-28T05:10:43Z</time>
   </trkpt>
   <trkpt lat="12.9003170" lon="99.6820300">
    <ele>104.7</ele>
    <time>2018-01-28T05:10:44Z</time>
   </trkpt>
   <trkpt lat="12.9002880" lon="99.6819930">
    <ele>104.8</ele>
    <time>2018-01-28T05:10:45Z</time>
   </trkpt>
   <trkpt lat="12.9002690" lon="99.6819540">
    <ele>104.9</ele>
    <time>2018-01-28T05:10:46Z</time>
   </trkpt>
   <trkpt lat="12.9002440" lon="99.6819100">
    <ele>104.9</ele>
    <time>2018-01-28T05:10:47Z</time>
   </trkpt>
   <trkpt lat="12.9002160" lon="99.6818680">
    <ele>105.0</ele>
    <time>2018-01-28T05:10:48Z</time>
   </trkpt>
   <trkpt lat="12.9001910" lon="99.6818340">
    <ele>105.6</ele>
    <time>2018-01-28T05:10:49Z</time>
   </trkpt>
   <trkpt lat="12.9001690" lon="99.6817990">
    <ele>105.0</ele>
    <time>2018-01-28T05:10:50Z</time>
   </trkpt>
   <trkpt lat="12.9001510" lon="99.6817740">
    <ele>105.1</ele>
    <time>2018-01-28T05:10:51Z</time>
   </trkpt>
   <trkpt lat="12.9001360" lon="99.6817480">
    <ele>105.1</ele>
    <time>2018-01-28T05:10:52Z</time>
   </trkpt>
   <trkpt lat="12.9001240" lon="99.6817200">
    <ele>105.1</ele>
    <time>2018-01-28T05:10:53Z</time>
   </trkpt>
   <trkpt lat="12.9001550" lon="99.6816500">
    <ele>105.3</ele>
    <time>2018-01-28T05:10:55Z</time>
   </trkpt>
   <trkpt lat="12.9001630" lon="99.6816010">
    <ele>105.3</ele>
    <time>2018-01-28T05:10:56Z</time>
   </trkpt>
   <trkpt lat="12.9001940" lon="99.6815750">
    <ele>105.4</ele>
    <time>2018-01-28T05:10:57Z</time>
   </trkpt>
   <trkpt lat="12.9002220" lon="99.6815520">
    <ele>105.4</ele>
    <time>2018-01-28T05:10:58Z</time>
   </trkpt>
   <trkpt lat="12.9002560" lon="99.6815280">
    <ele>105.5</ele>
    <time>2018-01-28T05:10:59Z</time>
   </trkpt>
   <trkpt lat="12.9002890" lon="99.6815030">
    <ele>105.5</ele>
    <time>2018-01-28T05:11:00Z</time>
   </trkpt>
   <trkpt lat="12.9003100" lon="99.6814710">
    <ele>105.6</ele>
    <time>2018-01-28T05:11:01Z</time>
   </trkpt>
   <trkpt lat="12.9003210" lon="99.6814310">
    <ele>105.6</ele>
    <time>2018-01-28T05:11:02Z</time>
   </trkpt>
   <trkpt lat="12.9003160" lon="99.6814000">
    <ele>105.6</ele>
    <time>2018-01-28T05:11:03Z</time>
   </trkpt>
   <trkpt lat="12.9003020" lon="99.6813660">
    <ele>105.7</ele>
    <time>2018-01-28T05:11:04Z</time>
   </trkpt>
   <trkpt lat="12.9002910" lon="99.6813220">
    <ele>105.7</ele>
    <time>2018-01-28T05:11:05Z</time>
   </trkpt>
   <trkpt lat="12.9002730" lon="99.6812860">
    <ele>105.7</ele>
    <time>2018-01-28T05:11:06Z</time>
   </trkpt>
   <trkpt lat="12.9002580" lon="99.6812500">
    <ele>105.8</ele>
    <time>2018-01-28T05:11:07Z</time>
   </trkpt>
   <trkpt lat="12.9002450" lon="99.6812110">
    <ele>105.8</ele>
    <time>2018-01-28T05:11:08Z</time>
   </trkpt>
   <trkpt lat="12.9002330" lon="99.6811770">
    <ele>105.8</ele>
    <time>2018-01-28T05:11:09Z</time>
   </trkpt>
   <trkpt lat="12.9002220" lon="99.6811410">
    <ele>105.8</ele>
    <time>2018-01-28T05:11:10Z</time>
   </trkpt>
   <trkpt lat="12.9002080" lon="99.6811020">
    <ele>105.9</ele>
    <time>2018-01-28T05:11:11Z</time>
   </trkpt>
   <trkpt lat="12.9001970" lon="99.6810640">
    <ele>105.9</ele>
    <time>2018-01-28T05:11:12Z</time>
   </trkpt>
   <trkpt lat="12.9001870" lon="99.6810250">
    <ele>105.9</ele>
    <time>2018-01-28T05:11:13Z</time>
   </trkpt>
   <trkpt lat="12.9001790" lon="99.6809840">
    <ele>106.0</ele>
    <time>2018-01-28T05:11:14Z</time>
   </trkpt>
   <trkpt lat="12.9001690" lon="99.6809420">
    <ele>106.0</ele>
    <time>2018-01-28T05:11:15Z</time>
   </trkpt>
   <trkpt lat="12.9001570" lon="99.6808970">
    <ele>106.0</ele>
    <time>2018-01-28T05:11:18Z</time>
   </trkpt>
   <trkpt lat="12.9001420" lon="99.6808550">
    <ele>106.1</ele>
    <time>2018-01-28T05:11:19Z</time>
   </trkpt>
   <trkpt lat="12.9001280" lon="99.6808200">
    <ele>106.1</ele>
    <time>2018-01-28T05:11:20Z</time>
   </trkpt>
   <trkpt lat="12.9001100" lon="99.6807890">
    <ele>106.1</ele>
    <time>2018-01-28T05:11:21Z</time>
   </trkpt>
   <trkpt lat="12.9000800" lon="99.6807640">
    <ele>106.2</ele>
    <time>2018-01-28T05:11:22Z</time>
   </trkpt>
   <trkpt lat="12.9000450" lon="99.6807520">
    <ele>106.2</ele>
    <time>2018-01-28T05:11:23Z</time>
   </trkpt>
   <trkpt lat="12.9000090" lon="99.6807530">
    <ele>106.2</ele>
    <time>2018-01-28T05:11:24Z</time>
   </trkpt>
   <trkpt lat="12.8999740" lon="99.6807620">
    <ele>106.3</ele>
    <time>2018-01-28T05:11:25Z</time>
   </trkpt>
   <trkpt lat="12.8999360" lon="99.6807740">
    <ele>107.9</ele>
    <time>2018-01-28T05:11:26Z</time>
   </trkpt>
   <trkpt lat="12.8998970" lon="99.6807850">
    <ele>107.9</ele>
    <time>2018-01-28T05:11:27Z</time>
   </trkpt>
   <trkpt lat="12.8998560" lon="99.6807910">
    <ele>107.8</ele>
    <time>2018-01-28T05:11:28Z</time>
   </trkpt>
   <trkpt lat="12.8998110" lon="99.6807910">
    <ele>107.7</ele>
    <time>2018-01-28T05:11:29Z</time>
   </trkpt>
   <trkpt lat="12.8997670" lon="99.6807890">
    <ele>107.9</ele>
    <time>2018-01-28T05:11:30Z</time>
   </trkpt>
   <trkpt lat="12.8997210" lon="99.6807840">
    <ele>108.0</ele>
    <time>2018-01-28T05:11:31Z</time>
   </trkpt>
   <trkpt lat="12.8996750" lon="99.6807740">
    <ele>108.2</ele>
    <time>2018-01-28T05:11:32Z</time>
   </trkpt>
   <trkpt lat="12.8996270" lon="99.6807580">
    <ele>108.6</ele>
    <time>2018-01-28T05:11:33Z</time>
   </trkpt>
   <trkpt lat="12.8995850" lon="99.6807370">
    <ele>108.8</ele>
    <time>2018-01-28T05:11:34Z</time>
   </trkpt>
   <trkpt lat="12.8995420" lon="99.6807110">
    <ele>108.9</ele>
    <time>2018-01-28T05:11:35Z</time>
   </trkpt>
   <trkpt lat="12.8995030" lon="99.6806860">
    <ele>109.1</ele>
    <time>2018-01-28T05:11:36Z</time>
   </trkpt>
   <trkpt lat="12.8994690" lon="99.6806630">
    <ele>109.4</ele>
    <time>2018-01-28T05:11:37Z</time>
   </trkpt>
   <trkpt lat="12.8994340" lon="99.6806390">
    <ele>109.6</ele>
    <time>2018-01-28T05:11:38Z</time>
   </trkpt>
   <trkpt lat="12.8994020" lon="99.6806090">
    <ele>109.8</ele>
    <time>2018-01-28T05:11:39Z</time>
   </trkpt>
   <trkpt lat="12.8993750" lon="99.6805780">
    <ele>109.9</ele>
    <time>2018-01-28T05:11:40Z</time>
   </trkpt>
   <trkpt lat="12.8993480" lon="99.6805470">
    <ele>109.8</ele>
    <time>2018-01-28T05:11:41Z</time>
   </trkpt>
   <trkpt lat="12.8993240" lon="99.6805170">
    <ele>109.7</ele>
    <time>2018-01-28T05:11:42Z</time>
   </trkpt>
   <trkpt lat="12.8992990" lon="99.6804880">
    <ele>109.7</ele>
    <time>2018-01-28T05:11:43Z</time>
   </trkpt>
   <trkpt lat="12.8992760" lon="99.6804590">
    <ele>109.7</ele>
    <time>2018-01-28T05:11:44Z</time>
   </trkpt>
   <trkpt lat="12.8992520" lon="99.6804310">
    <ele>109.6</ele>
    <time>2018-01-28T05:11:45Z</time>
   </trkpt>
   <trkpt lat="12.8992320" lon="99.6804020">
    <ele>109.3</ele>
    <time>2018-01-28T05:11:46Z</time>
   </trkpt>
   <trkpt lat="12.8992160" lon="99.6803740">
    <ele>109.3</ele>
    <time>2018-01-28T05:11:47Z</time>
   </trkpt>
   <trkpt lat="12.8991960" lon="99.6803430">
    <ele>108.8</ele>
    <time>2018-01-28T05:11:48Z</time>
   </trkpt>
   <trkpt lat="12.8991720" lon="99.6803120">
    <ele>108.6</ele>
    <time>2018-01-28T05:11:49Z</time>
   </trkpt>
   <trkpt lat="12.8991440" lon="99.6802790">
    <ele>108.0</ele>
    <time>2018-01-28T05:11:50Z</time>
   </trkpt>
   <trkpt lat="12.8991230" lon="99.6802520">
    <ele>108.0</ele>
    <time>2018-01-28T05:11:51Z</time>
   </trkpt>
   <trkpt lat="12.8991050" lon="99.6802050">
    <ele>107.5</ele>
    <time>2018-01-28T05:11:53Z</time>
   </trkpt>
   <trkpt lat="12.8991150" lon="99.6801630">
    <ele>107.3</ele>
    <time>2018-01-28T05:11:55Z</time>
   </trkpt>
   <trkpt lat="12.8990920" lon="99.6801250">
    <ele>107.3</ele>
    <time>2018-01-28T05:11:57Z</time>
   </trkpt>
   <trkpt lat="12.8991300" lon="99.6801280">
    <ele>107.4</ele>
    <time>2018-01-28T05:11:59Z</time>
   </trkpt>
   <trkpt lat="12.8991370" lon="99.6801550">
    <ele>107.4</ele>
    <time>2018-01-28T05:12:12Z</time>
   </trkpt>
   <trkpt lat="12.8991670" lon="99.6801610">
    <ele>107.8</ele>
    <time>2018-01-28T05:14:29Z</time>
   </trkpt>
   <trkpt lat="12.8991930" lon="99.6802000">
    <ele>108.0</ele>
    <time>2018-01-28T05:14:32Z</time>
   </trkpt>
   <trkpt lat="12.8992110" lon="99.6802430">
    <ele>108.6</ele>
    <time>2018-01-28T05:14:34Z</time>
   </trkpt>
   <trkpt lat="12.8992410" lon="99.6802460">
    <ele>108.6</ele>
    <time>2018-01-28T05:14:37Z</time>
   </trkpt>
   <trkpt lat="12.8992620" lon="99.6802260">
    <ele>108.4</ele>
    <time>2018-01-28T05:14:39Z</time>
   </trkpt>
   <trkpt lat="12.8992930" lon="99.6801980">
    <ele>108.1</ele>
    <time>2018-01-28T05:14:41Z</time>
   </trkpt>
   <trkpt lat="12.8993300" lon="99.6801930">
    <ele>108.0</ele>
    <time>2018-01-28T05:14:43Z</time>
   </trkpt>
   <trkpt lat="12.8993120" lon="99.6802150">
    <ele>108.4</ele>
    <time>2018-01-28T05:14:49Z</time>
   </trkpt>
  </trkseg>
 </trk>
</gpx>
